<?xml version="1.0" encoding="UTF-8" standalone="no" ?>
<gpx xmlns="http://www.topografix.com/GPX/1/1" xmlns:xsi="http://www.w3.org/2001/XMLSchema-instance" xsi:schemaLocation="http://www.topografix.com/GPX/1/1 http://www.topografix.com/GPX/1/1/gpx.xsd" version="1.1" creator="VisuGPX - https://www.visugpx.com">
  <metadata>
    <name>Marche Audax 28 km Limours-Gometz-Chevry-Gif-Saint Rèmy-Boullay les Troux</name>
    <desc><![CDATA[Marche #Audax

Difficulté : Facile]]></desc>
  </metadata>
  <trk>
    <name><![CDATA[Audax 28 km Limours_1]]></name>
    <extensions>
      <line xmlns="http://www.topografix.com/GPX/gpx_style/0/2">
        <color>0000FF</color>
        <width>4</width>
      </line>
    </extensions>
    <trkseg>
      <trkpt lat="48.64345" lon="2.06653">
        <ele>163.4</ele>
        <time>2025-01-03T15:24:29.000Z</time>
      </trkpt>
      <trkpt lat="48.64345" lon="2.06653">
        <ele>163.4</ele>
        <time>2025-01-03T15:24:29.000Z</time>
      </trkpt>
      <trkpt lat="48.64349" lon="2.06656">
        <ele>163.1</ele>
        <time>2025-01-03T15:24:31.623Z</time>
      </trkpt>
      <trkpt lat="48.64353" lon="2.0666">
        <ele>162.8</ele>
        <time>2025-01-03T15:24:34.247Z</time>
      </trkpt>
      <trkpt lat="48.64357" lon="2.06663">
        <ele>162.4</ele>
        <time>2025-01-03T15:24:36.871Z</time>
      </trkpt>
      <trkpt lat="48.64361" lon="2.06667">
        <ele>162</ele>
        <time>2025-01-03T15:24:39.495Z</time>
      </trkpt>
      <trkpt lat="48.64365" lon="2.0667">
        <ele>161.9</ele>
        <time>2025-01-03T15:24:42.119Z</time>
      </trkpt>
      <trkpt lat="48.64369" lon="2.06673">
        <ele>161.7</ele>
        <time>2025-01-03T15:24:44.743Z</time>
      </trkpt>
      <trkpt lat="48.64373" lon="2.06677">
        <ele>161.6</ele>
        <time>2025-01-03T15:24:47.367Z</time>
      </trkpt>
      <trkpt lat="48.64377" lon="2.0668">
        <ele>161.4</ele>
        <time>2025-01-03T15:24:49.991Z</time>
      </trkpt>
      <trkpt lat="48.64384" lon="2.06687">
        <ele>161.2</ele>
        <time>2025-01-03T15:24:54.893Z</time>
      </trkpt>
      <trkpt lat="48.64392" lon="2.06694">
        <ele>160.8</ele>
        <time>2025-01-03T15:24:59.795Z</time>
      </trkpt>
      <trkpt lat="48.64399" lon="2.06701">
        <ele>160.1</ele>
        <time>2025-01-03T15:25:04.697Z</time>
      </trkpt>
      <trkpt lat="48.64406" lon="2.06708">
        <ele>159.6</ele>
        <time>2025-01-03T15:25:09.599Z</time>
      </trkpt>
      <trkpt lat="48.64413" lon="2.06714">
        <ele>159.2</ele>
        <time>2025-01-03T15:25:14.501Z</time>
      </trkpt>
      <trkpt lat="48.64421" lon="2.06721">
        <ele>158.7</ele>
        <time>2025-01-03T15:25:19.403Z</time>
      </trkpt>
      <trkpt lat="48.64428" lon="2.06728">
        <ele>158.1</ele>
        <time>2025-01-03T15:25:24.305Z</time>
      </trkpt>
      <trkpt lat="48.64435" lon="2.06735">
        <ele>157.5</ele>
        <time>2025-01-03T15:25:29.207Z</time>
      </trkpt>
      <trkpt lat="48.64439" lon="2.06739">
        <ele>157.3</ele>
        <time>2025-01-03T15:25:31.864Z</time>
      </trkpt>
      <trkpt lat="48.64443" lon="2.06742">
        <ele>157.1</ele>
        <time>2025-01-03T15:25:34.521Z</time>
      </trkpt>
      <trkpt lat="48.6445" lon="2.06749">
        <ele>156.6</ele>
        <time>2025-01-03T15:25:39.329Z</time>
      </trkpt>
      <trkpt lat="48.6445" lon="2.06749">
        <ele>156.6</ele>
        <time>2025-01-03T15:25:39.329Z</time>
        <extensions>
          <visugpx:TrkExtension xmlns:visugpx="https://www.visugpx.com/editgpx/">
            <visugpx:node>1</visugpx:node>
            </visugpx:TrkExtension>
        </extensions>
      </trkpt>
      <trkpt lat="48.64455" lon="2.06753">
        <ele>156.2</ele>
        <time>2025-01-03T15:25:42.319Z</time>
      </trkpt>
      <trkpt lat="48.64459" lon="2.06757">
        <ele>155.7</ele>
        <time>2025-01-03T15:25:45.309Z</time>
      </trkpt>
      <trkpt lat="48.64459" lon="2.06752">
        <ele>155.9</ele>
        <time>2025-01-03T15:25:47.934Z</time>
      </trkpt>
      <trkpt lat="48.64459" lon="2.06752">
        <ele>155.9</ele>
        <time>2025-01-03T15:25:47.934Z</time>
        <extensions>
          <visugpx:TrkExtension xmlns:visugpx="https://www.visugpx.com/editgpx/">
            <visugpx:node>2</visugpx:node>
            </visugpx:TrkExtension>
        </extensions>
      </trkpt>
      <trkpt lat="48.64459" lon="2.06752">
        <ele>155.9</ele>
        <time>2025-01-03T15:25:47.934Z</time>
      </trkpt>
      <trkpt lat="48.6446" lon="2.06743">
        <ele>155.9</ele>
        <time>2025-01-03T15:25:51.997Z</time>
      </trkpt>
      <trkpt lat="48.64461" lon="2.06733">
        <ele>155.8</ele>
        <time>2025-01-03T15:25:56.060Z</time>
      </trkpt>
      <trkpt lat="48.64462" lon="2.06726">
        <ele>155.8</ele>
        <time>2025-01-03T15:25:59.159Z</time>
      </trkpt>
      <trkpt lat="48.64462" lon="2.06719">
        <ele>155.8</ele>
        <time>2025-01-03T15:26:02.259Z</time>
      </trkpt>
      <trkpt lat="48.64463" lon="2.06712">
        <ele>155.8</ele>
        <time>2025-01-03T15:26:05.359Z</time>
      </trkpt>
      <trkpt lat="48.64463" lon="2.06705">
        <ele>155.9</ele>
        <time>2025-01-03T15:26:08.459Z</time>
      </trkpt>
      <trkpt lat="48.64464" lon="2.06697">
        <ele>155.9</ele>
        <time>2025-01-03T15:26:11.559Z</time>
      </trkpt>
      <trkpt lat="48.64464" lon="2.0669">
        <ele>155.9</ele>
        <time>2025-01-03T15:26:14.659Z</time>
      </trkpt>
      <trkpt lat="48.64465" lon="2.06683">
        <ele>155.8</ele>
        <time>2025-01-03T15:26:17.759Z</time>
      </trkpt>
      <trkpt lat="48.64465" lon="2.06676">
        <ele>155.8</ele>
        <time>2025-01-03T15:26:20.859Z</time>
      </trkpt>
      <trkpt lat="48.64465" lon="2.06676">
        <ele>155.8</ele>
        <time>2025-01-03T15:26:20.859Z</time>
        <extensions>
          <visugpx:TrkExtension xmlns:visugpx="https://www.visugpx.com/editgpx/">
            <visugpx:node>3</visugpx:node>
            </visugpx:TrkExtension>
        </extensions>
      </trkpt>
      <trkpt lat="48.64465" lon="2.06676">
        <ele>155.8</ele>
        <time>2025-01-03T15:26:20.859Z</time>
      </trkpt>
      <trkpt lat="48.64466" lon="2.06664">
        <ele>155.7</ele>
        <time>2025-01-03T15:26:26.084Z</time>
      </trkpt>
      <trkpt lat="48.64468" lon="2.06651">
        <ele>155.5</ele>
        <time>2025-01-03T15:26:31.310Z</time>
      </trkpt>
      <trkpt lat="48.64469" lon="2.06639">
        <ele>155.4</ele>
        <time>2025-01-03T15:26:36.536Z</time>
      </trkpt>
      <trkpt lat="48.6447" lon="2.06626">
        <ele>155.3</ele>
        <time>2025-01-03T15:26:41.762Z</time>
      </trkpt>
      <trkpt lat="48.64471" lon="2.06618">
        <ele>155.2</ele>
        <time>2025-01-03T15:26:45.355Z</time>
      </trkpt>
      <trkpt lat="48.64471" lon="2.06609">
        <ele>155.2</ele>
        <time>2025-01-03T15:26:48.948Z</time>
      </trkpt>
      <trkpt lat="48.64472" lon="2.06597">
        <ele>155</ele>
        <time>2025-01-03T15:26:54.603Z</time>
      </trkpt>
      <trkpt lat="48.64473" lon="2.06585">
        <ele>155</ele>
        <time>2025-01-03T15:27:00.258Z</time>
      </trkpt>
      <trkpt lat="48.64474" lon="2.06572">
        <ele>155.4</ele>
        <time>2025-01-03T15:27:05.913Z</time>
      </trkpt>
      <trkpt lat="48.64475" lon="2.0656">
        <ele>155.8</ele>
        <time>2025-01-03T15:27:11.568Z</time>
      </trkpt>
      <trkpt lat="48.64476" lon="2.06553">
        <ele>155.9</ele>
        <time>2025-01-03T15:27:14.621Z</time>
      </trkpt>
      <trkpt lat="48.64476" lon="2.06546">
        <ele>155.8</ele>
        <time>2025-01-03T15:27:17.674Z</time>
      </trkpt>
      <trkpt lat="48.64477" lon="2.06539">
        <ele>155.7</ele>
        <time>2025-01-03T15:27:20.727Z</time>
      </trkpt>
      <trkpt lat="48.64478" lon="2.06533">
        <ele>155.7</ele>
        <time>2025-01-03T15:27:23.780Z</time>
      </trkpt>
      <trkpt lat="48.64478" lon="2.06526">
        <ele>155.6</ele>
        <time>2025-01-03T15:27:26.834Z</time>
      </trkpt>
      <trkpt lat="48.64479" lon="2.06519">
        <ele>155.8</ele>
        <time>2025-01-03T15:27:29.888Z</time>
      </trkpt>
      <trkpt lat="48.64479" lon="2.06512">
        <ele>155.9</ele>
        <time>2025-01-03T15:27:32.942Z</time>
      </trkpt>
      <trkpt lat="48.6448" lon="2.06505">
        <ele>156</ele>
        <time>2025-01-03T15:27:35.996Z</time>
      </trkpt>
      <trkpt lat="48.64481" lon="2.06495">
        <ele>156.1</ele>
        <time>2025-01-03T15:27:40.809Z</time>
      </trkpt>
      <trkpt lat="48.64482" lon="2.06485">
        <ele>156.2</ele>
        <time>2025-01-03T15:27:45.623Z</time>
      </trkpt>
      <trkpt lat="48.64482" lon="2.06475">
        <ele>156.2</ele>
        <time>2025-01-03T15:27:50.437Z</time>
      </trkpt>
      <trkpt lat="48.64483" lon="2.06465">
        <ele>156.5</ele>
        <time>2025-01-03T15:27:55.251Z</time>
      </trkpt>
      <trkpt lat="48.64484" lon="2.06455">
        <ele>156.8</ele>
        <time>2025-01-03T15:28:00.065Z</time>
      </trkpt>
      <trkpt lat="48.64485" lon="2.06445">
        <ele>157.1</ele>
        <time>2025-01-03T15:28:04.879Z</time>
      </trkpt>
      <trkpt lat="48.64485" lon="2.06435">
        <ele>157.4</ele>
        <time>2025-01-03T15:28:09.693Z</time>
      </trkpt>
      <trkpt lat="48.64486" lon="2.06425">
        <ele>157.7</ele>
        <time>2025-01-03T15:28:14.507Z</time>
      </trkpt>
      <trkpt lat="48.64487" lon="2.06418">
        <ele>157.9</ele>
        <time>2025-01-03T15:28:17.930Z</time>
      </trkpt>
      <trkpt lat="48.64488" lon="2.06411">
        <ele>158</ele>
        <time>2025-01-03T15:28:21.353Z</time>
      </trkpt>
      <trkpt lat="48.64495" lon="2.06413">
        <ele>157.5</ele>
        <time>2025-01-03T15:28:25.434Z</time>
      </trkpt>
      <trkpt lat="48.64496" lon="2.06405">
        <ele>157.6</ele>
        <time>2025-01-03T15:28:29.278Z</time>
      </trkpt>
      <trkpt lat="48.64497" lon="2.06397">
        <ele>157.8</ele>
        <time>2025-01-03T15:28:33.122Z</time>
      </trkpt>
      <trkpt lat="48.64499" lon="2.06398">
        <ele>157.7</ele>
        <time>2025-01-03T15:28:34.329Z</time>
      </trkpt>
      <trkpt lat="48.64499" lon="2.06398">
        <ele>157.7</ele>
        <time>2025-01-03T15:28:34.329Z</time>
        <extensions>
          <visugpx:TrkExtension xmlns:visugpx="https://www.visugpx.com/editgpx/">
            <visugpx:node>4</visugpx:node>
            </visugpx:TrkExtension>
        </extensions>
      </trkpt>
      <trkpt lat="48.64499" lon="2.06398">
        <ele>157.7</ele>
        <time>2025-01-03T15:28:34.329Z</time>
      </trkpt>
      <trkpt lat="48.64505" lon="2.06403">
        <ele>157.3</ele>
        <time>2025-01-03T15:28:38.410Z</time>
      </trkpt>
      <trkpt lat="48.64511" lon="2.06407">
        <ele>156.9</ele>
        <time>2025-01-03T15:28:42.491Z</time>
      </trkpt>
      <trkpt lat="48.64517" lon="2.06412">
        <ele>156.5</ele>
        <time>2025-01-03T15:28:46.572Z</time>
      </trkpt>
      <trkpt lat="48.64524" lon="2.06417">
        <ele>156.2</ele>
        <time>2025-01-03T15:28:50.653Z</time>
      </trkpt>
      <trkpt lat="48.6453" lon="2.06421">
        <ele>156</ele>
        <time>2025-01-03T15:28:54.734Z</time>
      </trkpt>
      <trkpt lat="48.64536" lon="2.06426">
        <ele>156</ele>
        <time>2025-01-03T15:28:58.815Z</time>
      </trkpt>
      <trkpt lat="48.64542" lon="2.0643">
        <ele>156</ele>
        <time>2025-01-03T15:29:02.896Z</time>
      </trkpt>
      <trkpt lat="48.64548" lon="2.06435">
        <ele>156</ele>
        <time>2025-01-03T15:29:06.977Z</time>
      </trkpt>
      <trkpt lat="48.64555" lon="2.06441">
        <ele>156</ele>
        <time>2025-01-03T15:29:11.754Z</time>
      </trkpt>
      <trkpt lat="48.64561" lon="2.06446">
        <ele>156</ele>
        <time>2025-01-03T15:29:16.531Z</time>
      </trkpt>
      <trkpt lat="48.64568" lon="2.06452">
        <ele>155.9</ele>
        <time>2025-01-03T15:29:21.308Z</time>
      </trkpt>
      <trkpt lat="48.64574" lon="2.06457">
        <ele>155.8</ele>
        <time>2025-01-03T15:29:26.085Z</time>
      </trkpt>
      <trkpt lat="48.64579" lon="2.06464">
        <ele>155.9</ele>
        <time>2025-01-03T15:29:30.753Z</time>
      </trkpt>
      <trkpt lat="48.64583" lon="2.06473">
        <ele>156</ele>
        <time>2025-01-03T15:29:35.293Z</time>
      </trkpt>
      <trkpt lat="48.64587" lon="2.06483">
        <ele>155.6</ele>
        <time>2025-01-03T15:29:39.833Z</time>
      </trkpt>
      <trkpt lat="48.64591" lon="2.06492">
        <ele>155.4</ele>
        <time>2025-01-03T15:29:44.373Z</time>
      </trkpt>
      <trkpt lat="48.64595" lon="2.06501">
        <ele>155.4</ele>
        <time>2025-01-03T15:29:48.913Z</time>
      </trkpt>
      <trkpt lat="48.64599" lon="2.06506">
        <ele>155.5</ele>
        <time>2025-01-03T15:29:52.778Z</time>
      </trkpt>
      <trkpt lat="48.64604" lon="2.0651">
        <ele>155.6</ele>
        <time>2025-01-03T15:29:56.643Z</time>
      </trkpt>
      <trkpt lat="48.64608" lon="2.06515">
        <ele>155.8</ele>
        <time>2025-01-03T15:30:00.508Z</time>
      </trkpt>
      <trkpt lat="48.64612" lon="2.06519">
        <ele>156</ele>
        <time>2025-01-03T15:30:04.373Z</time>
      </trkpt>
      <trkpt lat="48.64616" lon="2.06524">
        <ele>156.3</ele>
        <time>2025-01-03T15:30:08.238Z</time>
      </trkpt>
      <trkpt lat="48.64621" lon="2.06528">
        <ele>156.7</ele>
        <time>2025-01-03T15:30:12.104Z</time>
      </trkpt>
      <trkpt lat="48.64625" lon="2.06533">
        <ele>156.8</ele>
        <time>2025-01-03T15:30:15.970Z</time>
      </trkpt>
      <trkpt lat="48.64629" lon="2.06537">
        <ele>157.1</ele>
        <time>2025-01-03T15:30:19.836Z</time>
      </trkpt>
      <trkpt lat="48.64635" lon="2.06542">
        <ele>157.6</ele>
        <time>2025-01-03T15:30:23.892Z</time>
      </trkpt>
      <trkpt lat="48.64641" lon="2.06548">
        <ele>157.9</ele>
        <time>2025-01-03T15:30:27.948Z</time>
      </trkpt>
      <trkpt lat="48.64647" lon="2.06553">
        <ele>157.9</ele>
        <time>2025-01-03T15:30:32.004Z</time>
      </trkpt>
      <trkpt lat="48.64654" lon="2.06559">
        <ele>157.9</ele>
        <time>2025-01-03T15:30:36.060Z</time>
      </trkpt>
      <trkpt lat="48.6466" lon="2.06564">
        <ele>158</ele>
        <time>2025-01-03T15:30:40.116Z</time>
      </trkpt>
      <trkpt lat="48.64666" lon="2.06569">
        <ele>158.4</ele>
        <time>2025-01-03T15:30:44.172Z</time>
      </trkpt>
      <trkpt lat="48.64672" lon="2.06575">
        <ele>158.5</ele>
        <time>2025-01-03T15:30:48.228Z</time>
      </trkpt>
      <trkpt lat="48.64678" lon="2.0658">
        <ele>158.7</ele>
        <time>2025-01-03T15:30:52.285Z</time>
      </trkpt>
      <trkpt lat="48.64684" lon="2.06585">
        <ele>158.7</ele>
        <time>2025-01-03T15:30:56.342Z</time>
      </trkpt>
      <trkpt lat="48.6469" lon="2.06591">
        <ele>158.2</ele>
        <time>2025-01-03T15:31:00.399Z</time>
      </trkpt>
      <trkpt lat="48.64696" lon="2.06596">
        <ele>157.3</ele>
        <time>2025-01-03T15:31:04.456Z</time>
      </trkpt>
      <trkpt lat="48.64703" lon="2.06602">
        <ele>155.9</ele>
        <time>2025-01-03T15:31:08.513Z</time>
      </trkpt>
      <trkpt lat="48.64709" lon="2.06607">
        <ele>154.7</ele>
        <time>2025-01-03T15:31:12.570Z</time>
      </trkpt>
      <trkpt lat="48.64715" lon="2.06612">
        <ele>153.6</ele>
        <time>2025-01-03T15:31:16.627Z</time>
      </trkpt>
      <trkpt lat="48.64721" lon="2.06618">
        <ele>152.4</ele>
        <time>2025-01-03T15:31:20.684Z</time>
      </trkpt>
      <trkpt lat="48.64727" lon="2.06623">
        <ele>151</ele>
        <time>2025-01-03T15:31:24.741Z</time>
      </trkpt>
      <trkpt lat="48.64733" lon="2.06628">
        <ele>149.8</ele>
        <time>2025-01-03T15:31:28.590Z</time>
      </trkpt>
      <trkpt lat="48.64739" lon="2.06632">
        <ele>148.7</ele>
        <time>2025-01-03T15:31:32.439Z</time>
      </trkpt>
      <trkpt lat="48.64745" lon="2.06637">
        <ele>147.7</ele>
        <time>2025-01-03T15:31:36.288Z</time>
      </trkpt>
      <trkpt lat="48.64751" lon="2.06642">
        <ele>146.9</ele>
        <time>2025-01-03T15:31:40.137Z</time>
      </trkpt>
      <trkpt lat="48.64756" lon="2.06646">
        <ele>147</ele>
        <time>2025-01-03T15:31:43.987Z</time>
      </trkpt>
      <trkpt lat="48.64762" lon="2.06651">
        <ele>147.3</ele>
        <time>2025-01-03T15:31:47.837Z</time>
      </trkpt>
      <trkpt lat="48.64768" lon="2.06655">
        <ele>148</ele>
        <time>2025-01-03T15:31:51.687Z</time>
      </trkpt>
      <trkpt lat="48.64774" lon="2.0666">
        <ele>148.9</ele>
        <time>2025-01-03T15:31:55.537Z</time>
      </trkpt>
      <trkpt lat="48.64782" lon="2.06666">
        <ele>150.9</ele>
        <time>2025-01-03T15:32:08.433Z</time>
      </trkpt>
      <trkpt lat="48.6479" lon="2.06672">
        <ele>153.1</ele>
        <time>2025-01-03T15:32:21.329Z</time>
      </trkpt>
      <trkpt lat="48.64797" lon="2.06678">
        <ele>155</ele>
        <time>2025-01-03T15:32:34.226Z</time>
      </trkpt>
      <trkpt lat="48.64805" lon="2.06684">
        <ele>156.9</ele>
        <time>2025-01-03T15:32:47.123Z</time>
      </trkpt>
      <trkpt lat="48.64809" lon="2.06687">
        <ele>157.3</ele>
        <time>2025-01-03T15:32:50.855Z</time>
      </trkpt>
      <trkpt lat="48.64813" lon="2.0669">
        <ele>157.7</ele>
        <time>2025-01-03T15:32:54.587Z</time>
      </trkpt>
      <trkpt lat="48.64817" lon="2.06693">
        <ele>158.2</ele>
        <time>2025-01-03T15:32:58.319Z</time>
      </trkpt>
      <trkpt lat="48.64822" lon="2.06696">
        <ele>158.6</ele>
        <time>2025-01-03T15:33:02.051Z</time>
      </trkpt>
      <trkpt lat="48.64826" lon="2.06699">
        <ele>158.8</ele>
        <time>2025-01-03T15:33:05.783Z</time>
      </trkpt>
      <trkpt lat="48.6483" lon="2.06702">
        <ele>159</ele>
        <time>2025-01-03T15:33:09.515Z</time>
      </trkpt>
      <trkpt lat="48.64834" lon="2.06705">
        <ele>159.3</ele>
        <time>2025-01-03T15:33:13.247Z</time>
      </trkpt>
      <trkpt lat="48.64838" lon="2.06708">
        <ele>159.4</ele>
        <time>2025-01-03T15:33:16.979Z</time>
      </trkpt>
      <trkpt lat="48.64844" lon="2.06713">
        <ele>159.6</ele>
        <time>2025-01-03T15:33:22.159Z</time>
      </trkpt>
      <trkpt lat="48.64851" lon="2.06719">
        <ele>160</ele>
        <time>2025-01-03T15:33:27.339Z</time>
      </trkpt>
      <trkpt lat="48.64857" lon="2.06724">
        <ele>160.5</ele>
        <time>2025-01-03T15:33:32.519Z</time>
      </trkpt>
      <trkpt lat="48.64864" lon="2.06729">
        <ele>160.6</ele>
        <time>2025-01-03T15:33:37.699Z</time>
      </trkpt>
      <trkpt lat="48.6487" lon="2.06734">
        <ele>160.6</ele>
        <time>2025-01-03T15:33:42.880Z</time>
      </trkpt>
      <trkpt lat="48.64876" lon="2.0674">
        <ele>160.6</ele>
        <time>2025-01-03T15:33:48.061Z</time>
      </trkpt>
      <trkpt lat="48.64883" lon="2.06745">
        <ele>160.8</ele>
        <time>2025-01-03T15:33:53.242Z</time>
      </trkpt>
      <trkpt lat="48.64889" lon="2.0675">
        <ele>161</ele>
        <time>2025-01-03T15:33:58.423Z</time>
      </trkpt>
      <trkpt lat="48.64894" lon="2.06755">
        <ele>161.4</ele>
        <time>2025-01-03T15:34:03.756Z</time>
      </trkpt>
      <trkpt lat="48.649" lon="2.0676">
        <ele>161.8</ele>
        <time>2025-01-03T15:34:09.089Z</time>
      </trkpt>
      <trkpt lat="48.64905" lon="2.06765">
        <ele>162.2</ele>
        <time>2025-01-03T15:34:14.422Z</time>
      </trkpt>
      <trkpt lat="48.6491" lon="2.06771">
        <ele>162.5</ele>
        <time>2025-01-03T15:34:19.755Z</time>
      </trkpt>
      <trkpt lat="48.64916" lon="2.06776">
        <ele>162.9</ele>
        <time>2025-01-03T15:34:25.088Z</time>
      </trkpt>
      <trkpt lat="48.64921" lon="2.06781">
        <ele>163.3</ele>
        <time>2025-01-03T15:34:30.421Z</time>
      </trkpt>
      <trkpt lat="48.64926" lon="2.06786">
        <ele>163.7</ele>
        <time>2025-01-03T15:34:35.754Z</time>
      </trkpt>
      <trkpt lat="48.64932" lon="2.06791">
        <ele>164.3</ele>
        <time>2025-01-03T15:34:41.087Z</time>
      </trkpt>
      <trkpt lat="48.64937" lon="2.06796">
        <ele>164.9</ele>
        <time>2025-01-03T15:34:46.420Z</time>
      </trkpt>
      <trkpt lat="48.64942" lon="2.06801">
        <ele>165.5</ele>
        <time>2025-01-03T15:34:51.753Z</time>
      </trkpt>
      <trkpt lat="48.64947" lon="2.06806">
        <ele>166.2</ele>
        <time>2025-01-03T15:34:57.086Z</time>
      </trkpt>
      <trkpt lat="48.64953" lon="2.06812">
        <ele>166.7</ele>
        <time>2025-01-03T15:35:02.419Z</time>
      </trkpt>
      <trkpt lat="48.64958" lon="2.06817">
        <ele>167.3</ele>
        <time>2025-01-03T15:35:07.752Z</time>
      </trkpt>
      <trkpt lat="48.64963" lon="2.06822">
        <ele>167.8</ele>
        <time>2025-01-03T15:35:13.085Z</time>
      </trkpt>
      <trkpt lat="48.64969" lon="2.06827">
        <ele>168.4</ele>
        <time>2025-01-03T15:35:18.419Z</time>
      </trkpt>
      <trkpt lat="48.64974" lon="2.06832">
        <ele>169</ele>
        <time>2025-01-03T15:35:23.753Z</time>
      </trkpt>
      <trkpt lat="48.64978" lon="2.06837">
        <ele>169.4</ele>
        <time>2025-01-03T15:35:28.111Z</time>
      </trkpt>
      <trkpt lat="48.64982" lon="2.06841">
        <ele>169.8</ele>
        <time>2025-01-03T15:35:31.785Z</time>
      </trkpt>
      <trkpt lat="48.64986" lon="2.06845">
        <ele>170.1</ele>
        <time>2025-01-03T15:35:35.459Z</time>
      </trkpt>
      <trkpt lat="48.6499" lon="2.06849">
        <ele>170.4</ele>
        <time>2025-01-03T15:35:39.133Z</time>
      </trkpt>
      <trkpt lat="48.64994" lon="2.06853">
        <ele>170.6</ele>
        <time>2025-01-03T15:35:42.807Z</time>
      </trkpt>
      <trkpt lat="48.64997" lon="2.06856">
        <ele>170.8</ele>
        <time>2025-01-03T15:35:46.482Z</time>
      </trkpt>
      <trkpt lat="48.65001" lon="2.0686">
        <ele>171</ele>
        <time>2025-01-03T15:35:50.157Z</time>
      </trkpt>
      <trkpt lat="48.65005" lon="2.06864">
        <ele>171.3</ele>
        <time>2025-01-03T15:35:53.832Z</time>
      </trkpt>
      <trkpt lat="48.65009" lon="2.06868">
        <ele>171.6</ele>
        <time>2025-01-03T15:35:57.507Z</time>
      </trkpt>
      <trkpt lat="48.65014" lon="2.06873">
        <ele>171.9</ele>
        <time>2025-01-03T15:36:01.672Z</time>
      </trkpt>
      <trkpt lat="48.65019" lon="2.06878">
        <ele>172.3</ele>
        <time>2025-01-03T15:36:05.837Z</time>
      </trkpt>
      <trkpt lat="48.65023" lon="2.06883">
        <ele>172.6</ele>
        <time>2025-01-03T15:36:10.002Z</time>
      </trkpt>
      <trkpt lat="48.65028" lon="2.06888">
        <ele>173</ele>
        <time>2025-01-03T15:36:14.167Z</time>
      </trkpt>
      <trkpt lat="48.65033" lon="2.06893">
        <ele>173</ele>
        <time>2025-01-03T15:36:18.333Z</time>
      </trkpt>
      <trkpt lat="48.65038" lon="2.06898">
        <ele>173</ele>
        <time>2025-01-03T15:36:22.499Z</time>
      </trkpt>
      <trkpt lat="48.65042" lon="2.06903">
        <ele>173</ele>
        <time>2025-01-03T15:36:26.665Z</time>
      </trkpt>
      <trkpt lat="48.65047" lon="2.06908">
        <ele>173</ele>
        <time>2025-01-03T15:36:30.831Z</time>
      </trkpt>
      <trkpt lat="48.65051" lon="2.06913">
        <ele>173</ele>
        <time>2025-01-03T15:36:34.217Z</time>
      </trkpt>
      <trkpt lat="48.65055" lon="2.06917">
        <ele>173</ele>
        <time>2025-01-03T15:36:37.603Z</time>
      </trkpt>
      <trkpt lat="48.65058" lon="2.06922">
        <ele>173.2</ele>
        <time>2025-01-03T15:36:40.989Z</time>
      </trkpt>
      <trkpt lat="48.65062" lon="2.06927">
        <ele>173.4</ele>
        <time>2025-01-03T15:36:44.375Z</time>
      </trkpt>
      <trkpt lat="48.65066" lon="2.06931">
        <ele>173.5</ele>
        <time>2025-01-03T15:36:47.761Z</time>
      </trkpt>
      <trkpt lat="48.6507" lon="2.06936">
        <ele>173.7</ele>
        <time>2025-01-03T15:36:51.147Z</time>
      </trkpt>
      <trkpt lat="48.65074" lon="2.06941">
        <ele>173.9</ele>
        <time>2025-01-03T15:36:54.533Z</time>
      </trkpt>
      <trkpt lat="48.65078" lon="2.06946">
        <ele>174</ele>
        <time>2025-01-03T15:36:57.919Z</time>
      </trkpt>
      <trkpt lat="48.65081" lon="2.0695">
        <ele>174</ele>
        <time>2025-01-03T15:37:01.305Z</time>
      </trkpt>
      <trkpt lat="48.65085" lon="2.06955">
        <ele>174</ele>
        <time>2025-01-03T15:37:04.691Z</time>
      </trkpt>
      <trkpt lat="48.65089" lon="2.0696">
        <ele>174</ele>
        <time>2025-01-03T15:37:08.077Z</time>
      </trkpt>
      <trkpt lat="48.65093" lon="2.06964">
        <ele>174</ele>
        <time>2025-01-03T15:37:11.463Z</time>
      </trkpt>
      <trkpt lat="48.65097" lon="2.06969">
        <ele>174</ele>
        <time>2025-01-03T15:37:14.849Z</time>
      </trkpt>
      <trkpt lat="48.651" lon="2.06974">
        <ele>174</ele>
        <time>2025-01-03T15:37:18.235Z</time>
      </trkpt>
      <trkpt lat="48.65104" lon="2.06978">
        <ele>174.2</ele>
        <time>2025-01-03T15:37:21.621Z</time>
      </trkpt>
      <trkpt lat="48.65108" lon="2.06983">
        <ele>174.3</ele>
        <time>2025-01-03T15:37:25.008Z</time>
      </trkpt>
      <trkpt lat="48.65113" lon="2.06989">
        <ele>174.6</ele>
        <time>2025-01-03T15:37:29.858Z</time>
      </trkpt>
      <trkpt lat="48.65117" lon="2.06994">
        <ele>174.8</ele>
        <time>2025-01-03T15:37:33.202Z</time>
      </trkpt>
      <trkpt lat="48.65121" lon="2.06998">
        <ele>175</ele>
        <time>2025-01-03T15:37:36.546Z</time>
      </trkpt>
      <trkpt lat="48.65124" lon="2.07003">
        <ele>175</ele>
        <time>2025-01-03T15:37:39.891Z</time>
      </trkpt>
      <trkpt lat="48.65128" lon="2.07007">
        <ele>175</ele>
        <time>2025-01-03T15:37:43.236Z</time>
      </trkpt>
      <trkpt lat="48.65132" lon="2.07013">
        <ele>175</ele>
        <time>2025-01-03T15:37:47.370Z</time>
      </trkpt>
      <trkpt lat="48.65137" lon="2.0702">
        <ele>175</ele>
        <time>2025-01-03T15:37:51.504Z</time>
      </trkpt>
      <trkpt lat="48.65141" lon="2.07026">
        <ele>175</ele>
        <time>2025-01-03T15:37:55.638Z</time>
      </trkpt>
      <trkpt lat="48.65146" lon="2.07033">
        <ele>175</ele>
        <time>2025-01-03T15:37:59.773Z</time>
      </trkpt>
      <trkpt lat="48.6515" lon="2.07039">
        <ele>175</ele>
        <time>2025-01-03T15:38:03.908Z</time>
      </trkpt>
      <trkpt lat="48.65155" lon="2.07045">
        <ele>175</ele>
        <time>2025-01-03T15:38:08.043Z</time>
      </trkpt>
      <trkpt lat="48.65159" lon="2.07052">
        <ele>175</ele>
        <time>2025-01-03T15:38:12.178Z</time>
      </trkpt>
      <trkpt lat="48.65164" lon="2.07058">
        <ele>175</ele>
        <time>2025-01-03T15:38:16.313Z</time>
      </trkpt>
      <trkpt lat="48.65168" lon="2.07064">
        <ele>175</ele>
        <time>2025-01-03T15:38:20.448Z</time>
      </trkpt>
      <trkpt lat="48.65172" lon="2.07071">
        <ele>175.2</ele>
        <time>2025-01-03T15:38:24.583Z</time>
      </trkpt>
      <trkpt lat="48.65177" lon="2.07077">
        <ele>175.4</ele>
        <time>2025-01-03T15:38:28.718Z</time>
      </trkpt>
      <trkpt lat="48.65181" lon="2.07084">
        <ele>175.5</ele>
        <time>2025-01-03T15:38:32.853Z</time>
      </trkpt>
      <trkpt lat="48.65186" lon="2.0709">
        <ele>175.7</ele>
        <time>2025-01-03T15:38:36.988Z</time>
      </trkpt>
      <trkpt lat="48.6519" lon="2.07096">
        <ele>175.8</ele>
        <time>2025-01-03T15:38:41.123Z</time>
      </trkpt>
      <trkpt lat="48.65195" lon="2.07103">
        <ele>176</ele>
        <time>2025-01-03T15:38:45.258Z</time>
      </trkpt>
      <trkpt lat="48.65199" lon="2.07109">
        <ele>176</ele>
        <time>2025-01-03T15:38:49.393Z</time>
      </trkpt>
      <trkpt lat="48.65204" lon="2.07117">
        <ele>176</ele>
        <time>2025-01-03T15:38:54.199Z</time>
      </trkpt>
      <trkpt lat="48.65209" lon="2.07125">
        <ele>176</ele>
        <time>2025-01-03T15:38:59.005Z</time>
      </trkpt>
      <trkpt lat="48.65214" lon="2.07133">
        <ele>176</ele>
        <time>2025-01-03T15:39:03.811Z</time>
      </trkpt>
      <trkpt lat="48.65219" lon="2.07141">
        <ele>176</ele>
        <time>2025-01-03T15:39:08.617Z</time>
      </trkpt>
      <trkpt lat="48.65224" lon="2.07149">
        <ele>176</ele>
        <time>2025-01-03T15:39:13.423Z</time>
      </trkpt>
      <trkpt lat="48.65229" lon="2.07157">
        <ele>176</ele>
        <time>2025-01-03T15:39:18.229Z</time>
      </trkpt>
      <trkpt lat="48.65234" lon="2.07165">
        <ele>176</ele>
        <time>2025-01-03T15:39:23.035Z</time>
      </trkpt>
      <trkpt lat="48.65239" lon="2.07174">
        <ele>176</ele>
        <time>2025-01-03T15:39:27.841Z</time>
      </trkpt>
      <trkpt lat="48.65243" lon="2.07182">
        <ele>176</ele>
        <time>2025-01-03T15:39:32.648Z</time>
      </trkpt>
      <trkpt lat="48.65248" lon="2.0719">
        <ele>176</ele>
        <time>2025-01-03T15:39:37.455Z</time>
      </trkpt>
      <trkpt lat="48.65253" lon="2.07198">
        <ele>176.1</ele>
        <time>2025-01-03T15:39:42.262Z</time>
      </trkpt>
      <trkpt lat="48.65258" lon="2.07206">
        <ele>176.3</ele>
        <time>2025-01-03T15:39:47.069Z</time>
      </trkpt>
      <trkpt lat="48.65263" lon="2.07214">
        <ele>176.5</ele>
        <time>2025-01-03T15:39:51.876Z</time>
      </trkpt>
      <trkpt lat="48.65268" lon="2.07222">
        <ele>176.7</ele>
        <time>2025-01-03T15:39:56.683Z</time>
      </trkpt>
      <trkpt lat="48.65273" lon="2.0723">
        <ele>176.6</ele>
        <time>2025-01-03T15:40:01.490Z</time>
      </trkpt>
      <trkpt lat="48.65278" lon="2.07238">
        <ele>176.4</ele>
        <time>2025-01-03T15:40:06.297Z</time>
      </trkpt>
      <trkpt lat="48.65279" lon="2.0724">
        <ele>176.4</ele>
        <time>2025-01-03T15:40:07.382Z</time>
      </trkpt>
      <trkpt lat="48.65283" lon="2.07245">
        <ele>176.2</ele>
        <time>2025-01-03T15:40:10.415Z</time>
      </trkpt>
      <trkpt lat="48.65286" lon="2.07251">
        <ele>176</ele>
        <time>2025-01-03T15:40:13.448Z</time>
      </trkpt>
      <trkpt lat="48.6529" lon="2.07256">
        <ele>176</ele>
        <time>2025-01-03T15:40:16.482Z</time>
      </trkpt>
      <trkpt lat="48.65293" lon="2.07261">
        <ele>176</ele>
        <time>2025-01-03T15:40:19.516Z</time>
      </trkpt>
      <trkpt lat="48.65298" lon="2.0727">
        <ele>176</ele>
        <time>2025-01-03T15:40:24.592Z</time>
      </trkpt>
      <trkpt lat="48.65303" lon="2.07279">
        <ele>176</ele>
        <time>2025-01-03T15:40:29.668Z</time>
      </trkpt>
      <trkpt lat="48.65308" lon="2.07288">
        <ele>176</ele>
        <time>2025-01-03T15:40:34.744Z</time>
      </trkpt>
      <trkpt lat="48.65313" lon="2.07298">
        <ele>176</ele>
        <time>2025-01-03T15:40:39.820Z</time>
      </trkpt>
      <trkpt lat="48.65317" lon="2.07307">
        <ele>176</ele>
        <time>2025-01-03T15:40:44.897Z</time>
      </trkpt>
      <trkpt lat="48.65322" lon="2.07316">
        <ele>176</ele>
        <time>2025-01-03T15:40:49.974Z</time>
      </trkpt>
      <trkpt lat="48.65327" lon="2.07325">
        <ele>176</ele>
        <time>2025-01-03T15:40:55.051Z</time>
      </trkpt>
      <trkpt lat="48.65332" lon="2.07334">
        <ele>176</ele>
        <time>2025-01-03T15:41:00.128Z</time>
      </trkpt>
      <trkpt lat="48.65336" lon="2.07343">
        <ele>176</ele>
        <time>2025-01-03T15:41:04.642Z</time>
      </trkpt>
      <trkpt lat="48.6534" lon="2.07351">
        <ele>176</ele>
        <time>2025-01-03T15:41:09.156Z</time>
      </trkpt>
      <trkpt lat="48.65344" lon="2.0736">
        <ele>176</ele>
        <time>2025-01-03T15:41:13.670Z</time>
      </trkpt>
      <trkpt lat="48.65348" lon="2.07368">
        <ele>176</ele>
        <time>2025-01-03T15:41:18.185Z</time>
      </trkpt>
      <trkpt lat="48.65353" lon="2.07377">
        <ele>176</ele>
        <time>2025-01-03T15:41:23.317Z</time>
      </trkpt>
      <trkpt lat="48.65358" lon="2.07385">
        <ele>176</ele>
        <time>2025-01-03T15:41:28.449Z</time>
      </trkpt>
      <trkpt lat="48.65362" lon="2.07394">
        <ele>176.2</ele>
        <time>2025-01-03T15:41:33.581Z</time>
      </trkpt>
      <trkpt lat="48.65367" lon="2.07402">
        <ele>176.6</ele>
        <time>2025-01-03T15:41:38.714Z</time>
      </trkpt>
      <trkpt lat="48.65372" lon="2.07411">
        <ele>176.9</ele>
        <time>2025-01-03T15:41:43.837Z</time>
      </trkpt>
      <trkpt lat="48.65376" lon="2.07421">
        <ele>176.9</ele>
        <time>2025-01-03T15:41:48.961Z</time>
      </trkpt>
      <trkpt lat="48.65381" lon="2.0743">
        <ele>176.9</ele>
        <time>2025-01-03T15:41:54.085Z</time>
      </trkpt>
      <trkpt lat="48.65385" lon="2.07439">
        <ele>176.9</ele>
        <time>2025-01-03T15:41:59.209Z</time>
      </trkpt>
      <trkpt lat="48.6539" lon="2.0745">
        <ele>176.8</ele>
        <time>2025-01-03T15:42:04.764Z</time>
      </trkpt>
      <trkpt lat="48.65395" lon="2.07461">
        <ele>176.5</ele>
        <time>2025-01-03T15:42:10.319Z</time>
      </trkpt>
      <trkpt lat="48.654" lon="2.07472">
        <ele>176.4</ele>
        <time>2025-01-03T15:42:15.874Z</time>
      </trkpt>
      <trkpt lat="48.65405" lon="2.07483">
        <ele>176.6</ele>
        <time>2025-01-03T15:42:21.429Z</time>
      </trkpt>
      <trkpt lat="48.6541" lon="2.07494">
        <ele>176.8</ele>
        <time>2025-01-03T15:42:26.984Z</time>
      </trkpt>
      <trkpt lat="48.65415" lon="2.07505">
        <ele>176.8</ele>
        <time>2025-01-03T15:42:32.539Z</time>
      </trkpt>
      <trkpt lat="48.6542" lon="2.07516">
        <ele>176.4</ele>
        <time>2025-01-03T15:42:38.094Z</time>
      </trkpt>
      <trkpt lat="48.65425" lon="2.07527">
        <ele>176</ele>
        <time>2025-01-03T15:42:43.650Z</time>
      </trkpt>
      <trkpt lat="48.65428" lon="2.07536">
        <ele>176</ele>
        <time>2025-01-03T15:42:48.055Z</time>
      </trkpt>
      <trkpt lat="48.65432" lon="2.07544">
        <ele>176</ele>
        <time>2025-01-03T15:42:52.460Z</time>
      </trkpt>
      <trkpt lat="48.65435" lon="2.07553">
        <ele>176</ele>
        <time>2025-01-03T15:42:56.865Z</time>
      </trkpt>
      <trkpt lat="48.65438" lon="2.07562">
        <ele>176</ele>
        <time>2025-01-03T15:43:01.270Z</time>
      </trkpt>
      <trkpt lat="48.65442" lon="2.0757">
        <ele>176</ele>
        <time>2025-01-03T15:43:05.675Z</time>
      </trkpt>
      <trkpt lat="48.65445" lon="2.07579">
        <ele>176</ele>
        <time>2025-01-03T15:43:10.080Z</time>
      </trkpt>
      <trkpt lat="48.65448" lon="2.07587">
        <ele>176</ele>
        <time>2025-01-03T15:43:14.485Z</time>
      </trkpt>
      <trkpt lat="48.65452" lon="2.07596">
        <ele>176</ele>
        <time>2025-01-03T15:43:18.890Z</time>
      </trkpt>
      <trkpt lat="48.65455" lon="2.07605">
        <ele>176</ele>
        <time>2025-01-03T15:43:23.295Z</time>
      </trkpt>
      <trkpt lat="48.65458" lon="2.07613">
        <ele>176</ele>
        <time>2025-01-03T15:43:27.700Z</time>
      </trkpt>
      <trkpt lat="48.65461" lon="2.07622">
        <ele>176</ele>
        <time>2025-01-03T15:43:32.105Z</time>
      </trkpt>
      <trkpt lat="48.65465" lon="2.07631">
        <ele>176</ele>
        <time>2025-01-03T15:43:36.510Z</time>
      </trkpt>
      <trkpt lat="48.65468" lon="2.07639">
        <ele>176</ele>
        <time>2025-01-03T15:43:40.915Z</time>
      </trkpt>
      <trkpt lat="48.65471" lon="2.07648">
        <ele>176.3</ele>
        <time>2025-01-03T15:43:45.320Z</time>
      </trkpt>
      <trkpt lat="48.65475" lon="2.07656">
        <ele>176.6</ele>
        <time>2025-01-03T15:43:49.725Z</time>
      </trkpt>
      <trkpt lat="48.65478" lon="2.07665">
        <ele>176.7</ele>
        <time>2025-01-03T15:43:54.130Z</time>
      </trkpt>
      <trkpt lat="48.6548" lon="2.07671">
        <ele>176.9</ele>
        <time>2025-01-03T15:43:57.359Z</time>
      </trkpt>
      <trkpt lat="48.65483" lon="2.07678">
        <ele>177</ele>
        <time>2025-01-03T15:44:00.588Z</time>
      </trkpt>
      <trkpt lat="48.65485" lon="2.07684">
        <ele>177.2</ele>
        <time>2025-01-03T15:44:03.817Z</time>
      </trkpt>
      <trkpt lat="48.65487" lon="2.07691">
        <ele>177.3</ele>
        <time>2025-01-03T15:44:07.047Z</time>
      </trkpt>
      <trkpt lat="48.65489" lon="2.07697">
        <ele>177.4</ele>
        <time>2025-01-03T15:44:10.277Z</time>
      </trkpt>
      <trkpt lat="48.65492" lon="2.07703">
        <ele>177.3</ele>
        <time>2025-01-03T15:44:13.507Z</time>
      </trkpt>
      <trkpt lat="48.65494" lon="2.0771">
        <ele>177.2</ele>
        <time>2025-01-03T15:44:16.737Z</time>
      </trkpt>
      <trkpt lat="48.65496" lon="2.07716">
        <ele>177.1</ele>
        <time>2025-01-03T15:44:19.967Z</time>
      </trkpt>
      <trkpt lat="48.65498" lon="2.07723">
        <ele>177</ele>
        <time>2025-01-03T15:44:23.103Z</time>
      </trkpt>
      <trkpt lat="48.655" lon="2.0773">
        <ele>176.7</ele>
        <time>2025-01-03T15:44:26.240Z</time>
      </trkpt>
      <trkpt lat="48.65502" lon="2.07737">
        <ele>176.5</ele>
        <time>2025-01-03T15:44:29.377Z</time>
      </trkpt>
      <trkpt lat="48.65505" lon="2.07744">
        <ele>176.3</ele>
        <time>2025-01-03T15:44:32.514Z</time>
      </trkpt>
      <trkpt lat="48.65507" lon="2.0775">
        <ele>176.2</ele>
        <time>2025-01-03T15:44:35.651Z</time>
      </trkpt>
      <trkpt lat="48.65509" lon="2.07757">
        <ele>176.3</ele>
        <time>2025-01-03T15:44:38.788Z</time>
      </trkpt>
      <trkpt lat="48.65511" lon="2.07764">
        <ele>176.4</ele>
        <time>2025-01-03T15:44:41.925Z</time>
      </trkpt>
      <trkpt lat="48.65513" lon="2.07771">
        <ele>176.5</ele>
        <time>2025-01-03T15:44:45.062Z</time>
      </trkpt>
      <trkpt lat="48.65516" lon="2.07782">
        <ele>176.6</ele>
        <time>2025-01-03T15:44:50.208Z</time>
      </trkpt>
      <trkpt lat="48.6552" lon="2.07793">
        <ele>176.7</ele>
        <time>2025-01-03T15:44:55.355Z</time>
      </trkpt>
      <trkpt lat="48.65523" lon="2.07804">
        <ele>176.8</ele>
        <time>2025-01-03T15:45:00.502Z</time>
      </trkpt>
      <trkpt lat="48.65527" lon="2.07815">
        <ele>177</ele>
        <time>2025-01-03T15:45:05.649Z</time>
      </trkpt>
      <trkpt lat="48.6553" lon="2.07826">
        <ele>177</ele>
        <time>2025-01-03T15:45:10.796Z</time>
      </trkpt>
      <trkpt lat="48.65533" lon="2.07837">
        <ele>176.9</ele>
        <time>2025-01-03T15:45:15.943Z</time>
      </trkpt>
      <trkpt lat="48.65537" lon="2.07848">
        <ele>176.5</ele>
        <time>2025-01-03T15:45:21.090Z</time>
      </trkpt>
      <trkpt lat="48.6554" lon="2.07859">
        <ele>176.1</ele>
        <time>2025-01-03T15:45:26.237Z</time>
      </trkpt>
      <trkpt lat="48.65543" lon="2.07868">
        <ele>176</ele>
        <time>2025-01-03T15:45:30.293Z</time>
      </trkpt>
      <trkpt lat="48.65546" lon="2.07876">
        <ele>176</ele>
        <time>2025-01-03T15:45:34.349Z</time>
      </trkpt>
      <trkpt lat="48.65549" lon="2.07885">
        <ele>176</ele>
        <time>2025-01-03T15:45:38.405Z</time>
      </trkpt>
      <trkpt lat="48.65552" lon="2.07893">
        <ele>176</ele>
        <time>2025-01-03T15:45:42.461Z</time>
      </trkpt>
      <trkpt lat="48.65554" lon="2.07902">
        <ele>176</ele>
        <time>2025-01-03T15:45:46.517Z</time>
      </trkpt>
      <trkpt lat="48.65557" lon="2.0791">
        <ele>175.9</ele>
        <time>2025-01-03T15:45:50.573Z</time>
      </trkpt>
      <trkpt lat="48.6556" lon="2.07919">
        <ele>175.8</ele>
        <time>2025-01-03T15:45:54.629Z</time>
      </trkpt>
      <trkpt lat="48.65563" lon="2.07927">
        <ele>175.8</ele>
        <time>2025-01-03T15:45:58.685Z</time>
      </trkpt>
      <trkpt lat="48.65567" lon="2.07934">
        <ele>175.9</ele>
        <time>2025-01-03T15:46:02.585Z</time>
      </trkpt>
      <trkpt lat="48.6557" lon="2.07941">
        <ele>175.9</ele>
        <time>2025-01-03T15:46:06.485Z</time>
      </trkpt>
      <trkpt lat="48.65572" lon="2.07948">
        <ele>176</ele>
        <time>2025-01-03T15:46:09.982Z</time>
      </trkpt>
      <trkpt lat="48.65574" lon="2.07956">
        <ele>176</ele>
        <time>2025-01-03T15:46:13.479Z</time>
      </trkpt>
      <trkpt lat="48.65576" lon="2.07963">
        <ele>176</ele>
        <time>2025-01-03T15:46:16.976Z</time>
      </trkpt>
      <trkpt lat="48.65579" lon="2.0797">
        <ele>176</ele>
        <time>2025-01-03T15:46:20.473Z</time>
      </trkpt>
      <trkpt lat="48.65581" lon="2.07978">
        <ele>176</ele>
        <time>2025-01-03T15:46:23.970Z</time>
      </trkpt>
      <trkpt lat="48.65583" lon="2.07985">
        <ele>176</ele>
        <time>2025-01-03T15:46:27.467Z</time>
      </trkpt>
      <trkpt lat="48.65585" lon="2.07992">
        <ele>176</ele>
        <time>2025-01-03T15:46:30.964Z</time>
      </trkpt>
      <trkpt lat="48.65587" lon="2.08">
        <ele>176</ele>
        <time>2025-01-03T15:46:34.461Z</time>
      </trkpt>
      <trkpt lat="48.65589" lon="2.08007">
        <ele>176</ele>
        <time>2025-01-03T15:46:37.958Z</time>
      </trkpt>
      <trkpt lat="48.65591" lon="2.08014">
        <ele>176</ele>
        <time>2025-01-03T15:46:41.455Z</time>
      </trkpt>
      <trkpt lat="48.65594" lon="2.08022">
        <ele>176</ele>
        <time>2025-01-03T15:46:44.952Z</time>
      </trkpt>
      <trkpt lat="48.65596" lon="2.08029">
        <ele>176</ele>
        <time>2025-01-03T15:46:48.449Z</time>
      </trkpt>
      <trkpt lat="48.65598" lon="2.08036">
        <ele>176.1</ele>
        <time>2025-01-03T15:46:51.946Z</time>
      </trkpt>
      <trkpt lat="48.656" lon="2.08044">
        <ele>176.2</ele>
        <time>2025-01-03T15:46:55.443Z</time>
      </trkpt>
      <trkpt lat="48.65602" lon="2.08051">
        <ele>176.3</ele>
        <time>2025-01-03T15:46:58.940Z</time>
      </trkpt>
      <trkpt lat="48.65604" lon="2.08058">
        <ele>176.2</ele>
        <time>2025-01-03T15:47:02.437Z</time>
      </trkpt>
      <trkpt lat="48.65606" lon="2.08066">
        <ele>176.2</ele>
        <time>2025-01-03T15:47:05.934Z</time>
      </trkpt>
      <trkpt lat="48.65609" lon="2.08073">
        <ele>176.1</ele>
        <time>2025-01-03T15:47:09.431Z</time>
      </trkpt>
      <trkpt lat="48.65611" lon="2.0808">
        <ele>176</ele>
        <time>2025-01-03T15:47:12.928Z</time>
      </trkpt>
      <trkpt lat="48.65613" lon="2.08088">
        <ele>176</ele>
        <time>2025-01-03T15:47:16.425Z</time>
      </trkpt>
      <trkpt lat="48.65615" lon="2.08095">
        <ele>176</ele>
        <time>2025-01-03T15:47:19.922Z</time>
      </trkpt>
      <trkpt lat="48.65617" lon="2.08102">
        <ele>176</ele>
        <time>2025-01-03T15:47:23.419Z</time>
      </trkpt>
      <trkpt lat="48.65619" lon="2.0811">
        <ele>176</ele>
        <time>2025-01-03T15:47:26.916Z</time>
      </trkpt>
      <trkpt lat="48.65621" lon="2.08117">
        <ele>176.2</ele>
        <time>2025-01-03T15:47:30.413Z</time>
      </trkpt>
      <trkpt lat="48.65624" lon="2.08124">
        <ele>176.5</ele>
        <time>2025-01-03T15:47:33.910Z</time>
      </trkpt>
      <trkpt lat="48.65626" lon="2.08132">
        <ele>176.7</ele>
        <time>2025-01-03T15:47:37.407Z</time>
      </trkpt>
      <trkpt lat="48.65628" lon="2.08139">
        <ele>177</ele>
        <time>2025-01-03T15:47:40.904Z</time>
      </trkpt>
      <trkpt lat="48.6563" lon="2.08146">
        <ele>177</ele>
        <time>2025-01-03T15:47:44.401Z</time>
      </trkpt>
      <trkpt lat="48.65632" lon="2.08154">
        <ele>177</ele>
        <time>2025-01-03T15:47:47.898Z</time>
      </trkpt>
      <trkpt lat="48.65634" lon="2.08161">
        <ele>177</ele>
        <time>2025-01-03T15:47:51.396Z</time>
      </trkpt>
      <trkpt lat="48.65636" lon="2.08168">
        <ele>177</ele>
        <time>2025-01-03T15:47:54.894Z</time>
      </trkpt>
      <trkpt lat="48.65639" lon="2.08176">
        <ele>177</ele>
        <time>2025-01-03T15:47:58.392Z</time>
      </trkpt>
      <trkpt lat="48.65641" lon="2.08183">
        <ele>176.9</ele>
        <time>2025-01-03T15:48:01.890Z</time>
      </trkpt>
      <trkpt lat="48.65643" lon="2.0819">
        <ele>176.9</ele>
        <time>2025-01-03T15:48:05.388Z</time>
      </trkpt>
      <trkpt lat="48.65645" lon="2.08198">
        <ele>176.8</ele>
        <time>2025-01-03T15:48:08.886Z</time>
      </trkpt>
      <trkpt lat="48.65647" lon="2.08205">
        <ele>176.7</ele>
        <time>2025-01-03T15:48:12.384Z</time>
      </trkpt>
      <trkpt lat="48.65649" lon="2.08212">
        <ele>176.6</ele>
        <time>2025-01-03T15:48:15.882Z</time>
      </trkpt>
      <trkpt lat="48.65651" lon="2.0822">
        <ele>176.6</ele>
        <time>2025-01-03T15:48:19.380Z</time>
      </trkpt>
      <trkpt lat="48.65654" lon="2.08227">
        <ele>176.5</ele>
        <time>2025-01-03T15:48:22.878Z</time>
      </trkpt>
      <trkpt lat="48.65656" lon="2.08234">
        <ele>176.4</ele>
        <time>2025-01-03T15:48:26.376Z</time>
      </trkpt>
      <trkpt lat="48.65658" lon="2.08242">
        <ele>176.3</ele>
        <time>2025-01-03T15:48:29.874Z</time>
      </trkpt>
      <trkpt lat="48.6566" lon="2.08249">
        <ele>176.2</ele>
        <time>2025-01-03T15:48:33.372Z</time>
      </trkpt>
      <trkpt lat="48.65662" lon="2.08256">
        <ele>176.2</ele>
        <time>2025-01-03T15:48:36.870Z</time>
      </trkpt>
      <trkpt lat="48.65664" lon="2.08263">
        <ele>176.1</ele>
        <time>2025-01-03T15:48:40.368Z</time>
      </trkpt>
      <trkpt lat="48.65666" lon="2.08271">
        <ele>176</ele>
        <time>2025-01-03T15:48:43.866Z</time>
      </trkpt>
      <trkpt lat="48.65669" lon="2.08278">
        <ele>176</ele>
        <time>2025-01-03T15:48:47.364Z</time>
      </trkpt>
      <trkpt lat="48.65671" lon="2.08285">
        <ele>176</ele>
        <time>2025-01-03T15:48:50.862Z</time>
      </trkpt>
      <trkpt lat="48.65673" lon="2.08293">
        <ele>176</ele>
        <time>2025-01-03T15:48:54.360Z</time>
      </trkpt>
      <trkpt lat="48.65675" lon="2.083">
        <ele>176</ele>
        <time>2025-01-03T15:48:57.858Z</time>
      </trkpt>
      <trkpt lat="48.65677" lon="2.08307">
        <ele>176</ele>
        <time>2025-01-03T15:49:01.356Z</time>
      </trkpt>
      <trkpt lat="48.65679" lon="2.08315">
        <ele>176</ele>
        <time>2025-01-03T15:49:04.854Z</time>
      </trkpt>
      <trkpt lat="48.65681" lon="2.08322">
        <ele>176</ele>
        <time>2025-01-03T15:49:08.352Z</time>
      </trkpt>
      <trkpt lat="48.65684" lon="2.08329">
        <ele>176</ele>
        <time>2025-01-03T15:49:11.850Z</time>
      </trkpt>
      <trkpt lat="48.65686" lon="2.08337">
        <ele>176</ele>
        <time>2025-01-03T15:49:15.348Z</time>
      </trkpt>
      <trkpt lat="48.65688" lon="2.08344">
        <ele>176</ele>
        <time>2025-01-03T15:49:18.846Z</time>
      </trkpt>
      <trkpt lat="48.6569" lon="2.08351">
        <ele>176</ele>
        <time>2025-01-03T15:49:22.344Z</time>
      </trkpt>
      <trkpt lat="48.65692" lon="2.08359">
        <ele>176</ele>
        <time>2025-01-03T15:49:25.842Z</time>
      </trkpt>
      <trkpt lat="48.65694" lon="2.08366">
        <ele>176.2</ele>
        <time>2025-01-03T15:49:29.340Z</time>
      </trkpt>
      <trkpt lat="48.65696" lon="2.08373">
        <ele>176.4</ele>
        <time>2025-01-03T15:49:32.838Z</time>
      </trkpt>
      <trkpt lat="48.65698" lon="2.08381">
        <ele>176.6</ele>
        <time>2025-01-03T15:49:36.336Z</time>
      </trkpt>
      <trkpt lat="48.65701" lon="2.08388">
        <ele>176.8</ele>
        <time>2025-01-03T15:49:39.834Z</time>
      </trkpt>
      <trkpt lat="48.65703" lon="2.08395">
        <ele>176.8</ele>
        <time>2025-01-03T15:49:43.332Z</time>
      </trkpt>
      <trkpt lat="48.65705" lon="2.08403">
        <ele>176.8</ele>
        <time>2025-01-03T15:49:46.830Z</time>
      </trkpt>
      <trkpt lat="48.65707" lon="2.0841">
        <ele>176.9</ele>
        <time>2025-01-03T15:49:50.328Z</time>
      </trkpt>
      <trkpt lat="48.65709" lon="2.08417">
        <ele>177</ele>
        <time>2025-01-03T15:49:53.653Z</time>
      </trkpt>
      <trkpt lat="48.65711" lon="2.08424">
        <ele>177</ele>
        <time>2025-01-03T15:49:56.978Z</time>
      </trkpt>
      <trkpt lat="48.65713" lon="2.08431">
        <ele>177</ele>
        <time>2025-01-03T15:50:00.303Z</time>
      </trkpt>
      <trkpt lat="48.65715" lon="2.08438">
        <ele>177</ele>
        <time>2025-01-03T15:50:03.628Z</time>
      </trkpt>
      <trkpt lat="48.65717" lon="2.08445">
        <ele>177</ele>
        <time>2025-01-03T15:50:06.953Z</time>
      </trkpt>
      <trkpt lat="48.65719" lon="2.08452">
        <ele>177</ele>
        <time>2025-01-03T15:50:10.278Z</time>
      </trkpt>
      <trkpt lat="48.65721" lon="2.08459">
        <ele>177</ele>
        <time>2025-01-03T15:50:13.603Z</time>
      </trkpt>
      <trkpt lat="48.65724" lon="2.08467">
        <ele>177</ele>
        <time>2025-01-03T15:50:16.928Z</time>
      </trkpt>
      <trkpt lat="48.65726" lon="2.08474">
        <ele>177</ele>
        <time>2025-01-03T15:50:20.253Z</time>
      </trkpt>
      <trkpt lat="48.65728" lon="2.08481">
        <ele>177</ele>
        <time>2025-01-03T15:50:23.578Z</time>
      </trkpt>
      <trkpt lat="48.6573" lon="2.08488">
        <ele>177</ele>
        <time>2025-01-03T15:50:26.903Z</time>
      </trkpt>
      <trkpt lat="48.65732" lon="2.08495">
        <ele>177</ele>
        <time>2025-01-03T15:50:30.228Z</time>
      </trkpt>
      <trkpt lat="48.65734" lon="2.08502">
        <ele>177</ele>
        <time>2025-01-03T15:50:33.553Z</time>
      </trkpt>
      <trkpt lat="48.65736" lon="2.08509">
        <ele>177</ele>
        <time>2025-01-03T15:50:36.879Z</time>
      </trkpt>
      <trkpt lat="48.65738" lon="2.08516">
        <ele>177</ele>
        <time>2025-01-03T15:50:40.205Z</time>
      </trkpt>
      <trkpt lat="48.6574" lon="2.08523">
        <ele>177</ele>
        <time>2025-01-03T15:50:43.531Z</time>
      </trkpt>
      <trkpt lat="48.65742" lon="2.0853">
        <ele>177</ele>
        <time>2025-01-03T15:50:46.857Z</time>
      </trkpt>
      <trkpt lat="48.65744" lon="2.08537">
        <ele>177</ele>
        <time>2025-01-03T15:50:50.182Z</time>
      </trkpt>
      <trkpt lat="48.65746" lon="2.08544">
        <ele>177</ele>
        <time>2025-01-03T15:50:53.508Z</time>
      </trkpt>
      <trkpt lat="48.65748" lon="2.08551">
        <ele>177</ele>
        <time>2025-01-03T15:50:56.834Z</time>
      </trkpt>
      <trkpt lat="48.6575" lon="2.08558">
        <ele>177</ele>
        <time>2025-01-03T15:51:00.160Z</time>
      </trkpt>
      <trkpt lat="48.65752" lon="2.08565">
        <ele>177</ele>
        <time>2025-01-03T15:51:03.486Z</time>
      </trkpt>
      <trkpt lat="48.65754" lon="2.08572">
        <ele>177</ele>
        <time>2025-01-03T15:51:06.812Z</time>
      </trkpt>
      <trkpt lat="48.65757" lon="2.0858">
        <ele>177</ele>
        <time>2025-01-03T15:51:10.138Z</time>
      </trkpt>
      <trkpt lat="48.65759" lon="2.08587">
        <ele>177</ele>
        <time>2025-01-03T15:51:13.464Z</time>
      </trkpt>
      <trkpt lat="48.65761" lon="2.08594">
        <ele>177</ele>
        <time>2025-01-03T15:51:16.789Z</time>
      </trkpt>
      <trkpt lat="48.65763" lon="2.08601">
        <ele>177</ele>
        <time>2025-01-03T15:51:20.115Z</time>
      </trkpt>
      <trkpt lat="48.65765" lon="2.08608">
        <ele>177</ele>
        <time>2025-01-03T15:51:23.441Z</time>
      </trkpt>
      <trkpt lat="48.65767" lon="2.08615">
        <ele>177.1</ele>
        <time>2025-01-03T15:51:26.767Z</time>
      </trkpt>
      <trkpt lat="48.65769" lon="2.08622">
        <ele>177.1</ele>
        <time>2025-01-03T15:51:30.093Z</time>
      </trkpt>
      <trkpt lat="48.65771" lon="2.08629">
        <ele>177.2</ele>
        <time>2025-01-03T15:51:33.419Z</time>
      </trkpt>
      <trkpt lat="48.65773" lon="2.08636">
        <ele>177.2</ele>
        <time>2025-01-03T15:51:36.745Z</time>
      </trkpt>
      <trkpt lat="48.65775" lon="2.08643">
        <ele>177.1</ele>
        <time>2025-01-03T15:51:40.071Z</time>
      </trkpt>
      <trkpt lat="48.65777" lon="2.0865">
        <ele>177</ele>
        <time>2025-01-03T15:51:43.397Z</time>
      </trkpt>
      <trkpt lat="48.65779" lon="2.08657">
        <ele>177</ele>
        <time>2025-01-03T15:51:46.722Z</time>
      </trkpt>
      <trkpt lat="48.65781" lon="2.08664">
        <ele>177</ele>
        <time>2025-01-03T15:51:50.048Z</time>
      </trkpt>
      <trkpt lat="48.65783" lon="2.08671">
        <ele>177</ele>
        <time>2025-01-03T15:51:53.374Z</time>
      </trkpt>
      <trkpt lat="48.65785" lon="2.08678">
        <ele>177</ele>
        <time>2025-01-03T15:51:56.700Z</time>
      </trkpt>
      <trkpt lat="48.65787" lon="2.08685">
        <ele>177</ele>
        <time>2025-01-03T15:52:00.026Z</time>
      </trkpt>
      <trkpt lat="48.6579" lon="2.08693">
        <ele>177</ele>
        <time>2025-01-03T15:52:03.352Z</time>
      </trkpt>
      <trkpt lat="48.65792" lon="2.087">
        <ele>177</ele>
        <time>2025-01-03T15:52:06.678Z</time>
      </trkpt>
      <trkpt lat="48.65794" lon="2.08707">
        <ele>177</ele>
        <time>2025-01-03T15:52:10.004Z</time>
      </trkpt>
      <trkpt lat="48.65796" lon="2.08714">
        <ele>177</ele>
        <time>2025-01-03T15:52:13.330Z</time>
      </trkpt>
      <trkpt lat="48.65798" lon="2.08721">
        <ele>177</ele>
        <time>2025-01-03T15:52:16.656Z</time>
      </trkpt>
      <trkpt lat="48.658" lon="2.08728">
        <ele>177</ele>
        <time>2025-01-03T15:52:19.981Z</time>
      </trkpt>
      <trkpt lat="48.65802" lon="2.08735">
        <ele>177</ele>
        <time>2025-01-03T15:52:23.307Z</time>
      </trkpt>
      <trkpt lat="48.65804" lon="2.08742">
        <ele>177</ele>
        <time>2025-01-03T15:52:26.633Z</time>
      </trkpt>
      <trkpt lat="48.65806" lon="2.08749">
        <ele>177</ele>
        <time>2025-01-03T15:52:29.959Z</time>
      </trkpt>
      <trkpt lat="48.65808" lon="2.08756">
        <ele>177</ele>
        <time>2025-01-03T15:52:33.285Z</time>
      </trkpt>
      <trkpt lat="48.6581" lon="2.08763">
        <ele>177</ele>
        <time>2025-01-03T15:52:36.611Z</time>
      </trkpt>
      <trkpt lat="48.65812" lon="2.0877">
        <ele>177</ele>
        <time>2025-01-03T15:52:39.937Z</time>
      </trkpt>
      <trkpt lat="48.65814" lon="2.08777">
        <ele>177</ele>
        <time>2025-01-03T15:52:43.263Z</time>
      </trkpt>
      <trkpt lat="48.65816" lon="2.08784">
        <ele>177</ele>
        <time>2025-01-03T15:52:46.589Z</time>
      </trkpt>
      <trkpt lat="48.65818" lon="2.08791">
        <ele>177</ele>
        <time>2025-01-03T15:52:49.915Z</time>
      </trkpt>
      <trkpt lat="48.6582" lon="2.08798">
        <ele>177</ele>
        <time>2025-01-03T15:52:53.241Z</time>
      </trkpt>
      <trkpt lat="48.65823" lon="2.08806">
        <ele>177</ele>
        <time>2025-01-03T15:52:56.567Z</time>
      </trkpt>
      <trkpt lat="48.65825" lon="2.08813">
        <ele>177</ele>
        <time>2025-01-03T15:52:59.892Z</time>
      </trkpt>
      <trkpt lat="48.65827" lon="2.0882">
        <ele>177</ele>
        <time>2025-01-03T15:53:03.218Z</time>
      </trkpt>
      <trkpt lat="48.65829" lon="2.08827">
        <ele>177</ele>
        <time>2025-01-03T15:53:06.544Z</time>
      </trkpt>
      <trkpt lat="48.65831" lon="2.08834">
        <ele>177</ele>
        <time>2025-01-03T15:53:09.870Z</time>
      </trkpt>
      <trkpt lat="48.65833" lon="2.08841">
        <ele>177</ele>
        <time>2025-01-03T15:53:13.196Z</time>
      </trkpt>
      <trkpt lat="48.65835" lon="2.08848">
        <ele>177</ele>
        <time>2025-01-03T15:53:16.522Z</time>
      </trkpt>
      <trkpt lat="48.65837" lon="2.08855">
        <ele>177</ele>
        <time>2025-01-03T15:53:19.848Z</time>
      </trkpt>
      <trkpt lat="48.65839" lon="2.08862">
        <ele>177</ele>
        <time>2025-01-03T15:53:23.174Z</time>
      </trkpt>
      <trkpt lat="48.65841" lon="2.08869">
        <ele>177</ele>
        <time>2025-01-03T15:53:26.500Z</time>
      </trkpt>
      <trkpt lat="48.65843" lon="2.08876">
        <ele>177</ele>
        <time>2025-01-03T15:53:29.826Z</time>
      </trkpt>
      <trkpt lat="48.65845" lon="2.08883">
        <ele>177</ele>
        <time>2025-01-03T15:53:33.152Z</time>
      </trkpt>
      <trkpt lat="48.65847" lon="2.0889">
        <ele>177</ele>
        <time>2025-01-03T15:53:36.478Z</time>
      </trkpt>
      <trkpt lat="48.65849" lon="2.08897">
        <ele>177</ele>
        <time>2025-01-03T15:53:39.804Z</time>
      </trkpt>
      <trkpt lat="48.65851" lon="2.08904">
        <ele>177</ele>
        <time>2025-01-03T15:53:43.129Z</time>
      </trkpt>
      <trkpt lat="48.65853" lon="2.08911">
        <ele>177</ele>
        <time>2025-01-03T15:53:46.455Z</time>
      </trkpt>
      <trkpt lat="48.65856" lon="2.08919">
        <ele>176.9</ele>
        <time>2025-01-03T15:53:49.781Z</time>
      </trkpt>
      <trkpt lat="48.65858" lon="2.08926">
        <ele>176.7</ele>
        <time>2025-01-03T15:53:53.107Z</time>
      </trkpt>
      <trkpt lat="48.6586" lon="2.08933">
        <ele>176.4</ele>
        <time>2025-01-03T15:53:56.433Z</time>
      </trkpt>
      <trkpt lat="48.65862" lon="2.0894">
        <ele>176.2</ele>
        <time>2025-01-03T15:53:59.759Z</time>
      </trkpt>
      <trkpt lat="48.65864" lon="2.08947">
        <ele>176</ele>
        <time>2025-01-03T15:54:03.085Z</time>
      </trkpt>
      <trkpt lat="48.65866" lon="2.08954">
        <ele>176</ele>
        <time>2025-01-03T15:54:06.411Z</time>
      </trkpt>
      <trkpt lat="48.65868" lon="2.08961">
        <ele>176</ele>
        <time>2025-01-03T15:54:09.737Z</time>
      </trkpt>
      <trkpt lat="48.6587" lon="2.08968">
        <ele>176</ele>
        <time>2025-01-03T15:54:13.063Z</time>
      </trkpt>
      <trkpt lat="48.65872" lon="2.08975">
        <ele>176</ele>
        <time>2025-01-03T15:54:16.389Z</time>
      </trkpt>
      <trkpt lat="48.65874" lon="2.08982">
        <ele>176</ele>
        <time>2025-01-03T15:54:19.715Z</time>
      </trkpt>
      <trkpt lat="48.65876" lon="2.08989">
        <ele>176</ele>
        <time>2025-01-03T15:54:23.041Z</time>
      </trkpt>
      <trkpt lat="48.65878" lon="2.08996">
        <ele>176</ele>
        <time>2025-01-03T15:54:26.367Z</time>
      </trkpt>
      <trkpt lat="48.6588" lon="2.09003">
        <ele>176</ele>
        <time>2025-01-03T15:54:29.693Z</time>
      </trkpt>
      <trkpt lat="48.65882" lon="2.0901">
        <ele>176.1</ele>
        <time>2025-01-03T15:54:33.019Z</time>
      </trkpt>
      <trkpt lat="48.65884" lon="2.09017">
        <ele>176.1</ele>
        <time>2025-01-03T15:54:36.345Z</time>
      </trkpt>
      <trkpt lat="48.65886" lon="2.09024">
        <ele>176.1</ele>
        <time>2025-01-03T15:54:39.670Z</time>
      </trkpt>
      <trkpt lat="48.65889" lon="2.09032">
        <ele>176</ele>
        <time>2025-01-03T15:54:42.996Z</time>
      </trkpt>
      <trkpt lat="48.65891" lon="2.09039">
        <ele>176</ele>
        <time>2025-01-03T15:54:46.322Z</time>
      </trkpt>
      <trkpt lat="48.65893" lon="2.09046">
        <ele>176</ele>
        <time>2025-01-03T15:54:49.648Z</time>
      </trkpt>
      <trkpt lat="48.65895" lon="2.09053">
        <ele>176</ele>
        <time>2025-01-03T15:54:52.974Z</time>
      </trkpt>
      <trkpt lat="48.65897" lon="2.0906">
        <ele>176</ele>
        <time>2025-01-03T15:54:56.300Z</time>
      </trkpt>
      <trkpt lat="48.65899" lon="2.09067">
        <ele>176</ele>
        <time>2025-01-03T15:54:59.626Z</time>
      </trkpt>
      <trkpt lat="48.65901" lon="2.09074">
        <ele>176</ele>
        <time>2025-01-03T15:55:02.952Z</time>
      </trkpt>
      <trkpt lat="48.65903" lon="2.09081">
        <ele>176</ele>
        <time>2025-01-03T15:55:06.278Z</time>
      </trkpt>
      <trkpt lat="48.65905" lon="2.09088">
        <ele>176.1</ele>
        <time>2025-01-03T15:55:09.604Z</time>
      </trkpt>
      <trkpt lat="48.65907" lon="2.09095">
        <ele>176.1</ele>
        <time>2025-01-03T15:55:12.930Z</time>
      </trkpt>
      <trkpt lat="48.65909" lon="2.09102">
        <ele>176.2</ele>
        <time>2025-01-03T15:55:16.256Z</time>
      </trkpt>
      <trkpt lat="48.65911" lon="2.09109">
        <ele>176.2</ele>
        <time>2025-01-03T15:55:19.582Z</time>
      </trkpt>
      <trkpt lat="48.65913" lon="2.09116">
        <ele>176.3</ele>
        <time>2025-01-03T15:55:22.908Z</time>
      </trkpt>
      <trkpt lat="48.65915" lon="2.09123">
        <ele>176.4</ele>
        <time>2025-01-03T15:55:26.234Z</time>
      </trkpt>
      <trkpt lat="48.65917" lon="2.0913">
        <ele>176.7</ele>
        <time>2025-01-03T15:55:29.560Z</time>
      </trkpt>
      <trkpt lat="48.65919" lon="2.09137">
        <ele>176.9</ele>
        <time>2025-01-03T15:55:32.886Z</time>
      </trkpt>
      <trkpt lat="48.65922" lon="2.09145">
        <ele>176.8</ele>
        <time>2025-01-03T15:55:36.212Z</time>
      </trkpt>
      <trkpt lat="48.65924" lon="2.09152">
        <ele>176.8</ele>
        <time>2025-01-03T15:55:39.538Z</time>
      </trkpt>
      <trkpt lat="48.65926" lon="2.09159">
        <ele>176.7</ele>
        <time>2025-01-03T15:55:42.864Z</time>
      </trkpt>
      <trkpt lat="48.65928" lon="2.09166">
        <ele>176.6</ele>
        <time>2025-01-03T15:55:46.190Z</time>
      </trkpt>
      <trkpt lat="48.6593" lon="2.09173">
        <ele>176.5</ele>
        <time>2025-01-03T15:55:49.516Z</time>
      </trkpt>
      <trkpt lat="48.65932" lon="2.0918">
        <ele>176.5</ele>
        <time>2025-01-03T15:55:52.842Z</time>
      </trkpt>
      <trkpt lat="48.65934" lon="2.09187">
        <ele>176.4</ele>
        <time>2025-01-03T15:55:56.168Z</time>
      </trkpt>
      <trkpt lat="48.65936" lon="2.09194">
        <ele>176.3</ele>
        <time>2025-01-03T15:55:59.494Z</time>
      </trkpt>
      <trkpt lat="48.65938" lon="2.09201">
        <ele>176.2</ele>
        <time>2025-01-03T15:56:02.820Z</time>
      </trkpt>
      <trkpt lat="48.6594" lon="2.09208">
        <ele>176.2</ele>
        <time>2025-01-03T15:56:06.146Z</time>
      </trkpt>
      <trkpt lat="48.65942" lon="2.09215">
        <ele>176.1</ele>
        <time>2025-01-03T15:56:09.472Z</time>
      </trkpt>
      <trkpt lat="48.65944" lon="2.09222">
        <ele>176</ele>
        <time>2025-01-03T15:56:12.798Z</time>
      </trkpt>
      <trkpt lat="48.65946" lon="2.09229">
        <ele>176</ele>
        <time>2025-01-03T15:56:16.124Z</time>
      </trkpt>
      <trkpt lat="48.65948" lon="2.09236">
        <ele>176</ele>
        <time>2025-01-03T15:56:19.450Z</time>
      </trkpt>
      <trkpt lat="48.6595" lon="2.09243">
        <ele>176</ele>
        <time>2025-01-03T15:56:22.776Z</time>
      </trkpt>
      <trkpt lat="48.65952" lon="2.0925">
        <ele>176</ele>
        <time>2025-01-03T15:56:26.102Z</time>
      </trkpt>
      <trkpt lat="48.65955" lon="2.09258">
        <ele>176</ele>
        <time>2025-01-03T15:56:29.428Z</time>
      </trkpt>
      <trkpt lat="48.65957" lon="2.09265">
        <ele>176</ele>
        <time>2025-01-03T15:56:32.754Z</time>
      </trkpt>
      <trkpt lat="48.65959" lon="2.09272">
        <ele>176</ele>
        <time>2025-01-03T15:56:36.080Z</time>
      </trkpt>
      <trkpt lat="48.65961" lon="2.09279">
        <ele>176</ele>
        <time>2025-01-03T15:56:39.406Z</time>
      </trkpt>
      <trkpt lat="48.65963" lon="2.09286">
        <ele>176</ele>
        <time>2025-01-03T15:56:42.732Z</time>
      </trkpt>
      <trkpt lat="48.65965" lon="2.09293">
        <ele>176</ele>
        <time>2025-01-03T15:56:46.058Z</time>
      </trkpt>
      <trkpt lat="48.65967" lon="2.093">
        <ele>176</ele>
        <time>2025-01-03T15:56:49.384Z</time>
      </trkpt>
      <trkpt lat="48.65969" lon="2.09307">
        <ele>176</ele>
        <time>2025-01-03T15:56:52.710Z</time>
      </trkpt>
      <trkpt lat="48.65971" lon="2.09314">
        <ele>176</ele>
        <time>2025-01-03T15:56:56.036Z</time>
      </trkpt>
      <trkpt lat="48.65974" lon="2.09324">
        <ele>176</ele>
        <time>2025-01-03T15:57:00.389Z</time>
      </trkpt>
      <trkpt lat="48.65977" lon="2.09333">
        <ele>176</ele>
        <time>2025-01-03T15:57:04.742Z</time>
      </trkpt>
      <trkpt lat="48.65979" lon="2.09342">
        <ele>176</ele>
        <time>2025-01-03T15:57:09.095Z</time>
      </trkpt>
      <trkpt lat="48.65982" lon="2.09352">
        <ele>176</ele>
        <time>2025-01-03T15:57:13.448Z</time>
      </trkpt>
      <trkpt lat="48.65985" lon="2.09361">
        <ele>176</ele>
        <time>2025-01-03T15:57:17.801Z</time>
      </trkpt>
      <trkpt lat="48.65988" lon="2.09371">
        <ele>175.8</ele>
        <time>2025-01-03T15:57:22.154Z</time>
      </trkpt>
      <trkpt lat="48.6599" lon="2.0938">
        <ele>175.6</ele>
        <time>2025-01-03T15:57:26.507Z</time>
      </trkpt>
      <trkpt lat="48.65993" lon="2.0939">
        <ele>175.2</ele>
        <time>2025-01-03T15:57:30.860Z</time>
      </trkpt>
      <trkpt lat="48.65996" lon="2.09399">
        <ele>175.1</ele>
        <time>2025-01-03T15:57:35.213Z</time>
      </trkpt>
      <trkpt lat="48.65999" lon="2.09409">
        <ele>175</ele>
        <time>2025-01-03T15:57:39.566Z</time>
      </trkpt>
      <trkpt lat="48.66002" lon="2.09418">
        <ele>175</ele>
        <time>2025-01-03T15:57:43.919Z</time>
      </trkpt>
      <trkpt lat="48.66004" lon="2.09427">
        <ele>175</ele>
        <time>2025-01-03T15:57:48.272Z</time>
      </trkpt>
      <trkpt lat="48.66007" lon="2.09437">
        <ele>175</ele>
        <time>2025-01-03T15:57:52.625Z</time>
      </trkpt>
      <trkpt lat="48.6601" lon="2.09446">
        <ele>175</ele>
        <time>2025-01-03T15:57:56.978Z</time>
      </trkpt>
      <trkpt lat="48.66013" lon="2.09456">
        <ele>175</ele>
        <time>2025-01-03T15:58:01.331Z</time>
      </trkpt>
      <trkpt lat="48.66015" lon="2.09465">
        <ele>175</ele>
        <time>2025-01-03T15:58:05.684Z</time>
      </trkpt>
      <trkpt lat="48.66018" lon="2.09475">
        <ele>175</ele>
        <time>2025-01-03T15:58:10.037Z</time>
      </trkpt>
      <trkpt lat="48.66021" lon="2.09484">
        <ele>175</ele>
        <time>2025-01-03T15:58:14.390Z</time>
      </trkpt>
      <trkpt lat="48.66024" lon="2.09494">
        <ele>175</ele>
        <time>2025-01-03T15:58:18.743Z</time>
      </trkpt>
      <trkpt lat="48.66027" lon="2.09503">
        <ele>175</ele>
        <time>2025-01-03T15:58:23.096Z</time>
      </trkpt>
      <trkpt lat="48.66029" lon="2.09513">
        <ele>174.9</ele>
        <time>2025-01-03T15:58:27.449Z</time>
      </trkpt>
      <trkpt lat="48.66032" lon="2.09522">
        <ele>174.8</ele>
        <time>2025-01-03T15:58:31.802Z</time>
      </trkpt>
      <trkpt lat="48.66035" lon="2.09531">
        <ele>174.7</ele>
        <time>2025-01-03T15:58:36.155Z</time>
      </trkpt>
      <trkpt lat="48.66038" lon="2.09541">
        <ele>174.6</ele>
        <time>2025-01-03T15:58:40.508Z</time>
      </trkpt>
      <trkpt lat="48.6604" lon="2.0955">
        <ele>174.5</ele>
        <time>2025-01-03T15:58:44.861Z</time>
      </trkpt>
      <trkpt lat="48.66043" lon="2.0956">
        <ele>174.4</ele>
        <time>2025-01-03T15:58:49.214Z</time>
      </trkpt>
      <trkpt lat="48.66046" lon="2.09569">
        <ele>174.3</ele>
        <time>2025-01-03T15:58:53.567Z</time>
      </trkpt>
      <trkpt lat="48.66049" lon="2.09579">
        <ele>174.2</ele>
        <time>2025-01-03T15:58:57.920Z</time>
      </trkpt>
      <trkpt lat="48.66052" lon="2.09588">
        <ele>174.1</ele>
        <time>2025-01-03T15:59:02.273Z</time>
      </trkpt>
      <trkpt lat="48.66054" lon="2.09598">
        <ele>174</ele>
        <time>2025-01-03T15:59:06.626Z</time>
      </trkpt>
      <trkpt lat="48.66057" lon="2.09607">
        <ele>173.9</ele>
        <time>2025-01-03T15:59:10.979Z</time>
      </trkpt>
      <trkpt lat="48.6606" lon="2.09617">
        <ele>173.8</ele>
        <time>2025-01-03T15:59:15.332Z</time>
      </trkpt>
      <trkpt lat="48.66063" lon="2.09626">
        <ele>173.7</ele>
        <time>2025-01-03T15:59:19.685Z</time>
      </trkpt>
      <trkpt lat="48.66065" lon="2.09635">
        <ele>173.6</ele>
        <time>2025-01-03T15:59:24.038Z</time>
      </trkpt>
      <trkpt lat="48.66068" lon="2.09645">
        <ele>173.5</ele>
        <time>2025-01-03T15:59:28.391Z</time>
      </trkpt>
      <trkpt lat="48.66071" lon="2.09654">
        <ele>173.4</ele>
        <time>2025-01-03T15:59:32.744Z</time>
      </trkpt>
      <trkpt lat="48.66074" lon="2.09664">
        <ele>173.3</ele>
        <time>2025-01-03T15:59:37.097Z</time>
      </trkpt>
      <trkpt lat="48.66077" lon="2.09673">
        <ele>173.2</ele>
        <time>2025-01-03T15:59:41.450Z</time>
      </trkpt>
      <trkpt lat="48.66079" lon="2.09683">
        <ele>173.1</ele>
        <time>2025-01-03T15:59:45.803Z</time>
      </trkpt>
      <trkpt lat="48.66082" lon="2.09692">
        <ele>173</ele>
        <time>2025-01-03T15:59:50.156Z</time>
      </trkpt>
      <trkpt lat="48.66085" lon="2.09702">
        <ele>173</ele>
        <time>2025-01-03T15:59:54.509Z</time>
      </trkpt>
      <trkpt lat="48.66088" lon="2.09711">
        <ele>173</ele>
        <time>2025-01-03T15:59:58.862Z</time>
      </trkpt>
      <trkpt lat="48.6609" lon="2.09721">
        <ele>173</ele>
        <time>2025-01-03T16:00:03.215Z</time>
      </trkpt>
      <trkpt lat="48.66093" lon="2.0973">
        <ele>173</ele>
        <time>2025-01-03T16:00:07.568Z</time>
      </trkpt>
      <trkpt lat="48.66096" lon="2.09739">
        <ele>173</ele>
        <time>2025-01-03T16:00:11.921Z</time>
      </trkpt>
      <trkpt lat="48.66099" lon="2.09749">
        <ele>173</ele>
        <time>2025-01-03T16:00:16.274Z</time>
      </trkpt>
      <trkpt lat="48.66102" lon="2.09758">
        <ele>173</ele>
        <time>2025-01-03T16:00:20.627Z</time>
      </trkpt>
      <trkpt lat="48.66104" lon="2.09768">
        <ele>173</ele>
        <time>2025-01-03T16:00:24.980Z</time>
      </trkpt>
      <trkpt lat="48.66107" lon="2.09777">
        <ele>173</ele>
        <time>2025-01-03T16:00:29.333Z</time>
      </trkpt>
      <trkpt lat="48.6611" lon="2.09787">
        <ele>173</ele>
        <time>2025-01-03T16:00:33.686Z</time>
      </trkpt>
      <trkpt lat="48.66113" lon="2.09796">
        <ele>172.9</ele>
        <time>2025-01-03T16:00:38.039Z</time>
      </trkpt>
      <trkpt lat="48.66115" lon="2.09806">
        <ele>172.8</ele>
        <time>2025-01-03T16:00:42.392Z</time>
      </trkpt>
      <trkpt lat="48.66118" lon="2.09815">
        <ele>172.8</ele>
        <time>2025-01-03T16:00:46.745Z</time>
      </trkpt>
      <trkpt lat="48.66121" lon="2.09825">
        <ele>172.9</ele>
        <time>2025-01-03T16:00:51.098Z</time>
      </trkpt>
      <trkpt lat="48.66124" lon="2.09834">
        <ele>173</ele>
        <time>2025-01-03T16:00:55.451Z</time>
      </trkpt>
      <trkpt lat="48.66127" lon="2.09843">
        <ele>173</ele>
        <time>2025-01-03T16:00:59.804Z</time>
      </trkpt>
      <trkpt lat="48.66129" lon="2.09853">
        <ele>173</ele>
        <time>2025-01-03T16:01:04.157Z</time>
      </trkpt>
      <trkpt lat="48.66132" lon="2.09862">
        <ele>173</ele>
        <time>2025-01-03T16:01:08.510Z</time>
      </trkpt>
      <trkpt lat="48.66135" lon="2.09872">
        <ele>173</ele>
        <time>2025-01-03T16:01:12.863Z</time>
      </trkpt>
      <trkpt lat="48.66138" lon="2.09881">
        <ele>173</ele>
        <time>2025-01-03T16:01:17.216Z</time>
      </trkpt>
      <trkpt lat="48.6614" lon="2.09891">
        <ele>173</ele>
        <time>2025-01-03T16:01:21.569Z</time>
      </trkpt>
      <trkpt lat="48.66143" lon="2.099">
        <ele>173</ele>
        <time>2025-01-03T16:01:25.922Z</time>
      </trkpt>
      <trkpt lat="48.66146" lon="2.0991">
        <ele>173</ele>
        <time>2025-01-03T16:01:30.275Z</time>
      </trkpt>
      <trkpt lat="48.66149" lon="2.09919">
        <ele>173</ele>
        <time>2025-01-03T16:01:34.628Z</time>
      </trkpt>
      <trkpt lat="48.66152" lon="2.09929">
        <ele>173</ele>
        <time>2025-01-03T16:01:38.981Z</time>
      </trkpt>
      <trkpt lat="48.66154" lon="2.09938">
        <ele>173</ele>
        <time>2025-01-03T16:01:43.334Z</time>
      </trkpt>
      <trkpt lat="48.66157" lon="2.09947">
        <ele>173</ele>
        <time>2025-01-03T16:01:47.687Z</time>
      </trkpt>
      <trkpt lat="48.6616" lon="2.09957">
        <ele>173</ele>
        <time>2025-01-03T16:01:52.040Z</time>
      </trkpt>
      <trkpt lat="48.66163" lon="2.09966">
        <ele>173</ele>
        <time>2025-01-03T16:01:56.393Z</time>
      </trkpt>
      <trkpt lat="48.66165" lon="2.09976">
        <ele>173</ele>
        <time>2025-01-03T16:02:00.746Z</time>
      </trkpt>
      <trkpt lat="48.66168" lon="2.09985">
        <ele>173</ele>
        <time>2025-01-03T16:02:05.099Z</time>
      </trkpt>
      <trkpt lat="48.66171" lon="2.09995">
        <ele>173</ele>
        <time>2025-01-03T16:02:09.452Z</time>
      </trkpt>
      <trkpt lat="48.66174" lon="2.10004">
        <ele>173</ele>
        <time>2025-01-03T16:02:13.805Z</time>
      </trkpt>
      <trkpt lat="48.66177" lon="2.10014">
        <ele>173</ele>
        <time>2025-01-03T16:02:18.158Z</time>
      </trkpt>
      <trkpt lat="48.66179" lon="2.10023">
        <ele>173</ele>
        <time>2025-01-03T16:02:22.511Z</time>
      </trkpt>
      <trkpt lat="48.66182" lon="2.10032">
        <ele>173</ele>
        <time>2025-01-03T16:02:26.864Z</time>
      </trkpt>
      <trkpt lat="48.66185" lon="2.10042">
        <ele>173</ele>
        <time>2025-01-03T16:02:31.217Z</time>
      </trkpt>
      <trkpt lat="48.66188" lon="2.10051">
        <ele>173</ele>
        <time>2025-01-03T16:02:35.570Z</time>
      </trkpt>
      <trkpt lat="48.6619" lon="2.10061">
        <ele>173</ele>
        <time>2025-01-03T16:02:39.923Z</time>
      </trkpt>
      <trkpt lat="48.66193" lon="2.1007">
        <ele>173</ele>
        <time>2025-01-03T16:02:44.276Z</time>
      </trkpt>
      <trkpt lat="48.66196" lon="2.1008">
        <ele>173</ele>
        <time>2025-01-03T16:02:48.629Z</time>
      </trkpt>
      <trkpt lat="48.66199" lon="2.10089">
        <ele>173.2</ele>
        <time>2025-01-03T16:02:52.982Z</time>
      </trkpt>
      <trkpt lat="48.66202" lon="2.10099">
        <ele>173.5</ele>
        <time>2025-01-03T16:02:57.335Z</time>
      </trkpt>
      <trkpt lat="48.66204" lon="2.10108">
        <ele>173.9</ele>
        <time>2025-01-03T16:03:01.688Z</time>
      </trkpt>
      <trkpt lat="48.66207" lon="2.10118">
        <ele>174</ele>
        <time>2025-01-03T16:03:06.041Z</time>
      </trkpt>
      <trkpt lat="48.6621" lon="2.10127">
        <ele>174</ele>
        <time>2025-01-03T16:03:10.394Z</time>
      </trkpt>
      <trkpt lat="48.66213" lon="2.10136">
        <ele>174</ele>
        <time>2025-01-03T16:03:14.747Z</time>
      </trkpt>
      <trkpt lat="48.66215" lon="2.10146">
        <ele>174</ele>
        <time>2025-01-03T16:03:19.100Z</time>
      </trkpt>
      <trkpt lat="48.66218" lon="2.10155">
        <ele>174</ele>
        <time>2025-01-03T16:03:23.453Z</time>
      </trkpt>
      <trkpt lat="48.66221" lon="2.10165">
        <ele>174</ele>
        <time>2025-01-03T16:03:27.806Z</time>
      </trkpt>
      <trkpt lat="48.66224" lon="2.10174">
        <ele>174</ele>
        <time>2025-01-03T16:03:32.159Z</time>
      </trkpt>
      <trkpt lat="48.66227" lon="2.10184">
        <ele>174</ele>
        <time>2025-01-03T16:03:36.512Z</time>
      </trkpt>
      <trkpt lat="48.66229" lon="2.10193">
        <ele>174</ele>
        <time>2025-01-03T16:03:40.865Z</time>
      </trkpt>
      <trkpt lat="48.66232" lon="2.10203">
        <ele>174</ele>
        <time>2025-01-03T16:03:45.218Z</time>
      </trkpt>
      <trkpt lat="48.66235" lon="2.10212">
        <ele>174</ele>
        <time>2025-01-03T16:03:49.571Z</time>
      </trkpt>
      <trkpt lat="48.66238" lon="2.10222">
        <ele>174</ele>
        <time>2025-01-03T16:03:53.924Z</time>
      </trkpt>
      <trkpt lat="48.6624" lon="2.10231">
        <ele>174</ele>
        <time>2025-01-03T16:03:58.277Z</time>
      </trkpt>
      <trkpt lat="48.66243" lon="2.1024">
        <ele>174</ele>
        <time>2025-01-03T16:04:02.630Z</time>
      </trkpt>
      <trkpt lat="48.66246" lon="2.1025">
        <ele>174</ele>
        <time>2025-01-03T16:04:06.983Z</time>
      </trkpt>
      <trkpt lat="48.66249" lon="2.10259">
        <ele>174</ele>
        <time>2025-01-03T16:04:11.336Z</time>
      </trkpt>
      <trkpt lat="48.66252" lon="2.10269">
        <ele>174</ele>
        <time>2025-01-03T16:04:15.689Z</time>
      </trkpt>
      <trkpt lat="48.66254" lon="2.10278">
        <ele>174</ele>
        <time>2025-01-03T16:04:20.042Z</time>
      </trkpt>
      <trkpt lat="48.66257" lon="2.10288">
        <ele>174</ele>
        <time>2025-01-03T16:04:24.395Z</time>
      </trkpt>
      <trkpt lat="48.6626" lon="2.10297">
        <ele>174</ele>
        <time>2025-01-03T16:04:28.748Z</time>
      </trkpt>
      <trkpt lat="48.66263" lon="2.10307">
        <ele>174</ele>
        <time>2025-01-03T16:04:33.101Z</time>
      </trkpt>
      <trkpt lat="48.66265" lon="2.10316">
        <ele>174</ele>
        <time>2025-01-03T16:04:37.454Z</time>
      </trkpt>
      <trkpt lat="48.66268" lon="2.10326">
        <ele>174</ele>
        <time>2025-01-03T16:04:41.807Z</time>
      </trkpt>
      <trkpt lat="48.66271" lon="2.10335">
        <ele>174</ele>
        <time>2025-01-03T16:04:46.160Z</time>
      </trkpt>
      <trkpt lat="48.66274" lon="2.10344">
        <ele>174</ele>
        <time>2025-01-03T16:04:50.513Z</time>
      </trkpt>
      <trkpt lat="48.66277" lon="2.10354">
        <ele>174</ele>
        <time>2025-01-03T16:04:54.866Z</time>
      </trkpt>
      <trkpt lat="48.66279" lon="2.10363">
        <ele>174</ele>
        <time>2025-01-03T16:04:59.219Z</time>
      </trkpt>
      <trkpt lat="48.66282" lon="2.10373">
        <ele>173.9</ele>
        <time>2025-01-03T16:05:03.572Z</time>
      </trkpt>
      <trkpt lat="48.66285" lon="2.10382">
        <ele>173.8</ele>
        <time>2025-01-03T16:05:07.925Z</time>
      </trkpt>
      <trkpt lat="48.66288" lon="2.10392">
        <ele>173.7</ele>
        <time>2025-01-03T16:05:12.278Z</time>
      </trkpt>
      <trkpt lat="48.6629" lon="2.10401">
        <ele>173.7</ele>
        <time>2025-01-03T16:05:16.631Z</time>
      </trkpt>
      <trkpt lat="48.66293" lon="2.10411">
        <ele>173.9</ele>
        <time>2025-01-03T16:05:20.984Z</time>
      </trkpt>
      <trkpt lat="48.66296" lon="2.1042">
        <ele>174</ele>
        <time>2025-01-03T16:05:25.337Z</time>
      </trkpt>
      <trkpt lat="48.66299" lon="2.1043">
        <ele>174</ele>
        <time>2025-01-03T16:05:29.690Z</time>
      </trkpt>
      <trkpt lat="48.66302" lon="2.10439">
        <ele>174</ele>
        <time>2025-01-03T16:05:34.043Z</time>
      </trkpt>
      <trkpt lat="48.66304" lon="2.10448">
        <ele>174</ele>
        <time>2025-01-03T16:05:38.396Z</time>
      </trkpt>
      <trkpt lat="48.66307" lon="2.10458">
        <ele>173.9</ele>
        <time>2025-01-03T16:05:42.749Z</time>
      </trkpt>
      <trkpt lat="48.6631" lon="2.10467">
        <ele>173.8</ele>
        <time>2025-01-03T16:05:47.102Z</time>
      </trkpt>
      <trkpt lat="48.66313" lon="2.10477">
        <ele>173.7</ele>
        <time>2025-01-03T16:05:51.455Z</time>
      </trkpt>
      <trkpt lat="48.66315" lon="2.10486">
        <ele>173.6</ele>
        <time>2025-01-03T16:05:55.808Z</time>
      </trkpt>
      <trkpt lat="48.66318" lon="2.10496">
        <ele>173.5</ele>
        <time>2025-01-03T16:06:00.161Z</time>
      </trkpt>
      <trkpt lat="48.66321" lon="2.10505">
        <ele>173.4</ele>
        <time>2025-01-03T16:06:04.514Z</time>
      </trkpt>
      <trkpt lat="48.66324" lon="2.10515">
        <ele>173.3</ele>
        <time>2025-01-03T16:06:08.867Z</time>
      </trkpt>
      <trkpt lat="48.66327" lon="2.10524">
        <ele>173.2</ele>
        <time>2025-01-03T16:06:13.220Z</time>
      </trkpt>
      <trkpt lat="48.66329" lon="2.10534">
        <ele>173.1</ele>
        <time>2025-01-03T16:06:17.573Z</time>
      </trkpt>
      <trkpt lat="48.66332" lon="2.10543">
        <ele>173</ele>
        <time>2025-01-03T16:06:21.926Z</time>
      </trkpt>
      <trkpt lat="48.66335" lon="2.10552">
        <ele>173</ele>
        <time>2025-01-03T16:06:26.279Z</time>
      </trkpt>
      <trkpt lat="48.66338" lon="2.10562">
        <ele>173</ele>
        <time>2025-01-03T16:06:30.632Z</time>
      </trkpt>
      <trkpt lat="48.6634" lon="2.10571">
        <ele>173</ele>
        <time>2025-01-03T16:06:34.985Z</time>
      </trkpt>
      <trkpt lat="48.66343" lon="2.10581">
        <ele>173</ele>
        <time>2025-01-03T16:06:39.338Z</time>
      </trkpt>
      <trkpt lat="48.66346" lon="2.1059">
        <ele>173</ele>
        <time>2025-01-03T16:06:43.691Z</time>
      </trkpt>
      <trkpt lat="48.66349" lon="2.106">
        <ele>173</ele>
        <time>2025-01-03T16:06:48.044Z</time>
      </trkpt>
      <trkpt lat="48.66352" lon="2.10609">
        <ele>173</ele>
        <time>2025-01-03T16:06:52.397Z</time>
      </trkpt>
      <trkpt lat="48.66354" lon="2.10619">
        <ele>172.8</ele>
        <time>2025-01-03T16:06:56.750Z</time>
      </trkpt>
      <trkpt lat="48.66357" lon="2.10628">
        <ele>172.5</ele>
        <time>2025-01-03T16:07:01.103Z</time>
      </trkpt>
      <trkpt lat="48.6636" lon="2.10637">
        <ele>172.1</ele>
        <time>2025-01-03T16:07:05.456Z</time>
      </trkpt>
      <trkpt lat="48.66363" lon="2.10647">
        <ele>172</ele>
        <time>2025-01-03T16:07:09.809Z</time>
      </trkpt>
      <trkpt lat="48.66365" lon="2.10656">
        <ele>172</ele>
        <time>2025-01-03T16:07:14.162Z</time>
      </trkpt>
      <trkpt lat="48.66368" lon="2.10666">
        <ele>172</ele>
        <time>2025-01-03T16:07:18.515Z</time>
      </trkpt>
      <trkpt lat="48.66371" lon="2.10675">
        <ele>172</ele>
        <time>2025-01-03T16:07:22.868Z</time>
      </trkpt>
      <trkpt lat="48.66374" lon="2.10685">
        <ele>172</ele>
        <time>2025-01-03T16:07:27.221Z</time>
      </trkpt>
      <trkpt lat="48.66377" lon="2.10694">
        <ele>172</ele>
        <time>2025-01-03T16:07:31.574Z</time>
      </trkpt>
      <trkpt lat="48.66379" lon="2.10704">
        <ele>171.8</ele>
        <time>2025-01-03T16:07:35.927Z</time>
      </trkpt>
      <trkpt lat="48.66382" lon="2.10713">
        <ele>171.5</ele>
        <time>2025-01-03T16:07:40.280Z</time>
      </trkpt>
      <trkpt lat="48.66385" lon="2.10723">
        <ele>171.2</ele>
        <time>2025-01-03T16:07:44.633Z</time>
      </trkpt>
      <trkpt lat="48.66388" lon="2.10732">
        <ele>171.4</ele>
        <time>2025-01-03T16:07:48.986Z</time>
      </trkpt>
      <trkpt lat="48.6639" lon="2.10741">
        <ele>171.7</ele>
        <time>2025-01-03T16:07:53.339Z</time>
      </trkpt>
      <trkpt lat="48.66393" lon="2.10751">
        <ele>171.8</ele>
        <time>2025-01-03T16:07:57.692Z</time>
      </trkpt>
      <trkpt lat="48.66396" lon="2.1076">
        <ele>171.7</ele>
        <time>2025-01-03T16:08:02.045Z</time>
      </trkpt>
      <trkpt lat="48.66399" lon="2.1077">
        <ele>171.6</ele>
        <time>2025-01-03T16:08:06.398Z</time>
      </trkpt>
      <trkpt lat="48.66402" lon="2.10779">
        <ele>171.5</ele>
        <time>2025-01-03T16:08:10.751Z</time>
      </trkpt>
      <trkpt lat="48.66404" lon="2.10789">
        <ele>171.4</ele>
        <time>2025-01-03T16:08:15.104Z</time>
      </trkpt>
      <trkpt lat="48.66407" lon="2.10798">
        <ele>171.3</ele>
        <time>2025-01-03T16:08:19.457Z</time>
      </trkpt>
      <trkpt lat="48.6641" lon="2.10808">
        <ele>171.2</ele>
        <time>2025-01-03T16:08:23.811Z</time>
      </trkpt>
      <trkpt lat="48.66413" lon="2.10817">
        <ele>171.1</ele>
        <time>2025-01-03T16:08:28.165Z</time>
      </trkpt>
      <trkpt lat="48.66415" lon="2.10827">
        <ele>171</ele>
        <time>2025-01-03T16:08:32.519Z</time>
      </trkpt>
      <trkpt lat="48.66418" lon="2.10836">
        <ele>171</ele>
        <time>2025-01-03T16:08:36.873Z</time>
      </trkpt>
      <trkpt lat="48.66421" lon="2.10845">
        <ele>170.9</ele>
        <time>2025-01-03T16:08:41.226Z</time>
      </trkpt>
      <trkpt lat="48.66424" lon="2.10855">
        <ele>170.8</ele>
        <time>2025-01-03T16:08:45.580Z</time>
      </trkpt>
      <trkpt lat="48.66427" lon="2.10864">
        <ele>170.7</ele>
        <time>2025-01-03T16:08:49.934Z</time>
      </trkpt>
      <trkpt lat="48.66429" lon="2.10874">
        <ele>170.8</ele>
        <time>2025-01-03T16:08:54.288Z</time>
      </trkpt>
      <trkpt lat="48.66432" lon="2.10883">
        <ele>170.9</ele>
        <time>2025-01-03T16:08:58.642Z</time>
      </trkpt>
      <trkpt lat="48.66435" lon="2.10893">
        <ele>171</ele>
        <time>2025-01-03T16:09:02.996Z</time>
      </trkpt>
      <trkpt lat="48.66438" lon="2.10902">
        <ele>171</ele>
        <time>2025-01-03T16:09:07.349Z</time>
      </trkpt>
      <trkpt lat="48.6644" lon="2.10912">
        <ele>171</ele>
        <time>2025-01-03T16:09:11.703Z</time>
      </trkpt>
      <trkpt lat="48.66443" lon="2.10921">
        <ele>171</ele>
        <time>2025-01-03T16:09:16.057Z</time>
      </trkpt>
      <trkpt lat="48.66446" lon="2.10931">
        <ele>170.9</ele>
        <time>2025-01-03T16:09:20.411Z</time>
      </trkpt>
      <trkpt lat="48.66449" lon="2.1094">
        <ele>170.8</ele>
        <time>2025-01-03T16:09:24.765Z</time>
      </trkpt>
      <trkpt lat="48.66452" lon="2.10949">
        <ele>170.7</ele>
        <time>2025-01-03T16:09:29.118Z</time>
      </trkpt>
      <trkpt lat="48.66454" lon="2.10959">
        <ele>170.6</ele>
        <time>2025-01-03T16:09:33.472Z</time>
      </trkpt>
      <trkpt lat="48.66457" lon="2.10968">
        <ele>170.5</ele>
        <time>2025-01-03T16:09:37.826Z</time>
      </trkpt>
      <trkpt lat="48.6646" lon="2.10978">
        <ele>170.4</ele>
        <time>2025-01-03T16:09:42.180Z</time>
      </trkpt>
      <trkpt lat="48.66463" lon="2.10987">
        <ele>170.3</ele>
        <time>2025-01-03T16:09:46.534Z</time>
      </trkpt>
      <trkpt lat="48.66465" lon="2.10997">
        <ele>170.2</ele>
        <time>2025-01-03T16:09:50.888Z</time>
      </trkpt>
      <trkpt lat="48.66468" lon="2.11006">
        <ele>170.1</ele>
        <time>2025-01-03T16:09:55.242Z</time>
      </trkpt>
      <trkpt lat="48.66471" lon="2.11016">
        <ele>170</ele>
        <time>2025-01-03T16:09:59.595Z</time>
      </trkpt>
      <trkpt lat="48.66474" lon="2.11025">
        <ele>170</ele>
        <time>2025-01-03T16:10:03.949Z</time>
      </trkpt>
      <trkpt lat="48.66477" lon="2.11035">
        <ele>170</ele>
        <time>2025-01-03T16:10:08.303Z</time>
      </trkpt>
      <trkpt lat="48.66479" lon="2.11044">
        <ele>169.9</ele>
        <time>2025-01-03T16:10:12.657Z</time>
      </trkpt>
      <trkpt lat="48.66482" lon="2.11053">
        <ele>169.7</ele>
        <time>2025-01-03T16:10:17.011Z</time>
      </trkpt>
      <trkpt lat="48.66485" lon="2.11063">
        <ele>169.5</ele>
        <time>2025-01-03T16:10:21.365Z</time>
      </trkpt>
      <trkpt lat="48.66488" lon="2.11072">
        <ele>169.4</ele>
        <time>2025-01-03T16:10:25.718Z</time>
      </trkpt>
      <trkpt lat="48.6649" lon="2.11082">
        <ele>169.3</ele>
        <time>2025-01-03T16:10:30.072Z</time>
      </trkpt>
      <trkpt lat="48.66493" lon="2.11091">
        <ele>169.2</ele>
        <time>2025-01-03T16:10:34.426Z</time>
      </trkpt>
      <trkpt lat="48.66496" lon="2.11101">
        <ele>169.1</ele>
        <time>2025-01-03T16:10:38.780Z</time>
      </trkpt>
      <trkpt lat="48.66499" lon="2.1111">
        <ele>169</ele>
        <time>2025-01-03T16:10:43.134Z</time>
      </trkpt>
      <trkpt lat="48.66502" lon="2.1112">
        <ele>168.6</ele>
        <time>2025-01-03T16:10:47.488Z</time>
      </trkpt>
      <trkpt lat="48.66504" lon="2.11129">
        <ele>168.2</ele>
        <time>2025-01-03T16:10:51.842Z</time>
      </trkpt>
      <trkpt lat="48.66507" lon="2.11139">
        <ele>167.8</ele>
        <time>2025-01-03T16:10:56.196Z</time>
      </trkpt>
      <trkpt lat="48.6651" lon="2.11148">
        <ele>167.6</ele>
        <time>2025-01-03T16:11:00.549Z</time>
      </trkpt>
      <trkpt lat="48.66513" lon="2.11157">
        <ele>167.5</ele>
        <time>2025-01-03T16:11:04.903Z</time>
      </trkpt>
      <trkpt lat="48.66515" lon="2.11167">
        <ele>167.4</ele>
        <time>2025-01-03T16:11:09.257Z</time>
      </trkpt>
      <trkpt lat="48.66518" lon="2.11176">
        <ele>167.3</ele>
        <time>2025-01-03T16:11:13.611Z</time>
      </trkpt>
      <trkpt lat="48.66521" lon="2.11186">
        <ele>167.2</ele>
        <time>2025-01-03T16:11:17.965Z</time>
      </trkpt>
      <trkpt lat="48.66524" lon="2.11195">
        <ele>167.1</ele>
        <time>2025-01-03T16:11:22.319Z</time>
      </trkpt>
      <trkpt lat="48.66527" lon="2.11205">
        <ele>166.7</ele>
        <time>2025-01-03T16:11:26.673Z</time>
      </trkpt>
      <trkpt lat="48.66529" lon="2.11214">
        <ele>166.3</ele>
        <time>2025-01-03T16:11:31.027Z</time>
      </trkpt>
      <trkpt lat="48.66532" lon="2.11224">
        <ele>166</ele>
        <time>2025-01-03T16:11:35.380Z</time>
      </trkpt>
      <trkpt lat="48.66535" lon="2.11233">
        <ele>165.9</ele>
        <time>2025-01-03T16:11:39.734Z</time>
      </trkpt>
      <trkpt lat="48.66538" lon="2.11242">
        <ele>165.7</ele>
        <time>2025-01-03T16:11:44.088Z</time>
      </trkpt>
      <trkpt lat="48.6654" lon="2.11252">
        <ele>165.5</ele>
        <time>2025-01-03T16:11:48.442Z</time>
      </trkpt>
      <trkpt lat="48.66543" lon="2.11261">
        <ele>165.4</ele>
        <time>2025-01-03T16:11:52.796Z</time>
      </trkpt>
      <trkpt lat="48.66546" lon="2.11271">
        <ele>165.3</ele>
        <time>2025-01-03T16:11:57.150Z</time>
      </trkpt>
      <trkpt lat="48.66549" lon="2.1128">
        <ele>165.2</ele>
        <time>2025-01-03T16:12:01.504Z</time>
      </trkpt>
      <trkpt lat="48.66552" lon="2.1129">
        <ele>165.1</ele>
        <time>2025-01-03T16:12:05.858Z</time>
      </trkpt>
      <trkpt lat="48.66554" lon="2.11299">
        <ele>165</ele>
        <time>2025-01-03T16:12:10.212Z</time>
      </trkpt>
      <trkpt lat="48.66557" lon="2.11309">
        <ele>165</ele>
        <time>2025-01-03T16:12:14.566Z</time>
      </trkpt>
      <trkpt lat="48.6656" lon="2.11318">
        <ele>164.9</ele>
        <time>2025-01-03T16:12:18.919Z</time>
      </trkpt>
      <trkpt lat="48.66563" lon="2.11328">
        <ele>164.8</ele>
        <time>2025-01-03T16:12:23.273Z</time>
      </trkpt>
      <trkpt lat="48.66565" lon="2.11337">
        <ele>164.6</ele>
        <time>2025-01-03T16:12:27.627Z</time>
      </trkpt>
      <trkpt lat="48.66568" lon="2.11346">
        <ele>164.3</ele>
        <time>2025-01-03T16:12:31.981Z</time>
      </trkpt>
      <trkpt lat="48.66571" lon="2.11356">
        <ele>164.1</ele>
        <time>2025-01-03T16:12:36.335Z</time>
      </trkpt>
      <trkpt lat="48.66574" lon="2.11365">
        <ele>164</ele>
        <time>2025-01-03T16:12:40.689Z</time>
      </trkpt>
      <trkpt lat="48.66577" lon="2.11375">
        <ele>164</ele>
        <time>2025-01-03T16:12:45.043Z</time>
      </trkpt>
      <trkpt lat="48.66579" lon="2.11384">
        <ele>164</ele>
        <time>2025-01-03T16:12:49.397Z</time>
      </trkpt>
      <trkpt lat="48.66582" lon="2.11394">
        <ele>163.8</ele>
        <time>2025-01-03T16:12:53.751Z</time>
      </trkpt>
      <trkpt lat="48.66585" lon="2.11403">
        <ele>163.5</ele>
        <time>2025-01-03T16:12:58.105Z</time>
      </trkpt>
      <trkpt lat="48.66588" lon="2.11413">
        <ele>163.1</ele>
        <time>2025-01-03T16:13:02.459Z</time>
      </trkpt>
      <trkpt lat="48.6659" lon="2.11422">
        <ele>163</ele>
        <time>2025-01-03T16:13:06.813Z</time>
      </trkpt>
      <trkpt lat="48.66593" lon="2.11432">
        <ele>163</ele>
        <time>2025-01-03T16:13:11.167Z</time>
      </trkpt>
      <trkpt lat="48.66596" lon="2.11441">
        <ele>163</ele>
        <time>2025-01-03T16:13:15.520Z</time>
      </trkpt>
      <trkpt lat="48.66599" lon="2.1145">
        <ele>163</ele>
        <time>2025-01-03T16:13:19.874Z</time>
      </trkpt>
      <trkpt lat="48.66602" lon="2.1146">
        <ele>163</ele>
        <time>2025-01-03T16:13:24.228Z</time>
      </trkpt>
      <trkpt lat="48.66604" lon="2.11469">
        <ele>163</ele>
        <time>2025-01-03T16:13:28.582Z</time>
      </trkpt>
      <trkpt lat="48.66607" lon="2.11479">
        <ele>162.8</ele>
        <time>2025-01-03T16:13:32.936Z</time>
      </trkpt>
      <trkpt lat="48.6661" lon="2.11488">
        <ele>162.5</ele>
        <time>2025-01-03T16:13:37.290Z</time>
      </trkpt>
      <trkpt lat="48.66613" lon="2.11498">
        <ele>162.1</ele>
        <time>2025-01-03T16:13:41.644Z</time>
      </trkpt>
      <trkpt lat="48.66615" lon="2.11507">
        <ele>162</ele>
        <time>2025-01-03T16:13:45.998Z</time>
      </trkpt>
      <trkpt lat="48.66618" lon="2.11517">
        <ele>162</ele>
        <time>2025-01-03T16:13:50.352Z</time>
      </trkpt>
      <trkpt lat="48.66621" lon="2.11526">
        <ele>162</ele>
        <time>2025-01-03T16:13:54.706Z</time>
      </trkpt>
      <trkpt lat="48.66624" lon="2.11536">
        <ele>162</ele>
        <time>2025-01-03T16:13:59.060Z</time>
      </trkpt>
      <trkpt lat="48.66627" lon="2.11545">
        <ele>162</ele>
        <time>2025-01-03T16:14:03.414Z</time>
      </trkpt>
      <trkpt lat="48.66629" lon="2.11554">
        <ele>162</ele>
        <time>2025-01-03T16:14:07.768Z</time>
      </trkpt>
      <trkpt lat="48.66632" lon="2.11564">
        <ele>161.8</ele>
        <time>2025-01-03T16:14:12.122Z</time>
      </trkpt>
      <trkpt lat="48.66635" lon="2.11573">
        <ele>161.5</ele>
        <time>2025-01-03T16:14:16.476Z</time>
      </trkpt>
      <trkpt lat="48.66638" lon="2.11583">
        <ele>161.1</ele>
        <time>2025-01-03T16:14:20.830Z</time>
      </trkpt>
      <trkpt lat="48.6664" lon="2.11592">
        <ele>161</ele>
        <time>2025-01-03T16:14:25.184Z</time>
      </trkpt>
      <trkpt lat="48.66643" lon="2.11602">
        <ele>161</ele>
        <time>2025-01-03T16:14:29.538Z</time>
      </trkpt>
      <trkpt lat="48.66646" lon="2.11611">
        <ele>161</ele>
        <time>2025-01-03T16:14:33.892Z</time>
      </trkpt>
      <trkpt lat="48.66649" lon="2.11621">
        <ele>161</ele>
        <time>2025-01-03T16:14:38.246Z</time>
      </trkpt>
      <trkpt lat="48.66651" lon="2.1163">
        <ele>161</ele>
        <time>2025-01-03T16:14:42.600Z</time>
      </trkpt>
      <trkpt lat="48.66654" lon="2.1164">
        <ele>161</ele>
        <time>2025-01-03T16:14:46.954Z</time>
      </trkpt>
      <trkpt lat="48.66657" lon="2.11649">
        <ele>161</ele>
        <time>2025-01-03T16:14:51.308Z</time>
      </trkpt>
      <trkpt lat="48.6666" lon="2.11658">
        <ele>161</ele>
        <time>2025-01-03T16:14:55.662Z</time>
      </trkpt>
      <trkpt lat="48.66663" lon="2.11668">
        <ele>161</ele>
        <time>2025-01-03T16:15:00.016Z</time>
      </trkpt>
      <trkpt lat="48.66665" lon="2.11677">
        <ele>161</ele>
        <time>2025-01-03T16:15:04.370Z</time>
      </trkpt>
      <trkpt lat="48.66668" lon="2.11687">
        <ele>160.9</ele>
        <time>2025-01-03T16:15:08.724Z</time>
      </trkpt>
      <trkpt lat="48.66671" lon="2.11696">
        <ele>160.8</ele>
        <time>2025-01-03T16:15:13.078Z</time>
      </trkpt>
      <trkpt lat="48.66674" lon="2.11706">
        <ele>160.7</ele>
        <time>2025-01-03T16:15:17.432Z</time>
      </trkpt>
      <trkpt lat="48.66676" lon="2.11715">
        <ele>160.6</ele>
        <time>2025-01-03T16:15:21.786Z</time>
      </trkpt>
      <trkpt lat="48.66679" lon="2.11725">
        <ele>160.5</ele>
        <time>2025-01-03T16:15:26.140Z</time>
      </trkpt>
      <trkpt lat="48.66682" lon="2.11734">
        <ele>160.3</ele>
        <time>2025-01-03T16:15:30.494Z</time>
      </trkpt>
      <trkpt lat="48.66679" lon="2.11741">
        <ele>160.2</ele>
        <time>2025-01-03T16:15:33.909Z</time>
      </trkpt>
      <trkpt lat="48.66676" lon="2.11741">
        <ele>160.2</ele>
        <time>2025-01-03T16:15:35.873Z</time>
      </trkpt>
      <trkpt lat="48.66672" lon="2.11733">
        <ele>160.5</ele>
        <time>2025-01-03T16:15:41.176Z</time>
      </trkpt>
      <trkpt lat="48.66668" lon="2.11724">
        <ele>160.9</ele>
        <time>2025-01-03T16:15:46.481Z</time>
      </trkpt>
      <trkpt lat="48.66664" lon="2.11725">
        <ele>160.9</ele>
        <time>2025-01-03T16:15:49.136Z</time>
      </trkpt>
      <trkpt lat="48.66664" lon="2.11734">
        <ele>160.6</ele>
        <time>2025-01-03T16:15:52.367Z</time>
      </trkpt>
      <trkpt lat="48.66663" lon="2.11742">
        <ele>160.4</ele>
        <time>2025-01-03T16:15:55.599Z</time>
      </trkpt>
      <trkpt lat="48.66659" lon="2.11749">
        <ele>160.3</ele>
        <time>2025-01-03T16:15:59.670Z</time>
      </trkpt>
      <trkpt lat="48.66654" lon="2.11755">
        <ele>160.4</ele>
        <time>2025-01-03T16:16:03.743Z</time>
      </trkpt>
      <trkpt lat="48.66657" lon="2.11765">
        <ele>160.2</ele>
        <time>2025-01-03T16:16:08.113Z</time>
      </trkpt>
      <trkpt lat="48.66661" lon="2.11777">
        <ele>160</ele>
        <time>2025-01-03T16:16:13.634Z</time>
      </trkpt>
      <trkpt lat="48.66664" lon="2.11789">
        <ele>160</ele>
        <time>2025-01-03T16:16:19.156Z</time>
      </trkpt>
      <trkpt lat="48.66668" lon="2.11801">
        <ele>160</ele>
        <time>2025-01-03T16:16:24.678Z</time>
      </trkpt>
      <trkpt lat="48.66672" lon="2.11813">
        <ele>160</ele>
        <time>2025-01-03T16:16:30.200Z</time>
      </trkpt>
      <trkpt lat="48.66675" lon="2.11825">
        <ele>160</ele>
        <time>2025-01-03T16:16:35.722Z</time>
      </trkpt>
      <trkpt lat="48.66679" lon="2.11837">
        <ele>160</ele>
        <time>2025-01-03T16:16:41.244Z</time>
      </trkpt>
      <trkpt lat="48.66682" lon="2.11849">
        <ele>160</ele>
        <time>2025-01-03T16:16:46.766Z</time>
      </trkpt>
      <trkpt lat="48.66686" lon="2.11861">
        <ele>160</ele>
        <time>2025-01-03T16:16:52.288Z</time>
      </trkpt>
      <trkpt lat="48.6669" lon="2.11873">
        <ele>159.6</ele>
        <time>2025-01-03T16:16:57.810Z</time>
      </trkpt>
      <trkpt lat="48.66693" lon="2.11885">
        <ele>159.2</ele>
        <time>2025-01-03T16:17:03.332Z</time>
      </trkpt>
      <trkpt lat="48.66697" lon="2.11897">
        <ele>159</ele>
        <time>2025-01-03T16:17:08.854Z</time>
      </trkpt>
      <trkpt lat="48.66701" lon="2.11909">
        <ele>159</ele>
        <time>2025-01-03T16:17:14.376Z</time>
      </trkpt>
      <trkpt lat="48.66704" lon="2.11921">
        <ele>159</ele>
        <time>2025-01-03T16:17:19.898Z</time>
      </trkpt>
      <trkpt lat="48.66708" lon="2.11933">
        <ele>159</ele>
        <time>2025-01-03T16:17:25.420Z</time>
      </trkpt>
      <trkpt lat="48.66711" lon="2.11945">
        <ele>159</ele>
        <time>2025-01-03T16:17:30.942Z</time>
      </trkpt>
      <trkpt lat="48.66715" lon="2.11957">
        <ele>158.7</ele>
        <time>2025-01-03T16:17:36.464Z</time>
      </trkpt>
      <trkpt lat="48.66719" lon="2.11965">
        <ele>158.3</ele>
        <time>2025-01-03T16:17:40.261Z</time>
      </trkpt>
      <trkpt lat="48.66723" lon="2.11973">
        <ele>158.1</ele>
        <time>2025-01-03T16:17:44.058Z</time>
      </trkpt>
      <trkpt lat="48.66726" lon="2.11979">
        <ele>158.4</ele>
        <time>2025-01-03T16:17:47.547Z</time>
      </trkpt>
      <trkpt lat="48.66729" lon="2.11984">
        <ele>158.7</ele>
        <time>2025-01-03T16:17:51.036Z</time>
      </trkpt>
      <trkpt lat="48.66731" lon="2.1199">
        <ele>158.9</ele>
        <time>2025-01-03T16:17:54.526Z</time>
      </trkpt>
      <trkpt lat="48.66734" lon="2.11995">
        <ele>159</ele>
        <time>2025-01-03T16:17:58.016Z</time>
      </trkpt>
      <trkpt lat="48.66738" lon="2.12006">
        <ele>159</ele>
        <time>2025-01-03T16:18:03.545Z</time>
      </trkpt>
      <trkpt lat="48.66741" lon="2.12018">
        <ele>159</ele>
        <time>2025-01-03T16:18:09.074Z</time>
      </trkpt>
      <trkpt lat="48.66745" lon="2.12029">
        <ele>159</ele>
        <time>2025-01-03T16:18:14.603Z</time>
      </trkpt>
      <trkpt lat="48.66748" lon="2.12041">
        <ele>159</ele>
        <time>2025-01-03T16:18:20.132Z</time>
      </trkpt>
      <trkpt lat="48.66752" lon="2.12052">
        <ele>159.1</ele>
        <time>2025-01-03T16:18:25.661Z</time>
      </trkpt>
      <trkpt lat="48.66755" lon="2.12063">
        <ele>159.3</ele>
        <time>2025-01-03T16:18:31.190Z</time>
      </trkpt>
      <trkpt lat="48.66759" lon="2.12075">
        <ele>159.4</ele>
        <time>2025-01-03T16:18:36.719Z</time>
      </trkpt>
      <trkpt lat="48.66762" lon="2.12086">
        <ele>159.4</ele>
        <time>2025-01-03T16:18:42.248Z</time>
      </trkpt>
      <trkpt lat="48.66762" lon="2.12095">
        <ele>159.2</ele>
        <time>2025-01-03T16:18:45.866Z</time>
      </trkpt>
      <trkpt lat="48.66761" lon="2.12104">
        <ele>159.1</ele>
        <time>2025-01-03T16:18:49.486Z</time>
      </trkpt>
      <trkpt lat="48.66759" lon="2.12112">
        <ele>159</ele>
        <time>2025-01-03T16:18:52.938Z</time>
      </trkpt>
      <trkpt lat="48.66756" lon="2.1212">
        <ele>158.7</ele>
        <time>2025-01-03T16:18:56.391Z</time>
      </trkpt>
      <trkpt lat="48.66758" lon="2.12128">
        <ele>158.4</ele>
        <time>2025-01-03T16:18:59.628Z</time>
      </trkpt>
      <trkpt lat="48.66761" lon="2.12133">
        <ele>158.2</ele>
        <time>2025-01-03T16:19:02.573Z</time>
      </trkpt>
      <trkpt lat="48.66765" lon="2.12138">
        <ele>158</ele>
        <time>2025-01-03T16:19:05.518Z</time>
      </trkpt>
      <trkpt lat="48.66768" lon="2.12143">
        <ele>158</ele>
        <time>2025-01-03T16:19:08.464Z</time>
      </trkpt>
      <trkpt lat="48.66771" lon="2.12148">
        <ele>158</ele>
        <time>2025-01-03T16:19:11.410Z</time>
      </trkpt>
      <trkpt lat="48.66774" lon="2.12152">
        <ele>158</ele>
        <time>2025-01-03T16:19:14.356Z</time>
      </trkpt>
      <trkpt lat="48.66778" lon="2.12157">
        <ele>158</ele>
        <time>2025-01-03T16:19:17.302Z</time>
      </trkpt>
      <trkpt lat="48.66781" lon="2.12162">
        <ele>158.1</ele>
        <time>2025-01-03T16:19:20.248Z</time>
      </trkpt>
      <trkpt lat="48.66784" lon="2.12167">
        <ele>158.2</ele>
        <time>2025-01-03T16:19:23.194Z</time>
      </trkpt>
      <trkpt lat="48.66787" lon="2.12174">
        <ele>158.2</ele>
        <time>2025-01-03T16:19:26.442Z</time>
      </trkpt>
      <trkpt lat="48.66789" lon="2.12181">
        <ele>158.2</ele>
        <time>2025-01-03T16:19:29.690Z</time>
      </trkpt>
      <trkpt lat="48.66792" lon="2.12187">
        <ele>158.1</ele>
        <time>2025-01-03T16:19:32.938Z</time>
      </trkpt>
      <trkpt lat="48.66794" lon="2.12194">
        <ele>158</ele>
        <time>2025-01-03T16:19:36.186Z</time>
      </trkpt>
      <trkpt lat="48.66798" lon="2.12206">
        <ele>158</ele>
        <time>2025-01-03T16:19:41.933Z</time>
      </trkpt>
      <trkpt lat="48.66801" lon="2.12218">
        <ele>158</ele>
        <time>2025-01-03T16:19:47.680Z</time>
      </trkpt>
      <trkpt lat="48.66805" lon="2.1223">
        <ele>158</ele>
        <time>2025-01-03T16:19:53.427Z</time>
      </trkpt>
      <trkpt lat="48.66808" lon="2.12243">
        <ele>158</ele>
        <time>2025-01-03T16:19:59.174Z</time>
      </trkpt>
      <trkpt lat="48.66812" lon="2.12255">
        <ele>157.9</ele>
        <time>2025-01-03T16:20:04.921Z</time>
      </trkpt>
      <trkpt lat="48.66815" lon="2.12267">
        <ele>157.6</ele>
        <time>2025-01-03T16:20:10.668Z</time>
      </trkpt>
      <trkpt lat="48.66819" lon="2.12279">
        <ele>157.5</ele>
        <time>2025-01-03T16:20:16.416Z</time>
      </trkpt>
      <trkpt lat="48.66822" lon="2.12291">
        <ele>157.6</ele>
        <time>2025-01-03T16:20:22.164Z</time>
      </trkpt>
      <trkpt lat="48.66826" lon="2.12303">
        <ele>157.7</ele>
        <time>2025-01-03T16:20:27.912Z</time>
      </trkpt>
      <trkpt lat="48.66829" lon="2.12315">
        <ele>157.5</ele>
        <time>2025-01-03T16:20:33.660Z</time>
      </trkpt>
      <trkpt lat="48.66833" lon="2.12327">
        <ele>157.2</ele>
        <time>2025-01-03T16:20:39.408Z</time>
      </trkpt>
      <trkpt lat="48.66836" lon="2.1234">
        <ele>157.3</ele>
        <time>2025-01-03T16:20:45.156Z</time>
      </trkpt>
      <trkpt lat="48.6684" lon="2.12352">
        <ele>157.7</ele>
        <time>2025-01-03T16:20:50.904Z</time>
      </trkpt>
      <trkpt lat="48.66843" lon="2.12364">
        <ele>158</ele>
        <time>2025-01-03T16:20:56.652Z</time>
      </trkpt>
      <trkpt lat="48.66847" lon="2.12376">
        <ele>158.2</ele>
        <time>2025-01-03T16:21:02.400Z</time>
      </trkpt>
      <trkpt lat="48.6685" lon="2.12388">
        <ele>158.2</ele>
        <time>2025-01-03T16:21:08.148Z</time>
      </trkpt>
      <trkpt lat="48.66851" lon="2.12391">
        <ele>158.3</ele>
        <time>2025-01-03T16:21:09.825Z</time>
      </trkpt>
      <trkpt lat="48.66854" lon="2.124">
        <ele>158.5</ele>
        <time>2025-01-03T16:21:14.167Z</time>
      </trkpt>
      <trkpt lat="48.66856" lon="2.12408">
        <ele>158.6</ele>
        <time>2025-01-03T16:21:18.510Z</time>
      </trkpt>
      <trkpt lat="48.66862" lon="2.12406">
        <ele>159.1</ele>
        <time>2025-01-03T16:21:24.149Z</time>
      </trkpt>
      <trkpt lat="48.66867" lon="2.12403">
        <ele>160</ele>
        <time>2025-01-03T16:21:29.789Z</time>
      </trkpt>
      <trkpt lat="48.6687" lon="2.12407">
        <ele>160.4</ele>
        <time>2025-01-03T16:21:33.423Z</time>
      </trkpt>
      <trkpt lat="48.66873" lon="2.12414">
        <ele>160.8</ele>
        <time>2025-01-03T16:21:37.714Z</time>
      </trkpt>
      <trkpt lat="48.66876" lon="2.12421">
        <ele>161.1</ele>
        <time>2025-01-03T16:21:42.006Z</time>
      </trkpt>
      <trkpt lat="48.66879" lon="2.12428">
        <ele>161.6</ele>
        <time>2025-01-03T16:21:46.298Z</time>
      </trkpt>
      <trkpt lat="48.66882" lon="2.12435">
        <ele>162</ele>
        <time>2025-01-03T16:21:50.590Z</time>
      </trkpt>
      <trkpt lat="48.66885" lon="2.12442">
        <ele>162.4</ele>
        <time>2025-01-03T16:21:54.882Z</time>
      </trkpt>
      <trkpt lat="48.66888" lon="2.12449">
        <ele>162.7</ele>
        <time>2025-01-03T16:21:59.174Z</time>
      </trkpt>
      <trkpt lat="48.66891" lon="2.12456">
        <ele>162.8</ele>
        <time>2025-01-03T16:22:03.466Z</time>
      </trkpt>
      <trkpt lat="48.66894" lon="2.12463">
        <ele>162.8</ele>
        <time>2025-01-03T16:22:07.758Z</time>
      </trkpt>
      <trkpt lat="48.66899" lon="2.12473">
        <ele>163.1</ele>
        <time>2025-01-03T16:22:13.551Z</time>
      </trkpt>
      <trkpt lat="48.66904" lon="2.12482">
        <ele>163.3</ele>
        <time>2025-01-03T16:22:19.344Z</time>
      </trkpt>
      <trkpt lat="48.6691" lon="2.12489">
        <ele>164</ele>
        <time>2025-01-03T16:22:26.049Z</time>
      </trkpt>
      <trkpt lat="48.66915" lon="2.12494">
        <ele>164.6</ele>
        <time>2025-01-03T16:22:30.942Z</time>
      </trkpt>
      <trkpt lat="48.66919" lon="2.12499">
        <ele>165</ele>
        <time>2025-01-03T16:22:35.836Z</time>
      </trkpt>
      <trkpt lat="48.66923" lon="2.12506">
        <ele>165</ele>
        <time>2025-01-03T16:22:39.887Z</time>
      </trkpt>
      <trkpt lat="48.66927" lon="2.12512">
        <ele>165.2</ele>
        <time>2025-01-03T16:22:43.938Z</time>
      </trkpt>
      <trkpt lat="48.66932" lon="2.12523">
        <ele>165.5</ele>
        <time>2025-01-03T16:22:50.365Z</time>
      </trkpt>
      <trkpt lat="48.66934" lon="2.12531">
        <ele>165.6</ele>
        <time>2025-01-03T16:22:54.083Z</time>
      </trkpt>
      <trkpt lat="48.66937" lon="2.12538">
        <ele>165.6</ele>
        <time>2025-01-03T16:22:57.801Z</time>
      </trkpt>
      <trkpt lat="48.66939" lon="2.12546">
        <ele>165.7</ele>
        <time>2025-01-03T16:23:01.519Z</time>
      </trkpt>
      <trkpt lat="48.66941" lon="2.12553">
        <ele>165.8</ele>
        <time>2025-01-03T16:23:05.237Z</time>
      </trkpt>
      <trkpt lat="48.66948" lon="2.12559">
        <ele>165.7</ele>
        <time>2025-01-03T16:23:10.307Z</time>
      </trkpt>
      <trkpt lat="48.66954" lon="2.12559">
        <ele>165.3</ele>
        <time>2025-01-03T16:23:13.458Z</time>
      </trkpt>
      <trkpt lat="48.66959" lon="2.12559">
        <ele>165</ele>
        <time>2025-01-03T16:23:16.610Z</time>
      </trkpt>
      <trkpt lat="48.66963" lon="2.12564">
        <ele>164.7</ele>
        <time>2025-01-03T16:23:19.465Z</time>
      </trkpt>
      <trkpt lat="48.66967" lon="2.12568">
        <ele>164.4</ele>
        <time>2025-01-03T16:23:22.320Z</time>
      </trkpt>
      <trkpt lat="48.6697" lon="2.12577">
        <ele>164.2</ele>
        <time>2025-01-03T16:23:26.292Z</time>
      </trkpt>
      <trkpt lat="48.66973" lon="2.12585">
        <ele>164</ele>
        <time>2025-01-03T16:23:30.265Z</time>
      </trkpt>
      <trkpt lat="48.66976" lon="2.12594">
        <ele>164</ele>
        <time>2025-01-03T16:23:34.238Z</time>
      </trkpt>
      <trkpt lat="48.66979" lon="2.12602">
        <ele>164</ele>
        <time>2025-01-03T16:23:38.211Z</time>
      </trkpt>
      <trkpt lat="48.66981" lon="2.1261">
        <ele>164</ele>
        <time>2025-01-03T16:23:41.810Z</time>
      </trkpt>
      <trkpt lat="48.66982" lon="2.12617">
        <ele>164.2</ele>
        <time>2025-01-03T16:23:45.409Z</time>
      </trkpt>
      <trkpt lat="48.66983" lon="2.12625">
        <ele>164.5</ele>
        <time>2025-01-03T16:23:49.459Z</time>
      </trkpt>
      <trkpt lat="48.66984" lon="2.12634">
        <ele>164.8</ele>
        <time>2025-01-03T16:23:53.509Z</time>
      </trkpt>
      <trkpt lat="48.66985" lon="2.12642">
        <ele>165.1</ele>
        <time>2025-01-03T16:23:57.559Z</time>
      </trkpt>
      <trkpt lat="48.66986" lon="2.1265">
        <ele>165.2</ele>
        <time>2025-01-03T16:24:01.609Z</time>
      </trkpt>
      <trkpt lat="48.66986" lon="2.12658">
        <ele>165.3</ele>
        <time>2025-01-03T16:24:05.659Z</time>
      </trkpt>
      <trkpt lat="48.66987" lon="2.12667">
        <ele>165.5</ele>
        <time>2025-01-03T16:24:09.709Z</time>
      </trkpt>
      <trkpt lat="48.66988" lon="2.12675">
        <ele>165.6</ele>
        <time>2025-01-03T16:24:13.759Z</time>
      </trkpt>
      <trkpt lat="48.66989" lon="2.12683">
        <ele>165.8</ele>
        <time>2025-01-03T16:24:17.810Z</time>
      </trkpt>
      <trkpt lat="48.66987" lon="2.12684">
        <ele>165.8</ele>
        <time>2025-01-03T16:24:19.189Z</time>
        <extensions>
          <visugpx:TrkExtension xmlns:visugpx="https://www.visugpx.com/editgpx/">
            <visugpx:node>5</visugpx:node>
            </visugpx:TrkExtension>
        </extensions>
      </trkpt>
      <trkpt lat="48.66987" lon="2.12685">
        <ele>165.8</ele>
        <time>2025-01-03T16:24:19.622Z</time>
      </trkpt>
      <trkpt lat="48.66983" lon="2.12687">
        <ele>165.9</ele>
        <time>2025-01-03T16:24:22.592Z</time>
      </trkpt>
      <trkpt lat="48.66985" lon="2.12698">
        <ele>166.1</ele>
        <time>2025-01-03T16:24:27.953Z</time>
      </trkpt>
      <trkpt lat="48.66985" lon="2.12698">
        <ele>166.1</ele>
        <time>2025-01-03T16:24:27.953Z</time>
        <extensions>
          <visugpx:TrkExtension xmlns:visugpx="https://www.visugpx.com/editgpx/">
            <visugpx:node>6</visugpx:node>
            </visugpx:TrkExtension>
        </extensions>
      </trkpt>
      <trkpt lat="48.66987" lon="2.12705">
        <ele>166.2</ele>
        <time>2025-01-03T16:24:31.109Z</time>
      </trkpt>
      <trkpt lat="48.66988" lon="2.12712">
        <ele>166.3</ele>
        <time>2025-01-03T16:24:34.265Z</time>
      </trkpt>
      <trkpt lat="48.6699" lon="2.12719">
        <ele>166.3</ele>
        <time>2025-01-03T16:24:37.421Z</time>
      </trkpt>
      <trkpt lat="48.66991" lon="2.12726">
        <ele>166.3</ele>
        <time>2025-01-03T16:24:40.577Z</time>
      </trkpt>
      <trkpt lat="48.66993" lon="2.12732">
        <ele>166.3</ele>
        <time>2025-01-03T16:24:43.733Z</time>
      </trkpt>
      <trkpt lat="48.66994" lon="2.12739">
        <ele>166.2</ele>
        <time>2025-01-03T16:24:46.890Z</time>
      </trkpt>
      <trkpt lat="48.66996" lon="2.12746">
        <ele>166.2</ele>
        <time>2025-01-03T16:24:50.047Z</time>
      </trkpt>
      <trkpt lat="48.66997" lon="2.12753">
        <ele>166.2</ele>
        <time>2025-01-03T16:24:53.204Z</time>
      </trkpt>
      <trkpt lat="48.66997" lon="2.12753">
        <ele>166.2</ele>
        <time>2025-01-03T16:24:53.204Z</time>
        <extensions>
          <visugpx:TrkExtension xmlns:visugpx="https://www.visugpx.com/editgpx/">
            <visugpx:node>7</visugpx:node>
            </visugpx:TrkExtension>
        </extensions>
      </trkpt>
      <trkpt lat="48.66999" lon="2.12761">
        <ele>166.4</ele>
        <time>2025-01-03T16:24:57.032Z</time>
      </trkpt>
      <trkpt lat="48.67" lon="2.12768">
        <ele>166.6</ele>
        <time>2025-01-03T16:25:00.860Z</time>
      </trkpt>
      <trkpt lat="48.67003" lon="2.1278">
        <ele>167.1</ele>
        <time>2025-01-03T16:25:07.560Z</time>
      </trkpt>
      <trkpt lat="48.67005" lon="2.12788">
        <ele>167.2</ele>
        <time>2025-01-03T16:25:11.414Z</time>
      </trkpt>
      <trkpt lat="48.67007" lon="2.12796">
        <ele>167.3</ele>
        <time>2025-01-03T16:25:15.268Z</time>
      </trkpt>
      <trkpt lat="48.67009" lon="2.12804">
        <ele>167.3</ele>
        <time>2025-01-03T16:25:19.123Z</time>
      </trkpt>
      <trkpt lat="48.67011" lon="2.12812">
        <ele>167.4</ele>
        <time>2025-01-03T16:25:22.978Z</time>
      </trkpt>
      <trkpt lat="48.67011" lon="2.12812">
        <ele>167.4</ele>
        <time>2025-01-03T16:25:22.978Z</time>
        <extensions>
          <visugpx:TrkExtension xmlns:visugpx="https://www.visugpx.com/editgpx/">
            <visugpx:node>8</visugpx:node>
            </visugpx:TrkExtension>
        </extensions>
      </trkpt>
      <trkpt lat="48.67011" lon="2.12813">
        <ele>167.4</ele>
        <time>2025-01-03T16:25:23.411Z</time>
      </trkpt>
      <trkpt lat="48.67013" lon="2.12821">
        <ele>167.4</ele>
        <time>2025-01-03T16:25:26.902Z</time>
      </trkpt>
      <trkpt lat="48.67014" lon="2.12828">
        <ele>167.5</ele>
        <time>2025-01-03T16:25:30.394Z</time>
      </trkpt>
      <trkpt lat="48.67016" lon="2.12835">
        <ele>167.5</ele>
        <time>2025-01-03T16:25:33.742Z</time>
      </trkpt>
      <trkpt lat="48.67018" lon="2.12843">
        <ele>167.4</ele>
        <time>2025-01-03T16:25:37.090Z</time>
      </trkpt>
      <trkpt lat="48.6702" lon="2.1285">
        <ele>167.3</ele>
        <time>2025-01-03T16:25:40.439Z</time>
      </trkpt>
      <trkpt lat="48.67022" lon="2.12858">
        <ele>167.1</ele>
        <time>2025-01-03T16:25:43.788Z</time>
      </trkpt>
      <trkpt lat="48.67024" lon="2.12865">
        <ele>167</ele>
        <time>2025-01-03T16:25:47.137Z</time>
      </trkpt>
      <trkpt lat="48.67026" lon="2.12872">
        <ele>167</ele>
        <time>2025-01-03T16:25:50.486Z</time>
      </trkpt>
      <trkpt lat="48.67028" lon="2.1288">
        <ele>167</ele>
        <time>2025-01-03T16:25:53.835Z</time>
      </trkpt>
      <trkpt lat="48.6703" lon="2.12887">
        <ele>167.1</ele>
        <time>2025-01-03T16:25:57.184Z</time>
      </trkpt>
      <trkpt lat="48.67033" lon="2.12897">
        <ele>167.2</ele>
        <time>2025-01-03T16:26:02.036Z</time>
      </trkpt>
      <trkpt lat="48.67036" lon="2.12907">
        <ele>167.3</ele>
        <time>2025-01-03T16:26:06.888Z</time>
      </trkpt>
      <trkpt lat="48.67039" lon="2.12916">
        <ele>167.4</ele>
        <time>2025-01-03T16:26:11.740Z</time>
      </trkpt>
      <trkpt lat="48.67042" lon="2.12926">
        <ele>167.7</ele>
        <time>2025-01-03T16:26:16.592Z</time>
      </trkpt>
      <trkpt lat="48.67044" lon="2.12936">
        <ele>167.9</ele>
        <time>2025-01-03T16:26:21.444Z</time>
      </trkpt>
      <trkpt lat="48.67047" lon="2.12946">
        <ele>168</ele>
        <time>2025-01-03T16:26:26.296Z</time>
      </trkpt>
      <trkpt lat="48.6705" lon="2.12955">
        <ele>168</ele>
        <time>2025-01-03T16:26:31.149Z</time>
      </trkpt>
      <trkpt lat="48.67053" lon="2.12965">
        <ele>168</ele>
        <time>2025-01-03T16:26:36.002Z</time>
      </trkpt>
      <trkpt lat="48.67055" lon="2.12972">
        <ele>168</ele>
        <time>2025-01-03T16:26:39.206Z</time>
      </trkpt>
      <trkpt lat="48.67057" lon="2.12978">
        <ele>168</ele>
        <time>2025-01-03T16:26:42.410Z</time>
      </trkpt>
      <trkpt lat="48.67059" lon="2.12985">
        <ele>168.1</ele>
        <time>2025-01-03T16:26:45.614Z</time>
      </trkpt>
      <trkpt lat="48.67061" lon="2.12992">
        <ele>168.2</ele>
        <time>2025-01-03T16:26:48.818Z</time>
      </trkpt>
      <trkpt lat="48.67063" lon="2.12998">
        <ele>168.3</ele>
        <time>2025-01-03T16:26:52.022Z</time>
      </trkpt>
      <trkpt lat="48.67065" lon="2.13005">
        <ele>168.3</ele>
        <time>2025-01-03T16:26:55.226Z</time>
      </trkpt>
      <trkpt lat="48.67067" lon="2.13012">
        <ele>168.4</ele>
        <time>2025-01-03T16:26:58.430Z</time>
      </trkpt>
      <trkpt lat="48.67069" lon="2.13019">
        <ele>168.5</ele>
        <time>2025-01-03T16:27:01.634Z</time>
      </trkpt>
      <trkpt lat="48.67071" lon="2.13025">
        <ele>168.5</ele>
        <time>2025-01-03T16:27:04.838Z</time>
      </trkpt>
      <trkpt lat="48.67073" lon="2.13032">
        <ele>168.5</ele>
        <time>2025-01-03T16:27:08.042Z</time>
      </trkpt>
      <trkpt lat="48.67075" lon="2.13039">
        <ele>168.4</ele>
        <time>2025-01-03T16:27:11.246Z</time>
      </trkpt>
      <trkpt lat="48.67077" lon="2.13045">
        <ele>168.3</ele>
        <time>2025-01-03T16:27:14.450Z</time>
      </trkpt>
      <trkpt lat="48.67079" lon="2.13052">
        <ele>168.1</ele>
        <time>2025-01-03T16:27:17.654Z</time>
      </trkpt>
      <trkpt lat="48.67081" lon="2.13059">
        <ele>168</ele>
        <time>2025-01-03T16:27:20.858Z</time>
      </trkpt>
      <trkpt lat="48.67083" lon="2.13065">
        <ele>168</ele>
        <time>2025-01-03T16:27:24.062Z</time>
      </trkpt>
      <trkpt lat="48.67085" lon="2.13072">
        <ele>168.1</ele>
        <time>2025-01-03T16:27:27.266Z</time>
      </trkpt>
      <trkpt lat="48.67087" lon="2.13079">
        <ele>168.1</ele>
        <time>2025-01-03T16:27:30.470Z</time>
      </trkpt>
      <trkpt lat="48.67088" lon="2.13085">
        <ele>168.2</ele>
        <time>2025-01-03T16:27:33.674Z</time>
      </trkpt>
      <trkpt lat="48.6709" lon="2.13092">
        <ele>168.3</ele>
        <time>2025-01-03T16:27:36.878Z</time>
      </trkpt>
      <trkpt lat="48.67092" lon="2.13099">
        <ele>168.3</ele>
        <time>2025-01-03T16:27:40.082Z</time>
      </trkpt>
      <trkpt lat="48.67094" lon="2.13105">
        <ele>168.4</ele>
        <time>2025-01-03T16:27:43.286Z</time>
      </trkpt>
      <trkpt lat="48.67096" lon="2.13112">
        <ele>168.5</ele>
        <time>2025-01-03T16:27:46.490Z</time>
      </trkpt>
      <trkpt lat="48.67098" lon="2.13119">
        <ele>168.5</ele>
        <time>2025-01-03T16:27:49.694Z</time>
      </trkpt>
      <trkpt lat="48.671" lon="2.13126">
        <ele>168.6</ele>
        <time>2025-01-03T16:27:52.899Z</time>
      </trkpt>
      <trkpt lat="48.67102" lon="2.13132">
        <ele>168.7</ele>
        <time>2025-01-03T16:27:56.104Z</time>
      </trkpt>
      <trkpt lat="48.67104" lon="2.13139">
        <ele>168.8</ele>
        <time>2025-01-03T16:27:59.309Z</time>
      </trkpt>
      <trkpt lat="48.67106" lon="2.13146">
        <ele>168.7</ele>
        <time>2025-01-03T16:28:02.514Z</time>
      </trkpt>
      <trkpt lat="48.67108" lon="2.13152">
        <ele>168.7</ele>
        <time>2025-01-03T16:28:05.719Z</time>
      </trkpt>
      <trkpt lat="48.6711" lon="2.13159">
        <ele>168.9</ele>
        <time>2025-01-03T16:28:08.924Z</time>
      </trkpt>
      <trkpt lat="48.67112" lon="2.13166">
        <ele>169</ele>
        <time>2025-01-03T16:28:12.129Z</time>
      </trkpt>
      <trkpt lat="48.67114" lon="2.13172">
        <ele>168.8</ele>
        <time>2025-01-03T16:28:15.334Z</time>
      </trkpt>
      <trkpt lat="48.67116" lon="2.13179">
        <ele>168.6</ele>
        <time>2025-01-03T16:28:18.539Z</time>
      </trkpt>
      <trkpt lat="48.67121" lon="2.13186">
        <ele>168.5</ele>
        <time>2025-01-03T16:28:23.006Z</time>
      </trkpt>
      <trkpt lat="48.67126" lon="2.13194">
        <ele>168.5</ele>
        <time>2025-01-03T16:28:27.473Z</time>
      </trkpt>
      <trkpt lat="48.6713" lon="2.13201">
        <ele>168.5</ele>
        <time>2025-01-03T16:28:31.940Z</time>
      </trkpt>
      <trkpt lat="48.67135" lon="2.13208">
        <ele>168.7</ele>
        <time>2025-01-03T16:28:36.407Z</time>
      </trkpt>
      <trkpt lat="48.67138" lon="2.13217">
        <ele>168.9</ele>
        <time>2025-01-03T16:28:40.574Z</time>
      </trkpt>
      <trkpt lat="48.67141" lon="2.13225">
        <ele>168.7</ele>
        <time>2025-01-03T16:28:44.742Z</time>
      </trkpt>
      <trkpt lat="48.67143" lon="2.13233">
        <ele>168</ele>
        <time>2025-01-03T16:28:48.143Z</time>
      </trkpt>
      <trkpt lat="48.67145" lon="2.1324">
        <ele>167.5</ele>
        <time>2025-01-03T16:28:51.544Z</time>
      </trkpt>
      <trkpt lat="48.67147" lon="2.13248">
        <ele>167.1</ele>
        <time>2025-01-03T16:28:54.946Z</time>
      </trkpt>
      <trkpt lat="48.67149" lon="2.13256">
        <ele>166.8</ele>
        <time>2025-01-03T16:28:58.348Z</time>
      </trkpt>
      <trkpt lat="48.67152" lon="2.13263">
        <ele>166.6</ele>
        <time>2025-01-03T16:29:01.750Z</time>
      </trkpt>
      <trkpt lat="48.67154" lon="2.13271">
        <ele>166.5</ele>
        <time>2025-01-03T16:29:05.152Z</time>
      </trkpt>
      <trkpt lat="48.67156" lon="2.13279">
        <ele>166.4</ele>
        <time>2025-01-03T16:29:08.554Z</time>
      </trkpt>
      <trkpt lat="48.67158" lon="2.13287">
        <ele>166.6</ele>
        <time>2025-01-03T16:29:11.956Z</time>
      </trkpt>
      <trkpt lat="48.6716" lon="2.13294">
        <ele>166.9</ele>
        <time>2025-01-03T16:29:15.358Z</time>
      </trkpt>
      <trkpt lat="48.67162" lon="2.13302">
        <ele>167.2</ele>
        <time>2025-01-03T16:29:18.760Z</time>
      </trkpt>
      <trkpt lat="48.67164" lon="2.1331">
        <ele>167.4</ele>
        <time>2025-01-03T16:29:22.162Z</time>
      </trkpt>
      <trkpt lat="48.67166" lon="2.13317">
        <ele>167.5</ele>
        <time>2025-01-03T16:29:25.564Z</time>
      </trkpt>
      <trkpt lat="48.67168" lon="2.13325">
        <ele>167.3</ele>
        <time>2025-01-03T16:29:28.966Z</time>
      </trkpt>
      <trkpt lat="48.6717" lon="2.13333">
        <ele>167</ele>
        <time>2025-01-03T16:29:32.368Z</time>
      </trkpt>
      <trkpt lat="48.67172" lon="2.1334">
        <ele>166.6</ele>
        <time>2025-01-03T16:29:35.770Z</time>
      </trkpt>
      <trkpt lat="48.67175" lon="2.13348">
        <ele>166.2</ele>
        <time>2025-01-03T16:29:39.172Z</time>
      </trkpt>
      <trkpt lat="48.67177" lon="2.13356">
        <ele>166</ele>
        <time>2025-01-03T16:29:42.574Z</time>
      </trkpt>
      <trkpt lat="48.67179" lon="2.13363">
        <ele>165.8</ele>
        <time>2025-01-03T16:29:45.976Z</time>
      </trkpt>
      <trkpt lat="48.67181" lon="2.13371">
        <ele>165.8</ele>
        <time>2025-01-03T16:29:49.378Z</time>
      </trkpt>
      <trkpt lat="48.67183" lon="2.13379">
        <ele>165.9</ele>
        <time>2025-01-03T16:29:52.780Z</time>
      </trkpt>
      <trkpt lat="48.67185" lon="2.13386">
        <ele>166</ele>
        <time>2025-01-03T16:29:56.182Z</time>
      </trkpt>
      <trkpt lat="48.67187" lon="2.13394">
        <ele>166.2</ele>
        <time>2025-01-03T16:29:59.584Z</time>
      </trkpt>
      <trkpt lat="48.67189" lon="2.13402">
        <ele>166.4</ele>
        <time>2025-01-03T16:30:02.986Z</time>
      </trkpt>
      <trkpt lat="48.67191" lon="2.1341">
        <ele>166.7</ele>
        <time>2025-01-03T16:30:06.388Z</time>
      </trkpt>
      <trkpt lat="48.67193" lon="2.13417">
        <ele>166.9</ele>
        <time>2025-01-03T16:30:09.790Z</time>
      </trkpt>
      <trkpt lat="48.67195" lon="2.13425">
        <ele>166.7</ele>
        <time>2025-01-03T16:30:13.192Z</time>
      </trkpt>
      <trkpt lat="48.67198" lon="2.13433">
        <ele>166.5</ele>
        <time>2025-01-03T16:30:16.594Z</time>
      </trkpt>
      <trkpt lat="48.672" lon="2.1344">
        <ele>166.3</ele>
        <time>2025-01-03T16:30:19.996Z</time>
      </trkpt>
      <trkpt lat="48.67202" lon="2.13448">
        <ele>166.1</ele>
        <time>2025-01-03T16:30:23.398Z</time>
      </trkpt>
      <trkpt lat="48.67204" lon="2.13456">
        <ele>165.8</ele>
        <time>2025-01-03T16:30:26.800Z</time>
      </trkpt>
      <trkpt lat="48.67206" lon="2.13463">
        <ele>165.6</ele>
        <time>2025-01-03T16:30:30.202Z</time>
      </trkpt>
      <trkpt lat="48.67208" lon="2.13471">
        <ele>165.5</ele>
        <time>2025-01-03T16:30:33.604Z</time>
      </trkpt>
      <trkpt lat="48.67212" lon="2.13482">
        <ele>165.6</ele>
        <time>2025-01-03T16:30:39.005Z</time>
      </trkpt>
      <trkpt lat="48.67215" lon="2.13494">
        <ele>165.6</ele>
        <time>2025-01-03T16:30:44.406Z</time>
      </trkpt>
      <trkpt lat="48.67219" lon="2.13505">
        <ele>165.7</ele>
        <time>2025-01-03T16:30:49.807Z</time>
      </trkpt>
      <trkpt lat="48.67222" lon="2.13517">
        <ele>166</ele>
        <time>2025-01-03T16:30:55.208Z</time>
      </trkpt>
      <trkpt lat="48.67226" lon="2.13528">
        <ele>166</ele>
        <time>2025-01-03T16:31:00.609Z</time>
      </trkpt>
      <trkpt lat="48.67229" lon="2.13539">
        <ele>165.7</ele>
        <time>2025-01-03T16:31:06.010Z</time>
      </trkpt>
      <trkpt lat="48.67233" lon="2.13551">
        <ele>165.5</ele>
        <time>2025-01-03T16:31:11.412Z</time>
      </trkpt>
      <trkpt lat="48.67236" lon="2.13562">
        <ele>165.4</ele>
        <time>2025-01-03T16:31:16.814Z</time>
      </trkpt>
      <trkpt lat="48.67241" lon="2.13573">
        <ele>165.3</ele>
        <time>2025-01-03T16:31:22.392Z</time>
      </trkpt>
      <trkpt lat="48.67248" lon="2.1358">
        <ele>165.1</ele>
        <time>2025-01-03T16:31:27.296Z</time>
      </trkpt>
      <trkpt lat="48.67254" lon="2.13586">
        <ele>165.1</ele>
        <time>2025-01-03T16:31:32.200Z</time>
      </trkpt>
      <trkpt lat="48.6726" lon="2.13589">
        <ele>165.3</ele>
        <time>2025-01-03T16:31:36.407Z</time>
      </trkpt>
      <trkpt lat="48.67266" lon="2.13592">
        <ele>165.4</ele>
        <time>2025-01-03T16:31:40.614Z</time>
      </trkpt>
      <trkpt lat="48.67272" lon="2.13595">
        <ele>165.5</ele>
        <time>2025-01-03T16:31:44.821Z</time>
      </trkpt>
      <trkpt lat="48.67279" lon="2.13599">
        <ele>165.4</ele>
        <time>2025-01-03T16:31:49.028Z</time>
      </trkpt>
      <trkpt lat="48.67285" lon="2.13602">
        <ele>165.3</ele>
        <time>2025-01-03T16:31:53.235Z</time>
      </trkpt>
      <trkpt lat="48.67291" lon="2.13605">
        <ele>165.1</ele>
        <time>2025-01-03T16:31:57.442Z</time>
      </trkpt>
      <trkpt lat="48.67297" lon="2.13608">
        <ele>165</ele>
        <time>2025-01-03T16:32:01.649Z</time>
      </trkpt>
      <trkpt lat="48.67303" lon="2.13611">
        <ele>165</ele>
        <time>2025-01-03T16:32:05.857Z</time>
      </trkpt>
      <trkpt lat="48.67308" lon="2.13621">
        <ele>164.6</ele>
        <time>2025-01-03T16:32:10.603Z</time>
      </trkpt>
      <trkpt lat="48.67309" lon="2.13631">
        <ele>164.2</ele>
        <time>2025-01-03T16:32:14.430Z</time>
      </trkpt>
      <trkpt lat="48.67309" lon="2.13637">
        <ele>164.1</ele>
        <time>2025-01-03T16:32:16.833Z</time>
      </trkpt>
      <trkpt lat="48.67313" lon="2.13649">
        <ele>164</ele>
        <time>2025-01-03T16:32:22.209Z</time>
      </trkpt>
      <trkpt lat="48.67316" lon="2.1366">
        <ele>164</ele>
        <time>2025-01-03T16:32:27.585Z</time>
      </trkpt>
      <trkpt lat="48.67317" lon="2.13664">
        <ele>164</ele>
        <time>2025-01-03T16:32:29.434Z</time>
      </trkpt>
      <trkpt lat="48.67314" lon="2.13676">
        <ele>164</ele>
        <time>2025-01-03T16:32:34.983Z</time>
      </trkpt>
      <trkpt lat="48.67313" lon="2.13686">
        <ele>164</ele>
        <time>2025-01-03T16:32:39.416Z</time>
      </trkpt>
      <trkpt lat="48.67311" lon="2.13696">
        <ele>164</ele>
        <time>2025-01-03T16:32:43.851Z</time>
      </trkpt>
      <trkpt lat="48.67311" lon="2.13702">
        <ele>164</ele>
        <time>2025-01-03T16:32:46.445Z</time>
      </trkpt>
      <trkpt lat="48.67314" lon="2.13714">
        <ele>164</ele>
        <time>2025-01-03T16:32:51.994Z</time>
      </trkpt>
      <trkpt lat="48.67318" lon="2.13721">
        <ele>164</ele>
        <time>2025-01-03T16:32:55.996Z</time>
      </trkpt>
      <trkpt lat="48.67322" lon="2.13725">
        <ele>164</ele>
        <time>2025-01-03T16:32:58.896Z</time>
      </trkpt>
      <trkpt lat="48.67326" lon="2.13729">
        <ele>163.9</ele>
        <time>2025-01-03T16:33:01.796Z</time>
      </trkpt>
      <trkpt lat="48.6733" lon="2.13733">
        <ele>163.7</ele>
        <time>2025-01-03T16:33:04.697Z</time>
      </trkpt>
      <trkpt lat="48.67334" lon="2.13737">
        <ele>163.5</ele>
        <time>2025-01-03T16:33:07.598Z</time>
      </trkpt>
      <trkpt lat="48.67342" lon="2.13737">
        <ele>163.3</ele>
        <time>2025-01-03T16:33:12.454Z</time>
      </trkpt>
      <trkpt lat="48.67345" lon="2.13733">
        <ele>163.4</ele>
        <time>2025-01-03T16:33:15.284Z</time>
      </trkpt>
      <trkpt lat="48.67349" lon="2.13739">
        <ele>163.2</ele>
        <time>2025-01-03T16:33:18.597Z</time>
      </trkpt>
      <trkpt lat="48.67354" lon="2.13733">
        <ele>163.2</ele>
        <time>2025-01-03T16:33:22.570Z</time>
      </trkpt>
      <trkpt lat="48.67358" lon="2.13726">
        <ele>163.1</ele>
        <time>2025-01-03T16:33:26.543Z</time>
      </trkpt>
      <trkpt lat="48.67362" lon="2.13719">
        <ele>163</ele>
        <time>2025-01-03T16:33:30.464Z</time>
      </trkpt>
      <trkpt lat="48.67365" lon="2.13711">
        <ele>163</ele>
        <time>2025-01-03T16:33:34.385Z</time>
      </trkpt>
      <trkpt lat="48.67369" lon="2.13704">
        <ele>163</ele>
        <time>2025-01-03T16:33:38.306Z</time>
      </trkpt>
      <trkpt lat="48.67372" lon="2.13696">
        <ele>163</ele>
        <time>2025-01-03T16:33:42.228Z</time>
      </trkpt>
      <trkpt lat="48.67376" lon="2.13686">
        <ele>163.2</ele>
        <time>2025-01-03T16:33:47.470Z</time>
      </trkpt>
      <trkpt lat="48.6738" lon="2.13675">
        <ele>163.2</ele>
        <time>2025-01-03T16:33:52.712Z</time>
      </trkpt>
      <trkpt lat="48.67383" lon="2.13665">
        <ele>163.3</ele>
        <time>2025-01-03T16:33:57.954Z</time>
      </trkpt>
      <trkpt lat="48.67387" lon="2.13655">
        <ele>163.5</ele>
        <time>2025-01-03T16:34:03.196Z</time>
      </trkpt>
      <trkpt lat="48.67391" lon="2.13644">
        <ele>163.7</ele>
        <time>2025-01-03T16:34:08.438Z</time>
      </trkpt>
      <trkpt lat="48.67395" lon="2.13634">
        <ele>163.8</ele>
        <time>2025-01-03T16:34:13.681Z</time>
      </trkpt>
      <trkpt lat="48.67398" lon="2.13623">
        <ele>163.7</ele>
        <time>2025-01-03T16:34:18.924Z</time>
      </trkpt>
      <trkpt lat="48.67402" lon="2.13613">
        <ele>163.5</ele>
        <time>2025-01-03T16:34:24.167Z</time>
      </trkpt>
      <trkpt lat="48.67405" lon="2.13606">
        <ele>163.5</ele>
        <time>2025-01-03T16:34:27.988Z</time>
      </trkpt>
      <trkpt lat="48.67409" lon="2.136">
        <ele>163.6</ele>
        <time>2025-01-03T16:34:31.810Z</time>
      </trkpt>
      <trkpt lat="48.67412" lon="2.13593">
        <ele>163.7</ele>
        <time>2025-01-03T16:34:35.632Z</time>
      </trkpt>
      <trkpt lat="48.67415" lon="2.13586">
        <ele>163.9</ele>
        <time>2025-01-03T16:34:39.454Z</time>
      </trkpt>
      <trkpt lat="48.67421" lon="2.13583">
        <ele>163.9</ele>
        <time>2025-01-03T16:34:43.591Z</time>
      </trkpt>
      <trkpt lat="48.67424" lon="2.13573">
        <ele>164.1</ele>
        <time>2025-01-03T16:34:48.396Z</time>
      </trkpt>
      <trkpt lat="48.67427" lon="2.13564">
        <ele>164.3</ele>
        <time>2025-01-03T16:34:53.202Z</time>
      </trkpt>
      <trkpt lat="48.6743" lon="2.13554">
        <ele>164.5</ele>
        <time>2025-01-03T16:34:58.008Z</time>
      </trkpt>
      <trkpt lat="48.67433" lon="2.13544">
        <ele>164.2</ele>
        <time>2025-01-03T16:35:02.814Z</time>
        <extensions>
          <visugpx:TrkExtension xmlns:visugpx="https://www.visugpx.com/editgpx/">
            <visugpx:node>9</visugpx:node>
            </visugpx:TrkExtension>
        </extensions>
      </trkpt>
      <trkpt lat="48.67436" lon="2.13537">
        <ele>164.1</ele>
        <time>2025-01-03T16:35:06.411Z</time>
      </trkpt>
      <trkpt lat="48.67439" lon="2.13529">
        <ele>164</ele>
        <time>2025-01-03T16:35:10.009Z</time>
      </trkpt>
      <trkpt lat="48.67443" lon="2.1352">
        <ele>164.3</ele>
        <time>2025-01-03T16:35:15.071Z</time>
      </trkpt>
      <trkpt lat="48.67446" lon="2.13511">
        <ele>164.5</ele>
        <time>2025-01-03T16:35:20.133Z</time>
      </trkpt>
      <trkpt lat="48.6745" lon="2.13504">
        <ele>164.7</ele>
        <time>2025-01-03T16:35:23.870Z</time>
      </trkpt>
      <trkpt lat="48.67453" lon="2.13497">
        <ele>164.6</ele>
        <time>2025-01-03T16:35:27.608Z</time>
      </trkpt>
      <trkpt lat="48.67457" lon="2.13491">
        <ele>164.4</ele>
        <time>2025-01-03T16:35:31.346Z</time>
      </trkpt>
      <trkpt lat="48.67461" lon="2.13484">
        <ele>164.2</ele>
        <time>2025-01-03T16:35:35.084Z</time>
      </trkpt>
      <trkpt lat="48.67464" lon="2.13477">
        <ele>164</ele>
        <time>2025-01-03T16:35:38.822Z</time>
      </trkpt>
      <trkpt lat="48.67468" lon="2.1347">
        <ele>164.1</ele>
        <time>2025-01-03T16:35:42.560Z</time>
      </trkpt>
      <trkpt lat="48.67472" lon="2.13463">
        <ele>164.3</ele>
        <time>2025-01-03T16:35:46.298Z</time>
      </trkpt>
      <trkpt lat="48.67475" lon="2.13456">
        <ele>164.5</ele>
        <time>2025-01-03T16:35:50.036Z</time>
      </trkpt>
      <trkpt lat="48.67479" lon="2.13449">
        <ele>164.6</ele>
        <time>2025-01-03T16:35:53.774Z</time>
      </trkpt>
      <trkpt lat="48.67483" lon="2.13443">
        <ele>164.6</ele>
        <time>2025-01-03T16:35:57.512Z</time>
      </trkpt>
      <trkpt lat="48.67486" lon="2.13436">
        <ele>164.5</ele>
        <time>2025-01-03T16:36:01.250Z</time>
      </trkpt>
      <trkpt lat="48.6749" lon="2.13429">
        <ele>164.4</ele>
        <time>2025-01-03T16:36:04.988Z</time>
      </trkpt>
      <trkpt lat="48.67494" lon="2.13422">
        <ele>164.2</ele>
        <time>2025-01-03T16:36:08.726Z</time>
      </trkpt>
      <trkpt lat="48.67497" lon="2.13415">
        <ele>164.1</ele>
        <time>2025-01-03T16:36:12.464Z</time>
      </trkpt>
      <trkpt lat="48.67501" lon="2.13408">
        <ele>164</ele>
        <time>2025-01-03T16:36:16.202Z</time>
      </trkpt>
      <trkpt lat="48.67505" lon="2.13402">
        <ele>164</ele>
        <time>2025-01-03T16:36:19.940Z</time>
      </trkpt>
      <trkpt lat="48.67508" lon="2.13395">
        <ele>164</ele>
        <time>2025-01-03T16:36:23.678Z</time>
      </trkpt>
      <trkpt lat="48.67512" lon="2.13388">
        <ele>164</ele>
        <time>2025-01-03T16:36:27.416Z</time>
      </trkpt>
      <trkpt lat="48.67516" lon="2.13381">
        <ele>164</ele>
        <time>2025-01-03T16:36:31.154Z</time>
      </trkpt>
      <trkpt lat="48.67519" lon="2.13374">
        <ele>164</ele>
        <time>2025-01-03T16:36:34.892Z</time>
      </trkpt>
      <trkpt lat="48.67523" lon="2.13367">
        <ele>164</ele>
        <time>2025-01-03T16:36:38.630Z</time>
      </trkpt>
      <trkpt lat="48.67526" lon="2.1336">
        <ele>164</ele>
        <time>2025-01-03T16:36:42.368Z</time>
      </trkpt>
      <trkpt lat="48.6753" lon="2.13354">
        <ele>163.9</ele>
        <time>2025-01-03T16:36:46.106Z</time>
      </trkpt>
      <trkpt lat="48.67534" lon="2.13347">
        <ele>163.8</ele>
        <time>2025-01-03T16:36:49.844Z</time>
      </trkpt>
      <trkpt lat="48.67537" lon="2.1334">
        <ele>163.7</ele>
        <time>2025-01-03T16:36:53.582Z</time>
      </trkpt>
      <trkpt lat="48.67541" lon="2.13333">
        <ele>163.5</ele>
        <time>2025-01-03T16:36:57.320Z</time>
      </trkpt>
      <trkpt lat="48.67545" lon="2.13326">
        <ele>163.5</ele>
        <time>2025-01-03T16:37:01.058Z</time>
      </trkpt>
      <trkpt lat="48.67548" lon="2.13319">
        <ele>163.6</ele>
        <time>2025-01-03T16:37:04.796Z</time>
      </trkpt>
      <trkpt lat="48.67552" lon="2.13313">
        <ele>163.8</ele>
        <time>2025-01-03T16:37:08.534Z</time>
      </trkpt>
      <trkpt lat="48.67556" lon="2.13306">
        <ele>164</ele>
        <time>2025-01-03T16:37:12.272Z</time>
      </trkpt>
      <trkpt lat="48.67559" lon="2.13299">
        <ele>163.7</ele>
        <time>2025-01-03T16:37:16.010Z</time>
      </trkpt>
      <trkpt lat="48.67563" lon="2.13292">
        <ele>163.4</ele>
        <time>2025-01-03T16:37:19.748Z</time>
      </trkpt>
      <trkpt lat="48.67566" lon="2.13287">
        <ele>163.2</ele>
        <time>2025-01-03T16:37:22.304Z</time>
      </trkpt>
      <trkpt lat="48.6757" lon="2.13283">
        <ele>163.1</ele>
        <time>2025-01-03T16:37:25.250Z</time>
      </trkpt>
      <trkpt lat="48.67574" lon="2.13279">
        <ele>163</ele>
        <time>2025-01-03T16:37:28.196Z</time>
      </trkpt>
      <trkpt lat="48.6758" lon="2.13277">
        <ele>163</ele>
        <time>2025-01-03T16:37:32.270Z</time>
      </trkpt>
      <trkpt lat="48.67586" lon="2.13274">
        <ele>163</ele>
        <time>2025-01-03T16:37:36.345Z</time>
      </trkpt>
      <trkpt lat="48.67594" lon="2.13275">
        <ele>163</ele>
        <time>2025-01-03T16:37:41.601Z</time>
      </trkpt>
      <trkpt lat="48.67602" lon="2.13276">
        <ele>163</ele>
        <time>2025-01-03T16:37:46.858Z</time>
      </trkpt>
      <trkpt lat="48.67609" lon="2.13279">
        <ele>163</ele>
        <time>2025-01-03T16:37:51.384Z</time>
      </trkpt>
      <trkpt lat="48.67616" lon="2.13281">
        <ele>162.8</ele>
        <time>2025-01-03T16:37:55.910Z</time>
      </trkpt>
      <trkpt lat="48.67623" lon="2.13284">
        <ele>162.7</ele>
        <time>2025-01-03T16:38:00.436Z</time>
      </trkpt>
      <trkpt lat="48.6763" lon="2.13287">
        <ele>162.5</ele>
        <time>2025-01-03T16:38:04.962Z</time>
      </trkpt>
      <trkpt lat="48.67637" lon="2.13289">
        <ele>162.4</ele>
        <time>2025-01-03T16:38:09.488Z</time>
      </trkpt>
      <trkpt lat="48.67644" lon="2.13292">
        <ele>162.4</ele>
        <time>2025-01-03T16:38:14.015Z</time>
      </trkpt>
      <trkpt lat="48.67651" lon="2.13294">
        <ele>162.3</ele>
        <time>2025-01-03T16:38:18.542Z</time>
      </trkpt>
      <trkpt lat="48.67658" lon="2.13297">
        <ele>162.2</ele>
        <time>2025-01-03T16:38:23.069Z</time>
      </trkpt>
      <trkpt lat="48.67661" lon="2.13291">
        <ele>162.1</ele>
        <time>2025-01-03T16:38:26.130Z</time>
      </trkpt>
      <trkpt lat="48.67664" lon="2.13285">
        <ele>162</ele>
        <time>2025-01-03T16:38:29.191Z</time>
      </trkpt>
      <trkpt lat="48.67669" lon="2.13276">
        <ele>162</ele>
        <time>2025-01-03T16:38:34.276Z</time>
      </trkpt>
      <trkpt lat="48.67674" lon="2.13267">
        <ele>162</ele>
        <time>2025-01-03T16:38:39.362Z</time>
      </trkpt>
      <trkpt lat="48.67678" lon="2.13263">
        <ele>162</ele>
        <time>2025-01-03T16:38:42.501Z</time>
        <extensions>
          <visugpx:TrkExtension xmlns:visugpx="https://www.visugpx.com/editgpx/">
            <visugpx:node>10</visugpx:node>
            </visugpx:TrkExtension>
        </extensions>
      </trkpt>
      <trkpt lat="48.67678" lon="2.13262">
        <ele>162</ele>
        <time>2025-01-03T16:38:42.933Z</time>
      </trkpt>
      <trkpt lat="48.67677" lon="2.13255">
        <ele>162</ele>
        <time>2025-01-03T16:38:46.241Z</time>
      </trkpt>
      <trkpt lat="48.67676" lon="2.13247">
        <ele>162</ele>
        <time>2025-01-03T16:38:49.550Z</time>
      </trkpt>
      <trkpt lat="48.67678" lon="2.13234">
        <ele>162</ele>
        <time>2025-01-03T16:38:55.256Z</time>
      </trkpt>
      <trkpt lat="48.67679" lon="2.13221">
        <ele>162</ele>
        <time>2025-01-03T16:39:00.962Z</time>
      </trkpt>
      <trkpt lat="48.67681" lon="2.13211">
        <ele>162.2</ele>
        <time>2025-01-03T16:39:06.035Z</time>
      </trkpt>
      <trkpt lat="48.67682" lon="2.132">
        <ele>162.4</ele>
        <time>2025-01-03T16:39:11.109Z</time>
      </trkpt>
      <trkpt lat="48.67685" lon="2.13192">
        <ele>162.4</ele>
        <time>2025-01-03T16:39:14.691Z</time>
      </trkpt>
      <trkpt lat="48.67687" lon="2.13185">
        <ele>162.3</ele>
        <time>2025-01-03T16:39:18.273Z</time>
      </trkpt>
      <trkpt lat="48.6769" lon="2.13177">
        <ele>162.2</ele>
        <time>2025-01-03T16:39:21.856Z</time>
      </trkpt>
      <trkpt lat="48.67692" lon="2.13169">
        <ele>162.1</ele>
        <time>2025-01-03T16:39:25.439Z</time>
      </trkpt>
      <trkpt lat="48.67695" lon="2.1316">
        <ele>162.2</ele>
        <time>2025-01-03T16:39:30.020Z</time>
      </trkpt>
      <trkpt lat="48.67698" lon="2.13152">
        <ele>162.4</ele>
        <time>2025-01-03T16:39:34.601Z</time>
      </trkpt>
      <trkpt lat="48.67701" lon="2.13143">
        <ele>162.6</ele>
        <time>2025-01-03T16:39:39.182Z</time>
      </trkpt>
      <trkpt lat="48.67704" lon="2.13134">
        <ele>162.7</ele>
        <time>2025-01-03T16:39:43.763Z</time>
      </trkpt>
      <trkpt lat="48.67708" lon="2.13126">
        <ele>162.7</ele>
        <time>2025-01-03T16:39:48.204Z</time>
      </trkpt>
      <trkpt lat="48.67712" lon="2.13118">
        <ele>162.8</ele>
        <time>2025-01-03T16:39:52.645Z</time>
      </trkpt>
      <trkpt lat="48.67718" lon="2.13113">
        <ele>162.9</ele>
        <time>2025-01-03T16:39:56.948Z</time>
      </trkpt>
      <trkpt lat="48.67723" lon="2.13108">
        <ele>162.9</ele>
        <time>2025-01-03T16:40:01.251Z</time>
      </trkpt>
      <trkpt lat="48.6773" lon="2.13105">
        <ele>162.5</ele>
        <time>2025-01-03T16:40:05.652Z</time>
      </trkpt>
      <trkpt lat="48.67737" lon="2.13101">
        <ele>162.3</ele>
        <time>2025-01-03T16:40:10.054Z</time>
      </trkpt>
      <trkpt lat="48.67744" lon="2.13098">
        <ele>162.1</ele>
        <time>2025-01-03T16:40:14.456Z</time>
      </trkpt>
      <trkpt lat="48.67751" lon="2.13094">
        <ele>162</ele>
        <time>2025-01-03T16:40:18.858Z</time>
      </trkpt>
      <trkpt lat="48.67756" lon="2.13093">
        <ele>162</ele>
        <time>2025-01-03T16:40:22.160Z</time>
      </trkpt>
      <trkpt lat="48.67761" lon="2.13092">
        <ele>162</ele>
        <time>2025-01-03T16:40:25.463Z</time>
      </trkpt>
      <trkpt lat="48.67766" lon="2.13087">
        <ele>162</ele>
        <time>2025-01-03T16:40:29.386Z</time>
      </trkpt>
      <trkpt lat="48.67773" lon="2.1308">
        <ele>162</ele>
        <time>2025-01-03T16:40:34.879Z</time>
      </trkpt>
      <trkpt lat="48.67775" lon="2.13073">
        <ele>162</ele>
        <time>2025-01-03T16:40:38.177Z</time>
      </trkpt>
      <trkpt lat="48.67776" lon="2.13065">
        <ele>162</ele>
        <time>2025-01-03T16:40:41.866Z</time>
      </trkpt>
      <trkpt lat="48.67776" lon="2.13056">
        <ele>162</ele>
        <time>2025-01-03T16:40:45.556Z</time>
      </trkpt>
      <trkpt lat="48.6778" lon="2.13049">
        <ele>162.1</ele>
        <time>2025-01-03T16:40:49.561Z</time>
      </trkpt>
      <trkpt lat="48.67783" lon="2.13042">
        <ele>162.2</ele>
        <time>2025-01-03T16:40:53.567Z</time>
      </trkpt>
      <trkpt lat="48.67787" lon="2.13035">
        <ele>162.3</ele>
        <time>2025-01-03T16:40:57.573Z</time>
      </trkpt>
      <trkpt lat="48.6779" lon="2.13028">
        <ele>162.4</ele>
        <time>2025-01-03T16:41:01.579Z</time>
      </trkpt>
      <trkpt lat="48.67795" lon="2.13022">
        <ele>162.6</ele>
        <time>2025-01-03T16:41:05.607Z</time>
      </trkpt>
      <trkpt lat="48.67799" lon="2.13016">
        <ele>162.5</ele>
        <time>2025-01-03T16:41:09.636Z</time>
      </trkpt>
      <trkpt lat="48.67805" lon="2.1301">
        <ele>162.4</ele>
        <time>2025-01-03T16:41:13.695Z</time>
      </trkpt>
      <trkpt lat="48.6781" lon="2.13004">
        <ele>162.1</ele>
        <time>2025-01-03T16:41:17.755Z</time>
      </trkpt>
      <trkpt lat="48.67814" lon="2.13001">
        <ele>162</ele>
        <time>2025-01-03T16:41:20.677Z</time>
      </trkpt>
      <trkpt lat="48.67818" lon="2.12998">
        <ele>162</ele>
        <time>2025-01-03T16:41:23.599Z</time>
      </trkpt>
      <trkpt lat="48.67822" lon="2.12995">
        <ele>162</ele>
        <time>2025-01-03T16:41:26.521Z</time>
      </trkpt>
      <trkpt lat="48.67826" lon="2.12992">
        <ele>162</ele>
        <time>2025-01-03T16:41:29.443Z</time>
      </trkpt>
      <trkpt lat="48.6783" lon="2.12988">
        <ele>162</ele>
        <time>2025-01-03T16:41:32.365Z</time>
      </trkpt>
      <trkpt lat="48.67834" lon="2.12985">
        <ele>162</ele>
        <time>2025-01-03T16:41:35.287Z</time>
      </trkpt>
      <trkpt lat="48.67838" lon="2.12982">
        <ele>162</ele>
        <time>2025-01-03T16:41:38.209Z</time>
      </trkpt>
      <trkpt lat="48.67842" lon="2.12979">
        <ele>162</ele>
        <time>2025-01-03T16:41:41.132Z</time>
      </trkpt>
      <trkpt lat="48.67848" lon="2.12976">
        <ele>162</ele>
        <time>2025-01-03T16:41:44.891Z</time>
      </trkpt>
      <trkpt lat="48.67853" lon="2.12972">
        <ele>162</ele>
        <time>2025-01-03T16:41:48.650Z</time>
      </trkpt>
      <trkpt lat="48.67859" lon="2.12969">
        <ele>161.9</ele>
        <time>2025-01-03T16:41:52.410Z</time>
      </trkpt>
      <trkpt lat="48.67864" lon="2.12965">
        <ele>161.7</ele>
        <time>2025-01-03T16:41:56.170Z</time>
      </trkpt>
      <trkpt lat="48.67869" lon="2.12963">
        <ele>161.7</ele>
        <time>2025-01-03T16:41:59.120Z</time>
      </trkpt>
      <trkpt lat="48.67873" lon="2.1296">
        <ele>161.6</ele>
        <time>2025-01-03T16:42:02.070Z</time>
      </trkpt>
      <trkpt lat="48.67878" lon="2.12958">
        <ele>161.5</ele>
        <time>2025-01-03T16:42:05.021Z</time>
      </trkpt>
      <trkpt lat="48.67882" lon="2.12956">
        <ele>161.4</ele>
        <time>2025-01-03T16:42:07.972Z</time>
      </trkpt>
      <trkpt lat="48.67887" lon="2.12953">
        <ele>161.3</ele>
        <time>2025-01-03T16:42:10.923Z</time>
      </trkpt>
      <trkpt lat="48.67891" lon="2.12951">
        <ele>161.2</ele>
        <time>2025-01-03T16:42:13.874Z</time>
      </trkpt>
      <trkpt lat="48.67896" lon="2.12948">
        <ele>161.1</ele>
        <time>2025-01-03T16:42:16.825Z</time>
      </trkpt>
      <trkpt lat="48.679" lon="2.12946">
        <ele>161</ele>
        <time>2025-01-03T16:42:19.776Z</time>
      </trkpt>
      <trkpt lat="48.67906" lon="2.12944">
        <ele>161</ele>
        <time>2025-01-03T16:42:23.416Z</time>
      </trkpt>
      <trkpt lat="48.67911" lon="2.12943">
        <ele>161</ele>
        <time>2025-01-03T16:42:27.056Z</time>
      </trkpt>
      <trkpt lat="48.67917" lon="2.12941">
        <ele>161</ele>
        <time>2025-01-03T16:42:30.696Z</time>
      </trkpt>
      <trkpt lat="48.67922" lon="2.12939">
        <ele>161</ele>
        <time>2025-01-03T16:42:34.336Z</time>
      </trkpt>
      <trkpt lat="48.67928" lon="2.12938">
        <ele>160.9</ele>
        <time>2025-01-03T16:42:37.976Z</time>
      </trkpt>
      <trkpt lat="48.67933" lon="2.12936">
        <ele>160.8</ele>
        <time>2025-01-03T16:42:41.616Z</time>
      </trkpt>
      <trkpt lat="48.67939" lon="2.12934">
        <ele>160.7</ele>
        <time>2025-01-03T16:42:45.256Z</time>
      </trkpt>
      <trkpt lat="48.67945" lon="2.12933">
        <ele>160.6</ele>
        <time>2025-01-03T16:42:48.896Z</time>
      </trkpt>
      <trkpt lat="48.6795" lon="2.12931">
        <ele>160.5</ele>
        <time>2025-01-03T16:42:52.536Z</time>
      </trkpt>
      <trkpt lat="48.67956" lon="2.12929">
        <ele>160.5</ele>
        <time>2025-01-03T16:42:56.176Z</time>
      </trkpt>
      <trkpt lat="48.67961" lon="2.12927">
        <ele>160.5</ele>
        <time>2025-01-03T16:42:59.816Z</time>
      </trkpt>
      <trkpt lat="48.67967" lon="2.12926">
        <ele>160.6</ele>
        <time>2025-01-03T16:43:03.456Z</time>
      </trkpt>
      <trkpt lat="48.67972" lon="2.12924">
        <ele>160.7</ele>
        <time>2025-01-03T16:43:07.096Z</time>
      </trkpt>
      <trkpt lat="48.67978" lon="2.12922">
        <ele>160.6</ele>
        <time>2025-01-03T16:43:10.737Z</time>
      </trkpt>
      <trkpt lat="48.67983" lon="2.12921">
        <ele>160.5</ele>
        <time>2025-01-03T16:43:14.378Z</time>
      </trkpt>
      <trkpt lat="48.67989" lon="2.12919">
        <ele>160.4</ele>
        <time>2025-01-03T16:43:18.019Z</time>
      </trkpt>
      <trkpt lat="48.67994" lon="2.12917">
        <ele>160.2</ele>
        <time>2025-01-03T16:43:21.493Z</time>
      </trkpt>
      <trkpt lat="48.68" lon="2.12915">
        <ele>160.1</ele>
        <time>2025-01-03T16:43:24.967Z</time>
      </trkpt>
      <trkpt lat="48.68005" lon="2.12912">
        <ele>160.1</ele>
        <time>2025-01-03T16:43:28.441Z</time>
      </trkpt>
      <trkpt lat="48.6801" lon="2.1291">
        <ele>160.2</ele>
        <time>2025-01-03T16:43:31.915Z</time>
      </trkpt>
      <trkpt lat="48.68018" lon="2.12906">
        <ele>160.1</ele>
        <time>2025-01-03T16:43:37.059Z</time>
      </trkpt>
      <trkpt lat="48.68025" lon="2.12902">
        <ele>160.1</ele>
        <time>2025-01-03T16:43:42.203Z</time>
      </trkpt>
      <trkpt lat="48.68033" lon="2.12897">
        <ele>160</ele>
        <time>2025-01-03T16:43:47.347Z</time>
      </trkpt>
      <trkpt lat="48.6804" lon="2.12893">
        <ele>160</ele>
        <time>2025-01-03T16:43:52.491Z</time>
      </trkpt>
      <trkpt lat="48.68045" lon="2.1289">
        <ele>160</ele>
        <time>2025-01-03T16:43:55.732Z</time>
      </trkpt>
      <trkpt lat="48.68049" lon="2.12887">
        <ele>160</ele>
        <time>2025-01-03T16:43:58.973Z</time>
      </trkpt>
      <trkpt lat="48.68054" lon="2.12884">
        <ele>160</ele>
        <time>2025-01-03T16:44:02.214Z</time>
      </trkpt>
      <trkpt lat="48.68058" lon="2.12881">
        <ele>160</ele>
        <time>2025-01-03T16:44:05.456Z</time>
      </trkpt>
      <trkpt lat="48.68063" lon="2.12877">
        <ele>160</ele>
        <time>2025-01-03T16:44:08.698Z</time>
      </trkpt>
      <trkpt lat="48.68067" lon="2.12874">
        <ele>160</ele>
        <time>2025-01-03T16:44:11.940Z</time>
      </trkpt>
      <trkpt lat="48.68072" lon="2.12871">
        <ele>160</ele>
        <time>2025-01-03T16:44:15.182Z</time>
      </trkpt>
      <trkpt lat="48.68076" lon="2.12868">
        <ele>160</ele>
        <time>2025-01-03T16:44:18.424Z</time>
      </trkpt>
      <trkpt lat="48.68083" lon="2.12862">
        <ele>160</ele>
        <time>2025-01-03T16:44:23.436Z</time>
      </trkpt>
      <trkpt lat="48.68089" lon="2.12856">
        <ele>160</ele>
        <time>2025-01-03T16:44:28.448Z</time>
      </trkpt>
      <trkpt lat="48.68096" lon="2.1285">
        <ele>160</ele>
        <time>2025-01-03T16:44:33.461Z</time>
      </trkpt>
      <trkpt lat="48.68102" lon="2.12844">
        <ele>160</ele>
        <time>2025-01-03T16:44:38.474Z</time>
      </trkpt>
      <trkpt lat="48.68109" lon="2.12837">
        <ele>160</ele>
        <time>2025-01-03T16:44:43.487Z</time>
      </trkpt>
      <trkpt lat="48.68115" lon="2.12831">
        <ele>160</ele>
        <time>2025-01-03T16:44:48.500Z</time>
      </trkpt>
      <trkpt lat="48.68122" lon="2.12825">
        <ele>160</ele>
        <time>2025-01-03T16:44:53.513Z</time>
      </trkpt>
      <trkpt lat="48.68128" lon="2.12819">
        <ele>160</ele>
        <time>2025-01-03T16:44:58.526Z</time>
      </trkpt>
      <trkpt lat="48.68132" lon="2.12815">
        <ele>160</ele>
        <time>2025-01-03T16:45:01.834Z</time>
      </trkpt>
      <trkpt lat="48.68136" lon="2.12811">
        <ele>160</ele>
        <time>2025-01-03T16:45:05.142Z</time>
      </trkpt>
      <trkpt lat="48.6814" lon="2.12807">
        <ele>160</ele>
        <time>2025-01-03T16:45:08.450Z</time>
      </trkpt>
      <trkpt lat="48.68145" lon="2.12802">
        <ele>160.1</ele>
        <time>2025-01-03T16:45:11.758Z</time>
      </trkpt>
      <trkpt lat="48.68149" lon="2.12798">
        <ele>160.3</ele>
        <time>2025-01-03T16:45:15.066Z</time>
      </trkpt>
      <trkpt lat="48.68153" lon="2.12794">
        <ele>160.4</ele>
        <time>2025-01-03T16:45:18.374Z</time>
      </trkpt>
      <trkpt lat="48.68157" lon="2.1279">
        <ele>160.6</ele>
        <time>2025-01-03T16:45:21.682Z</time>
      </trkpt>
      <trkpt lat="48.68161" lon="2.12786">
        <ele>160.7</ele>
        <time>2025-01-03T16:45:24.990Z</time>
      </trkpt>
      <trkpt lat="48.68165" lon="2.12782">
        <ele>160.9</ele>
        <time>2025-01-03T16:45:28.298Z</time>
      </trkpt>
      <trkpt lat="48.68169" lon="2.12777">
        <ele>161</ele>
        <time>2025-01-03T16:45:31.606Z</time>
      </trkpt>
      <trkpt lat="48.68173" lon="2.12773">
        <ele>161</ele>
        <time>2025-01-03T16:45:34.914Z</time>
      </trkpt>
      <trkpt lat="48.68178" lon="2.12769">
        <ele>161</ele>
        <time>2025-01-03T16:45:38.222Z</time>
      </trkpt>
      <trkpt lat="48.68182" lon="2.12765">
        <ele>161</ele>
        <time>2025-01-03T16:45:41.530Z</time>
      </trkpt>
      <trkpt lat="48.68186" lon="2.12761">
        <ele>161</ele>
        <time>2025-01-03T16:45:44.838Z</time>
      </trkpt>
      <trkpt lat="48.6819" lon="2.12757">
        <ele>161</ele>
        <time>2025-01-03T16:45:48.146Z</time>
      </trkpt>
      <trkpt lat="48.68194" lon="2.12753">
        <ele>161</ele>
        <time>2025-01-03T16:45:51.454Z</time>
      </trkpt>
      <trkpt lat="48.68198" lon="2.12748">
        <ele>161.1</ele>
        <time>2025-01-03T16:45:54.762Z</time>
      </trkpt>
      <trkpt lat="48.68202" lon="2.12744">
        <ele>161.1</ele>
        <time>2025-01-03T16:45:58.070Z</time>
      </trkpt>
      <trkpt lat="48.68206" lon="2.1274">
        <ele>161.2</ele>
        <time>2025-01-03T16:46:01.378Z</time>
      </trkpt>
      <trkpt lat="48.68211" lon="2.12736">
        <ele>161.2</ele>
        <time>2025-01-03T16:46:04.686Z</time>
      </trkpt>
      <trkpt lat="48.68215" lon="2.12732">
        <ele>161.2</ele>
        <time>2025-01-03T16:46:07.994Z</time>
      </trkpt>
      <trkpt lat="48.68219" lon="2.12728">
        <ele>161.1</ele>
        <time>2025-01-03T16:46:11.302Z</time>
      </trkpt>
      <trkpt lat="48.68223" lon="2.12723">
        <ele>161</ele>
        <time>2025-01-03T16:46:14.610Z</time>
      </trkpt>
      <trkpt lat="48.68227" lon="2.12719">
        <ele>161.1</ele>
        <time>2025-01-03T16:46:17.918Z</time>
      </trkpt>
      <trkpt lat="48.68231" lon="2.12715">
        <ele>161.2</ele>
        <time>2025-01-03T16:46:21.226Z</time>
      </trkpt>
      <trkpt lat="48.68235" lon="2.12711">
        <ele>161.2</ele>
        <time>2025-01-03T16:46:24.534Z</time>
      </trkpt>
      <trkpt lat="48.68239" lon="2.12707">
        <ele>161.2</ele>
        <time>2025-01-03T16:46:27.842Z</time>
      </trkpt>
      <trkpt lat="48.68244" lon="2.12703">
        <ele>161.2</ele>
        <time>2025-01-03T16:46:31.150Z</time>
      </trkpt>
      <trkpt lat="48.68248" lon="2.12699">
        <ele>161.1</ele>
        <time>2025-01-03T16:46:34.458Z</time>
      </trkpt>
      <trkpt lat="48.68252" lon="2.12694">
        <ele>161</ele>
        <time>2025-01-03T16:46:37.766Z</time>
      </trkpt>
      <trkpt lat="48.68256" lon="2.1269">
        <ele>161</ele>
        <time>2025-01-03T16:46:41.074Z</time>
      </trkpt>
      <trkpt lat="48.6826" lon="2.12686">
        <ele>161</ele>
        <time>2025-01-03T16:46:44.382Z</time>
      </trkpt>
      <trkpt lat="48.68266" lon="2.12681">
        <ele>161</ele>
        <time>2025-01-03T16:46:48.438Z</time>
      </trkpt>
      <trkpt lat="48.68271" lon="2.12676">
        <ele>161</ele>
        <time>2025-01-03T16:46:52.494Z</time>
      </trkpt>
      <trkpt lat="48.68277" lon="2.12671">
        <ele>161</ele>
        <time>2025-01-03T16:46:56.550Z</time>
      </trkpt>
      <trkpt lat="48.68283" lon="2.12666">
        <ele>160.8</ele>
        <time>2025-01-03T16:47:00.606Z</time>
      </trkpt>
      <trkpt lat="48.68288" lon="2.1266">
        <ele>160.6</ele>
        <time>2025-01-03T16:47:04.663Z</time>
      </trkpt>
      <trkpt lat="48.68294" lon="2.12655">
        <ele>160.4</ele>
        <time>2025-01-03T16:47:08.720Z</time>
      </trkpt>
      <trkpt lat="48.68299" lon="2.1265">
        <ele>160.2</ele>
        <time>2025-01-03T16:47:12.777Z</time>
      </trkpt>
      <trkpt lat="48.68305" lon="2.12645">
        <ele>160</ele>
        <time>2025-01-03T16:47:16.834Z</time>
        <extensions>
          <visugpx:TrkExtension xmlns:visugpx="https://www.visugpx.com/editgpx/">
            <visugpx:node>11</visugpx:node>
            </visugpx:TrkExtension>
        </extensions>
      </trkpt>
      <trkpt lat="48.68305" lon="2.12645">
        <ele>160</ele>
        <time>2025-01-03T16:47:16.834Z</time>
      </trkpt>
      <trkpt lat="48.6831" lon="2.1265">
        <ele>159.9</ele>
        <time>2025-01-03T16:47:20.648Z</time>
      </trkpt>
      <trkpt lat="48.68315" lon="2.12655">
        <ele>159.9</ele>
        <time>2025-01-03T16:47:24.463Z</time>
      </trkpt>
      <trkpt lat="48.6832" lon="2.12659">
        <ele>159.9</ele>
        <time>2025-01-03T16:47:28.278Z</time>
      </trkpt>
      <trkpt lat="48.68325" lon="2.12664">
        <ele>159.9</ele>
        <time>2025-01-03T16:47:32.093Z</time>
      </trkpt>
      <trkpt lat="48.6833" lon="2.12666">
        <ele>160</ele>
        <time>2025-01-03T16:47:35.689Z</time>
      </trkpt>
      <trkpt lat="48.68337" lon="2.12668">
        <ele>159.8</ele>
        <time>2025-01-03T16:47:39.872Z</time>
      </trkpt>
      <trkpt lat="48.68344" lon="2.12669">
        <ele>159.6</ele>
        <time>2025-01-03T16:47:44.055Z</time>
      </trkpt>
      <trkpt lat="48.68351" lon="2.12671">
        <ele>159.3</ele>
        <time>2025-01-03T16:47:48.238Z</time>
      </trkpt>
      <trkpt lat="48.68358" lon="2.12672">
        <ele>159.1</ele>
        <time>2025-01-03T16:47:52.421Z</time>
      </trkpt>
      <trkpt lat="48.68365" lon="2.12674">
        <ele>158.9</ele>
        <time>2025-01-03T16:47:56.604Z</time>
      </trkpt>
      <trkpt lat="48.68372" lon="2.12675">
        <ele>158.6</ele>
        <time>2025-01-03T16:48:00.788Z</time>
      </trkpt>
      <trkpt lat="48.68379" lon="2.12677">
        <ele>158.4</ele>
        <time>2025-01-03T16:48:04.972Z</time>
      </trkpt>
      <trkpt lat="48.68386" lon="2.12678">
        <ele>158.1</ele>
        <time>2025-01-03T16:48:09.156Z</time>
      </trkpt>
      <trkpt lat="48.6839" lon="2.12675">
        <ele>158</ele>
        <time>2025-01-03T16:48:11.887Z</time>
      </trkpt>
      <trkpt lat="48.68393" lon="2.12664">
        <ele>158</ele>
        <time>2025-01-03T16:48:17.032Z</time>
      </trkpt>
      <trkpt lat="48.68396" lon="2.12659">
        <ele>158</ele>
        <time>2025-01-03T16:48:19.953Z</time>
      </trkpt>
      <trkpt lat="48.684" lon="2.12663">
        <ele>158</ele>
        <time>2025-01-03T16:48:23.091Z</time>
      </trkpt>
      <trkpt lat="48.68406" lon="2.12664">
        <ele>158</ele>
        <time>2025-01-03T16:48:26.831Z</time>
      </trkpt>
      <trkpt lat="48.68412" lon="2.12665">
        <ele>158</ele>
        <time>2025-01-03T16:48:30.571Z</time>
      </trkpt>
      <trkpt lat="48.68417" lon="2.12666">
        <ele>158</ele>
        <time>2025-01-03T16:48:34.311Z</time>
      </trkpt>
      <trkpt lat="48.68423" lon="2.12667">
        <ele>158</ele>
        <time>2025-01-03T16:48:38.051Z</time>
      </trkpt>
      <trkpt lat="48.68429" lon="2.12668">
        <ele>158</ele>
        <time>2025-01-03T16:48:41.791Z</time>
      </trkpt>
      <trkpt lat="48.68435" lon="2.12669">
        <ele>157.9</ele>
        <time>2025-01-03T16:48:45.531Z</time>
      </trkpt>
      <trkpt lat="48.6844" lon="2.1267">
        <ele>157.9</ele>
        <time>2025-01-03T16:48:49.271Z</time>
      </trkpt>
      <trkpt lat="48.68446" lon="2.12671">
        <ele>157.8</ele>
        <time>2025-01-03T16:48:53.011Z</time>
      </trkpt>
      <trkpt lat="48.68451" lon="2.12672">
        <ele>157.6</ele>
        <time>2025-01-03T16:48:56.032Z</time>
      </trkpt>
      <trkpt lat="48.68456" lon="2.12673">
        <ele>157.5</ele>
        <time>2025-01-03T16:48:59.053Z</time>
      </trkpt>
      <trkpt lat="48.68461" lon="2.12674">
        <ele>157.3</ele>
        <time>2025-01-03T16:49:02.074Z</time>
      </trkpt>
      <trkpt lat="48.68466" lon="2.12675">
        <ele>157.2</ele>
        <time>2025-01-03T16:49:05.095Z</time>
      </trkpt>
      <trkpt lat="48.6847" lon="2.12675">
        <ele>157</ele>
        <time>2025-01-03T16:49:08.117Z</time>
      </trkpt>
      <trkpt lat="48.68475" lon="2.12676">
        <ele>157</ele>
        <time>2025-01-03T16:49:11.139Z</time>
      </trkpt>
      <trkpt lat="48.6848" lon="2.12677">
        <ele>157</ele>
        <time>2025-01-03T16:49:14.161Z</time>
      </trkpt>
      <trkpt lat="48.68485" lon="2.12678">
        <ele>157</ele>
        <time>2025-01-03T16:49:17.183Z</time>
      </trkpt>
      <trkpt lat="48.68491" lon="2.12679">
        <ele>157</ele>
        <time>2025-01-03T16:49:21.135Z</time>
      </trkpt>
      <trkpt lat="48.68497" lon="2.1268">
        <ele>157</ele>
        <time>2025-01-03T16:49:25.088Z</time>
      </trkpt>
      <trkpt lat="48.68497" lon="2.1268">
        <ele>157</ele>
        <time>2025-01-03T16:49:25.088Z</time>
        <extensions>
          <visugpx:TrkExtension xmlns:visugpx="https://www.visugpx.com/editgpx/">
            <visugpx:node>12</visugpx:node>
            </visugpx:TrkExtension>
        </extensions>
      </trkpt>
      <trkpt lat="48.68506" lon="2.12682">
        <ele>156.8</ele>
        <time>2025-01-03T16:49:30.304Z</time>
      </trkpt>
      <trkpt lat="48.68515" lon="2.12684">
        <ele>156.5</ele>
        <time>2025-01-03T16:49:35.520Z</time>
      </trkpt>
      <trkpt lat="48.68523" lon="2.12685">
        <ele>156.2</ele>
        <time>2025-01-03T16:49:40.736Z</time>
      </trkpt>
      <trkpt lat="48.68532" lon="2.12687">
        <ele>155.9</ele>
        <time>2025-01-03T16:49:45.952Z</time>
      </trkpt>
      <trkpt lat="48.68541" lon="2.12689">
        <ele>155.6</ele>
        <time>2025-01-03T16:49:51.168Z</time>
      </trkpt>
      <trkpt lat="48.6855" lon="2.12691">
        <ele>155.3</ele>
        <time>2025-01-03T16:49:56.385Z</time>
      </trkpt>
      <trkpt lat="48.68558" lon="2.12692">
        <ele>155</ele>
        <time>2025-01-03T16:50:01.602Z</time>
      </trkpt>
      <trkpt lat="48.68567" lon="2.12694">
        <ele>154.6</ele>
        <time>2025-01-03T16:50:06.819Z</time>
      </trkpt>
      <trkpt lat="48.68572" lon="2.12697">
        <ele>154.3</ele>
        <time>2025-01-03T16:50:10.083Z</time>
      </trkpt>
      <trkpt lat="48.68578" lon="2.127">
        <ele>154</ele>
        <time>2025-01-03T16:50:13.347Z</time>
      </trkpt>
      <trkpt lat="48.68583" lon="2.12702">
        <ele>153.7</ele>
        <time>2025-01-03T16:50:16.611Z</time>
      </trkpt>
      <trkpt lat="48.68588" lon="2.12705">
        <ele>153.8</ele>
        <time>2025-01-03T16:50:19.875Z</time>
        <extensions>
          <visugpx:TrkExtension xmlns:visugpx="https://www.visugpx.com/editgpx/">
            <visugpx:node>13</visugpx:node>
            </visugpx:TrkExtension>
        </extensions>
      </trkpt>
      <trkpt lat="48.68593" lon="2.12708">
        <ele>153.9</ele>
        <time>2025-01-03T16:50:23.606Z</time>
      </trkpt>
      <trkpt lat="48.68598" lon="2.12712">
        <ele>153.9</ele>
        <time>2025-01-03T16:50:28.012Z</time>
      </trkpt>
      <trkpt lat="48.68603" lon="2.12717">
        <ele>153.9</ele>
        <time>2025-01-03T16:50:32.418Z</time>
      </trkpt>
      <trkpt lat="48.68608" lon="2.12721">
        <ele>153.9</ele>
        <time>2025-01-03T16:50:36.824Z</time>
      </trkpt>
      <trkpt lat="48.68613" lon="2.12725">
        <ele>154.2</ele>
        <time>2025-01-03T16:50:41.230Z</time>
      </trkpt>
      <trkpt lat="48.68618" lon="2.12729">
        <ele>154.5</ele>
        <time>2025-01-03T16:50:45.636Z</time>
      </trkpt>
      <trkpt lat="48.68623" lon="2.12734">
        <ele>154.9</ele>
        <time>2025-01-03T16:50:50.042Z</time>
      </trkpt>
      <trkpt lat="48.68628" lon="2.12738">
        <ele>155.2</ele>
        <time>2025-01-03T16:50:54.448Z</time>
      </trkpt>
      <trkpt lat="48.68634" lon="2.12742">
        <ele>155.6</ele>
        <time>2025-01-03T16:50:58.854Z</time>
      </trkpt>
      <trkpt lat="48.68639" lon="2.12746">
        <ele>156</ele>
        <time>2025-01-03T16:51:03.260Z</time>
      </trkpt>
      <trkpt lat="48.68644" lon="2.12751">
        <ele>156.3</ele>
        <time>2025-01-03T16:51:07.666Z</time>
      </trkpt>
      <trkpt lat="48.68649" lon="2.12755">
        <ele>156.6</ele>
        <time>2025-01-03T16:51:12.073Z</time>
      </trkpt>
      <trkpt lat="48.68654" lon="2.12759">
        <ele>156.9</ele>
        <time>2025-01-03T16:51:16.480Z</time>
      </trkpt>
      <trkpt lat="48.68659" lon="2.12763">
        <ele>157.3</ele>
        <time>2025-01-03T16:51:20.887Z</time>
      </trkpt>
      <trkpt lat="48.68664" lon="2.12768">
        <ele>157.7</ele>
        <time>2025-01-03T16:51:25.294Z</time>
      </trkpt>
      <trkpt lat="48.68669" lon="2.12772">
        <ele>158.1</ele>
        <time>2025-01-03T16:51:29.701Z</time>
      </trkpt>
      <trkpt lat="48.68674" lon="2.12776">
        <ele>158.3</ele>
        <time>2025-01-03T16:51:34.108Z</time>
      </trkpt>
      <trkpt lat="48.68676" lon="2.12782">
        <ele>158.2</ele>
        <time>2025-01-03T16:51:36.821Z</time>
      </trkpt>
      <trkpt lat="48.68676" lon="2.12783">
        <ele>158.2</ele>
        <time>2025-01-03T16:51:37.254Z</time>
        <extensions>
          <visugpx:TrkExtension xmlns:visugpx="https://www.visugpx.com/editgpx/">
            <visugpx:node>14</visugpx:node>
            </visugpx:TrkExtension>
        </extensions>
      </trkpt>
      <trkpt lat="48.68678" lon="2.12794">
        <ele>158.1</ele>
        <time>2025-01-03T16:51:41.990Z</time>
      </trkpt>
      <trkpt lat="48.6867" lon="2.12793">
        <ele>157.6</ele>
        <time>2025-01-03T16:51:46.868Z</time>
      </trkpt>
      <trkpt lat="48.68661" lon="2.12793">
        <ele>157</ele>
        <time>2025-01-03T16:51:51.746Z</time>
      </trkpt>
      <trkpt lat="48.68653" lon="2.12792">
        <ele>156.2</ele>
        <time>2025-01-03T16:51:56.624Z</time>
      </trkpt>
      <trkpt lat="48.68644" lon="2.12791">
        <ele>155.5</ele>
        <time>2025-01-03T16:52:01.503Z</time>
      </trkpt>
      <trkpt lat="48.6864" lon="2.12801">
        <ele>155.1</ele>
        <time>2025-01-03T16:52:05.764Z</time>
      </trkpt>
      <trkpt lat="48.68636" lon="2.1281">
        <ele>154.7</ele>
        <time>2025-01-03T16:52:10.027Z</time>
        <extensions>
          <visugpx:TrkExtension xmlns:visugpx="https://www.visugpx.com/editgpx/">
            <visugpx:node>15</visugpx:node>
            </visugpx:TrkExtension>
        </extensions>
      </trkpt>
      <trkpt lat="48.68636" lon="2.1281">
        <ele>154.7</ele>
        <time>2025-01-03T16:52:10.027Z</time>
      </trkpt>
      <trkpt lat="48.68639" lon="2.12817">
        <ele>155</ele>
        <time>2025-01-03T16:52:13.563Z</time>
      </trkpt>
      <trkpt lat="48.68641" lon="2.12823">
        <ele>155.2</ele>
        <time>2025-01-03T16:52:17.099Z</time>
      </trkpt>
      <trkpt lat="48.68644" lon="2.1283">
        <ele>155.4</ele>
        <time>2025-01-03T16:52:20.636Z</time>
      </trkpt>
      <trkpt lat="48.68647" lon="2.12837">
        <ele>155.5</ele>
        <time>2025-01-03T16:52:24.173Z</time>
      </trkpt>
      <trkpt lat="48.68649" lon="2.12843">
        <ele>155.5</ele>
        <time>2025-01-03T16:52:27.710Z</time>
      </trkpt>
      <trkpt lat="48.68652" lon="2.1285">
        <ele>155.6</ele>
        <time>2025-01-03T16:52:31.247Z</time>
      </trkpt>
      <trkpt lat="48.68654" lon="2.12856">
        <ele>155.8</ele>
        <time>2025-01-03T16:52:34.784Z</time>
      </trkpt>
      <trkpt lat="48.68657" lon="2.12863">
        <ele>155.9</ele>
        <time>2025-01-03T16:52:38.321Z</time>
      </trkpt>
      <trkpt lat="48.6866" lon="2.1287">
        <ele>155.9</ele>
        <time>2025-01-03T16:52:41.858Z</time>
      </trkpt>
      <trkpt lat="48.68662" lon="2.12876">
        <ele>156</ele>
        <time>2025-01-03T16:52:45.395Z</time>
      </trkpt>
      <trkpt lat="48.68665" lon="2.12883">
        <ele>156</ele>
        <time>2025-01-03T16:52:48.932Z</time>
      </trkpt>
      <trkpt lat="48.68668" lon="2.1289">
        <ele>156</ele>
        <time>2025-01-03T16:52:52.469Z</time>
      </trkpt>
      <trkpt lat="48.6867" lon="2.12896">
        <ele>156</ele>
        <time>2025-01-03T16:52:56.006Z</time>
      </trkpt>
      <trkpt lat="48.68673" lon="2.12903">
        <ele>156.1</ele>
        <time>2025-01-03T16:52:59.543Z</time>
      </trkpt>
      <trkpt lat="48.68675" lon="2.12909">
        <ele>156.1</ele>
        <time>2025-01-03T16:53:03.080Z</time>
      </trkpt>
      <trkpt lat="48.68678" lon="2.12916">
        <ele>156.2</ele>
        <time>2025-01-03T16:53:06.617Z</time>
      </trkpt>
      <trkpt lat="48.68683" lon="2.12927">
        <ele>156.4</ele>
        <time>2025-01-03T16:53:12.469Z</time>
      </trkpt>
      <trkpt lat="48.68688" lon="2.12938">
        <ele>156.5</ele>
        <time>2025-01-03T16:53:18.321Z</time>
      </trkpt>
      <trkpt lat="48.68692" lon="2.12948">
        <ele>156.6</ele>
        <time>2025-01-03T16:53:24.173Z</time>
      </trkpt>
      <trkpt lat="48.68697" lon="2.12959">
        <ele>156.7</ele>
        <time>2025-01-03T16:53:30.025Z</time>
      </trkpt>
      <trkpt lat="48.68699" lon="2.12969">
        <ele>156.4</ele>
        <time>2025-01-03T16:53:33.990Z</time>
        <extensions>
          <visugpx:TrkExtension xmlns:visugpx="https://www.visugpx.com/editgpx/">
            <visugpx:node>16</visugpx:node>
            </visugpx:TrkExtension>
        </extensions>
      </trkpt>
      <trkpt lat="48.68699" lon="2.12973">
        <ele>156.3</ele>
        <time>2025-01-03T16:53:35.533Z</time>
      </trkpt>
      <trkpt lat="48.68701" lon="2.12985">
        <ele>155.7</ele>
        <time>2025-01-03T16:53:40.305Z</time>
      </trkpt>
      <trkpt lat="48.68703" lon="2.12998">
        <ele>155.3</ele>
        <time>2025-01-03T16:53:45.077Z</time>
      </trkpt>
      <trkpt lat="48.68704" lon="2.1301">
        <ele>155.1</ele>
        <time>2025-01-03T16:53:49.850Z</time>
      </trkpt>
      <trkpt lat="48.68706" lon="2.13022">
        <ele>154.9</ele>
        <time>2025-01-03T16:53:54.623Z</time>
      </trkpt>
      <trkpt lat="48.68707" lon="2.13031">
        <ele>154.8</ele>
        <time>2025-01-03T16:53:58.761Z</time>
      </trkpt>
      <trkpt lat="48.68708" lon="2.13039">
        <ele>154.7</ele>
        <time>2025-01-03T16:54:02.899Z</time>
      </trkpt>
      <trkpt lat="48.68709" lon="2.13048">
        <ele>154.8</ele>
        <time>2025-01-03T16:54:07.037Z</time>
      </trkpt>
      <trkpt lat="48.6871" lon="2.13056">
        <ele>154.8</ele>
        <time>2025-01-03T16:54:11.175Z</time>
      </trkpt>
      <trkpt lat="48.68711" lon="2.13065">
        <ele>155</ele>
        <time>2025-01-03T16:54:15.314Z</time>
      </trkpt>
      <trkpt lat="48.68712" lon="2.13073">
        <ele>155.2</ele>
        <time>2025-01-03T16:54:19.453Z</time>
      </trkpt>
      <trkpt lat="48.68713" lon="2.13082">
        <ele>155.3</ele>
        <time>2025-01-03T16:54:23.592Z</time>
      </trkpt>
      <trkpt lat="48.68714" lon="2.1309">
        <ele>155.7</ele>
        <time>2025-01-03T16:54:27.731Z</time>
      </trkpt>
      <trkpt lat="48.68715" lon="2.13099">
        <ele>156.1</ele>
        <time>2025-01-03T16:54:31.870Z</time>
      </trkpt>
      <trkpt lat="48.68716" lon="2.13107">
        <ele>156.5</ele>
        <time>2025-01-03T16:54:36.009Z</time>
      </trkpt>
      <trkpt lat="48.68717" lon="2.13116">
        <ele>156.8</ele>
        <time>2025-01-03T16:54:40.148Z</time>
      </trkpt>
      <trkpt lat="48.68718" lon="2.13124">
        <ele>157</ele>
        <time>2025-01-03T16:54:44.287Z</time>
      </trkpt>
      <trkpt lat="48.68719" lon="2.13133">
        <ele>157.2</ele>
        <time>2025-01-03T16:54:48.426Z</time>
      </trkpt>
      <trkpt lat="48.6872" lon="2.13141">
        <ele>157.4</ele>
        <time>2025-01-03T16:54:52.565Z</time>
      </trkpt>
      <trkpt lat="48.68721" lon="2.1315">
        <ele>157.7</ele>
        <time>2025-01-03T16:54:56.704Z</time>
      </trkpt>
      <trkpt lat="48.68722" lon="2.13158">
        <ele>157.9</ele>
        <time>2025-01-03T16:55:00.843Z</time>
      </trkpt>
      <trkpt lat="48.68723" lon="2.13165">
        <ele>158.1</ele>
        <time>2025-01-03T16:55:03.920Z</time>
      </trkpt>
      <trkpt lat="48.68723" lon="2.13172">
        <ele>157.9</ele>
        <time>2025-01-03T16:55:06.997Z</time>
      </trkpt>
      <trkpt lat="48.68724" lon="2.1318">
        <ele>157.8</ele>
        <time>2025-01-03T16:55:10.074Z</time>
      </trkpt>
      <trkpt lat="48.68725" lon="2.13187">
        <ele>157.6</ele>
        <time>2025-01-03T16:55:13.151Z</time>
      </trkpt>
      <trkpt lat="48.68725" lon="2.13194">
        <ele>157.5</ele>
        <time>2025-01-03T16:55:16.228Z</time>
      </trkpt>
      <trkpt lat="48.68726" lon="2.13201">
        <ele>157.3</ele>
        <time>2025-01-03T16:55:19.305Z</time>
      </trkpt>
      <trkpt lat="48.68727" lon="2.13208">
        <ele>157.2</ele>
        <time>2025-01-03T16:55:22.382Z</time>
      </trkpt>
      <trkpt lat="48.68728" lon="2.13216">
        <ele>157</ele>
        <time>2025-01-03T16:55:25.459Z</time>
      </trkpt>
      <trkpt lat="48.68728" lon="2.13223">
        <ele>156.8</ele>
        <time>2025-01-03T16:55:28.536Z</time>
      </trkpt>
      <trkpt lat="48.68729" lon="2.1323">
        <ele>156.8</ele>
        <time>2025-01-03T16:55:31.613Z</time>
      </trkpt>
      <trkpt lat="48.6873" lon="2.13237">
        <ele>156.7</ele>
        <time>2025-01-03T16:55:34.691Z</time>
      </trkpt>
      <trkpt lat="48.6873" lon="2.13244">
        <ele>156.6</ele>
        <time>2025-01-03T16:55:37.769Z</time>
      </trkpt>
      <trkpt lat="48.68731" lon="2.13251">
        <ele>156.6</ele>
        <time>2025-01-03T16:55:40.847Z</time>
      </trkpt>
      <trkpt lat="48.68732" lon="2.13259">
        <ele>156.9</ele>
        <time>2025-01-03T16:55:43.925Z</time>
      </trkpt>
      <trkpt lat="48.68732" lon="2.13266">
        <ele>157.2</ele>
        <time>2025-01-03T16:55:47.003Z</time>
      </trkpt>
      <trkpt lat="48.68733" lon="2.13273">
        <ele>157.4</ele>
        <time>2025-01-03T16:55:50.081Z</time>
      </trkpt>
      <trkpt lat="48.68734" lon="2.13282">
        <ele>157.8</ele>
        <time>2025-01-03T16:55:54.656Z</time>
      </trkpt>
      <trkpt lat="48.68735" lon="2.1329">
        <ele>158.3</ele>
        <time>2025-01-03T16:55:59.231Z</time>
      </trkpt>
      <trkpt lat="48.68736" lon="2.13299">
        <ele>158.7</ele>
        <time>2025-01-03T16:56:03.807Z</time>
      </trkpt>
      <trkpt lat="48.68737" lon="2.13307">
        <ele>159.2</ele>
        <time>2025-01-03T16:56:08.383Z</time>
      </trkpt>
      <trkpt lat="48.68738" lon="2.13316">
        <ele>159.4</ele>
        <time>2025-01-03T16:56:12.959Z</time>
      </trkpt>
      <trkpt lat="48.68739" lon="2.13324">
        <ele>159.7</ele>
        <time>2025-01-03T16:56:17.535Z</time>
      </trkpt>
      <trkpt lat="48.6874" lon="2.13333">
        <ele>159.9</ele>
        <time>2025-01-03T16:56:22.111Z</time>
      </trkpt>
      <trkpt lat="48.68741" lon="2.13341">
        <ele>160.3</ele>
        <time>2025-01-03T16:56:26.687Z</time>
        <extensions>
          <visugpx:TrkExtension xmlns:visugpx="https://www.visugpx.com/editgpx/">
            <visugpx:node>17</visugpx:node>
            </visugpx:TrkExtension>
        </extensions>
      </trkpt>
      <trkpt lat="48.68742" lon="2.13348">
        <ele>160.6</ele>
        <time>2025-01-03T16:56:29.904Z</time>
      </trkpt>
      <trkpt lat="48.68743" lon="2.13355">
        <ele>161</ele>
        <time>2025-01-03T16:56:33.122Z</time>
      </trkpt>
      <trkpt lat="48.68743" lon="2.13361">
        <ele>161.3</ele>
        <time>2025-01-03T16:56:36.340Z</time>
      </trkpt>
      <trkpt lat="48.68744" lon="2.13368">
        <ele>161.4</ele>
        <time>2025-01-03T16:56:39.558Z</time>
      </trkpt>
      <trkpt lat="48.68745" lon="2.13375">
        <ele>161.5</ele>
        <time>2025-01-03T16:56:42.776Z</time>
      </trkpt>
      <trkpt lat="48.68746" lon="2.13382">
        <ele>161.6</ele>
        <time>2025-01-03T16:56:45.994Z</time>
      </trkpt>
      <trkpt lat="48.68747" lon="2.13389">
        <ele>161.6</ele>
        <time>2025-01-03T16:56:49.212Z</time>
      </trkpt>
      <trkpt lat="48.68748" lon="2.13396">
        <ele>161.7</ele>
        <time>2025-01-03T16:56:52.430Z</time>
      </trkpt>
      <trkpt lat="48.68748" lon="2.13402">
        <ele>161.8</ele>
        <time>2025-01-03T16:56:55.648Z</time>
      </trkpt>
      <trkpt lat="48.68749" lon="2.13409">
        <ele>161.9</ele>
        <time>2025-01-03T16:56:58.866Z</time>
      </trkpt>
      <trkpt lat="48.6875" lon="2.13416">
        <ele>162</ele>
        <time>2025-01-03T16:57:02.084Z</time>
      </trkpt>
      <trkpt lat="48.68751" lon="2.13423">
        <ele>162</ele>
        <time>2025-01-03T16:57:05.302Z</time>
      </trkpt>
      <trkpt lat="48.68752" lon="2.1343">
        <ele>162.1</ele>
        <time>2025-01-03T16:57:08.520Z</time>
      </trkpt>
      <trkpt lat="48.68752" lon="2.13436">
        <ele>162.1</ele>
        <time>2025-01-03T16:57:11.738Z</time>
      </trkpt>
      <trkpt lat="48.68753" lon="2.13443">
        <ele>162.1</ele>
        <time>2025-01-03T16:57:14.956Z</time>
      </trkpt>
      <trkpt lat="48.68754" lon="2.1345">
        <ele>162</ele>
        <time>2025-01-03T16:57:18.174Z</time>
      </trkpt>
      <trkpt lat="48.68755" lon="2.13458">
        <ele>161.8</ele>
        <time>2025-01-03T16:57:21.343Z</time>
      </trkpt>
      <trkpt lat="48.68755" lon="2.13465">
        <ele>161.6</ele>
        <time>2025-01-03T16:57:24.512Z</time>
      </trkpt>
      <trkpt lat="48.68756" lon="2.13473">
        <ele>161.4</ele>
        <time>2025-01-03T16:57:27.681Z</time>
      </trkpt>
      <trkpt lat="48.68757" lon="2.1348">
        <ele>161.5</ele>
        <time>2025-01-03T16:57:30.850Z</time>
      </trkpt>
      <trkpt lat="48.68757" lon="2.13488">
        <ele>161.5</ele>
        <time>2025-01-03T16:57:34.019Z</time>
      </trkpt>
      <trkpt lat="48.68758" lon="2.13495">
        <ele>161.6</ele>
        <time>2025-01-03T16:57:37.188Z</time>
      </trkpt>
      <trkpt lat="48.68758" lon="2.13503">
        <ele>161.6</ele>
        <time>2025-01-03T16:57:40.358Z</time>
      </trkpt>
      <trkpt lat="48.68759" lon="2.1351">
        <ele>161.6</ele>
        <time>2025-01-03T16:57:43.528Z</time>
      </trkpt>
      <trkpt lat="48.6876" lon="2.13522">
        <ele>161.7</ele>
        <time>2025-01-03T16:57:48.867Z</time>
      </trkpt>
      <trkpt lat="48.68762" lon="2.13534">
        <ele>161.8</ele>
        <time>2025-01-03T16:57:54.206Z</time>
      </trkpt>
      <trkpt lat="48.68763" lon="2.13545">
        <ele>161.9</ele>
        <time>2025-01-03T16:57:59.545Z</time>
      </trkpt>
      <trkpt lat="48.68765" lon="2.13557">
        <ele>162</ele>
        <time>2025-01-03T16:58:04.884Z</time>
      </trkpt>
      <trkpt lat="48.68766" lon="2.13569">
        <ele>161.9</ele>
        <time>2025-01-03T16:58:10.223Z</time>
      </trkpt>
      <trkpt lat="48.68767" lon="2.13581">
        <ele>161.7</ele>
        <time>2025-01-03T16:58:15.562Z</time>
      </trkpt>
      <trkpt lat="48.68769" lon="2.13592">
        <ele>161.7</ele>
        <time>2025-01-03T16:58:20.901Z</time>
      </trkpt>
      <trkpt lat="48.6877" lon="2.13604">
        <ele>161.7</ele>
        <time>2025-01-03T16:58:26.240Z</time>
      </trkpt>
      <trkpt lat="48.68771" lon="2.13616">
        <ele>161.8</ele>
        <time>2025-01-03T16:58:31.579Z</time>
      </trkpt>
      <trkpt lat="48.68773" lon="2.13628">
        <ele>161.8</ele>
        <time>2025-01-03T16:58:36.918Z</time>
      </trkpt>
      <trkpt lat="48.68774" lon="2.13639">
        <ele>161.9</ele>
        <time>2025-01-03T16:58:42.257Z</time>
      </trkpt>
      <trkpt lat="48.68776" lon="2.13651">
        <ele>161.9</ele>
        <time>2025-01-03T16:58:47.596Z</time>
      </trkpt>
      <trkpt lat="48.68777" lon="2.13663">
        <ele>162</ele>
        <time>2025-01-03T16:58:52.935Z</time>
      </trkpt>
      <trkpt lat="48.68778" lon="2.13675">
        <ele>162.3</ele>
        <time>2025-01-03T16:58:58.274Z</time>
      </trkpt>
      <trkpt lat="48.6878" lon="2.13686">
        <ele>162.7</ele>
        <time>2025-01-03T16:59:03.614Z</time>
      </trkpt>
      <trkpt lat="48.68781" lon="2.13698">
        <ele>163</ele>
        <time>2025-01-03T16:59:08.954Z</time>
        <extensions>
          <visugpx:TrkExtension xmlns:visugpx="https://www.visugpx.com/editgpx/">
            <visugpx:node>18</visugpx:node>
            </visugpx:TrkExtension>
        </extensions>
      </trkpt>
      <trkpt lat="48.68781" lon="2.137">
        <ele>163</ele>
        <time>2025-01-03T16:59:09.818Z</time>
      </trkpt>
      <trkpt lat="48.68783" lon="2.13708">
        <ele>163</ele>
        <time>2025-01-03T16:59:13.206Z</time>
      </trkpt>
      <trkpt lat="48.68784" lon="2.13715">
        <ele>163</ele>
        <time>2025-01-03T16:59:16.594Z</time>
      </trkpt>
      <trkpt lat="48.68789" lon="2.13725">
        <ele>163</ele>
        <time>2025-01-03T16:59:22.016Z</time>
      </trkpt>
      <trkpt lat="48.68795" lon="2.13727">
        <ele>163</ele>
        <time>2025-01-03T16:59:25.675Z</time>
      </trkpt>
      <trkpt lat="48.688" lon="2.13728">
        <ele>163</ele>
        <time>2025-01-03T16:59:29.335Z</time>
      </trkpt>
      <trkpt lat="48.68807" lon="2.13724">
        <ele>163</ele>
        <time>2025-01-03T16:59:34.014Z</time>
      </trkpt>
      <trkpt lat="48.68813" lon="2.13719">
        <ele>163</ele>
        <time>2025-01-03T16:59:38.694Z</time>
        <extensions>
          <visugpx:TrkExtension xmlns:visugpx="https://www.visugpx.com/editgpx/">
            <visugpx:node>19</visugpx:node>
            </visugpx:TrkExtension>
        </extensions>
      </trkpt>
      <trkpt lat="48.68817" lon="2.13716">
        <ele>163</ele>
        <time>2025-01-03T16:59:41.884Z</time>
      </trkpt>
      <trkpt lat="48.68822" lon="2.13713">
        <ele>163</ele>
        <time>2025-01-03T16:59:45.074Z</time>
      </trkpt>
      <trkpt lat="48.68826" lon="2.13709">
        <ele>163</ele>
        <time>2025-01-03T16:59:48.265Z</time>
      </trkpt>
      <trkpt lat="48.68831" lon="2.13706">
        <ele>163</ele>
        <time>2025-01-03T16:59:51.456Z</time>
      </trkpt>
      <trkpt lat="48.68835" lon="2.13703">
        <ele>163</ele>
        <time>2025-01-03T16:59:54.647Z</time>
      </trkpt>
      <trkpt lat="48.68839" lon="2.137">
        <ele>163</ele>
        <time>2025-01-03T16:59:57.838Z</time>
      </trkpt>
      <trkpt lat="48.68844" lon="2.13696">
        <ele>163</ele>
        <time>2025-01-03T17:00:01.029Z</time>
      </trkpt>
      <trkpt lat="48.68848" lon="2.13693">
        <ele>163</ele>
        <time>2025-01-03T17:00:04.220Z</time>
      </trkpt>
      <trkpt lat="48.68854" lon="2.13685">
        <ele>163.3</ele>
        <time>2025-01-03T17:00:10.111Z</time>
      </trkpt>
      <trkpt lat="48.68862" lon="2.1368">
        <ele>163.5</ele>
        <time>2025-01-03T17:00:15.683Z</time>
      </trkpt>
      <trkpt lat="48.68869" lon="2.13675">
        <ele>163.5</ele>
        <time>2025-01-03T17:00:21.256Z</time>
      </trkpt>
      <trkpt lat="48.6887" lon="2.13676">
        <ele>163.5</ele>
        <time>2025-01-03T17:00:22.041Z</time>
        <extensions>
          <visugpx:TrkExtension xmlns:visugpx="https://www.visugpx.com/editgpx/">
            <visugpx:node>20</visugpx:node>
            </visugpx:TrkExtension>
        </extensions>
      </trkpt>
      <trkpt lat="48.6887" lon="2.13676">
        <ele>163.5</ele>
        <time>2025-01-03T17:00:22.041Z</time>
      </trkpt>
      <trkpt lat="48.68869" lon="2.13675">
        <ele>163.5</ele>
        <time>2025-01-03T17:00:22.826Z</time>
      </trkpt>
      <trkpt lat="48.68875" lon="2.13671">
        <ele>163.4</ele>
        <time>2025-01-03T17:00:26.971Z</time>
      </trkpt>
      <trkpt lat="48.68881" lon="2.13667">
        <ele>163.3</ele>
        <time>2025-01-03T17:00:31.116Z</time>
      </trkpt>
      <trkpt lat="48.68887" lon="2.13663">
        <ele>163.1</ele>
        <time>2025-01-03T17:00:35.261Z</time>
      </trkpt>
      <trkpt lat="48.68893" lon="2.13659">
        <ele>163</ele>
        <time>2025-01-03T17:00:39.406Z</time>
      </trkpt>
      <trkpt lat="48.68899" lon="2.13655">
        <ele>163</ele>
        <time>2025-01-03T17:00:43.551Z</time>
      </trkpt>
      <trkpt lat="48.68905" lon="2.13651">
        <ele>163</ele>
        <time>2025-01-03T17:00:47.696Z</time>
      </trkpt>
      <trkpt lat="48.68911" lon="2.13647">
        <ele>163</ele>
        <time>2025-01-03T17:00:51.841Z</time>
      </trkpt>
      <trkpt lat="48.68917" lon="2.13644">
        <ele>163</ele>
        <time>2025-01-03T17:00:55.986Z</time>
      </trkpt>
      <trkpt lat="48.68922" lon="2.1364">
        <ele>163</ele>
        <time>2025-01-03T17:01:00.131Z</time>
      </trkpt>
      <trkpt lat="48.68928" lon="2.13636">
        <ele>163</ele>
        <time>2025-01-03T17:01:04.276Z</time>
      </trkpt>
      <trkpt lat="48.68934" lon="2.13632">
        <ele>163</ele>
        <time>2025-01-03T17:01:08.421Z</time>
      </trkpt>
      <trkpt lat="48.6894" lon="2.13628">
        <ele>163</ele>
        <time>2025-01-03T17:01:12.566Z</time>
      </trkpt>
      <trkpt lat="48.68946" lon="2.13624">
        <ele>162.9</ele>
        <time>2025-01-03T17:01:16.711Z</time>
      </trkpt>
      <trkpt lat="48.68952" lon="2.1362">
        <ele>162.7</ele>
        <time>2025-01-03T17:01:20.856Z</time>
      </trkpt>
      <trkpt lat="48.68958" lon="2.13616">
        <ele>162.5</ele>
        <time>2025-01-03T17:01:25.001Z</time>
      </trkpt>
      <trkpt lat="48.68964" lon="2.13612">
        <ele>162.3</ele>
        <time>2025-01-03T17:01:29.146Z</time>
      </trkpt>
      <trkpt lat="48.6897" lon="2.13608">
        <ele>162.1</ele>
        <time>2025-01-03T17:01:33.291Z</time>
      </trkpt>
      <trkpt lat="48.68976" lon="2.13604">
        <ele>162</ele>
        <time>2025-01-03T17:01:37.436Z</time>
      </trkpt>
      <trkpt lat="48.68982" lon="2.136">
        <ele>162</ele>
        <time>2025-01-03T17:01:41.581Z</time>
      </trkpt>
      <trkpt lat="48.68988" lon="2.13596">
        <ele>162</ele>
        <time>2025-01-03T17:01:45.726Z</time>
      </trkpt>
      <trkpt lat="48.68994" lon="2.13592">
        <ele>162</ele>
        <time>2025-01-03T17:01:49.871Z</time>
      </trkpt>
      <trkpt lat="48.69" lon="2.13588">
        <ele>162</ele>
        <time>2025-01-03T17:01:54.016Z</time>
      </trkpt>
      <trkpt lat="48.69006" lon="2.13584">
        <ele>162</ele>
        <time>2025-01-03T17:01:58.161Z</time>
      </trkpt>
      <trkpt lat="48.69012" lon="2.13581">
        <ele>162</ele>
        <time>2025-01-03T17:02:02.306Z</time>
      </trkpt>
      <trkpt lat="48.69017" lon="2.13577">
        <ele>162</ele>
        <time>2025-01-03T17:02:06.451Z</time>
      </trkpt>
      <trkpt lat="48.69023" lon="2.13573">
        <ele>162</ele>
        <time>2025-01-03T17:02:10.596Z</time>
      </trkpt>
      <trkpt lat="48.69029" lon="2.13569">
        <ele>162</ele>
        <time>2025-01-03T17:02:14.741Z</time>
      </trkpt>
      <trkpt lat="48.69035" lon="2.13565">
        <ele>161.9</ele>
        <time>2025-01-03T17:02:18.886Z</time>
      </trkpt>
      <trkpt lat="48.69041" lon="2.13561">
        <ele>161.9</ele>
        <time>2025-01-03T17:02:23.031Z</time>
      </trkpt>
      <trkpt lat="48.69047" lon="2.13557">
        <ele>162</ele>
        <time>2025-01-03T17:02:27.176Z</time>
      </trkpt>
      <trkpt lat="48.69053" lon="2.13553">
        <ele>162</ele>
        <time>2025-01-03T17:02:31.321Z</time>
      </trkpt>
      <trkpt lat="48.69059" lon="2.13549">
        <ele>161.9</ele>
        <time>2025-01-03T17:02:35.466Z</time>
      </trkpt>
      <trkpt lat="48.69067" lon="2.13544">
        <ele>161.6</ele>
        <time>2025-01-03T17:02:40.494Z</time>
      </trkpt>
      <trkpt lat="48.69074" lon="2.13538">
        <ele>161.3</ele>
        <time>2025-01-03T17:02:45.522Z</time>
      </trkpt>
      <trkpt lat="48.69082" lon="2.13533">
        <ele>161.1</ele>
        <time>2025-01-03T17:02:50.550Z</time>
      </trkpt>
      <trkpt lat="48.69089" lon="2.13527">
        <ele>161</ele>
        <time>2025-01-03T17:02:55.578Z</time>
      </trkpt>
      <trkpt lat="48.69095" lon="2.13523">
        <ele>161.1</ele>
        <time>2025-01-03T17:02:59.858Z</time>
      </trkpt>
      <trkpt lat="48.69102" lon="2.13519">
        <ele>161.1</ele>
        <time>2025-01-03T17:03:04.138Z</time>
      </trkpt>
      <trkpt lat="48.69108" lon="2.13516">
        <ele>161</ele>
        <time>2025-01-03T17:03:08.418Z</time>
      </trkpt>
      <trkpt lat="48.69115" lon="2.13512">
        <ele>160.9</ele>
        <time>2025-01-03T17:03:12.698Z</time>
      </trkpt>
      <trkpt lat="48.69121" lon="2.13508">
        <ele>160.9</ele>
        <time>2025-01-03T17:03:16.978Z</time>
      </trkpt>
      <trkpt lat="48.69127" lon="2.13504">
        <ele>160.9</ele>
        <time>2025-01-03T17:03:21.259Z</time>
      </trkpt>
      <trkpt lat="48.69134" lon="2.135">
        <ele>161</ele>
        <time>2025-01-03T17:03:25.540Z</time>
      </trkpt>
      <trkpt lat="48.6914" lon="2.13497">
        <ele>161</ele>
        <time>2025-01-03T17:03:29.821Z</time>
      </trkpt>
      <trkpt lat="48.69146" lon="2.13493">
        <ele>160.7</ele>
        <time>2025-01-03T17:03:34.102Z</time>
      </trkpt>
      <trkpt lat="48.69153" lon="2.13489">
        <ele>160.5</ele>
        <time>2025-01-03T17:03:38.383Z</time>
      </trkpt>
      <trkpt lat="48.69159" lon="2.13485">
        <ele>160.3</ele>
        <time>2025-01-03T17:03:42.664Z</time>
      </trkpt>
      <trkpt lat="48.69166" lon="2.13481">
        <ele>160</ele>
        <time>2025-01-03T17:03:46.945Z</time>
      </trkpt>
      <trkpt lat="48.69172" lon="2.13477">
        <ele>159.8</ele>
        <time>2025-01-03T17:03:51.226Z</time>
      </trkpt>
      <trkpt lat="48.69178" lon="2.13474">
        <ele>159.6</ele>
        <time>2025-01-03T17:03:55.507Z</time>
      </trkpt>
      <trkpt lat="48.69185" lon="2.1347">
        <ele>159.4</ele>
        <time>2025-01-03T17:03:59.788Z</time>
      </trkpt>
      <trkpt lat="48.69191" lon="2.13466">
        <ele>159.3</ele>
        <time>2025-01-03T17:04:04.069Z</time>
      </trkpt>
      <trkpt lat="48.69198" lon="2.13463">
        <ele>159.3</ele>
        <time>2025-01-03T17:04:08.710Z</time>
      </trkpt>
      <trkpt lat="48.69205" lon="2.1346">
        <ele>159.3</ele>
        <time>2025-01-03T17:04:13.351Z</time>
      </trkpt>
      <trkpt lat="48.69212" lon="2.13456">
        <ele>159.2</ele>
        <time>2025-01-03T17:04:17.992Z</time>
      </trkpt>
      <trkpt lat="48.69219" lon="2.13453">
        <ele>159.1</ele>
        <time>2025-01-03T17:04:22.633Z</time>
      </trkpt>
      <trkpt lat="48.69225" lon="2.1345">
        <ele>159</ele>
        <time>2025-01-03T17:04:27.274Z</time>
      </trkpt>
      <trkpt lat="48.69232" lon="2.13447">
        <ele>159</ele>
        <time>2025-01-03T17:04:31.915Z</time>
      </trkpt>
      <trkpt lat="48.69239" lon="2.13443">
        <ele>159</ele>
        <time>2025-01-03T17:04:36.557Z</time>
      </trkpt>
      <trkpt lat="48.69246" lon="2.1344">
        <ele>159</ele>
        <time>2025-01-03T17:04:41.199Z</time>
      </trkpt>
      <trkpt lat="48.69249" lon="2.13429">
        <ele>159</ele>
        <time>2025-01-03T17:04:46.332Z</time>
      </trkpt>
      <trkpt lat="48.69251" lon="2.13417">
        <ele>158.9</ele>
        <time>2025-01-03T17:04:51.466Z</time>
      </trkpt>
      <trkpt lat="48.69251" lon="2.13417">
        <ele>158.9</ele>
        <time>2025-01-03T17:04:51.466Z</time>
        <extensions>
          <visugpx:TrkExtension xmlns:visugpx="https://www.visugpx.com/editgpx/">
            <visugpx:node>21</visugpx:node>
            </visugpx:TrkExtension>
        </extensions>
      </trkpt>
      <trkpt lat="48.69253" lon="2.13407">
        <ele>158.8</ele>
        <time>2025-01-03T17:04:55.740Z</time>
      </trkpt>
      <trkpt lat="48.69255" lon="2.13397">
        <ele>158.6</ele>
        <time>2025-01-03T17:05:00.014Z</time>
      </trkpt>
      <trkpt lat="48.69257" lon="2.13387">
        <ele>158.5</ele>
        <time>2025-01-03T17:05:04.288Z</time>
      </trkpt>
      <trkpt lat="48.69259" lon="2.13377">
        <ele>158.4</ele>
        <time>2025-01-03T17:05:08.562Z</time>
      </trkpt>
      <trkpt lat="48.6926" lon="2.13368">
        <ele>158.3</ele>
        <time>2025-01-03T17:05:12.554Z</time>
      </trkpt>
      <trkpt lat="48.69261" lon="2.13358">
        <ele>158.2</ele>
        <time>2025-01-03T17:05:16.546Z</time>
      </trkpt>
      <trkpt lat="48.69262" lon="2.13349">
        <ele>158.2</ele>
        <time>2025-01-03T17:05:20.538Z</time>
      </trkpt>
      <trkpt lat="48.69263" lon="2.13339">
        <ele>158.1</ele>
        <time>2025-01-03T17:05:24.530Z</time>
      </trkpt>
      <trkpt lat="48.69264" lon="2.1333">
        <ele>158</ele>
        <time>2025-01-03T17:05:28.522Z</time>
      </trkpt>
      <trkpt lat="48.69265" lon="2.1332">
        <ele>157.9</ele>
        <time>2025-01-03T17:05:32.514Z</time>
      </trkpt>
      <trkpt lat="48.69266" lon="2.13311">
        <ele>157.9</ele>
        <time>2025-01-03T17:05:36.506Z</time>
      </trkpt>
      <trkpt lat="48.69267" lon="2.13301">
        <ele>157.9</ele>
        <time>2025-01-03T17:05:40.499Z</time>
      </trkpt>
      <trkpt lat="48.69267" lon="2.13292">
        <ele>158.1</ele>
        <time>2025-01-03T17:05:44.492Z</time>
      </trkpt>
      <trkpt lat="48.69268" lon="2.13282">
        <ele>158.2</ele>
        <time>2025-01-03T17:05:48.485Z</time>
      </trkpt>
      <trkpt lat="48.69269" lon="2.13273">
        <ele>158.1</ele>
        <time>2025-01-03T17:05:52.478Z</time>
      </trkpt>
      <trkpt lat="48.6927" lon="2.13263">
        <ele>157.7</ele>
        <time>2025-01-03T17:05:56.471Z</time>
      </trkpt>
      <trkpt lat="48.69271" lon="2.13254">
        <ele>157.4</ele>
        <time>2025-01-03T17:06:00.464Z</time>
      </trkpt>
      <trkpt lat="48.69272" lon="2.13244">
        <ele>157.2</ele>
        <time>2025-01-03T17:06:04.457Z</time>
      </trkpt>
      <trkpt lat="48.69273" lon="2.13235">
        <ele>157.2</ele>
        <time>2025-01-03T17:06:08.450Z</time>
      </trkpt>
      <trkpt lat="48.69274" lon="2.13225">
        <ele>157.1</ele>
        <time>2025-01-03T17:06:12.443Z</time>
      </trkpt>
      <trkpt lat="48.69274" lon="2.13217">
        <ele>157</ele>
        <time>2025-01-03T17:06:15.707Z</time>
        <extensions>
          <visugpx:TrkExtension xmlns:visugpx="https://www.visugpx.com/editgpx/">
            <visugpx:node>22</visugpx:node>
            </visugpx:TrkExtension>
        </extensions>
      </trkpt>
      <trkpt lat="48.69274" lon="2.13206">
        <ele>156.6</ele>
        <time>2025-01-03T17:06:19.868Z</time>
      </trkpt>
      <trkpt lat="48.69273" lon="2.13198">
        <ele>156.5</ele>
        <time>2025-01-03T17:06:23.355Z</time>
      </trkpt>
      <trkpt lat="48.69272" lon="2.1319">
        <ele>156.3</ele>
        <time>2025-01-03T17:06:26.842Z</time>
      </trkpt>
      <trkpt lat="48.69271" lon="2.13181">
        <ele>156</ele>
        <time>2025-01-03T17:06:30.329Z</time>
      </trkpt>
      <trkpt lat="48.6927" lon="2.13173">
        <ele>155.8</ele>
        <time>2025-01-03T17:06:33.816Z</time>
      </trkpt>
      <trkpt lat="48.69269" lon="2.13165">
        <ele>155.6</ele>
        <time>2025-01-03T17:06:37.303Z</time>
      </trkpt>
      <trkpt lat="48.69267" lon="2.13157">
        <ele>155.3</ele>
        <time>2025-01-03T17:06:40.790Z</time>
      </trkpt>
      <trkpt lat="48.69266" lon="2.13149">
        <ele>155.1</ele>
        <time>2025-01-03T17:06:44.277Z</time>
      </trkpt>
      <trkpt lat="48.69265" lon="2.13141">
        <ele>154.9</ele>
        <time>2025-01-03T17:06:47.764Z</time>
      </trkpt>
      <trkpt lat="48.69264" lon="2.13132">
        <ele>154.7</ele>
        <time>2025-01-03T17:06:51.251Z</time>
      </trkpt>
      <trkpt lat="48.69263" lon="2.13124">
        <ele>154.6</ele>
        <time>2025-01-03T17:06:54.738Z</time>
      </trkpt>
      <trkpt lat="48.69262" lon="2.13116">
        <ele>154.4</ele>
        <time>2025-01-03T17:06:58.226Z</time>
      </trkpt>
      <trkpt lat="48.69261" lon="2.13108">
        <ele>154.4</ele>
        <time>2025-01-03T17:07:01.714Z</time>
      </trkpt>
      <trkpt lat="48.6926" lon="2.131">
        <ele>154.4</ele>
        <time>2025-01-03T17:07:05.202Z</time>
      </trkpt>
      <trkpt lat="48.69259" lon="2.13091">
        <ele>154.5</ele>
        <time>2025-01-03T17:07:08.690Z</time>
      </trkpt>
      <trkpt lat="48.69258" lon="2.13083">
        <ele>154.6</ele>
        <time>2025-01-03T17:07:12.178Z</time>
      </trkpt>
      <trkpt lat="48.69257" lon="2.13075">
        <ele>154.8</ele>
        <time>2025-01-03T17:07:15.666Z</time>
      </trkpt>
      <trkpt lat="48.69255" lon="2.13067">
        <ele>154.9</ele>
        <time>2025-01-03T17:07:19.154Z</time>
      </trkpt>
      <trkpt lat="48.69254" lon="2.13059">
        <ele>155.1</ele>
        <time>2025-01-03T17:07:22.642Z</time>
      </trkpt>
      <trkpt lat="48.69253" lon="2.1305">
        <ele>155.1</ele>
        <time>2025-01-03T17:07:26.130Z</time>
      </trkpt>
      <trkpt lat="48.69252" lon="2.13042">
        <ele>155.1</ele>
        <time>2025-01-03T17:07:29.618Z</time>
      </trkpt>
      <trkpt lat="48.69251" lon="2.13034">
        <ele>155</ele>
        <time>2025-01-03T17:07:33.106Z</time>
      </trkpt>
      <trkpt lat="48.6925" lon="2.13026">
        <ele>155</ele>
        <time>2025-01-03T17:07:36.594Z</time>
      </trkpt>
      <trkpt lat="48.69249" lon="2.13018">
        <ele>155.1</ele>
        <time>2025-01-03T17:07:40.082Z</time>
      </trkpt>
      <trkpt lat="48.69248" lon="2.1301">
        <ele>155.2</ele>
        <time>2025-01-03T17:07:43.570Z</time>
      </trkpt>
      <trkpt lat="48.69247" lon="2.13001">
        <ele>155.4</ele>
        <time>2025-01-03T17:07:47.058Z</time>
      </trkpt>
      <trkpt lat="48.69246" lon="2.12993">
        <ele>155.3</ele>
        <time>2025-01-03T17:07:50.546Z</time>
      </trkpt>
      <trkpt lat="48.69245" lon="2.12985">
        <ele>155.2</ele>
        <time>2025-01-03T17:07:54.034Z</time>
      </trkpt>
      <trkpt lat="48.69243" lon="2.12977">
        <ele>155.1</ele>
        <time>2025-01-03T17:07:57.522Z</time>
      </trkpt>
      <trkpt lat="48.69242" lon="2.12969">
        <ele>155</ele>
        <time>2025-01-03T17:08:01.010Z</time>
      </trkpt>
      <trkpt lat="48.69241" lon="2.1296">
        <ele>154.8</ele>
        <time>2025-01-03T17:08:04.498Z</time>
      </trkpt>
      <trkpt lat="48.6924" lon="2.12952">
        <ele>154.7</ele>
        <time>2025-01-03T17:08:07.986Z</time>
      </trkpt>
      <trkpt lat="48.69239" lon="2.12944">
        <ele>154.6</ele>
        <time>2025-01-03T17:08:11.475Z</time>
      </trkpt>
      <trkpt lat="48.69239" lon="2.12944">
        <ele>154.6</ele>
        <time>2025-01-03T17:08:11.475Z</time>
        <extensions>
          <visugpx:TrkExtension xmlns:visugpx="https://www.visugpx.com/editgpx/">
            <visugpx:node>23</visugpx:node>
            </visugpx:TrkExtension>
        </extensions>
      </trkpt>
      <trkpt lat="48.69239" lon="2.12944">
        <ele>154.6</ele>
        <time>2025-01-03T17:08:11.475Z</time>
      </trkpt>
      <trkpt lat="48.69238" lon="2.12934">
        <ele>154.8</ele>
        <time>2025-01-03T17:08:16.058Z</time>
      </trkpt>
      <trkpt lat="48.69236" lon="2.12924">
        <ele>155</ele>
        <time>2025-01-03T17:08:20.641Z</time>
      </trkpt>
      <trkpt lat="48.69235" lon="2.12914">
        <ele>155.1</ele>
        <time>2025-01-03T17:08:25.224Z</time>
      </trkpt>
      <trkpt lat="48.69234" lon="2.12904">
        <ele>155.2</ele>
        <time>2025-01-03T17:08:29.807Z</time>
      </trkpt>
      <trkpt lat="48.69232" lon="2.12894">
        <ele>155.3</ele>
        <time>2025-01-03T17:08:34.390Z</time>
      </trkpt>
      <trkpt lat="48.69231" lon="2.12884">
        <ele>155.5</ele>
        <time>2025-01-03T17:08:38.973Z</time>
      </trkpt>
      <trkpt lat="48.69229" lon="2.12874">
        <ele>155.7</ele>
        <time>2025-01-03T17:08:43.556Z</time>
      </trkpt>
      <trkpt lat="48.69228" lon="2.12864">
        <ele>156</ele>
        <time>2025-01-03T17:08:48.139Z</time>
      </trkpt>
      <trkpt lat="48.69227" lon="2.12853">
        <ele>155.9</ele>
        <time>2025-01-03T17:08:52.722Z</time>
      </trkpt>
      <trkpt lat="48.69225" lon="2.12843">
        <ele>155.8</ele>
        <time>2025-01-03T17:08:57.305Z</time>
      </trkpt>
      <trkpt lat="48.69224" lon="2.12833">
        <ele>155.7</ele>
        <time>2025-01-03T17:09:01.888Z</time>
      </trkpt>
      <trkpt lat="48.69223" lon="2.12823">
        <ele>155.9</ele>
        <time>2025-01-03T17:09:06.471Z</time>
      </trkpt>
      <trkpt lat="48.69221" lon="2.12813">
        <ele>156.1</ele>
        <time>2025-01-03T17:09:11.054Z</time>
      </trkpt>
      <trkpt lat="48.6922" lon="2.12803">
        <ele>156.1</ele>
        <time>2025-01-03T17:09:15.638Z</time>
      </trkpt>
      <trkpt lat="48.69218" lon="2.12793">
        <ele>155.9</ele>
        <time>2025-01-03T17:09:20.222Z</time>
      </trkpt>
      <trkpt lat="48.69217" lon="2.12783">
        <ele>155.7</ele>
        <time>2025-01-03T17:09:24.807Z</time>
      </trkpt>
      <trkpt lat="48.69216" lon="2.12772">
        <ele>155.7</ele>
        <time>2025-01-03T17:09:30.066Z</time>
      </trkpt>
      <trkpt lat="48.69215" lon="2.1276">
        <ele>155.8</ele>
        <time>2025-01-03T17:09:35.325Z</time>
      </trkpt>
      <trkpt lat="48.69214" lon="2.12749">
        <ele>155.9</ele>
        <time>2025-01-03T17:09:40.584Z</time>
      </trkpt>
      <trkpt lat="48.69213" lon="2.12737">
        <ele>155.7</ele>
        <time>2025-01-03T17:09:45.843Z</time>
      </trkpt>
      <trkpt lat="48.69211" lon="2.12726">
        <ele>155.6</ele>
        <time>2025-01-03T17:09:51.102Z</time>
      </trkpt>
      <trkpt lat="48.6921" lon="2.12714">
        <ele>155.9</ele>
        <time>2025-01-03T17:09:56.361Z</time>
      </trkpt>
      <trkpt lat="48.69209" lon="2.12703">
        <ele>156.3</ele>
        <time>2025-01-03T17:10:01.620Z</time>
      </trkpt>
      <trkpt lat="48.69208" lon="2.12691">
        <ele>156.6</ele>
        <time>2025-01-03T17:10:06.881Z</time>
      </trkpt>
      <trkpt lat="48.69208" lon="2.1269">
        <ele>156.6</ele>
        <time>2025-01-03T17:10:07.313Z</time>
        <extensions>
          <visugpx:TrkExtension xmlns:visugpx="https://www.visugpx.com/editgpx/">
            <visugpx:node>24</visugpx:node>
            </visugpx:TrkExtension>
        </extensions>
      </trkpt>
      <trkpt lat="48.69208" lon="2.12691">
        <ele>156.6</ele>
        <time>2025-01-03T17:10:07.745Z</time>
      </trkpt>
      <trkpt lat="48.69213" lon="2.12687">
        <ele>156.2</ele>
        <time>2025-01-03T17:10:10.955Z</time>
      </trkpt>
      <trkpt lat="48.69218" lon="2.12682">
        <ele>155.9</ele>
        <time>2025-01-03T17:10:14.165Z</time>
      </trkpt>
      <trkpt lat="48.69222" lon="2.12678">
        <ele>155.6</ele>
        <time>2025-01-03T17:10:17.375Z</time>
      </trkpt>
      <trkpt lat="48.69227" lon="2.12673">
        <ele>155</ele>
        <time>2025-01-03T17:10:20.585Z</time>
      </trkpt>
      <trkpt lat="48.69232" lon="2.1267">
        <ele>154.5</ele>
        <time>2025-01-03T17:10:23.365Z</time>
      </trkpt>
      <trkpt lat="48.69236" lon="2.12668">
        <ele>154</ele>
        <time>2025-01-03T17:10:26.145Z</time>
      </trkpt>
      <trkpt lat="48.69241" lon="2.12665">
        <ele>153.5</ele>
        <time>2025-01-03T17:10:28.925Z</time>
      </trkpt>
      <trkpt lat="48.69245" lon="2.12662">
        <ele>153</ele>
        <time>2025-01-03T17:10:31.705Z</time>
      </trkpt>
      <trkpt lat="48.6925" lon="2.12659">
        <ele>152.6</ele>
        <time>2025-01-03T17:10:34.485Z</time>
      </trkpt>
      <trkpt lat="48.69254" lon="2.12657">
        <ele>151.9</ele>
        <time>2025-01-03T17:10:37.265Z</time>
      </trkpt>
      <trkpt lat="48.69259" lon="2.12654">
        <ele>151.1</ele>
        <time>2025-01-03T17:10:40.045Z</time>
      </trkpt>
      <trkpt lat="48.69263" lon="2.12651">
        <ele>150.3</ele>
        <time>2025-01-03T17:10:42.826Z</time>
      </trkpt>
      <trkpt lat="48.6927" lon="2.12646">
        <ele>149.3</ele>
        <time>2025-01-03T17:10:47.003Z</time>
      </trkpt>
      <trkpt lat="48.69276" lon="2.12641">
        <ele>148.2</ele>
        <time>2025-01-03T17:10:51.180Z</time>
      </trkpt>
      <trkpt lat="48.6928" lon="2.12633">
        <ele>148.2</ele>
        <time>2025-01-03T17:10:55.222Z</time>
      </trkpt>
      <trkpt lat="48.69283" lon="2.12624">
        <ele>147.9</ele>
        <time>2025-01-03T17:10:59.264Z</time>
      </trkpt>
      <trkpt lat="48.69284" lon="2.12615">
        <ele>148.4</ele>
        <time>2025-01-03T17:11:04.351Z</time>
      </trkpt>
      <trkpt lat="48.69285" lon="2.12605">
        <ele>148.7</ele>
        <time>2025-01-03T17:11:09.439Z</time>
      </trkpt>
      <trkpt lat="48.69289" lon="2.12598">
        <ele>147.8</ele>
        <time>2025-01-03T17:11:12.941Z</time>
      </trkpt>
      <trkpt lat="48.69295" lon="2.12602">
        <ele>145.5</ele>
        <time>2025-01-03T17:11:16.697Z</time>
      </trkpt>
      <trkpt lat="48.69295" lon="2.12604">
        <ele>145.4</ele>
        <time>2025-01-03T17:11:17.453Z</time>
        <extensions>
          <visugpx:TrkExtension xmlns:visugpx="https://www.visugpx.com/editgpx/">
            <visugpx:node>25</visugpx:node>
            </visugpx:TrkExtension>
        </extensions>
      </trkpt>
      <trkpt lat="48.69298" lon="2.12616">
        <ele>143.5</ele>
        <time>2025-01-03T17:11:22.346Z</time>
      </trkpt>
      <trkpt lat="48.69301" lon="2.12629">
        <ele>142</ele>
        <time>2025-01-03T17:11:27.240Z</time>
      </trkpt>
      <trkpt lat="48.69303" lon="2.12641">
        <ele>140.5</ele>
        <time>2025-01-03T17:11:32.134Z</time>
      </trkpt>
      <trkpt lat="48.69306" lon="2.12653">
        <ele>138.8</ele>
        <time>2025-01-03T17:11:37.028Z</time>
      </trkpt>
      <trkpt lat="48.69305" lon="2.12663">
        <ele>138.4</ele>
        <time>2025-01-03T17:11:40.853Z</time>
      </trkpt>
      <trkpt lat="48.69301" lon="2.12668">
        <ele>139.3</ele>
        <time>2025-01-03T17:11:46.731Z</time>
      </trkpt>
      <trkpt lat="48.69296" lon="2.12674">
        <ele>140</ele>
        <time>2025-01-03T17:11:52.610Z</time>
      </trkpt>
      <trkpt lat="48.69292" lon="2.12679">
        <ele>140.7</ele>
        <time>2025-01-03T17:11:58.489Z</time>
      </trkpt>
      <trkpt lat="48.69287" lon="2.12684">
        <ele>141.5</ele>
        <time>2025-01-03T17:12:04.369Z</time>
      </trkpt>
      <trkpt lat="48.69286" lon="2.12691">
        <ele>141.2</ele>
        <time>2025-01-03T17:12:06.973Z</time>
      </trkpt>
      <trkpt lat="48.69284" lon="2.12697">
        <ele>141</ele>
        <time>2025-01-03T17:12:09.578Z</time>
      </trkpt>
      <trkpt lat="48.69285" lon="2.12706">
        <ele>140.1</ele>
        <time>2025-01-03T17:12:12.915Z</time>
      </trkpt>
      <trkpt lat="48.69286" lon="2.12715">
        <ele>139.1</ele>
        <time>2025-01-03T17:12:16.252Z</time>
      </trkpt>
      <trkpt lat="48.69286" lon="2.12723">
        <ele>138.2</ele>
        <time>2025-01-03T17:12:19.589Z</time>
      </trkpt>
      <trkpt lat="48.69287" lon="2.12732">
        <ele>137.5</ele>
        <time>2025-01-03T17:12:22.926Z</time>
      </trkpt>
      <trkpt lat="48.69289" lon="2.12743">
        <ele>136.3</ele>
        <time>2025-01-03T17:12:27.241Z</time>
      </trkpt>
      <trkpt lat="48.69291" lon="2.12754">
        <ele>135.2</ele>
        <time>2025-01-03T17:12:31.556Z</time>
      </trkpt>
      <trkpt lat="48.69294" lon="2.1276">
        <ele>134.3</ele>
        <time>2025-01-03T17:12:34.239Z</time>
      </trkpt>
      <trkpt lat="48.69296" lon="2.12766">
        <ele>133.3</ele>
        <time>2025-01-03T17:12:36.923Z</time>
      </trkpt>
      <trkpt lat="48.693" lon="2.12773">
        <ele>131.5</ele>
        <time>2025-01-03T17:12:40.425Z</time>
      </trkpt>
      <trkpt lat="48.69305" lon="2.12774">
        <ele>129.4</ele>
        <time>2025-01-03T17:12:43.314Z</time>
      </trkpt>
      <trkpt lat="48.6931" lon="2.12775">
        <ele>127.7</ele>
        <time>2025-01-03T17:12:46.204Z</time>
      </trkpt>
      <trkpt lat="48.69316" lon="2.1278">
        <ele>125.7</ele>
        <time>2025-01-03T17:12:50.128Z</time>
      </trkpt>
      <trkpt lat="48.69322" lon="2.12789">
        <ele>123.8</ele>
        <time>2025-01-03T17:12:54.965Z</time>
      </trkpt>
      <trkpt lat="48.69323" lon="2.128">
        <ele>123.6</ele>
        <time>2025-01-03T17:12:59.384Z</time>
      </trkpt>
      <trkpt lat="48.69323" lon="2.12812">
        <ele>123.9</ele>
        <time>2025-01-03T17:13:05.111Z</time>
      </trkpt>
      <trkpt lat="48.69323" lon="2.12824">
        <ele>124.1</ele>
        <time>2025-01-03T17:13:10.838Z</time>
      </trkpt>
      <trkpt lat="48.69324" lon="2.12831">
        <ele>124</ele>
        <time>2025-01-03T17:13:13.741Z</time>
      </trkpt>
      <trkpt lat="48.69325" lon="2.12838">
        <ele>123.9</ele>
        <time>2025-01-03T17:13:16.644Z</time>
      </trkpt>
      <trkpt lat="48.6933" lon="2.1284">
        <ele>122.5</ele>
        <time>2025-01-03T17:13:19.284Z</time>
      </trkpt>
      <trkpt lat="48.69334" lon="2.12841">
        <ele>121.1</ele>
        <time>2025-01-03T17:13:21.924Z</time>
        <extensions>
          <visugpx:TrkExtension xmlns:visugpx="https://www.visugpx.com/editgpx/">
            <visugpx:node>26</visugpx:node>
            </visugpx:TrkExtension>
        </extensions>
      </trkpt>
      <trkpt lat="48.69335" lon="2.12841">
        <ele>120.9</ele>
        <time>2025-01-03T17:13:22.497Z</time>
      </trkpt>
      <trkpt lat="48.69338" lon="2.12832">
        <ele>119.8</ele>
        <time>2025-01-03T17:13:26.310Z</time>
      </trkpt>
      <trkpt lat="48.69341" lon="2.12823">
        <ele>118.6</ele>
        <time>2025-01-03T17:13:30.123Z</time>
      </trkpt>
      <trkpt lat="48.69344" lon="2.12814">
        <ele>117.3</ele>
        <time>2025-01-03T17:13:33.936Z</time>
      </trkpt>
      <trkpt lat="48.69347" lon="2.12805">
        <ele>116.1</ele>
        <time>2025-01-03T17:13:37.750Z</time>
      </trkpt>
      <trkpt lat="48.69353" lon="2.12795">
        <ele>114.5</ele>
        <time>2025-01-03T17:13:42.673Z</time>
      </trkpt>
      <trkpt lat="48.69358" lon="2.12785">
        <ele>112.9</ele>
        <time>2025-01-03T17:13:47.596Z</time>
      </trkpt>
      <trkpt lat="48.69362" lon="2.1278">
        <ele>111.8</ele>
        <time>2025-01-03T17:13:50.691Z</time>
      </trkpt>
      <trkpt lat="48.69366" lon="2.12774">
        <ele>111.2</ele>
        <time>2025-01-03T17:13:53.786Z</time>
      </trkpt>
      <trkpt lat="48.6937" lon="2.12769">
        <ele>110.7</ele>
        <time>2025-01-03T17:13:56.881Z</time>
      </trkpt>
      <trkpt lat="48.69374" lon="2.12763">
        <ele>110.3</ele>
        <time>2025-01-03T17:13:59.976Z</time>
      </trkpt>
      <trkpt lat="48.6938" lon="2.12761">
        <ele>109.1</ele>
        <time>2025-01-03T17:14:03.496Z</time>
      </trkpt>
      <trkpt lat="48.69385" lon="2.12762">
        <ele>108</ele>
        <time>2025-01-03T17:14:06.385Z</time>
      </trkpt>
      <trkpt lat="48.6939" lon="2.12763">
        <ele>106.8</ele>
        <time>2025-01-03T17:14:09.275Z</time>
      </trkpt>
      <trkpt lat="48.69396" lon="2.1276">
        <ele>105.8</ele>
        <time>2025-01-03T17:14:12.895Z</time>
      </trkpt>
      <trkpt lat="48.694" lon="2.12754">
        <ele>105.4</ele>
        <time>2025-01-03T17:14:16.256Z</time>
      </trkpt>
      <trkpt lat="48.69404" lon="2.12747">
        <ele>105.1</ele>
        <time>2025-01-03T17:14:19.617Z</time>
      </trkpt>
      <trkpt lat="48.69408" lon="2.12741">
        <ele>104.9</ele>
        <time>2025-01-03T17:14:22.978Z</time>
      </trkpt>
      <trkpt lat="48.69412" lon="2.12734">
        <ele>104.7</ele>
        <time>2025-01-03T17:14:26.339Z</time>
      </trkpt>
      <trkpt lat="48.69416" lon="2.1273">
        <ele>104.3</ele>
        <time>2025-01-03T17:14:29.309Z</time>
      </trkpt>
      <trkpt lat="48.69421" lon="2.12725">
        <ele>103.8</ele>
        <time>2025-01-03T17:14:32.280Z</time>
      </trkpt>
      <trkpt lat="48.69425" lon="2.12721">
        <ele>103.1</ele>
        <time>2025-01-03T17:14:35.251Z</time>
      </trkpt>
      <trkpt lat="48.69429" lon="2.12716">
        <ele>102.4</ele>
        <time>2025-01-03T17:14:38.222Z</time>
      </trkpt>
      <trkpt lat="48.69434" lon="2.12709">
        <ele>101.6</ele>
        <time>2025-01-03T17:14:42.055Z</time>
      </trkpt>
      <trkpt lat="48.69438" lon="2.12701">
        <ele>100.7</ele>
        <time>2025-01-03T17:14:45.888Z</time>
      </trkpt>
      <trkpt lat="48.69441" lon="2.12692">
        <ele>100.1</ele>
        <time>2025-01-03T17:14:49.768Z</time>
      </trkpt>
      <trkpt lat="48.69445" lon="2.12683">
        <ele>99</ele>
        <time>2025-01-03T17:14:53.648Z</time>
      </trkpt>
      <trkpt lat="48.69448" lon="2.12674">
        <ele>98.3</ele>
        <time>2025-01-03T17:14:57.528Z</time>
      </trkpt>
      <trkpt lat="48.69451" lon="2.12665">
        <ele>97.6</ele>
        <time>2025-01-03T17:15:01.408Z</time>
      </trkpt>
      <trkpt lat="48.69453" lon="2.12657">
        <ele>97.3</ele>
        <time>2025-01-03T17:15:04.735Z</time>
      </trkpt>
      <trkpt lat="48.69454" lon="2.12648">
        <ele>96.9</ele>
        <time>2025-01-03T17:15:08.063Z</time>
        <extensions>
          <visugpx:TrkExtension xmlns:visugpx="https://www.visugpx.com/editgpx/">
            <visugpx:node>27</visugpx:node>
            </visugpx:TrkExtension>
        </extensions>
      </trkpt>
      <trkpt lat="48.69454" lon="2.12647">
        <ele>96.9</ele>
        <time>2025-01-03T17:15:08.495Z</time>
      </trkpt>
      <trkpt lat="48.6946" lon="2.12647">
        <ele>95.6</ele>
        <time>2025-01-03T17:15:11.933Z</time>
      </trkpt>
      <trkpt lat="48.6946" lon="2.12654">
        <ele>95.6</ele>
        <time>2025-01-03T17:15:14.958Z</time>
      </trkpt>
      <trkpt lat="48.6946" lon="2.12661">
        <ele>95.6</ele>
        <time>2025-01-03T17:15:17.984Z</time>
      </trkpt>
      <trkpt lat="48.69465" lon="2.1266">
        <ele>94.6</ele>
        <time>2025-01-03T17:15:20.873Z</time>
      </trkpt>
      <trkpt lat="48.6947" lon="2.12659">
        <ele>93.5</ele>
        <time>2025-01-03T17:15:23.763Z</time>
      </trkpt>
      <trkpt lat="48.69469" lon="2.12665">
        <ele>93.7</ele>
        <time>2025-01-03T17:15:26.887Z</time>
        <extensions>
          <visugpx:TrkExtension xmlns:visugpx="https://www.visugpx.com/editgpx/">
            <visugpx:node>28</visugpx:node>
            </visugpx:TrkExtension>
        </extensions>
      </trkpt>
      <trkpt lat="48.69469" lon="2.12665">
        <ele>93.7</ele>
        <time>2025-01-03T17:15:26.887Z</time>
      </trkpt>
      <trkpt lat="48.69467" lon="2.12672">
        <ele>94.1</ele>
        <time>2025-01-03T17:15:30.925Z</time>
      </trkpt>
      <trkpt lat="48.69466" lon="2.12679">
        <ele>94.5</ele>
        <time>2025-01-03T17:15:34.963Z</time>
      </trkpt>
      <trkpt lat="48.69464" lon="2.12685">
        <ele>94.8</ele>
        <time>2025-01-03T17:15:39.001Z</time>
      </trkpt>
      <trkpt lat="48.69462" lon="2.12692">
        <ele>95.2</ele>
        <time>2025-01-03T17:15:43.040Z</time>
      </trkpt>
      <trkpt lat="48.69464" lon="2.12704">
        <ele>94.8</ele>
        <time>2025-01-03T17:15:47.659Z</time>
      </trkpt>
      <trkpt lat="48.69465" lon="2.12716">
        <ele>94.4</ele>
        <time>2025-01-03T17:15:52.278Z</time>
      </trkpt>
      <trkpt lat="48.69467" lon="2.12726">
        <ele>93.9</ele>
        <time>2025-01-03T17:15:56.230Z</time>
      </trkpt>
      <trkpt lat="48.69472" lon="2.12737">
        <ele>93</ele>
        <time>2025-01-03T17:16:01.281Z</time>
      </trkpt>
      <trkpt lat="48.69478" lon="2.12744">
        <ele>92.3</ele>
        <time>2025-01-03T17:16:05.534Z</time>
      </trkpt>
      <trkpt lat="48.69484" lon="2.1275">
        <ele>91.7</ele>
        <time>2025-01-03T17:16:09.788Z</time>
      </trkpt>
      <trkpt lat="48.6949" lon="2.12757">
        <ele>91.1</ele>
        <time>2025-01-03T17:16:14.042Z</time>
      </trkpt>
      <trkpt lat="48.69496" lon="2.12764">
        <ele>90.4</ele>
        <time>2025-01-03T17:16:18.296Z</time>
      </trkpt>
      <trkpt lat="48.69502" lon="2.1277">
        <ele>89.8</ele>
        <time>2025-01-03T17:16:22.550Z</time>
      </trkpt>
      <trkpt lat="48.69508" lon="2.12777">
        <ele>89.1</ele>
        <time>2025-01-03T17:16:26.804Z</time>
      </trkpt>
      <trkpt lat="48.69514" lon="2.12783">
        <ele>88.6</ele>
        <time>2025-01-03T17:16:31.058Z</time>
      </trkpt>
      <trkpt lat="48.6952" lon="2.1279">
        <ele>88.2</ele>
        <time>2025-01-03T17:16:35.312Z</time>
      </trkpt>
      <trkpt lat="48.69525" lon="2.12795">
        <ele>87.9</ele>
        <time>2025-01-03T17:16:38.626Z</time>
      </trkpt>
      <trkpt lat="48.6953" lon="2.128">
        <ele>87.6</ele>
        <time>2025-01-03T17:16:41.940Z</time>
      </trkpt>
      <trkpt lat="48.69534" lon="2.12805">
        <ele>87.3</ele>
        <time>2025-01-03T17:16:45.254Z</time>
      </trkpt>
      <trkpt lat="48.69539" lon="2.1281">
        <ele>86.8</ele>
        <time>2025-01-03T17:16:48.568Z</time>
      </trkpt>
      <trkpt lat="48.69543" lon="2.12814">
        <ele>86.4</ele>
        <time>2025-01-03T17:16:51.195Z</time>
      </trkpt>
      <trkpt lat="48.69547" lon="2.12818">
        <ele>86</ele>
        <time>2025-01-03T17:16:53.823Z</time>
      </trkpt>
      <trkpt lat="48.6955" lon="2.12822">
        <ele>85.6</ele>
        <time>2025-01-03T17:16:56.451Z</time>
      </trkpt>
      <trkpt lat="48.69554" lon="2.12826">
        <ele>85.2</ele>
        <time>2025-01-03T17:16:59.079Z</time>
      </trkpt>
      <trkpt lat="48.69561" lon="2.12833">
        <ele>84.6</ele>
        <time>2025-01-03T17:17:03.884Z</time>
      </trkpt>
      <trkpt lat="48.69566" lon="2.1284">
        <ele>84.4</ele>
        <time>2025-01-03T17:17:07.579Z</time>
      </trkpt>
      <trkpt lat="48.6957" lon="2.12847">
        <ele>83.9</ele>
        <time>2025-01-03T17:17:11.275Z</time>
      </trkpt>
      <trkpt lat="48.69574" lon="2.1284">
        <ele>83.6</ele>
        <time>2025-01-03T17:17:14.869Z</time>
      </trkpt>
      <trkpt lat="48.69577" lon="2.12832">
        <ele>83.5</ele>
        <time>2025-01-03T17:17:18.463Z</time>
      </trkpt>
      <trkpt lat="48.69579" lon="2.1282">
        <ele>83.3</ele>
        <time>2025-01-03T17:17:23.429Z</time>
        <extensions>
          <visugpx:TrkExtension xmlns:visugpx="https://www.visugpx.com/editgpx/">
            <visugpx:node>29</visugpx:node>
            </visugpx:TrkExtension>
        </extensions>
      </trkpt>
      <trkpt lat="48.69579" lon="2.1282">
        <ele>83.3</ele>
        <time>2025-01-03T17:17:23.429Z</time>
      </trkpt>
      <trkpt lat="48.69585" lon="2.12824">
        <ele>82.8</ele>
        <time>2025-01-03T17:17:26.847Z</time>
      </trkpt>
      <trkpt lat="48.6959" lon="2.12827">
        <ele>81.6</ele>
        <time>2025-01-03T17:17:30.265Z</time>
      </trkpt>
      <trkpt lat="48.69591" lon="2.12837">
        <ele>81.2</ele>
        <time>2025-01-03T17:17:34.363Z</time>
      </trkpt>
      <trkpt lat="48.69592" lon="2.12848">
        <ele>80.7</ele>
        <time>2025-01-03T17:17:38.462Z</time>
      </trkpt>
      <trkpt lat="48.69593" lon="2.12858">
        <ele>80.3</ele>
        <time>2025-01-03T17:17:42.561Z</time>
      </trkpt>
      <trkpt lat="48.69595" lon="2.12869">
        <ele>80.1</ele>
        <time>2025-01-03T17:17:46.660Z</time>
      </trkpt>
      <trkpt lat="48.69596" lon="2.12879">
        <ele>80.1</ele>
        <time>2025-01-03T17:17:50.759Z</time>
      </trkpt>
      <trkpt lat="48.69597" lon="2.12889">
        <ele>80.1</ele>
        <time>2025-01-03T17:17:54.858Z</time>
      </trkpt>
      <trkpt lat="48.69598" lon="2.129">
        <ele>79.9</ele>
        <time>2025-01-03T17:17:58.957Z</time>
      </trkpt>
      <trkpt lat="48.69599" lon="2.1291">
        <ele>79.7</ele>
        <time>2025-01-03T17:18:03.056Z</time>
      </trkpt>
      <trkpt lat="48.69602" lon="2.12918">
        <ele>79.4</ele>
        <time>2025-01-03T17:18:06.595Z</time>
      </trkpt>
      <trkpt lat="48.69604" lon="2.12926">
        <ele>79.4</ele>
        <time>2025-01-03T17:18:10.135Z</time>
      </trkpt>
      <trkpt lat="48.69608" lon="2.12933">
        <ele>79.1</ele>
        <time>2025-01-03T17:18:13.512Z</time>
      </trkpt>
      <trkpt lat="48.69611" lon="2.1294">
        <ele>78.9</ele>
        <time>2025-01-03T17:18:16.890Z</time>
      </trkpt>
      <trkpt lat="48.69615" lon="2.12947">
        <ele>78.7</ele>
        <time>2025-01-03T17:18:20.268Z</time>
      </trkpt>
      <trkpt lat="48.69618" lon="2.12955">
        <ele>78.5</ele>
        <time>2025-01-03T17:18:23.646Z</time>
      </trkpt>
      <trkpt lat="48.69622" lon="2.12962">
        <ele>78.3</ele>
        <time>2025-01-03T17:18:27.024Z</time>
      </trkpt>
      <trkpt lat="48.69625" lon="2.12969">
        <ele>77.9</ele>
        <time>2025-01-03T17:18:30.402Z</time>
      </trkpt>
      <trkpt lat="48.69629" lon="2.12976">
        <ele>77.6</ele>
        <time>2025-01-03T17:18:33.780Z</time>
      </trkpt>
      <trkpt lat="48.69632" lon="2.12983">
        <ele>77.4</ele>
        <time>2025-01-03T17:18:37.158Z</time>
      </trkpt>
      <trkpt lat="48.69634" lon="2.12991">
        <ele>77.4</ele>
        <time>2025-01-03T17:18:40.855Z</time>
      </trkpt>
      <trkpt lat="48.69636" lon="2.12999">
        <ele>77.4</ele>
        <time>2025-01-03T17:18:44.553Z</time>
      </trkpt>
      <trkpt lat="48.69637" lon="2.13008">
        <ele>77.4</ele>
        <time>2025-01-03T17:18:48.357Z</time>
      </trkpt>
      <trkpt lat="48.69637" lon="2.13017">
        <ele>77.3</ele>
        <time>2025-01-03T17:18:52.162Z</time>
      </trkpt>
      <trkpt lat="48.69642" lon="2.13015">
        <ele>76.6</ele>
        <time>2025-01-03T17:18:55.179Z</time>
      </trkpt>
      <trkpt lat="48.69647" lon="2.13012">
        <ele>75.8</ele>
        <time>2025-01-03T17:18:58.196Z</time>
      </trkpt>
      <trkpt lat="48.69652" lon="2.1301">
        <ele>75.2</ele>
        <time>2025-01-03T17:19:00.882Z</time>
      </trkpt>
      <trkpt lat="48.69656" lon="2.13008">
        <ele>74.5</ele>
        <time>2025-01-03T17:19:03.569Z</time>
      </trkpt>
      <trkpt lat="48.69661" lon="2.13006">
        <ele>73.9</ele>
        <time>2025-01-03T17:19:06.256Z</time>
      </trkpt>
      <trkpt lat="48.69665" lon="2.13004">
        <ele>73.2</ele>
        <time>2025-01-03T17:19:08.943Z</time>
      </trkpt>
      <trkpt lat="48.69673" lon="2.13002">
        <ele>72.4</ele>
        <time>2025-01-03T17:19:13.343Z</time>
      </trkpt>
      <trkpt lat="48.6968" lon="2.12999">
        <ele>71.6</ele>
        <time>2025-01-03T17:19:17.743Z</time>
      </trkpt>
      <trkpt lat="48.69682" lon="2.12995">
        <ele>71.3</ele>
        <time>2025-01-03T17:19:19.641Z</time>
      </trkpt>
      <trkpt lat="48.69684" lon="2.12987">
        <ele>71.1</ele>
        <time>2025-01-03T17:19:22.964Z</time>
      </trkpt>
      <trkpt lat="48.69692" lon="2.12986">
        <ele>70.3</ele>
        <time>2025-01-03T17:19:27.563Z</time>
      </trkpt>
      <trkpt lat="48.69699" lon="2.12985">
        <ele>69.3</ele>
        <time>2025-01-03T17:19:31.592Z</time>
      </trkpt>
      <trkpt lat="48.69699" lon="2.12985">
        <ele>69.3</ele>
        <time>2025-01-03T17:19:31.592Z</time>
        <extensions>
          <visugpx:TrkExtension xmlns:visugpx="https://www.visugpx.com/editgpx/">
            <visugpx:node>30</visugpx:node>
            </visugpx:TrkExtension>
        </extensions>
      </trkpt>
      <trkpt lat="48.69704" lon="2.12985">
        <ele>68.7</ele>
        <time>2025-01-03T17:19:34.177Z</time>
      </trkpt>
      <trkpt lat="48.69708" lon="2.12984">
        <ele>68</ele>
        <time>2025-01-03T17:19:36.762Z</time>
      </trkpt>
      <trkpt lat="48.69715" lon="2.12985">
        <ele>67.1</ele>
        <time>2025-01-03T17:19:40.505Z</time>
      </trkpt>
      <trkpt lat="48.69721" lon="2.12986">
        <ele>66.2</ele>
        <time>2025-01-03T17:19:44.249Z</time>
      </trkpt>
      <trkpt lat="48.69728" lon="2.12987">
        <ele>66.3</ele>
        <time>2025-01-03T17:19:49.383Z</time>
      </trkpt>
      <trkpt lat="48.69735" lon="2.12987">
        <ele>66.7</ele>
        <time>2025-01-03T17:19:54.517Z</time>
      </trkpt>
      <trkpt lat="48.69739" lon="2.12987">
        <ele>66.9</ele>
        <time>2025-01-03T17:19:57.587Z</time>
      </trkpt>
      <trkpt lat="48.69743" lon="2.12988">
        <ele>67.2</ele>
        <time>2025-01-03T17:20:00.957Z</time>
      </trkpt>
      <trkpt lat="48.69747" lon="2.12988">
        <ele>67.4</ele>
        <time>2025-01-03T17:20:04.027Z</time>
      </trkpt>
      <trkpt lat="48.69755" lon="2.12988">
        <ele>66.9</ele>
        <time>2025-01-03T17:20:08.611Z</time>
      </trkpt>
      <trkpt lat="48.69763" lon="2.12988">
        <ele>65.9</ele>
        <time>2025-01-03T17:20:13.195Z</time>
      </trkpt>
      <trkpt lat="48.69767" lon="2.12988">
        <ele>65.4</ele>
        <time>2025-01-03T17:20:15.487Z</time>
        <extensions>
          <visugpx:TrkExtension xmlns:visugpx="https://www.visugpx.com/editgpx/">
            <visugpx:node>31</visugpx:node>
            </visugpx:TrkExtension>
        </extensions>
      </trkpt>
      <trkpt lat="48.69767" lon="2.12988">
        <ele>65.4</ele>
        <time>2025-01-03T17:20:15.487Z</time>
      </trkpt>
      <trkpt lat="48.69771" lon="2.12992">
        <ele>64.9</ele>
        <time>2025-01-03T17:20:18.121Z</time>
      </trkpt>
      <trkpt lat="48.69775" lon="2.12996">
        <ele>64.4</ele>
        <time>2025-01-03T17:20:20.755Z</time>
      </trkpt>
      <trkpt lat="48.69779" lon="2.12999">
        <ele>64</ele>
        <time>2025-01-03T17:20:23.389Z</time>
      </trkpt>
      <trkpt lat="48.69783" lon="2.13003">
        <ele>64</ele>
        <time>2025-01-03T17:20:26.023Z</time>
      </trkpt>
      <trkpt lat="48.69786" lon="2.13007">
        <ele>63.9</ele>
        <time>2025-01-03T17:20:28.657Z</time>
      </trkpt>
      <trkpt lat="48.6979" lon="2.13011">
        <ele>63.8</ele>
        <time>2025-01-03T17:20:31.292Z</time>
      </trkpt>
      <trkpt lat="48.69794" lon="2.13014">
        <ele>63.7</ele>
        <time>2025-01-03T17:20:33.927Z</time>
      </trkpt>
      <trkpt lat="48.69798" lon="2.13018">
        <ele>63.5</ele>
        <time>2025-01-03T17:20:36.562Z</time>
      </trkpt>
      <trkpt lat="48.69804" lon="2.1302">
        <ele>63.3</ele>
        <time>2025-01-03T17:20:39.980Z</time>
      </trkpt>
      <trkpt lat="48.69809" lon="2.13022">
        <ele>63.2</ele>
        <time>2025-01-03T17:20:43.398Z</time>
      </trkpt>
      <trkpt lat="48.69813" lon="2.13027">
        <ele>63</ele>
        <time>2025-01-03T17:20:46.844Z</time>
      </trkpt>
      <trkpt lat="48.69817" lon="2.13033">
        <ele>63.1</ele>
        <time>2025-01-03T17:20:50.290Z</time>
      </trkpt>
      <trkpt lat="48.6982" lon="2.13038">
        <ele>63.2</ele>
        <time>2025-01-03T17:20:53.736Z</time>
      </trkpt>
      <trkpt lat="48.69824" lon="2.13043">
        <ele>63.4</ele>
        <time>2025-01-03T17:20:57.183Z</time>
      </trkpt>
      <trkpt lat="48.69822" lon="2.13048">
        <ele>63.4</ele>
        <time>2025-01-03T17:20:59.710Z</time>
        <extensions>
          <visugpx:TrkExtension xmlns:visugpx="https://www.visugpx.com/editgpx/">
            <visugpx:node>32</visugpx:node>
            </visugpx:TrkExtension>
        </extensions>
      </trkpt>
      <trkpt lat="48.69821" lon="2.13057">
        <ele>63.6</ele>
        <time>2025-01-03T17:21:04.088Z</time>
      </trkpt>
      <trkpt lat="48.69821" lon="2.13064">
        <ele>63.7</ele>
        <time>2025-01-03T17:21:07.342Z</time>
      </trkpt>
      <trkpt lat="48.6982" lon="2.13071">
        <ele>63.8</ele>
        <time>2025-01-03T17:21:10.597Z</time>
      </trkpt>
      <trkpt lat="48.69821" lon="2.13084">
        <ele>64.1</ele>
        <time>2025-01-03T17:21:16.129Z</time>
      </trkpt>
      <trkpt lat="48.69822" lon="2.13097">
        <ele>63.9</ele>
        <time>2025-01-03T17:21:21.661Z</time>
      </trkpt>
      <trkpt lat="48.69822" lon="2.13109">
        <ele>63.6</ele>
        <time>2025-01-03T17:21:27.193Z</time>
      </trkpt>
      <trkpt lat="48.69823" lon="2.13122">
        <ele>63.8</ele>
        <time>2025-01-03T17:21:32.726Z</time>
      </trkpt>
      <trkpt lat="48.69825" lon="2.13131">
        <ele>63.9</ele>
        <time>2025-01-03T17:21:36.554Z</time>
      </trkpt>
      <trkpt lat="48.69827" lon="2.1314">
        <ele>64</ele>
        <time>2025-01-03T17:21:40.382Z</time>
      </trkpt>
      <trkpt lat="48.69829" lon="2.13148">
        <ele>63.7</ele>
        <time>2025-01-03T17:21:44.211Z</time>
      </trkpt>
      <trkpt lat="48.69831" lon="2.13157">
        <ele>63.4</ele>
        <time>2025-01-03T17:21:48.040Z</time>
      </trkpt>
      <trkpt lat="48.69832" lon="2.13166">
        <ele>63.1</ele>
        <time>2025-01-03T17:21:51.869Z</time>
      </trkpt>
      <trkpt lat="48.69834" lon="2.13175">
        <ele>63</ele>
        <time>2025-01-03T17:21:55.698Z</time>
      </trkpt>
      <trkpt lat="48.69836" lon="2.13183">
        <ele>63.1</ele>
        <time>2025-01-03T17:21:59.527Z</time>
      </trkpt>
      <trkpt lat="48.69838" lon="2.13192">
        <ele>63.2</ele>
        <time>2025-01-03T17:22:03.356Z</time>
      </trkpt>
      <trkpt lat="48.69843" lon="2.13203">
        <ele>63.4</ele>
        <time>2025-01-03T17:22:09.422Z</time>
      </trkpt>
      <trkpt lat="48.69847" lon="2.13213">
        <ele>63.8</ele>
        <time>2025-01-03T17:22:15.488Z</time>
      </trkpt>
      <trkpt lat="48.69849" lon="2.13223">
        <ele>64.1</ele>
        <time>2025-01-03T17:22:20.670Z</time>
        <extensions>
          <visugpx:TrkExtension xmlns:visugpx="https://www.visugpx.com/editgpx/">
            <visugpx:node>33</visugpx:node>
            </visugpx:TrkExtension>
        </extensions>
      </trkpt>
      <trkpt lat="48.69851" lon="2.13234">
        <ele>63.7</ele>
        <time>2025-01-03T17:22:24.985Z</time>
      </trkpt>
      <trkpt lat="48.69852" lon="2.13243">
        <ele>63.4</ele>
        <time>2025-01-03T17:22:28.250Z</time>
      </trkpt>
      <trkpt lat="48.69853" lon="2.13251">
        <ele>63</ele>
        <time>2025-01-03T17:22:31.515Z</time>
      </trkpt>
      <trkpt lat="48.69854" lon="2.13264">
        <ele>63.1</ele>
        <time>2025-01-03T17:22:37.378Z</time>
      </trkpt>
      <trkpt lat="48.69855" lon="2.13269">
        <ele>63.2</ele>
        <time>2025-01-03T17:22:39.851Z</time>
      </trkpt>
      <trkpt lat="48.69857" lon="2.1328">
        <ele>63.2</ele>
        <time>2025-01-03T17:22:44.606Z</time>
      </trkpt>
      <trkpt lat="48.69858" lon="2.13291">
        <ele>63.1</ele>
        <time>2025-01-03T17:22:49.361Z</time>
      </trkpt>
      <trkpt lat="48.69859" lon="2.13303">
        <ele>63.1</ele>
        <time>2025-01-03T17:22:54.342Z</time>
      </trkpt>
      <trkpt lat="48.69859" lon="2.13314">
        <ele>63.1</ele>
        <time>2025-01-03T17:22:59.323Z</time>
      </trkpt>
      <trkpt lat="48.69859" lon="2.13321">
        <ele>63.1</ele>
        <time>2025-01-03T17:23:02.374Z</time>
      </trkpt>
      <trkpt lat="48.69858" lon="2.13329">
        <ele>63.1</ele>
        <time>2025-01-03T17:23:05.425Z</time>
      </trkpt>
      <trkpt lat="48.69858" lon="2.13336">
        <ele>63.1</ele>
        <time>2025-01-03T17:23:08.477Z</time>
      </trkpt>
      <trkpt lat="48.69857" lon="2.13343">
        <ele>62.9</ele>
        <time>2025-01-03T17:23:11.530Z</time>
      </trkpt>
      <trkpt lat="48.69859" lon="2.1335">
        <ele>62.6</ele>
        <time>2025-01-03T17:23:14.414Z</time>
      </trkpt>
      <trkpt lat="48.69861" lon="2.13357">
        <ele>62.2</ele>
        <time>2025-01-03T17:23:17.299Z</time>
      </trkpt>
      <trkpt lat="48.69865" lon="2.13362">
        <ele>62.4</ele>
        <time>2025-01-03T17:23:21.163Z</time>
      </trkpt>
      <trkpt lat="48.6987" lon="2.13368">
        <ele>62.9</ele>
        <time>2025-01-03T17:23:25.027Z</time>
      </trkpt>
      <trkpt lat="48.69874" lon="2.13373">
        <ele>63.2</ele>
        <time>2025-01-03T17:23:28.891Z</time>
      </trkpt>
      <trkpt lat="48.69879" lon="2.13378">
        <ele>63.3</ele>
        <time>2025-01-03T17:23:32.755Z</time>
      </trkpt>
      <trkpt lat="48.69883" lon="2.13383">
        <ele>63.3</ele>
        <time>2025-01-03T17:23:36.619Z</time>
      </trkpt>
      <trkpt lat="48.69887" lon="2.13389">
        <ele>63.1</ele>
        <time>2025-01-03T17:23:40.483Z</time>
      </trkpt>
      <trkpt lat="48.69892" lon="2.13394">
        <ele>63</ele>
        <time>2025-01-03T17:23:44.347Z</time>
      </trkpt>
      <trkpt lat="48.69896" lon="2.13399">
        <ele>63</ele>
        <time>2025-01-03T17:23:48.212Z</time>
        <extensions>
          <visugpx:TrkExtension xmlns:visugpx="https://www.visugpx.com/editgpx/">
            <visugpx:node>34</visugpx:node>
            </visugpx:TrkExtension>
        </extensions>
      </trkpt>
      <trkpt lat="48.69897" lon="2.134">
        <ele>63</ele>
        <time>2025-01-03T17:23:48.996Z</time>
      </trkpt>
      <trkpt lat="48.699" lon="2.13409">
        <ele>63</ele>
        <time>2025-01-03T17:23:53.189Z</time>
      </trkpt>
      <trkpt lat="48.69903" lon="2.13417">
        <ele>63</ele>
        <time>2025-01-03T17:23:57.383Z</time>
      </trkpt>
      <trkpt lat="48.69905" lon="2.13426">
        <ele>63.1</ele>
        <time>2025-01-03T17:24:01.577Z</time>
      </trkpt>
      <trkpt lat="48.69908" lon="2.13434">
        <ele>63.2</ele>
        <time>2025-01-03T17:24:05.771Z</time>
      </trkpt>
      <trkpt lat="48.69912" lon="2.13442">
        <ele>63.2</ele>
        <time>2025-01-03T17:24:10.109Z</time>
      </trkpt>
      <trkpt lat="48.69915" lon="2.13448">
        <ele>63</ele>
        <time>2025-01-03T17:24:12.896Z</time>
      </trkpt>
      <trkpt lat="48.69918" lon="2.13454">
        <ele>62.7</ele>
        <time>2025-01-03T17:24:15.683Z</time>
      </trkpt>
      <trkpt lat="48.6992" lon="2.1346">
        <ele>62.5</ele>
        <time>2025-01-03T17:24:18.471Z</time>
      </trkpt>
      <trkpt lat="48.69923" lon="2.13466">
        <ele>62.4</ele>
        <time>2025-01-03T17:24:21.259Z</time>
      </trkpt>
      <trkpt lat="48.69927" lon="2.13471">
        <ele>62.4</ele>
        <time>2025-01-03T17:24:24.989Z</time>
      </trkpt>
      <trkpt lat="48.69931" lon="2.13477">
        <ele>62.6</ele>
        <time>2025-01-03T17:24:28.719Z</time>
      </trkpt>
      <trkpt lat="48.69935" lon="2.13482">
        <ele>62.8</ele>
        <time>2025-01-03T17:24:32.450Z</time>
      </trkpt>
      <trkpt lat="48.69939" lon="2.13487">
        <ele>62.9</ele>
        <time>2025-01-03T17:24:36.181Z</time>
      </trkpt>
      <trkpt lat="48.69942" lon="2.13493">
        <ele>63</ele>
        <time>2025-01-03T17:24:39.351Z</time>
      </trkpt>
      <trkpt lat="48.69944" lon="2.13499">
        <ele>63</ele>
        <time>2025-01-03T17:24:42.521Z</time>
      </trkpt>
      <trkpt lat="48.69944" lon="2.13508">
        <ele>63</ele>
        <time>2025-01-03T17:24:46.248Z</time>
      </trkpt>
      <trkpt lat="48.69944" lon="2.13516">
        <ele>63</ele>
        <time>2025-01-03T17:24:49.976Z</time>
      </trkpt>
      <trkpt lat="48.69943" lon="2.13525">
        <ele>63.1</ele>
        <time>2025-01-03T17:24:53.704Z</time>
      </trkpt>
      <trkpt lat="48.69943" lon="2.13533">
        <ele>63.1</ele>
        <time>2025-01-03T17:24:57.433Z</time>
      </trkpt>
      <trkpt lat="48.69945" lon="2.13542">
        <ele>63</ele>
        <time>2025-01-03T17:25:01.342Z</time>
      </trkpt>
      <trkpt lat="48.69948" lon="2.13548">
        <ele>63</ele>
        <time>2025-01-03T17:25:04.595Z</time>
      </trkpt>
      <trkpt lat="48.69955" lon="2.13555">
        <ele>63</ele>
        <time>2025-01-03T17:25:10.073Z</time>
      </trkpt>
      <trkpt lat="48.69962" lon="2.13561">
        <ele>63.1</ele>
        <time>2025-01-03T17:25:15.552Z</time>
      </trkpt>
      <trkpt lat="48.69968" lon="2.13565">
        <ele>63.1</ele>
        <time>2025-01-03T17:25:19.844Z</time>
        <extensions>
          <visugpx:TrkExtension xmlns:visugpx="https://www.visugpx.com/editgpx/">
            <visugpx:node>35</visugpx:node>
            </visugpx:TrkExtension>
        </extensions>
      </trkpt>
      <trkpt lat="48.69976" lon="2.1357">
        <ele>63</ele>
        <time>2025-01-03T17:25:25.314Z</time>
      </trkpt>
      <trkpt lat="48.69981" lon="2.13575">
        <ele>63</ele>
        <time>2025-01-03T17:25:28.968Z</time>
      </trkpt>
      <trkpt lat="48.69985" lon="2.1358">
        <ele>63</ele>
        <time>2025-01-03T17:25:32.622Z</time>
      </trkpt>
      <trkpt lat="48.69989" lon="2.13587">
        <ele>63.1</ele>
        <time>2025-01-03T17:25:36.852Z</time>
      </trkpt>
      <trkpt lat="48.69992" lon="2.13594">
        <ele>63.4</ele>
        <time>2025-01-03T17:25:41.083Z</time>
      </trkpt>
      <trkpt lat="48.69997" lon="2.13598">
        <ele>63.5</ele>
        <time>2025-01-03T17:25:44.821Z</time>
      </trkpt>
      <trkpt lat="48.70001" lon="2.13602">
        <ele>63.7</ele>
        <time>2025-01-03T17:25:48.560Z</time>
      </trkpt>
      <trkpt lat="48.70006" lon="2.13603">
        <ele>63.6</ele>
        <time>2025-01-03T17:25:51.669Z</time>
      </trkpt>
      <trkpt lat="48.70012" lon="2.13601">
        <ele>63.5</ele>
        <time>2025-01-03T17:25:55.182Z</time>
      </trkpt>
      <trkpt lat="48.70018" lon="2.13599">
        <ele>63.3</ele>
        <time>2025-01-03T17:25:58.695Z</time>
      </trkpt>
      <trkpt lat="48.70023" lon="2.13596">
        <ele>63</ele>
        <time>2025-01-03T17:26:02.208Z</time>
      </trkpt>
      <trkpt lat="48.70029" lon="2.13594">
        <ele>62.8</ele>
        <time>2025-01-03T17:26:05.722Z</time>
      </trkpt>
      <trkpt lat="48.70034" lon="2.13593">
        <ele>63</ele>
        <time>2025-01-03T17:26:09.464Z</time>
      </trkpt>
      <trkpt lat="48.70039" lon="2.13586">
        <ele>62.9</ele>
        <time>2025-01-03T17:26:13.727Z</time>
        <extensions>
          <visugpx:TrkExtension xmlns:visugpx="https://www.visugpx.com/editgpx/">
            <visugpx:node>36</visugpx:node>
            </visugpx:TrkExtension>
        </extensions>
      </trkpt>
      <trkpt lat="48.70042" lon="2.13583">
        <ele>63</ele>
        <time>2025-01-03T17:26:16.295Z</time>
      </trkpt>
      <trkpt lat="48.70051" lon="2.1358">
        <ele>63.5</ele>
        <time>2025-01-03T17:26:22.489Z</time>
      </trkpt>
      <trkpt lat="48.70059" lon="2.13577">
        <ele>63.8</ele>
        <time>2025-01-03T17:26:28.684Z</time>
      </trkpt>
      <trkpt lat="48.70068" lon="2.13574">
        <ele>63.8</ele>
        <time>2025-01-03T17:26:34.879Z</time>
      </trkpt>
      <trkpt lat="48.70076" lon="2.13571">
        <ele>63.9</ele>
        <time>2025-01-03T17:26:41.074Z</time>
      </trkpt>
      <trkpt lat="48.70074" lon="2.13558">
        <ele>63.7</ele>
        <time>2025-01-03T17:26:46.633Z</time>
      </trkpt>
      <trkpt lat="48.70071" lon="2.13545">
        <ele>63.6</ele>
        <time>2025-01-03T17:26:52.194Z</time>
      </trkpt>
      <trkpt lat="48.70069" lon="2.13534">
        <ele>63.5</ele>
        <time>2025-01-03T17:26:56.835Z</time>
      </trkpt>
      <trkpt lat="48.70067" lon="2.13523">
        <ele>63.3</ele>
        <time>2025-01-03T17:27:01.477Z</time>
      </trkpt>
      <trkpt lat="48.70066" lon="2.13516">
        <ele>63.2</ele>
        <time>2025-01-03T17:27:04.590Z</time>
      </trkpt>
      <trkpt lat="48.70065" lon="2.13508">
        <ele>63.1</ele>
        <time>2025-01-03T17:27:07.704Z</time>
        <extensions>
          <visugpx:TrkExtension xmlns:visugpx="https://www.visugpx.com/editgpx/">
            <visugpx:node>37</visugpx:node>
            </visugpx:TrkExtension>
        </extensions>
      </trkpt>
      <trkpt lat="48.70063" lon="2.13497">
        <ele>63</ele>
        <time>2025-01-03T17:27:12.439Z</time>
      </trkpt>
      <trkpt lat="48.70063" lon="2.13484">
        <ele>63</ele>
        <time>2025-01-03T17:27:18.273Z</time>
      </trkpt>
      <trkpt lat="48.70063" lon="2.1347">
        <ele>63</ele>
        <time>2025-01-03T17:27:24.107Z</time>
      </trkpt>
      <trkpt lat="48.70064" lon="2.1346">
        <ele>63</ele>
        <time>2025-01-03T17:27:28.478Z</time>
      </trkpt>
      <trkpt lat="48.70068" lon="2.13452">
        <ele>63</ele>
        <time>2025-01-03T17:27:32.816Z</time>
      </trkpt>
      <trkpt lat="48.70071" lon="2.13451">
        <ele>63</ele>
        <time>2025-01-03T17:27:34.827Z</time>
      </trkpt>
      <trkpt lat="48.70079" lon="2.1345">
        <ele>63</ele>
        <time>2025-01-03T17:27:40.185Z</time>
      </trkpt>
      <trkpt lat="48.70087" lon="2.13449">
        <ele>63.1</ele>
        <time>2025-01-03T17:27:45.544Z</time>
      </trkpt>
      <trkpt lat="48.70089" lon="2.13442">
        <ele>63.2</ele>
        <time>2025-01-03T17:27:49.051Z</time>
        <extensions>
          <visugpx:TrkExtension xmlns:visugpx="https://www.visugpx.com/editgpx/">
            <visugpx:node>38</visugpx:node>
            </visugpx:TrkExtension>
        </extensions>
      </trkpt>
      <trkpt lat="48.70091" lon="2.13434">
        <ele>63.2</ele>
        <time>2025-01-03T17:27:52.649Z</time>
      </trkpt>
      <trkpt lat="48.70093" lon="2.13426">
        <ele>63.1</ele>
        <time>2025-01-03T17:27:56.247Z</time>
      </trkpt>
      <trkpt lat="48.70096" lon="2.13423">
        <ele>63.1</ele>
        <time>2025-01-03T17:27:58.601Z</time>
      </trkpt>
      <trkpt lat="48.70099" lon="2.13413">
        <ele>63</ele>
        <time>2025-01-03T17:28:03.172Z</time>
      </trkpt>
      <trkpt lat="48.70101" lon="2.13403">
        <ele>63</ele>
        <time>2025-01-03T17:28:07.743Z</time>
      </trkpt>
      <trkpt lat="48.70104" lon="2.13393">
        <ele>63</ele>
        <time>2025-01-03T17:28:12.314Z</time>
      </trkpt>
      <trkpt lat="48.70106" lon="2.13383">
        <ele>63</ele>
        <time>2025-01-03T17:28:16.886Z</time>
      </trkpt>
      <trkpt lat="48.70107" lon="2.13376">
        <ele>63</ele>
        <time>2025-01-03T17:28:20.300Z</time>
      </trkpt>
      <trkpt lat="48.70107" lon="2.13368">
        <ele>63</ele>
        <time>2025-01-03T17:28:23.714Z</time>
      </trkpt>
      <trkpt lat="48.70108" lon="2.13361">
        <ele>63</ele>
        <time>2025-01-03T17:28:27.128Z</time>
      </trkpt>
      <trkpt lat="48.70108" lon="2.13353">
        <ele>63.3</ele>
        <time>2025-01-03T17:28:30.542Z</time>
      </trkpt>
      <trkpt lat="48.70109" lon="2.13346">
        <ele>63.5</ele>
        <time>2025-01-03T17:28:34.028Z</time>
      </trkpt>
      <trkpt lat="48.70109" lon="2.13339">
        <ele>63.7</ele>
        <time>2025-01-03T17:28:37.515Z</time>
      </trkpt>
      <trkpt lat="48.70108" lon="2.13331">
        <ele>63.9</ele>
        <time>2025-01-03T17:28:41.329Z</time>
      </trkpt>
      <trkpt lat="48.70107" lon="2.13322">
        <ele>63.8</ele>
        <time>2025-01-03T17:28:45.143Z</time>
      </trkpt>
      <trkpt lat="48.70105" lon="2.13314">
        <ele>63.8</ele>
        <time>2025-01-03T17:28:48.957Z</time>
      </trkpt>
      <trkpt lat="48.70104" lon="2.13305">
        <ele>63.8</ele>
        <time>2025-01-03T17:28:52.772Z</time>
      </trkpt>
      <trkpt lat="48.70101" lon="2.13297">
        <ele>63.9</ele>
        <time>2025-01-03T17:28:57.238Z</time>
      </trkpt>
      <trkpt lat="48.70097" lon="2.13289">
        <ele>64.1</ele>
        <time>2025-01-03T17:29:01.705Z</time>
      </trkpt>
      <trkpt lat="48.70095" lon="2.13282">
        <ele>64.3</ele>
        <time>2025-01-03T17:29:05.044Z</time>
      </trkpt>
      <trkpt lat="48.70093" lon="2.13275">
        <ele>64.3</ele>
        <time>2025-01-03T17:29:08.383Z</time>
      </trkpt>
      <trkpt lat="48.7009" lon="2.13268">
        <ele>64.2</ele>
        <time>2025-01-03T17:29:11.722Z</time>
      </trkpt>
      <trkpt lat="48.70088" lon="2.13261">
        <ele>64.2</ele>
        <time>2025-01-03T17:29:15.062Z</time>
      </trkpt>
      <trkpt lat="48.70086" lon="2.13254">
        <ele>64.1</ele>
        <time>2025-01-03T17:29:18.402Z</time>
      </trkpt>
      <trkpt lat="48.70084" lon="2.13247">
        <ele>64</ele>
        <time>2025-01-03T17:29:21.742Z</time>
      </trkpt>
      <trkpt lat="48.70081" lon="2.1324">
        <ele>64</ele>
        <time>2025-01-03T17:29:25.082Z</time>
      </trkpt>
      <trkpt lat="48.70079" lon="2.13233">
        <ele>64</ele>
        <time>2025-01-03T17:29:28.423Z</time>
      </trkpt>
      <trkpt lat="48.70078" lon="2.13223">
        <ele>64</ele>
        <time>2025-01-03T17:29:33.324Z</time>
      </trkpt>
      <trkpt lat="48.70077" lon="2.13212">
        <ele>64.3</ele>
        <time>2025-01-03T17:29:38.227Z</time>
      </trkpt>
      <trkpt lat="48.70078" lon="2.13204">
        <ele>64.5</ele>
        <time>2025-01-03T17:29:42.259Z</time>
      </trkpt>
      <trkpt lat="48.70078" lon="2.13196">
        <ele>64.8</ele>
        <time>2025-01-03T17:29:46.292Z</time>
      </trkpt>
      <trkpt lat="48.70078" lon="2.13193">
        <ele>64.8</ele>
        <time>2025-01-03T17:29:47.588Z</time>
        <extensions>
          <visugpx:TrkExtension xmlns:visugpx="https://www.visugpx.com/editgpx/">
            <visugpx:node>39</visugpx:node>
            </visugpx:TrkExtension>
        </extensions>
      </trkpt>
      <trkpt lat="48.70079" lon="2.13182">
        <ele>64.8</ele>
        <time>2025-01-03T17:29:52.387Z</time>
      </trkpt>
      <trkpt lat="48.7008" lon="2.13174">
        <ele>64.9</ele>
        <time>2025-01-03T17:29:56.221Z</time>
      </trkpt>
      <trkpt lat="48.70081" lon="2.13165">
        <ele>64.9</ele>
        <time>2025-01-03T17:30:00.055Z</time>
      </trkpt>
      <trkpt lat="48.70082" lon="2.13157">
        <ele>65</ele>
        <time>2025-01-03T17:30:03.578Z</time>
      </trkpt>
      <trkpt lat="48.70082" lon="2.13149">
        <ele>65</ele>
        <time>2025-01-03T17:30:07.102Z</time>
      </trkpt>
      <trkpt lat="48.70083" lon="2.13141">
        <ele>65</ele>
        <time>2025-01-03T17:30:10.626Z</time>
      </trkpt>
      <trkpt lat="48.70083" lon="2.13133">
        <ele>65</ele>
        <time>2025-01-03T17:30:14.150Z</time>
      </trkpt>
      <trkpt lat="48.70081" lon="2.13128">
        <ele>65</ele>
        <time>2025-01-03T17:30:16.677Z</time>
      </trkpt>
      <trkpt lat="48.70078" lon="2.13121">
        <ele>64.9</ele>
        <time>2025-01-03T17:30:20.090Z</time>
      </trkpt>
      <trkpt lat="48.70076" lon="2.13117">
        <ele>64.8</ele>
        <time>2025-01-03T17:30:22.069Z</time>
      </trkpt>
      <trkpt lat="48.70079" lon="2.13108">
        <ele>64.8</ele>
        <time>2025-01-03T17:30:26.391Z</time>
      </trkpt>
      <trkpt lat="48.70081" lon="2.13099">
        <ele>64.9</ele>
        <time>2025-01-03T17:30:30.714Z</time>
      </trkpt>
      <trkpt lat="48.70084" lon="2.13089">
        <ele>65</ele>
        <time>2025-01-03T17:30:35.761Z</time>
      </trkpt>
      <trkpt lat="48.70087" lon="2.13078">
        <ele>65</ele>
        <time>2025-01-03T17:30:40.808Z</time>
      </trkpt>
      <trkpt lat="48.70088" lon="2.13067">
        <ele>65</ele>
        <time>2025-01-03T17:30:45.861Z</time>
      </trkpt>
      <trkpt lat="48.70089" lon="2.13055">
        <ele>65</ele>
        <time>2025-01-03T17:30:50.914Z</time>
      </trkpt>
      <trkpt lat="48.7009" lon="2.13044">
        <ele>65.1</ele>
        <time>2025-01-03T17:30:55.967Z</time>
      </trkpt>
      <trkpt lat="48.70091" lon="2.13032">
        <ele>65.2</ele>
        <time>2025-01-03T17:31:01.021Z</time>
      </trkpt>
      <trkpt lat="48.70091" lon="2.13021">
        <ele>65.3</ele>
        <time>2025-01-03T17:31:06.075Z</time>
      </trkpt>
      <trkpt lat="48.70092" lon="2.13009">
        <ele>65.3</ele>
        <time>2025-01-03T17:31:11.129Z</time>
      </trkpt>
      <trkpt lat="48.70093" lon="2.12998">
        <ele>65.3</ele>
        <time>2025-01-03T17:31:16.183Z</time>
      </trkpt>
      <trkpt lat="48.70094" lon="2.12986">
        <ele>65.2</ele>
        <time>2025-01-03T17:31:21.237Z</time>
        <extensions>
          <visugpx:TrkExtension xmlns:visugpx="https://www.visugpx.com/editgpx/">
            <visugpx:node>40</visugpx:node>
            </visugpx:TrkExtension>
        </extensions>
      </trkpt>
      <trkpt lat="48.70095" lon="2.12978">
        <ele>65.1</ele>
        <time>2025-01-03T17:31:24.562Z</time>
      </trkpt>
      <trkpt lat="48.70088" lon="2.12975">
        <ele>65</ele>
        <time>2025-01-03T17:31:29.197Z</time>
      </trkpt>
      <trkpt lat="48.70081" lon="2.12973">
        <ele>65</ele>
        <time>2025-01-03T17:31:33.832Z</time>
      </trkpt>
      <trkpt lat="48.70074" lon="2.1297">
        <ele>64.9</ele>
        <time>2025-01-03T17:31:38.468Z</time>
      </trkpt>
      <trkpt lat="48.70067" lon="2.12967">
        <ele>64.9</ele>
        <time>2025-01-03T17:31:43.105Z</time>
      </trkpt>
      <trkpt lat="48.70062" lon="2.12966">
        <ele>64.9</ele>
        <time>2025-01-03T17:31:46.412Z</time>
      </trkpt>
      <trkpt lat="48.70057" lon="2.12964">
        <ele>65</ele>
        <time>2025-01-03T17:31:49.719Z</time>
      </trkpt>
      <trkpt lat="48.70052" lon="2.12963">
        <ele>64.9</ele>
        <time>2025-01-03T17:31:53.026Z</time>
      </trkpt>
      <trkpt lat="48.70047" lon="2.12961">
        <ele>64.8</ele>
        <time>2025-01-03T17:31:56.333Z</time>
      </trkpt>
      <trkpt lat="48.70041" lon="2.1296">
        <ele>64.7</ele>
        <time>2025-01-03T17:31:59.640Z</time>
      </trkpt>
      <trkpt lat="48.70036" lon="2.12958">
        <ele>64.7</ele>
        <time>2025-01-03T17:32:02.947Z</time>
      </trkpt>
      <trkpt lat="48.70031" lon="2.12957">
        <ele>64.6</ele>
        <time>2025-01-03T17:32:06.254Z</time>
      </trkpt>
      <trkpt lat="48.70026" lon="2.12955">
        <ele>64.6</ele>
        <time>2025-01-03T17:32:09.561Z</time>
      </trkpt>
      <trkpt lat="48.70021" lon="2.12954">
        <ele>64.5</ele>
        <time>2025-01-03T17:32:12.868Z</time>
      </trkpt>
      <trkpt lat="48.70016" lon="2.12952">
        <ele>64.4</ele>
        <time>2025-01-03T17:32:16.175Z</time>
      </trkpt>
      <trkpt lat="48.70011" lon="2.12951">
        <ele>64.3</ele>
        <time>2025-01-03T17:32:19.482Z</time>
      </trkpt>
      <trkpt lat="48.70006" lon="2.12949">
        <ele>64.2</ele>
        <time>2025-01-03T17:32:22.789Z</time>
      </trkpt>
      <trkpt lat="48.7" lon="2.12948">
        <ele>64</ele>
        <time>2025-01-03T17:32:26.096Z</time>
      </trkpt>
      <trkpt lat="48.69995" lon="2.12946">
        <ele>64</ele>
        <time>2025-01-03T17:32:29.403Z</time>
      </trkpt>
      <trkpt lat="48.6999" lon="2.12945">
        <ele>64</ele>
        <time>2025-01-03T17:32:32.711Z</time>
      </trkpt>
      <trkpt lat="48.69985" lon="2.12943">
        <ele>64</ele>
        <time>2025-01-03T17:32:36.019Z</time>
      </trkpt>
      <trkpt lat="48.6998" lon="2.12941">
        <ele>64</ele>
        <time>2025-01-03T17:32:39.267Z</time>
      </trkpt>
      <trkpt lat="48.69976" lon="2.12938">
        <ele>64</ele>
        <time>2025-01-03T17:32:42.515Z</time>
      </trkpt>
      <trkpt lat="48.69971" lon="2.12936">
        <ele>64</ele>
        <time>2025-01-03T17:32:45.763Z</time>
      </trkpt>
      <trkpt lat="48.69967" lon="2.12934">
        <ele>64.1</ele>
        <time>2025-01-03T17:32:49.012Z</time>
      </trkpt>
      <trkpt lat="48.69962" lon="2.12931">
        <ele>64.2</ele>
        <time>2025-01-03T17:32:52.261Z</time>
      </trkpt>
      <trkpt lat="48.69957" lon="2.12929">
        <ele>64.2</ele>
        <time>2025-01-03T17:32:55.510Z</time>
      </trkpt>
      <trkpt lat="48.69953" lon="2.12926">
        <ele>64.2</ele>
        <time>2025-01-03T17:32:58.759Z</time>
      </trkpt>
      <trkpt lat="48.69948" lon="2.12924">
        <ele>64.2</ele>
        <time>2025-01-03T17:33:02.009Z</time>
      </trkpt>
      <trkpt lat="48.69941" lon="2.12922">
        <ele>64.2</ele>
        <time>2025-01-03T17:33:06.574Z</time>
      </trkpt>
      <trkpt lat="48.69934" lon="2.1292">
        <ele>64.1</ele>
        <time>2025-01-03T17:33:11.139Z</time>
      </trkpt>
      <trkpt lat="48.69934" lon="2.12916">
        <ele>64</ele>
        <time>2025-01-03T17:33:12.681Z</time>
      </trkpt>
      <trkpt lat="48.69934" lon="2.12913">
        <ele>64</ele>
        <time>2025-01-03T17:33:13.978Z</time>
        <extensions>
          <visugpx:TrkExtension xmlns:visugpx="https://www.visugpx.com/editgpx/">
            <visugpx:node>41</visugpx:node>
            </visugpx:TrkExtension>
        </extensions>
      </trkpt>
      <trkpt lat="48.69936" lon="2.12905">
        <ele>64</ele>
        <time>2025-01-03T17:33:17.836Z</time>
      </trkpt>
      <trkpt lat="48.69939" lon="2.12896">
        <ele>64</ele>
        <time>2025-01-03T17:33:21.695Z</time>
      </trkpt>
      <trkpt lat="48.69941" lon="2.12888">
        <ele>64</ele>
        <time>2025-01-03T17:33:25.554Z</time>
      </trkpt>
      <trkpt lat="48.69943" lon="2.12879">
        <ele>64</ele>
        <time>2025-01-03T17:33:29.413Z</time>
      </trkpt>
      <trkpt lat="48.69945" lon="2.12871">
        <ele>64</ele>
        <time>2025-01-03T17:33:33.272Z</time>
      </trkpt>
      <trkpt lat="48.69948" lon="2.12862">
        <ele>64</ele>
        <time>2025-01-03T17:33:37.131Z</time>
      </trkpt>
      <trkpt lat="48.6995" lon="2.12854">
        <ele>63.8</ele>
        <time>2025-01-03T17:33:40.990Z</time>
      </trkpt>
      <trkpt lat="48.69952" lon="2.12845">
        <ele>63.6</ele>
        <time>2025-01-03T17:33:44.849Z</time>
      </trkpt>
      <trkpt lat="48.69955" lon="2.12837">
        <ele>63.4</ele>
        <time>2025-01-03T17:33:48.772Z</time>
      </trkpt>
      <trkpt lat="48.69957" lon="2.12828">
        <ele>63.5</ele>
        <time>2025-01-03T17:33:52.695Z</time>
      </trkpt>
      <trkpt lat="48.6996" lon="2.12819">
        <ele>63.5</ele>
        <time>2025-01-03T17:33:57.217Z</time>
      </trkpt>
      <trkpt lat="48.69962" lon="2.12809">
        <ele>63.6</ele>
        <time>2025-01-03T17:34:01.740Z</time>
      </trkpt>
      <trkpt lat="48.69965" lon="2.12802">
        <ele>63.7</ele>
        <time>2025-01-03T17:34:05.224Z</time>
      </trkpt>
      <trkpt lat="48.69968" lon="2.12795">
        <ele>63.8</ele>
        <time>2025-01-03T17:34:08.708Z</time>
      </trkpt>
      <trkpt lat="48.6997" lon="2.12788">
        <ele>63.9</ele>
        <time>2025-01-03T17:34:12.192Z</time>
      </trkpt>
      <trkpt lat="48.69973" lon="2.12781">
        <ele>64</ele>
        <time>2025-01-03T17:34:15.677Z</time>
      </trkpt>
      <trkpt lat="48.69976" lon="2.12774">
        <ele>64</ele>
        <time>2025-01-03T17:34:19.162Z</time>
      </trkpt>
      <trkpt lat="48.69979" lon="2.12767">
        <ele>63.9</ele>
        <time>2025-01-03T17:34:22.647Z</time>
      </trkpt>
      <trkpt lat="48.69981" lon="2.1276">
        <ele>63.9</ele>
        <time>2025-01-03T17:34:26.132Z</time>
      </trkpt>
      <trkpt lat="48.69984" lon="2.12754">
        <ele>63.9</ele>
        <time>2025-01-03T17:34:29.617Z</time>
      </trkpt>
      <trkpt lat="48.69987" lon="2.12747">
        <ele>64</ele>
        <time>2025-01-03T17:34:33.102Z</time>
      </trkpt>
      <trkpt lat="48.6999" lon="2.1274">
        <ele>64.2</ele>
        <time>2025-01-03T17:34:36.587Z</time>
      </trkpt>
      <trkpt lat="48.69992" lon="2.12733">
        <ele>64.2</ele>
        <time>2025-01-03T17:34:40.072Z</time>
      </trkpt>
      <trkpt lat="48.69995" lon="2.12726">
        <ele>64.1</ele>
        <time>2025-01-03T17:34:43.557Z</time>
      </trkpt>
      <trkpt lat="48.69998" lon="2.12719">
        <ele>63.9</ele>
        <time>2025-01-03T17:34:47.042Z</time>
      </trkpt>
      <trkpt lat="48.70001" lon="2.12712">
        <ele>63.6</ele>
        <time>2025-01-03T17:34:50.527Z</time>
      </trkpt>
      <trkpt lat="48.70003" lon="2.12705">
        <ele>63.5</ele>
        <time>2025-01-03T17:34:54.012Z</time>
      </trkpt>
      <trkpt lat="48.70006" lon="2.12698">
        <ele>63.5</ele>
        <time>2025-01-03T17:34:57.497Z</time>
      </trkpt>
      <trkpt lat="48.70012" lon="2.1269">
        <ele>63.9</ele>
        <time>2025-01-03T17:35:03.299Z</time>
      </trkpt>
      <trkpt lat="48.70017" lon="2.12681">
        <ele>64.1</ele>
        <time>2025-01-03T17:35:09.102Z</time>
      </trkpt>
      <trkpt lat="48.70022" lon="2.12676">
        <ele>64.2</ele>
        <time>2025-01-03T17:35:12.888Z</time>
      </trkpt>
      <trkpt lat="48.70026" lon="2.1267">
        <ele>64.1</ele>
        <time>2025-01-03T17:35:16.674Z</time>
      </trkpt>
      <trkpt lat="48.70031" lon="2.12665">
        <ele>64</ele>
        <time>2025-01-03T17:35:20.460Z</time>
      </trkpt>
      <trkpt lat="48.70035" lon="2.12659">
        <ele>64.1</ele>
        <time>2025-01-03T17:35:24.246Z</time>
      </trkpt>
      <trkpt lat="48.7004" lon="2.12653">
        <ele>64.2</ele>
        <time>2025-01-03T17:35:28.991Z</time>
      </trkpt>
      <trkpt lat="48.70045" lon="2.12646">
        <ele>64.5</ele>
        <time>2025-01-03T17:35:33.736Z</time>
      </trkpt>
      <trkpt lat="48.7005" lon="2.12639">
        <ele>64.8</ele>
        <time>2025-01-03T17:35:38.083Z</time>
      </trkpt>
      <trkpt lat="48.70055" lon="2.12633">
        <ele>65</ele>
        <time>2025-01-03T17:35:42.430Z</time>
      </trkpt>
      <trkpt lat="48.7006" lon="2.12626">
        <ele>64.8</ele>
        <time>2025-01-03T17:35:46.777Z</time>
      </trkpt>
      <trkpt lat="48.70066" lon="2.12619">
        <ele>64.6</ele>
        <time>2025-01-03T17:35:51.124Z</time>
      </trkpt>
      <trkpt lat="48.70071" lon="2.12612">
        <ele>64.5</ele>
        <time>2025-01-03T17:35:55.471Z</time>
      </trkpt>
      <trkpt lat="48.70076" lon="2.12606">
        <ele>64.3</ele>
        <time>2025-01-03T17:35:59.818Z</time>
      </trkpt>
      <trkpt lat="48.70081" lon="2.12599">
        <ele>64.1</ele>
        <time>2025-01-03T17:36:04.166Z</time>
      </trkpt>
      <trkpt lat="48.70086" lon="2.12592">
        <ele>64.1</ele>
        <time>2025-01-03T17:36:08.514Z</time>
      </trkpt>
      <trkpt lat="48.7009" lon="2.12588">
        <ele>64.2</ele>
        <time>2025-01-03T17:36:11.731Z</time>
      </trkpt>
      <trkpt lat="48.70093" lon="2.12583">
        <ele>64.3</ele>
        <time>2025-01-03T17:36:14.948Z</time>
      </trkpt>
      <trkpt lat="48.70098" lon="2.12576">
        <ele>64.5</ele>
        <time>2025-01-03T17:36:19.836Z</time>
      </trkpt>
      <trkpt lat="48.70101" lon="2.12572">
        <ele>64.6</ele>
        <time>2025-01-03T17:36:22.666Z</time>
      </trkpt>
      <trkpt lat="48.70106" lon="2.12567">
        <ele>64.8</ele>
        <time>2025-01-03T17:36:26.887Z</time>
      </trkpt>
      <trkpt lat="48.7011" lon="2.12561">
        <ele>65</ele>
        <time>2025-01-03T17:36:31.108Z</time>
      </trkpt>
      <trkpt lat="48.70115" lon="2.12555">
        <ele>65.4</ele>
        <time>2025-01-03T17:36:36.180Z</time>
      </trkpt>
      <trkpt lat="48.70119" lon="2.12549">
        <ele>66.1</ele>
        <time>2025-01-03T17:36:41.252Z</time>
      </trkpt>
      <trkpt lat="48.70124" lon="2.12543">
        <ele>66.6</ele>
        <time>2025-01-03T17:36:46.324Z</time>
      </trkpt>
      <trkpt lat="48.70128" lon="2.12537">
        <ele>66.9</ele>
        <time>2025-01-03T17:36:51.397Z</time>
      </trkpt>
      <trkpt lat="48.70128" lon="2.12536">
        <ele>66.9</ele>
        <time>2025-01-03T17:36:51.829Z</time>
        <extensions>
          <visugpx:TrkExtension xmlns:visugpx="https://www.visugpx.com/editgpx/">
            <visugpx:node>42</visugpx:node>
            </visugpx:TrkExtension>
        </extensions>
      </trkpt>
      <trkpt lat="48.70128" lon="2.12537">
        <ele>66.9</ele>
        <time>2025-01-03T17:36:52.261Z</time>
      </trkpt>
      <trkpt lat="48.70128" lon="2.12529">
        <ele>67</ele>
        <time>2025-01-03T17:36:55.389Z</time>
      </trkpt>
      <trkpt lat="48.70128" lon="2.12521">
        <ele>66.8</ele>
        <time>2025-01-03T17:36:58.517Z</time>
      </trkpt>
      <trkpt lat="48.70128" lon="2.12513">
        <ele>66.5</ele>
        <time>2025-01-03T17:37:01.646Z</time>
      </trkpt>
      <trkpt lat="48.70128" lon="2.12505">
        <ele>66.2</ele>
        <time>2025-01-03T17:37:04.775Z</time>
      </trkpt>
      <trkpt lat="48.70129" lon="2.12495">
        <ele>65.9</ele>
        <time>2025-01-03T17:37:08.807Z</time>
      </trkpt>
      <trkpt lat="48.7013" lon="2.12484">
        <ele>65.6</ele>
        <time>2025-01-03T17:37:12.839Z</time>
      </trkpt>
      <trkpt lat="48.70135" lon="2.12479">
        <ele>65.3</ele>
        <time>2025-01-03T17:37:16.271Z</time>
      </trkpt>
      <trkpt lat="48.7014" lon="2.12474">
        <ele>65</ele>
        <time>2025-01-03T17:37:19.704Z</time>
      </trkpt>
      <trkpt lat="48.70141" lon="2.12475">
        <ele>65</ele>
        <time>2025-01-03T17:37:20.489Z</time>
        <extensions>
          <visugpx:TrkExtension xmlns:visugpx="https://www.visugpx.com/editgpx/">
            <visugpx:node>43</visugpx:node>
            </visugpx:TrkExtension>
        </extensions>
      </trkpt>
      <trkpt lat="48.70146" lon="2.12478">
        <ele>64.8</ele>
        <time>2025-01-03T17:37:23.743Z</time>
      </trkpt>
      <trkpt lat="48.70151" lon="2.1248">
        <ele>64.7</ele>
        <time>2025-01-03T17:37:26.997Z</time>
      </trkpt>
      <trkpt lat="48.70156" lon="2.12483">
        <ele>64.6</ele>
        <time>2025-01-03T17:37:30.251Z</time>
      </trkpt>
      <trkpt lat="48.70161" lon="2.12485">
        <ele>64.6</ele>
        <time>2025-01-03T17:37:33.505Z</time>
      </trkpt>
      <trkpt lat="48.70168" lon="2.12487">
        <ele>64.5</ele>
        <time>2025-01-03T17:37:37.760Z</time>
      </trkpt>
      <trkpt lat="48.70174" lon="2.12488">
        <ele>64.6</ele>
        <time>2025-01-03T17:37:42.015Z</time>
      </trkpt>
      <trkpt lat="48.70181" lon="2.1249">
        <ele>64.6</ele>
        <time>2025-01-03T17:37:46.270Z</time>
      </trkpt>
      <trkpt lat="48.70187" lon="2.12491">
        <ele>64.5</ele>
        <time>2025-01-03T17:37:50.526Z</time>
      </trkpt>
      <trkpt lat="48.70193" lon="2.12491">
        <ele>64.4</ele>
        <time>2025-01-03T17:37:54.362Z</time>
      </trkpt>
      <trkpt lat="48.70199" lon="2.1249">
        <ele>64.4</ele>
        <time>2025-01-03T17:37:58.198Z</time>
      </trkpt>
      <trkpt lat="48.70204" lon="2.12486">
        <ele>64.3</ele>
        <time>2025-01-03T17:38:01.706Z</time>
      </trkpt>
      <trkpt lat="48.70209" lon="2.12479">
        <ele>64.3</ele>
        <time>2025-01-03T17:38:06.189Z</time>
      </trkpt>
      <trkpt lat="48.70214" lon="2.12471">
        <ele>64.3</ele>
        <time>2025-01-03T17:38:10.672Z</time>
      </trkpt>
      <trkpt lat="48.70219" lon="2.12464">
        <ele>64.2</ele>
        <time>2025-01-03T17:38:15.155Z</time>
      </trkpt>
      <trkpt lat="48.70224" lon="2.12456">
        <ele>63.9</ele>
        <time>2025-01-03T17:38:19.638Z</time>
      </trkpt>
      <trkpt lat="48.70229" lon="2.12449">
        <ele>63.5</ele>
        <time>2025-01-03T17:38:24.121Z</time>
      </trkpt>
      <trkpt lat="48.70234" lon="2.12441">
        <ele>63.4</ele>
        <time>2025-01-03T17:38:28.605Z</time>
      </trkpt>
      <trkpt lat="48.70239" lon="2.12434">
        <ele>63.6</ele>
        <time>2025-01-03T17:38:33.089Z</time>
      </trkpt>
      <trkpt lat="48.70244" lon="2.12426">
        <ele>63.8</ele>
        <time>2025-01-03T17:38:37.573Z</time>
      </trkpt>
      <trkpt lat="48.70248" lon="2.12419">
        <ele>63.9</ele>
        <time>2025-01-03T17:38:41.843Z</time>
      </trkpt>
      <trkpt lat="48.70252" lon="2.12411">
        <ele>63.9</ele>
        <time>2025-01-03T17:38:46.113Z</time>
      </trkpt>
      <trkpt lat="48.70256" lon="2.12401">
        <ele>63.8</ele>
        <time>2025-01-03T17:38:51.156Z</time>
      </trkpt>
      <trkpt lat="48.7026" lon="2.1239">
        <ele>63.7</ele>
        <time>2025-01-03T17:38:56.199Z</time>
      </trkpt>
      <trkpt lat="48.70262" lon="2.12379">
        <ele>63.7</ele>
        <time>2025-01-03T17:39:01.174Z</time>
      </trkpt>
      <trkpt lat="48.70265" lon="2.12368">
        <ele>63.7</ele>
        <time>2025-01-03T17:39:06.150Z</time>
      </trkpt>
      <trkpt lat="48.70267" lon="2.12357">
        <ele>63.7</ele>
        <time>2025-01-03T17:39:11.126Z</time>
      </trkpt>
      <trkpt lat="48.70269" lon="2.12347">
        <ele>64</ele>
        <time>2025-01-03T17:39:16.102Z</time>
      </trkpt>
      <trkpt lat="48.70271" lon="2.12336">
        <ele>64.5</ele>
        <time>2025-01-03T17:39:21.078Z</time>
      </trkpt>
      <trkpt lat="48.70274" lon="2.12325">
        <ele>64.4</ele>
        <time>2025-01-03T17:39:26.054Z</time>
      </trkpt>
      <trkpt lat="48.70276" lon="2.12314">
        <ele>64.2</ele>
        <time>2025-01-03T17:39:31.030Z</time>
      </trkpt>
      <trkpt lat="48.70278" lon="2.12303">
        <ele>63.9</ele>
        <time>2025-01-03T17:39:36.006Z</time>
      </trkpt>
      <trkpt lat="48.70282" lon="2.12294">
        <ele>63.8</ele>
        <time>2025-01-03T17:39:40.499Z</time>
      </trkpt>
      <trkpt lat="48.70287" lon="2.12288">
        <ele>63.9</ele>
        <time>2025-01-03T17:39:45.244Z</time>
      </trkpt>
      <trkpt lat="48.70293" lon="2.12282">
        <ele>64.1</ele>
        <time>2025-01-03T17:39:49.990Z</time>
      </trkpt>
      <trkpt lat="48.70298" lon="2.12275">
        <ele>64.4</ele>
        <time>2025-01-03T17:39:54.736Z</time>
      </trkpt>
      <trkpt lat="48.70303" lon="2.12269">
        <ele>64.5</ele>
        <time>2025-01-03T17:39:59.482Z</time>
      </trkpt>
      <trkpt lat="48.70306" lon="2.12263">
        <ele>64.5</ele>
        <time>2025-01-03T17:40:02.541Z</time>
      </trkpt>
      <trkpt lat="48.70309" lon="2.12257">
        <ele>64.3</ele>
        <time>2025-01-03T17:40:05.601Z</time>
      </trkpt>
      <trkpt lat="48.70312" lon="2.1225">
        <ele>64.2</ele>
        <time>2025-01-03T17:40:09.014Z</time>
        <extensions>
          <visugpx:TrkExtension xmlns:visugpx="https://www.visugpx.com/editgpx/">
            <visugpx:node>44</visugpx:node>
            </visugpx:TrkExtension>
        </extensions>
      </trkpt>
      <trkpt lat="48.70314" lon="2.12241">
        <ele>64.4</ele>
        <time>2025-01-03T17:40:13.551Z</time>
      </trkpt>
      <trkpt lat="48.70315" lon="2.12233">
        <ele>64.5</ele>
        <time>2025-01-03T17:40:17.279Z</time>
      </trkpt>
      <trkpt lat="48.70314" lon="2.12224">
        <ele>64.6</ele>
        <time>2025-01-03T17:40:21.432Z</time>
      </trkpt>
      <trkpt lat="48.70313" lon="2.12215">
        <ele>64.7</ele>
        <time>2025-01-03T17:40:25.585Z</time>
      </trkpt>
      <trkpt lat="48.7031" lon="2.12205">
        <ele>64.8</ele>
        <time>2025-01-03T17:40:30.375Z</time>
      </trkpt>
      <trkpt lat="48.70307" lon="2.12195">
        <ele>65</ele>
        <time>2025-01-03T17:40:35.165Z</time>
      </trkpt>
      <trkpt lat="48.70304" lon="2.12185">
        <ele>64.9</ele>
        <time>2025-01-03T17:40:39.955Z</time>
      </trkpt>
      <trkpt lat="48.70302" lon="2.12175">
        <ele>64.7</ele>
        <time>2025-01-03T17:40:44.745Z</time>
      </trkpt>
      <trkpt lat="48.70299" lon="2.12165">
        <ele>64.6</ele>
        <time>2025-01-03T17:40:49.535Z</time>
      </trkpt>
      <trkpt lat="48.70296" lon="2.12155">
        <ele>64.8</ele>
        <time>2025-01-03T17:40:54.325Z</time>
      </trkpt>
      <trkpt lat="48.70293" lon="2.12145">
        <ele>64.9</ele>
        <time>2025-01-03T17:40:59.115Z</time>
      </trkpt>
      <trkpt lat="48.7029" lon="2.12135">
        <ele>65</ele>
        <time>2025-01-03T17:41:03.907Z</time>
      </trkpt>
      <trkpt lat="48.70288" lon="2.12124">
        <ele>65.2</ele>
        <time>2025-01-03T17:41:09.265Z</time>
      </trkpt>
      <trkpt lat="48.70288" lon="2.12113">
        <ele>65.7</ele>
        <time>2025-01-03T17:41:13.853Z</time>
      </trkpt>
      <trkpt lat="48.70288" lon="2.12102">
        <ele>65.3</ele>
        <time>2025-01-03T17:41:18.441Z</time>
      </trkpt>
      <trkpt lat="48.70288" lon="2.12091">
        <ele>64.7</ele>
        <time>2025-01-03T17:41:23.030Z</time>
      </trkpt>
      <trkpt lat="48.70288" lon="2.1208">
        <ele>64.3</ele>
        <time>2025-01-03T17:41:27.619Z</time>
      </trkpt>
      <trkpt lat="48.70287" lon="2.12068">
        <ele>64.3</ele>
        <time>2025-01-03T17:41:32.208Z</time>
      </trkpt>
      <trkpt lat="48.70287" lon="2.12057">
        <ele>64.3</ele>
        <time>2025-01-03T17:41:36.797Z</time>
      </trkpt>
      <trkpt lat="48.70287" lon="2.12046">
        <ele>64.3</ele>
        <time>2025-01-03T17:41:41.386Z</time>
      </trkpt>
      <trkpt lat="48.70287" lon="2.12035">
        <ele>64.3</ele>
        <time>2025-01-03T17:41:45.976Z</time>
      </trkpt>
      <trkpt lat="48.70286" lon="2.12024">
        <ele>64.4</ele>
        <time>2025-01-03T17:41:51.582Z</time>
      </trkpt>
      <trkpt lat="48.70284" lon="2.12012">
        <ele>64.8</ele>
        <time>2025-01-03T17:41:57.190Z</time>
      </trkpt>
      <trkpt lat="48.70279" lon="2.12002">
        <ele>64.9</ele>
        <time>2025-01-03T17:42:02.304Z</time>
      </trkpt>
      <trkpt lat="48.70273" lon="2.11993">
        <ele>64.7</ele>
        <time>2025-01-03T17:42:07.418Z</time>
      </trkpt>
      <trkpt lat="48.70268" lon="2.11983">
        <ele>64.3</ele>
        <time>2025-01-03T17:42:12.532Z</time>
      </trkpt>
      <trkpt lat="48.70262" lon="2.11973">
        <ele>63.9</ele>
        <time>2025-01-03T17:42:17.647Z</time>
      </trkpt>
      <trkpt lat="48.7026" lon="2.11966">
        <ele>64</ele>
        <time>2025-01-03T17:42:21.108Z</time>
      </trkpt>
      <trkpt lat="48.70257" lon="2.1196">
        <ele>64.3</ele>
        <time>2025-01-03T17:42:24.569Z</time>
      </trkpt>
      <trkpt lat="48.70255" lon="2.11953">
        <ele>64.6</ele>
        <time>2025-01-03T17:42:28.031Z</time>
      </trkpt>
      <trkpt lat="48.70253" lon="2.11946">
        <ele>65</ele>
        <time>2025-01-03T17:42:31.493Z</time>
      </trkpt>
      <trkpt lat="48.7025" lon="2.11939">
        <ele>65</ele>
        <time>2025-01-03T17:42:34.955Z</time>
      </trkpt>
      <trkpt lat="48.70248" lon="2.11933">
        <ele>64.8</ele>
        <time>2025-01-03T17:42:38.417Z</time>
      </trkpt>
      <trkpt lat="48.70245" lon="2.11926">
        <ele>64.7</ele>
        <time>2025-01-03T17:42:41.879Z</time>
      </trkpt>
      <trkpt lat="48.70243" lon="2.11919">
        <ele>64.5</ele>
        <time>2025-01-03T17:42:45.342Z</time>
      </trkpt>
      <trkpt lat="48.70241" lon="2.11911">
        <ele>64.4</ele>
        <time>2025-01-03T17:42:49.264Z</time>
      </trkpt>
      <trkpt lat="48.70238" lon="2.11903">
        <ele>64.4</ele>
        <time>2025-01-03T17:42:53.187Z</time>
      </trkpt>
      <trkpt lat="48.70236" lon="2.11894">
        <ele>64.4</ele>
        <time>2025-01-03T17:42:57.110Z</time>
      </trkpt>
      <trkpt lat="48.70233" lon="2.11886">
        <ele>64.5</ele>
        <time>2025-01-03T17:43:01.034Z</time>
      </trkpt>
      <trkpt lat="48.70227" lon="2.11878">
        <ele>64.5</ele>
        <time>2025-01-03T17:43:06.514Z</time>
      </trkpt>
      <trkpt lat="48.70221" lon="2.11869">
        <ele>64.6</ele>
        <time>2025-01-03T17:43:11.996Z</time>
      </trkpt>
      <trkpt lat="48.70217" lon="2.11865">
        <ele>64.5</ele>
        <time>2025-01-03T17:43:14.779Z</time>
      </trkpt>
      <trkpt lat="48.70214" lon="2.11861">
        <ele>64.4</ele>
        <time>2025-01-03T17:43:17.562Z</time>
      </trkpt>
      <trkpt lat="48.7021" lon="2.11856">
        <ele>64.2</ele>
        <time>2025-01-03T17:43:20.346Z</time>
      </trkpt>
      <trkpt lat="48.70206" lon="2.11852">
        <ele>64</ele>
        <time>2025-01-03T17:43:23.131Z</time>
      </trkpt>
      <trkpt lat="48.70204" lon="2.11844">
        <ele>64.1</ele>
        <time>2025-01-03T17:43:26.987Z</time>
      </trkpt>
      <trkpt lat="48.70202" lon="2.11836">
        <ele>64.2</ele>
        <time>2025-01-03T17:43:30.843Z</time>
      </trkpt>
      <trkpt lat="48.702" lon="2.11828">
        <ele>64.3</ele>
        <time>2025-01-03T17:43:34.699Z</time>
      </trkpt>
      <trkpt lat="48.70198" lon="2.11821">
        <ele>64.5</ele>
        <time>2025-01-03T17:43:38.555Z</time>
      </trkpt>
      <trkpt lat="48.70196" lon="2.11813">
        <ele>64.8</ele>
        <time>2025-01-03T17:43:42.411Z</time>
      </trkpt>
      <trkpt lat="48.70194" lon="2.11805">
        <ele>65</ele>
        <time>2025-01-03T17:43:46.267Z</time>
      </trkpt>
      <trkpt lat="48.70192" lon="2.11797">
        <ele>64.9</ele>
        <time>2025-01-03T17:43:50.123Z</time>
      </trkpt>
      <trkpt lat="48.7019" lon="2.11789">
        <ele>64.8</ele>
        <time>2025-01-03T17:43:53.980Z</time>
      </trkpt>
      <trkpt lat="48.70187" lon="2.11782">
        <ele>64.7</ele>
        <time>2025-01-03T17:43:57.670Z</time>
      </trkpt>
      <trkpt lat="48.70184" lon="2.11774">
        <ele>64.7</ele>
        <time>2025-01-03T17:44:01.362Z</time>
      </trkpt>
      <trkpt lat="48.7018" lon="2.11767">
        <ele>64.7</ele>
        <time>2025-01-03T17:44:05.584Z</time>
      </trkpt>
      <trkpt lat="48.70175" lon="2.1176">
        <ele>64.7</ele>
        <time>2025-01-03T17:44:09.808Z</time>
      </trkpt>
      <trkpt lat="48.70168" lon="2.11755">
        <ele>64.8</ele>
        <time>2025-01-03T17:44:15.083Z</time>
        <extensions>
          <visugpx:TrkExtension xmlns:visugpx="https://www.visugpx.com/editgpx/">
            <visugpx:node>45</visugpx:node>
            </visugpx:TrkExtension>
        </extensions>
      </trkpt>
      <trkpt lat="48.70161" lon="2.11749">
        <ele>65</ele>
        <time>2025-01-03T17:44:20.775Z</time>
      </trkpt>
      <trkpt lat="48.70153" lon="2.11747">
        <ele>65.1</ele>
        <time>2025-01-03T17:44:26.291Z</time>
      </trkpt>
      <trkpt lat="48.70147" lon="2.11748">
        <ele>65.1</ele>
        <time>2025-01-03T17:44:30.346Z</time>
      </trkpt>
      <trkpt lat="48.70141" lon="2.11749">
        <ele>65.1</ele>
        <time>2025-01-03T17:44:34.401Z</time>
      </trkpt>
      <trkpt lat="48.70134" lon="2.11749">
        <ele>65.1</ele>
        <time>2025-01-03T17:44:38.457Z</time>
      </trkpt>
      <trkpt lat="48.70128" lon="2.1175">
        <ele>65</ele>
        <time>2025-01-03T17:44:42.513Z</time>
      </trkpt>
      <trkpt lat="48.7012" lon="2.11752">
        <ele>64.9</ele>
        <time>2025-01-03T17:44:47.448Z</time>
      </trkpt>
      <trkpt lat="48.70113" lon="2.11753">
        <ele>64.8</ele>
        <time>2025-01-03T17:44:52.383Z</time>
      </trkpt>
      <trkpt lat="48.70105" lon="2.11755">
        <ele>64.7</ele>
        <time>2025-01-03T17:44:57.318Z</time>
      </trkpt>
      <trkpt lat="48.70098" lon="2.11756">
        <ele>64.6</ele>
        <time>2025-01-03T17:45:02.253Z</time>
      </trkpt>
      <trkpt lat="48.7009" lon="2.11758">
        <ele>64.5</ele>
        <time>2025-01-03T17:45:07.188Z</time>
      </trkpt>
      <trkpt lat="48.70082" lon="2.11759">
        <ele>64.4</ele>
        <time>2025-01-03T17:45:12.123Z</time>
      </trkpt>
      <trkpt lat="48.70075" lon="2.11761">
        <ele>64.5</ele>
        <time>2025-01-03T17:45:17.059Z</time>
      </trkpt>
      <trkpt lat="48.70067" lon="2.11762">
        <ele>64.6</ele>
        <time>2025-01-03T17:45:21.996Z</time>
      </trkpt>
      <trkpt lat="48.70064" lon="2.11751">
        <ele>65</ele>
        <time>2025-01-03T17:45:27.480Z</time>
      </trkpt>
      <trkpt lat="48.7006" lon="2.1174">
        <ele>64.8</ele>
        <time>2025-01-03T17:45:32.965Z</time>
      </trkpt>
      <trkpt lat="48.7006" lon="2.11734">
        <ele>64.6</ele>
        <time>2025-01-03T17:45:35.234Z</time>
      </trkpt>
      <trkpt lat="48.70062" lon="2.11723">
        <ele>64.5</ele>
        <time>2025-01-03T17:45:40.493Z</time>
      </trkpt>
      <trkpt lat="48.70065" lon="2.11712">
        <ele>64.9</ele>
        <time>2025-01-03T17:45:45.752Z</time>
      </trkpt>
      <trkpt lat="48.70067" lon="2.117">
        <ele>65.3</ele>
        <time>2025-01-03T17:45:51.011Z</time>
      </trkpt>
      <trkpt lat="48.7007" lon="2.11689">
        <ele>65.5</ele>
        <time>2025-01-03T17:45:56.270Z</time>
      </trkpt>
      <trkpt lat="48.70072" lon="2.11678">
        <ele>65.6</ele>
        <time>2025-01-03T17:46:01.529Z</time>
      </trkpt>
      <trkpt lat="48.70074" lon="2.11667">
        <ele>65.7</ele>
        <time>2025-01-03T17:46:06.788Z</time>
      </trkpt>
      <trkpt lat="48.70077" lon="2.11655">
        <ele>65.4</ele>
        <time>2025-01-03T17:46:12.047Z</time>
      </trkpt>
      <trkpt lat="48.70079" lon="2.11644">
        <ele>65.2</ele>
        <time>2025-01-03T17:46:17.306Z</time>
      </trkpt>
      <trkpt lat="48.70082" lon="2.11634">
        <ele>65</ele>
        <time>2025-01-03T17:46:22.119Z</time>
      </trkpt>
      <trkpt lat="48.70085" lon="2.11624">
        <ele>65.1</ele>
        <time>2025-01-03T17:46:26.932Z</time>
      </trkpt>
      <trkpt lat="48.70087" lon="2.11614">
        <ele>65.2</ele>
        <time>2025-01-03T17:46:31.745Z</time>
      </trkpt>
      <trkpt lat="48.7009" lon="2.11605">
        <ele>65.2</ele>
        <time>2025-01-03T17:46:36.558Z</time>
      </trkpt>
      <trkpt lat="48.70093" lon="2.11595">
        <ele>65.3</ele>
        <time>2025-01-03T17:46:41.371Z</time>
      </trkpt>
      <trkpt lat="48.70096" lon="2.11585">
        <ele>65.4</ele>
        <time>2025-01-03T17:46:46.184Z</time>
      </trkpt>
      <trkpt lat="48.70098" lon="2.11575">
        <ele>65.7</ele>
        <time>2025-01-03T17:46:50.997Z</time>
      </trkpt>
      <trkpt lat="48.70101" lon="2.11565">
        <ele>65.9</ele>
        <time>2025-01-03T17:46:55.811Z</time>
      </trkpt>
      <trkpt lat="48.70102" lon="2.11555">
        <ele>66</ele>
        <time>2025-01-03T17:47:00.115Z</time>
      </trkpt>
      <trkpt lat="48.70103" lon="2.11545">
        <ele>66</ele>
        <time>2025-01-03T17:47:04.419Z</time>
      </trkpt>
      <trkpt lat="48.70103" lon="2.11535">
        <ele>66</ele>
        <time>2025-01-03T17:47:08.723Z</time>
      </trkpt>
      <trkpt lat="48.70104" lon="2.11525">
        <ele>66</ele>
        <time>2025-01-03T17:47:13.027Z</time>
      </trkpt>
      <trkpt lat="48.70105" lon="2.11514">
        <ele>66</ele>
        <time>2025-01-03T17:47:17.331Z</time>
      </trkpt>
      <trkpt lat="48.70106" lon="2.11504">
        <ele>66</ele>
        <time>2025-01-03T17:47:21.635Z</time>
      </trkpt>
      <trkpt lat="48.70106" lon="2.11494">
        <ele>65.8</ele>
        <time>2025-01-03T17:47:25.939Z</time>
      </trkpt>
      <trkpt lat="48.70107" lon="2.11484">
        <ele>65.5</ele>
        <time>2025-01-03T17:47:30.243Z</time>
      </trkpt>
      <trkpt lat="48.70109" lon="2.11477">
        <ele>65.2</ele>
        <time>2025-01-03T17:47:33.441Z</time>
      </trkpt>
      <trkpt lat="48.70111" lon="2.11469">
        <ele>65</ele>
        <time>2025-01-03T17:47:36.639Z</time>
      </trkpt>
      <trkpt lat="48.70112" lon="2.11462">
        <ele>65</ele>
        <time>2025-01-03T17:47:39.837Z</time>
      </trkpt>
      <trkpt lat="48.70114" lon="2.11454">
        <ele>65</ele>
        <time>2025-01-03T17:47:43.036Z</time>
        <extensions>
          <visugpx:TrkExtension xmlns:visugpx="https://www.visugpx.com/editgpx/">
            <visugpx:node>46</visugpx:node>
            </visugpx:TrkExtension>
        </extensions>
      </trkpt>
      <trkpt lat="48.70116" lon="2.11443">
        <ele>65</ele>
        <time>2025-01-03T17:47:47.771Z</time>
      </trkpt>
      <trkpt lat="48.70118" lon="2.11432">
        <ele>64.8</ele>
        <time>2025-01-03T17:47:52.506Z</time>
      </trkpt>
      <trkpt lat="48.70125" lon="2.11436">
        <ele>65</ele>
        <time>2025-01-03T17:47:57.712Z</time>
      </trkpt>
      <trkpt lat="48.70133" lon="2.11439">
        <ele>65.1</ele>
        <time>2025-01-03T17:48:02.918Z</time>
      </trkpt>
      <trkpt lat="48.7014" lon="2.11443">
        <ele>65.1</ele>
        <time>2025-01-03T17:48:08.124Z</time>
      </trkpt>
      <trkpt lat="48.70147" lon="2.11447">
        <ele>65.3</ele>
        <time>2025-01-03T17:48:13.330Z</time>
      </trkpt>
      <trkpt lat="48.70154" lon="2.1145">
        <ele>65.5</ele>
        <time>2025-01-03T17:48:18.537Z</time>
      </trkpt>
      <trkpt lat="48.70162" lon="2.11454">
        <ele>65.6</ele>
        <time>2025-01-03T17:48:23.744Z</time>
      </trkpt>
      <trkpt lat="48.70169" lon="2.11457">
        <ele>65.6</ele>
        <time>2025-01-03T17:48:28.951Z</time>
      </trkpt>
      <trkpt lat="48.70176" lon="2.11461">
        <ele>65.6</ele>
        <time>2025-01-03T17:48:34.158Z</time>
      </trkpt>
      <trkpt lat="48.70181" lon="2.11462">
        <ele>65.7</ele>
        <time>2025-01-03T17:48:37.681Z</time>
      </trkpt>
      <trkpt lat="48.70186" lon="2.11463">
        <ele>65.8</ele>
        <time>2025-01-03T17:48:41.204Z</time>
      </trkpt>
      <trkpt lat="48.70191" lon="2.11464">
        <ele>65.9</ele>
        <time>2025-01-03T17:48:44.728Z</time>
      </trkpt>
      <trkpt lat="48.70196" lon="2.11466">
        <ele>66</ele>
        <time>2025-01-03T17:48:48.252Z</time>
      </trkpt>
      <trkpt lat="48.702" lon="2.11467">
        <ele>66.2</ele>
        <time>2025-01-03T17:48:51.776Z</time>
      </trkpt>
      <trkpt lat="48.70205" lon="2.11468">
        <ele>66.4</ele>
        <time>2025-01-03T17:48:55.300Z</time>
      </trkpt>
      <trkpt lat="48.7021" lon="2.11469">
        <ele>66.6</ele>
        <time>2025-01-03T17:48:58.824Z</time>
      </trkpt>
      <trkpt lat="48.70215" lon="2.1147">
        <ele>66.7</ele>
        <time>2025-01-03T17:49:02.348Z</time>
      </trkpt>
      <trkpt lat="48.70215" lon="2.11469">
        <ele>66.7</ele>
        <time>2025-01-03T17:49:02.780Z</time>
        <extensions>
          <visugpx:TrkExtension xmlns:visugpx="https://www.visugpx.com/editgpx/">
            <visugpx:node>47</visugpx:node>
            </visugpx:TrkExtension>
        </extensions>
      </trkpt>
      <trkpt lat="48.70218" lon="2.11461">
        <ele>66.8</ele>
        <time>2025-01-03T17:49:06.852Z</time>
      </trkpt>
      <trkpt lat="48.7022" lon="2.11452">
        <ele>66.9</ele>
        <time>2025-01-03T17:49:10.924Z</time>
      </trkpt>
      <trkpt lat="48.70223" lon="2.11444">
        <ele>67</ele>
        <time>2025-01-03T17:49:14.997Z</time>
      </trkpt>
      <trkpt lat="48.70225" lon="2.11435">
        <ele>66.8</ele>
        <time>2025-01-03T17:49:19.070Z</time>
      </trkpt>
      <trkpt lat="48.70227" lon="2.11426">
        <ele>66.5</ele>
        <time>2025-01-03T17:49:22.710Z</time>
      </trkpt>
      <trkpt lat="48.70229" lon="2.11417">
        <ele>66.3</ele>
        <time>2025-01-03T17:49:26.350Z</time>
      </trkpt>
      <trkpt lat="48.70231" lon="2.11408">
        <ele>66</ele>
        <time>2025-01-03T17:49:29.991Z</time>
      </trkpt>
      <trkpt lat="48.70233" lon="2.11399">
        <ele>65.8</ele>
        <time>2025-01-03T17:49:33.632Z</time>
      </trkpt>
      <trkpt lat="48.70236" lon="2.11387">
        <ele>65.5</ele>
        <time>2025-01-03T17:49:39.120Z</time>
      </trkpt>
      <trkpt lat="48.70238" lon="2.11375">
        <ele>65.6</ele>
        <time>2025-01-03T17:49:44.608Z</time>
      </trkpt>
      <trkpt lat="48.70241" lon="2.11363">
        <ele>65.7</ele>
        <time>2025-01-03T17:49:50.096Z</time>
      </trkpt>
      <trkpt lat="48.70243" lon="2.11352">
        <ele>65.7</ele>
        <time>2025-01-03T17:49:55.585Z</time>
      </trkpt>
      <trkpt lat="48.70246" lon="2.1134">
        <ele>65.8</ele>
        <time>2025-01-03T17:50:01.074Z</time>
      </trkpt>
      <trkpt lat="48.70248" lon="2.11328">
        <ele>66</ele>
        <time>2025-01-03T17:50:06.563Z</time>
      </trkpt>
      <trkpt lat="48.70251" lon="2.11316">
        <ele>66</ele>
        <time>2025-01-03T17:50:12.052Z</time>
      </trkpt>
      <trkpt lat="48.70253" lon="2.11304">
        <ele>66.2</ele>
        <time>2025-01-03T17:50:17.541Z</time>
      </trkpt>
      <trkpt lat="48.70254" lon="2.11294">
        <ele>66.2</ele>
        <time>2025-01-03T17:50:21.912Z</time>
      </trkpt>
      <trkpt lat="48.70255" lon="2.11284">
        <ele>66.2</ele>
        <time>2025-01-03T17:50:26.283Z</time>
      </trkpt>
      <trkpt lat="48.70258" lon="2.11277">
        <ele>66.3</ele>
        <time>2025-01-03T17:50:29.992Z</time>
      </trkpt>
      <trkpt lat="48.70261" lon="2.1127">
        <ele>66.3</ele>
        <time>2025-01-03T17:50:33.702Z</time>
      </trkpt>
      <trkpt lat="48.70264" lon="2.11265">
        <ele>66.3</ele>
        <time>2025-01-03T17:50:36.588Z</time>
      </trkpt>
      <trkpt lat="48.70268" lon="2.1126">
        <ele>66.2</ele>
        <time>2025-01-03T17:50:39.475Z</time>
      </trkpt>
      <trkpt lat="48.70271" lon="2.11255">
        <ele>66.1</ele>
        <time>2025-01-03T17:50:42.362Z</time>
      </trkpt>
      <trkpt lat="48.70274" lon="2.1125">
        <ele>66</ele>
        <time>2025-01-03T17:50:45.249Z</time>
      </trkpt>
      <trkpt lat="48.70277" lon="2.11238">
        <ele>66</ele>
        <time>2025-01-03T17:50:51.421Z</time>
      </trkpt>
      <trkpt lat="48.7028" lon="2.11225">
        <ele>66.4</ele>
        <time>2025-01-03T17:50:57.593Z</time>
      </trkpt>
      <trkpt lat="48.70281" lon="2.11212">
        <ele>66.5</ele>
        <time>2025-01-03T17:51:03.750Z</time>
      </trkpt>
      <trkpt lat="48.70281" lon="2.11198">
        <ele>66.7</ele>
        <time>2025-01-03T17:51:09.907Z</time>
      </trkpt>
      <trkpt lat="48.70281" lon="2.11188">
        <ele>66.6</ele>
        <time>2025-01-03T17:51:14.167Z</time>
      </trkpt>
      <trkpt lat="48.7028" lon="2.11177">
        <ele>66.4</ele>
        <time>2025-01-03T17:51:18.428Z</time>
      </trkpt>
      <trkpt lat="48.7028" lon="2.11166">
        <ele>66.5</ele>
        <time>2025-01-03T17:51:23.787Z</time>
      </trkpt>
      <trkpt lat="48.70281" lon="2.11155">
        <ele>66.8</ele>
        <time>2025-01-03T17:51:29.146Z</time>
      </trkpt>
      <trkpt lat="48.70281" lon="2.11144">
        <ele>67.2</ele>
        <time>2025-01-03T17:51:34.505Z</time>
      </trkpt>
      <trkpt lat="48.70281" lon="2.11133">
        <ele>67.5</ele>
        <time>2025-01-03T17:51:39.865Z</time>
        <extensions>
          <visugpx:TrkExtension xmlns:visugpx="https://www.visugpx.com/editgpx/">
            <visugpx:node>48</visugpx:node>
            </visugpx:TrkExtension>
        </extensions>
      </trkpt>
      <trkpt lat="48.70282" lon="2.11127">
        <ele>67.8</ele>
        <time>2025-01-03T17:51:43.254Z</time>
      </trkpt>
      <trkpt lat="48.70277" lon="2.11128">
        <ele>67.4</ele>
        <time>2025-01-03T17:51:46.125Z</time>
      </trkpt>
      <trkpt lat="48.70272" lon="2.11128">
        <ele>67.2</ele>
        <time>2025-01-03T17:51:48.996Z</time>
      </trkpt>
      <trkpt lat="48.70265" lon="2.11131">
        <ele>66.8</ele>
        <time>2025-01-03T17:51:53.320Z</time>
      </trkpt>
      <trkpt lat="48.70258" lon="2.11135">
        <ele>66.4</ele>
        <time>2025-01-03T17:51:57.645Z</time>
      </trkpt>
      <trkpt lat="48.70251" lon="2.11138">
        <ele>66.1</ele>
        <time>2025-01-03T17:52:01.970Z</time>
      </trkpt>
      <trkpt lat="48.70244" lon="2.11141">
        <ele>66.2</ele>
        <time>2025-01-03T17:52:06.296Z</time>
      </trkpt>
      <trkpt lat="48.70243" lon="2.11138">
        <ele>66.3</ele>
        <time>2025-01-03T17:52:07.972Z</time>
      </trkpt>
      <trkpt lat="48.70241" lon="2.11134">
        <ele>66.4</ele>
        <time>2025-01-03T17:52:10.356Z</time>
      </trkpt>
      <trkpt lat="48.70237" lon="2.11125">
        <ele>66.5</ele>
        <time>2025-01-03T17:52:15.078Z</time>
      </trkpt>
      <trkpt lat="48.70233" lon="2.11116">
        <ele>66.4</ele>
        <time>2025-01-03T17:52:19.800Z</time>
      </trkpt>
      <trkpt lat="48.70228" lon="2.11106">
        <ele>66.2</ele>
        <time>2025-01-03T17:52:24.523Z</time>
      </trkpt>
      <trkpt lat="48.70224" lon="2.11097">
        <ele>66.1</ele>
        <time>2025-01-03T17:52:29.247Z</time>
      </trkpt>
      <trkpt lat="48.70224" lon="2.11089">
        <ele>66</ele>
        <time>2025-01-03T17:52:32.562Z</time>
      </trkpt>
      <trkpt lat="48.70223" lon="2.11082">
        <ele>66</ele>
        <time>2025-01-03T17:52:35.877Z</time>
      </trkpt>
      <trkpt lat="48.70223" lon="2.11074">
        <ele>66</ele>
        <time>2025-01-03T17:52:39.192Z</time>
      </trkpt>
      <trkpt lat="48.70222" lon="2.11066">
        <ele>66</ele>
        <time>2025-01-03T17:52:42.508Z</time>
      </trkpt>
      <trkpt lat="48.70218" lon="2.11055">
        <ele>66.2</ele>
        <time>2025-01-03T17:52:48.416Z</time>
      </trkpt>
      <trkpt lat="48.70214" lon="2.11044">
        <ele>66.6</ele>
        <time>2025-01-03T17:52:54.325Z</time>
      </trkpt>
      <trkpt lat="48.7021" lon="2.11033">
        <ele>66.9</ele>
        <time>2025-01-03T17:53:00.234Z</time>
      </trkpt>
      <trkpt lat="48.70206" lon="2.11022">
        <ele>66.9</ele>
        <time>2025-01-03T17:53:06.144Z</time>
      </trkpt>
      <trkpt lat="48.70205" lon="2.11022">
        <ele>66.9</ele>
        <time>2025-01-03T17:53:06.799Z</time>
        <extensions>
          <visugpx:TrkExtension xmlns:visugpx="https://www.visugpx.com/editgpx/">
            <visugpx:node>49</visugpx:node>
            </visugpx:TrkExtension>
        </extensions>
      </trkpt>
      <trkpt lat="48.70202" lon="2.11022">
        <ele>66.8</ele>
        <time>2025-01-03T17:53:08.575Z</time>
      </trkpt>
      <trkpt lat="48.70194" lon="2.11022">
        <ele>66.8</ele>
        <time>2025-01-03T17:53:13.814Z</time>
      </trkpt>
      <trkpt lat="48.7019" lon="2.11014">
        <ele>66.7</ele>
        <time>2025-01-03T17:53:17.956Z</time>
      </trkpt>
      <trkpt lat="48.70191" lon="2.11007">
        <ele>66.5</ele>
        <time>2025-01-03T17:53:20.682Z</time>
      </trkpt>
      <trkpt lat="48.70193" lon="2.11">
        <ele>66.2</ele>
        <time>2025-01-03T17:53:23.889Z</time>
      </trkpt>
      <trkpt lat="48.70194" lon="2.10994">
        <ele>66.3</ele>
        <time>2025-01-03T17:53:27.096Z</time>
      </trkpt>
      <trkpt lat="48.70196" lon="2.10987">
        <ele>66.5</ele>
        <time>2025-01-03T17:53:30.304Z</time>
      </trkpt>
      <trkpt lat="48.70197" lon="2.1098">
        <ele>66.7</ele>
        <time>2025-01-03T17:53:33.512Z</time>
      </trkpt>
      <trkpt lat="48.70199" lon="2.10973">
        <ele>67</ele>
        <time>2025-01-03T17:53:36.720Z</time>
      </trkpt>
      <trkpt lat="48.702" lon="2.10967">
        <ele>67</ele>
        <time>2025-01-03T17:53:39.928Z</time>
      </trkpt>
      <trkpt lat="48.70202" lon="2.1096">
        <ele>67</ele>
        <time>2025-01-03T17:53:43.136Z</time>
      </trkpt>
      <trkpt lat="48.70203" lon="2.10953">
        <ele>67</ele>
        <time>2025-01-03T17:53:46.344Z</time>
      </trkpt>
      <trkpt lat="48.70206" lon="2.10943">
        <ele>67</ele>
        <time>2025-01-03T17:53:51.091Z</time>
      </trkpt>
      <trkpt lat="48.70208" lon="2.10935">
        <ele>66.8</ele>
        <time>2025-01-03T17:53:54.414Z</time>
      </trkpt>
      <trkpt lat="48.7021" lon="2.10929">
        <ele>66.7</ele>
        <time>2025-01-03T17:53:57.203Z</time>
      </trkpt>
      <trkpt lat="48.70213" lon="2.10923">
        <ele>66.5</ele>
        <time>2025-01-03T17:53:59.993Z</time>
      </trkpt>
      <trkpt lat="48.70215" lon="2.10917">
        <ele>66.3</ele>
        <time>2025-01-03T17:54:02.783Z</time>
      </trkpt>
      <trkpt lat="48.70217" lon="2.10911">
        <ele>66.4</ele>
        <time>2025-01-03T17:54:05.573Z</time>
      </trkpt>
      <trkpt lat="48.70219" lon="2.10903">
        <ele>66.6</ele>
        <time>2025-01-03T17:54:09.810Z</time>
      </trkpt>
      <trkpt lat="48.7022" lon="2.10894">
        <ele>66.8</ele>
        <time>2025-01-03T17:54:14.048Z</time>
      </trkpt>
      <trkpt lat="48.70223" lon="2.10884">
        <ele>67</ele>
        <time>2025-01-03T17:54:18.622Z</time>
      </trkpt>
      <trkpt lat="48.70226" lon="2.10875">
        <ele>66.9</ele>
        <time>2025-01-03T17:54:23.197Z</time>
      </trkpt>
      <trkpt lat="48.70229" lon="2.10865">
        <ele>66.8</ele>
        <time>2025-01-03T17:54:27.772Z</time>
      </trkpt>
      <trkpt lat="48.70232" lon="2.10856">
        <ele>66.6</ele>
        <time>2025-01-03T17:54:32.347Z</time>
      </trkpt>
      <trkpt lat="48.70235" lon="2.10846">
        <ele>66.5</ele>
        <time>2025-01-03T17:54:36.922Z</time>
      </trkpt>
      <trkpt lat="48.70238" lon="2.10836">
        <ele>66.4</ele>
        <time>2025-01-03T17:54:41.497Z</time>
      </trkpt>
      <trkpt lat="48.70241" lon="2.10827">
        <ele>66.5</ele>
        <time>2025-01-03T17:54:46.072Z</time>
      </trkpt>
      <trkpt lat="48.70244" lon="2.10817">
        <ele>66.7</ele>
        <time>2025-01-03T17:54:50.647Z</time>
      </trkpt>
      <trkpt lat="48.70246" lon="2.10806">
        <ele>67</ele>
        <time>2025-01-03T17:54:56.102Z</time>
      </trkpt>
      <trkpt lat="48.70248" lon="2.10794">
        <ele>67</ele>
        <time>2025-01-03T17:55:01.557Z</time>
      </trkpt>
      <trkpt lat="48.7025" lon="2.10782">
        <ele>67</ele>
        <time>2025-01-03T17:55:07.435Z</time>
      </trkpt>
      <trkpt lat="48.70252" lon="2.1077">
        <ele>67.2</ele>
        <time>2025-01-03T17:55:13.313Z</time>
      </trkpt>
      <trkpt lat="48.70254" lon="2.10757">
        <ele>67.4</ele>
        <time>2025-01-03T17:55:19.191Z</time>
      </trkpt>
      <trkpt lat="48.70256" lon="2.10745">
        <ele>67.8</ele>
        <time>2025-01-03T17:55:25.070Z</time>
      </trkpt>
      <trkpt lat="48.70256" lon="2.10736">
        <ele>68</ele>
        <time>2025-01-03T17:55:29.394Z</time>
      </trkpt>
      <trkpt lat="48.70253" lon="2.10725">
        <ele>68.1</ele>
        <time>2025-01-03T17:55:34.537Z</time>
      </trkpt>
      <trkpt lat="48.7025" lon="2.10714">
        <ele>68</ele>
        <time>2025-01-03T17:55:39.681Z</time>
      </trkpt>
      <trkpt lat="48.7025" lon="2.10707">
        <ele>68</ele>
        <time>2025-01-03T17:55:42.729Z</time>
      </trkpt>
      <trkpt lat="48.7025" lon="2.10699">
        <ele>68</ele>
        <time>2025-01-03T17:55:45.777Z</time>
      </trkpt>
      <trkpt lat="48.7025" lon="2.10692">
        <ele>67.9</ele>
        <time>2025-01-03T17:55:48.825Z</time>
      </trkpt>
      <trkpt lat="48.7025" lon="2.10684">
        <ele>67.6</ele>
        <time>2025-01-03T17:55:51.873Z</time>
        <extensions>
          <visugpx:TrkExtension xmlns:visugpx="https://www.visugpx.com/editgpx/">
            <visugpx:node>50</visugpx:node>
            </visugpx:TrkExtension>
        </extensions>
      </trkpt>
      <trkpt lat="48.7025" lon="2.10676">
        <ele>67.3</ele>
        <time>2025-01-03T17:55:54.898Z</time>
      </trkpt>
      <trkpt lat="48.7025" lon="2.10663">
        <ele>66.9</ele>
        <time>2025-01-03T17:55:59.814Z</time>
      </trkpt>
      <trkpt lat="48.7025" lon="2.10661">
        <ele>66.8</ele>
        <time>2025-01-03T17:56:00.570Z</time>
      </trkpt>
      <trkpt lat="48.7025" lon="2.10654">
        <ele>66.5</ele>
        <time>2025-01-03T17:56:03.420Z</time>
      </trkpt>
      <trkpt lat="48.7025" lon="2.10647">
        <ele>66.3</ele>
        <time>2025-01-03T17:56:06.270Z</time>
      </trkpt>
      <trkpt lat="48.7025" lon="2.10639">
        <ele>66</ele>
        <time>2025-01-03T17:56:09.120Z</time>
      </trkpt>
      <trkpt lat="48.7025" lon="2.10632">
        <ele>66.2</ele>
        <time>2025-01-03T17:56:11.971Z</time>
        <extensions>
          <visugpx:TrkExtension xmlns:visugpx="https://www.visugpx.com/editgpx/">
            <visugpx:node>51</visugpx:node>
            </visugpx:TrkExtension>
        </extensions>
      </trkpt>
      <trkpt lat="48.7025" lon="2.10632">
        <ele>66.2</ele>
        <time>2025-01-03T17:56:11.971Z</time>
      </trkpt>
      <trkpt lat="48.70247" lon="2.10625">
        <ele>66.7</ele>
        <time>2025-01-03T17:56:16.315Z</time>
      </trkpt>
      <trkpt lat="48.70244" lon="2.10617">
        <ele>67.1</ele>
        <time>2025-01-03T17:56:20.659Z</time>
      </trkpt>
      <trkpt lat="48.70241" lon="2.1061">
        <ele>67.3</ele>
        <time>2025-01-03T17:56:25.004Z</time>
      </trkpt>
      <trkpt lat="48.70238" lon="2.10602">
        <ele>67.2</ele>
        <time>2025-01-03T17:56:29.350Z</time>
      </trkpt>
      <trkpt lat="48.70236" lon="2.10595">
        <ele>67.2</ele>
        <time>2025-01-03T17:56:32.892Z</time>
      </trkpt>
      <trkpt lat="48.70233" lon="2.10588">
        <ele>67.3</ele>
        <time>2025-01-03T17:56:36.435Z</time>
      </trkpt>
      <trkpt lat="48.70232" lon="2.10582">
        <ele>67.3</ele>
        <time>2025-01-03T17:56:39.109Z</time>
        <extensions>
          <visugpx:TrkExtension xmlns:visugpx="https://www.visugpx.com/editgpx/">
            <visugpx:node>52</visugpx:node>
            </visugpx:TrkExtension>
        </extensions>
      </trkpt>
      <trkpt lat="48.70231" lon="2.10573">
        <ele>67.5</ele>
        <time>2025-01-03T17:56:43.487Z</time>
      </trkpt>
      <trkpt lat="48.7023" lon="2.10565">
        <ele>67.6</ele>
        <time>2025-01-03T17:56:47.215Z</time>
      </trkpt>
      <trkpt lat="48.70229" lon="2.10557">
        <ele>67.7</ele>
        <time>2025-01-03T17:56:50.944Z</time>
      </trkpt>
      <trkpt lat="48.70226" lon="2.10547">
        <ele>67.9</ele>
        <time>2025-01-03T17:56:56.204Z</time>
      </trkpt>
      <trkpt lat="48.70223" lon="2.10536">
        <ele>68</ele>
        <time>2025-01-03T17:57:01.465Z</time>
      </trkpt>
      <trkpt lat="48.70222" lon="2.10526">
        <ele>68</ele>
        <time>2025-01-03T17:57:05.835Z</time>
      </trkpt>
      <trkpt lat="48.70221" lon="2.10516">
        <ele>68</ele>
        <time>2025-01-03T17:57:10.207Z</time>
      </trkpt>
      <trkpt lat="48.7022" lon="2.10509">
        <ele>68</ele>
        <time>2025-01-03T17:57:13.447Z</time>
      </trkpt>
      <trkpt lat="48.70219" lon="2.10503">
        <ele>68</ele>
        <time>2025-01-03T17:57:16.688Z</time>
      </trkpt>
      <trkpt lat="48.70217" lon="2.10496">
        <ele>68.2</ele>
        <time>2025-01-03T17:57:19.929Z</time>
      </trkpt>
      <trkpt lat="48.70216" lon="2.10489">
        <ele>68.4</ele>
        <time>2025-01-03T17:57:23.171Z</time>
      </trkpt>
      <trkpt lat="48.70214" lon="2.1048">
        <ele>68.7</ele>
        <time>2025-01-03T17:57:27.300Z</time>
      </trkpt>
      <trkpt lat="48.70212" lon="2.10471">
        <ele>69</ele>
        <time>2025-01-03T17:57:31.429Z</time>
      </trkpt>
      <trkpt lat="48.7021" lon="2.10462">
        <ele>69</ele>
        <time>2025-01-03T17:57:35.558Z</time>
      </trkpt>
      <trkpt lat="48.70209" lon="2.10454">
        <ele>69</ele>
        <time>2025-01-03T17:57:39.687Z</time>
      </trkpt>
      <trkpt lat="48.70207" lon="2.10445">
        <ele>69</ele>
        <time>2025-01-03T17:57:43.817Z</time>
      </trkpt>
      <trkpt lat="48.70205" lon="2.10436">
        <ele>68.9</ele>
        <time>2025-01-03T17:57:47.947Z</time>
      </trkpt>
      <trkpt lat="48.70203" lon="2.10427">
        <ele>68.8</ele>
        <time>2025-01-03T17:57:52.077Z</time>
      </trkpt>
      <trkpt lat="48.70201" lon="2.10418">
        <ele>68.8</ele>
        <time>2025-01-03T17:57:56.208Z</time>
      </trkpt>
      <trkpt lat="48.70197" lon="2.10407">
        <ele>68.6</ele>
        <time>2025-01-03T17:58:01.253Z</time>
        <extensions>
          <visugpx:TrkExtension xmlns:visugpx="https://www.visugpx.com/editgpx/">
            <visugpx:node>53</visugpx:node>
            </visugpx:TrkExtension>
        </extensions>
      </trkpt>
      <trkpt lat="48.70196" lon="2.10404">
        <ele>68.5</ele>
        <time>2025-01-03T17:58:02.524Z</time>
      </trkpt>
      <trkpt lat="48.70194" lon="2.10392">
        <ele>68.1</ele>
        <time>2025-01-03T17:58:07.578Z</time>
      </trkpt>
      <trkpt lat="48.70191" lon="2.1038">
        <ele>68.1</ele>
        <time>2025-01-03T17:58:12.634Z</time>
        <extensions>
          <visugpx:TrkExtension xmlns:visugpx="https://www.visugpx.com/editgpx/">
            <visugpx:node>54</visugpx:node>
            </visugpx:TrkExtension>
        </extensions>
      </trkpt>
      <trkpt lat="48.70191" lon="2.10378">
        <ele>68.1</ele>
        <time>2025-01-03T17:58:13.498Z</time>
      </trkpt>
      <trkpt lat="48.70191" lon="2.1037">
        <ele>68.1</ele>
        <time>2025-01-03T17:58:17.288Z</time>
      </trkpt>
      <trkpt lat="48.7019" lon="2.10361">
        <ele>68.2</ele>
        <time>2025-01-03T17:58:21.080Z</time>
      </trkpt>
      <trkpt lat="48.7019" lon="2.10356">
        <ele>68.3</ele>
        <time>2025-01-03T17:58:23.456Z</time>
      </trkpt>
      <trkpt lat="48.70192" lon="2.10349">
        <ele>68.5</ele>
        <time>2025-01-03T17:58:27.107Z</time>
      </trkpt>
      <trkpt lat="48.70194" lon="2.10341">
        <ele>68.7</ele>
        <time>2025-01-03T17:58:30.758Z</time>
      </trkpt>
      <trkpt lat="48.70196" lon="2.10334">
        <ele>68.8</ele>
        <time>2025-01-03T17:58:34.410Z</time>
      </trkpt>
      <trkpt lat="48.70198" lon="2.10326">
        <ele>68.6</ele>
        <time>2025-01-03T17:58:38.062Z</time>
      </trkpt>
      <trkpt lat="48.70202" lon="2.10318">
        <ele>68.4</ele>
        <time>2025-01-03T17:58:41.789Z</time>
      </trkpt>
      <trkpt lat="48.70205" lon="2.1031">
        <ele>68.2</ele>
        <time>2025-01-03T17:58:45.516Z</time>
      </trkpt>
      <trkpt lat="48.70209" lon="2.10302">
        <ele>68</ele>
        <time>2025-01-03T17:58:49.243Z</time>
      </trkpt>
      <trkpt lat="48.70212" lon="2.10294">
        <ele>67.7</ele>
        <time>2025-01-03T17:58:52.971Z</time>
        <extensions>
          <visugpx:TrkExtension xmlns:visugpx="https://www.visugpx.com/editgpx/">
            <visugpx:node>55</visugpx:node>
            </visugpx:TrkExtension>
        </extensions>
      </trkpt>
      <trkpt lat="48.70214" lon="2.10289">
        <ele>67.6</ele>
        <time>2025-01-03T17:58:55.307Z</time>
      </trkpt>
      <trkpt lat="48.70218" lon="2.10277">
        <ele>67.4</ele>
        <time>2025-01-03T17:59:01.175Z</time>
      </trkpt>
      <trkpt lat="48.70221" lon="2.10264">
        <ele>67.6</ele>
        <time>2025-01-03T17:59:07.043Z</time>
      </trkpt>
      <trkpt lat="48.70224" lon="2.10258">
        <ele>67.7</ele>
        <time>2025-01-03T17:59:10.619Z</time>
      </trkpt>
      <trkpt lat="48.70227" lon="2.10252">
        <ele>67.9</ele>
        <time>2025-01-03T17:59:14.195Z</time>
      </trkpt>
      <trkpt lat="48.7023" lon="2.10246">
        <ele>68.1</ele>
        <time>2025-01-03T17:59:17.771Z</time>
      </trkpt>
      <trkpt lat="48.70233" lon="2.1024">
        <ele>68.2</ele>
        <time>2025-01-03T17:59:21.347Z</time>
      </trkpt>
      <trkpt lat="48.70233" lon="2.10231">
        <ele>68.4</ele>
        <time>2025-01-03T17:59:25.684Z</time>
      </trkpt>
      <trkpt lat="48.70232" lon="2.10222">
        <ele>68.6</ele>
        <time>2025-01-03T17:59:30.022Z</time>
      </trkpt>
      <trkpt lat="48.70233" lon="2.10213">
        <ele>68.5</ele>
        <time>2025-01-03T17:59:33.679Z</time>
      </trkpt>
      <trkpt lat="48.70234" lon="2.10204">
        <ele>68.3</ele>
        <time>2025-01-03T17:59:37.337Z</time>
      </trkpt>
      <trkpt lat="48.70233" lon="2.10197">
        <ele>68.3</ele>
        <time>2025-01-03T17:59:40.345Z</time>
      </trkpt>
      <trkpt lat="48.70233" lon="2.10191">
        <ele>68.3</ele>
        <time>2025-01-03T17:59:43.354Z</time>
      </trkpt>
      <trkpt lat="48.70232" lon="2.10184">
        <ele>68.3</ele>
        <time>2025-01-03T17:59:46.363Z</time>
      </trkpt>
      <trkpt lat="48.70231" lon="2.10177">
        <ele>68.4</ele>
        <time>2025-01-03T17:59:49.373Z</time>
      </trkpt>
      <trkpt lat="48.70229" lon="2.1017">
        <ele>68.5</ele>
        <time>2025-01-03T17:59:52.836Z</time>
      </trkpt>
      <trkpt lat="48.70227" lon="2.10164">
        <ele>68.7</ele>
        <time>2025-01-03T17:59:56.300Z</time>
      </trkpt>
      <trkpt lat="48.70225" lon="2.10157">
        <ele>68.8</ele>
        <time>2025-01-03T17:59:59.764Z</time>
      </trkpt>
      <trkpt lat="48.70223" lon="2.1015">
        <ele>68.9</ele>
        <time>2025-01-03T18:00:03.229Z</time>
      </trkpt>
      <trkpt lat="48.70223" lon="2.10143">
        <ele>68.9</ele>
        <time>2025-01-03T18:00:06.470Z</time>
      </trkpt>
      <trkpt lat="48.70223" lon="2.10135">
        <ele>68.9</ele>
        <time>2025-01-03T18:00:09.712Z</time>
      </trkpt>
      <trkpt lat="48.70226" lon="2.10127">
        <ele>68.8</ele>
        <time>2025-01-03T18:00:13.538Z</time>
      </trkpt>
      <trkpt lat="48.70228" lon="2.10118">
        <ele>68.7</ele>
        <time>2025-01-03T18:00:17.365Z</time>
      </trkpt>
      <trkpt lat="48.70226" lon="2.10113">
        <ele>68.9</ele>
        <time>2025-01-03T18:00:20.345Z</time>
      </trkpt>
      <trkpt lat="48.70221" lon="2.10109">
        <ele>69</ele>
        <time>2025-01-03T18:00:24.308Z</time>
      </trkpt>
      <trkpt lat="48.70216" lon="2.10105">
        <ele>69.1</ele>
        <time>2025-01-03T18:00:28.271Z</time>
      </trkpt>
      <trkpt lat="48.70211" lon="2.101">
        <ele>69.2</ele>
        <time>2025-01-03T18:00:32.234Z</time>
      </trkpt>
      <trkpt lat="48.70206" lon="2.10096">
        <ele>69.3</ele>
        <time>2025-01-03T18:00:36.198Z</time>
      </trkpt>
      <trkpt lat="48.70206" lon="2.10091">
        <ele>69.4</ele>
        <time>2025-01-03T18:00:38.575Z</time>
        <extensions>
          <visugpx:TrkExtension xmlns:visugpx="https://www.visugpx.com/editgpx/">
            <visugpx:node>56</visugpx:node>
            </visugpx:TrkExtension>
        </extensions>
      </trkpt>
      <trkpt lat="48.70206" lon="2.10087">
        <ele>69.5</ele>
        <time>2025-01-03T18:00:40.523Z</time>
      </trkpt>
      <trkpt lat="48.70202" lon="2.10086">
        <ele>69.7</ele>
        <time>2025-01-03T18:00:43.627Z</time>
      </trkpt>
      <trkpt lat="48.70198" lon="2.10085">
        <ele>69.8</ele>
        <time>2025-01-03T18:00:46.495Z</time>
      </trkpt>
      <trkpt lat="48.70195" lon="2.10077">
        <ele>70</ele>
        <time>2025-01-03T18:00:50.972Z</time>
      </trkpt>
      <trkpt lat="48.70192" lon="2.1007">
        <ele>70.1</ele>
        <time>2025-01-03T18:00:55.449Z</time>
      </trkpt>
      <trkpt lat="48.70189" lon="2.10062">
        <ele>70.3</ele>
        <time>2025-01-03T18:00:59.926Z</time>
      </trkpt>
      <trkpt lat="48.70186" lon="2.10054">
        <ele>70.7</ele>
        <time>2025-01-03T18:01:04.404Z</time>
      </trkpt>
      <trkpt lat="48.70182" lon="2.10046">
        <ele>71.1</ele>
        <time>2025-01-03T18:01:08.882Z</time>
      </trkpt>
      <trkpt lat="48.70179" lon="2.10039">
        <ele>71.4</ele>
        <time>2025-01-03T18:01:13.360Z</time>
      </trkpt>
      <trkpt lat="48.70176" lon="2.10031">
        <ele>71.6</ele>
        <time>2025-01-03T18:01:17.838Z</time>
      </trkpt>
      <trkpt lat="48.70173" lon="2.10023">
        <ele>71.8</ele>
        <time>2025-01-03T18:01:22.317Z</time>
      </trkpt>
      <trkpt lat="48.70168" lon="2.10021">
        <ele>72</ele>
        <time>2025-01-03T18:01:26.456Z</time>
      </trkpt>
      <trkpt lat="48.70162" lon="2.10019">
        <ele>72.2</ele>
        <time>2025-01-03T18:01:30.596Z</time>
      </trkpt>
      <trkpt lat="48.70154" lon="2.10021">
        <ele>72.6</ele>
        <time>2025-01-03T18:01:36.805Z</time>
      </trkpt>
      <trkpt lat="48.70149" lon="2.10023">
        <ele>72.7</ele>
        <time>2025-01-03T18:01:40.402Z</time>
      </trkpt>
      <trkpt lat="48.70146" lon="2.10027">
        <ele>72.8</ele>
        <time>2025-01-03T18:01:43.232Z</time>
        <extensions>
          <visugpx:TrkExtension xmlns:visugpx="https://www.visugpx.com/editgpx/">
            <visugpx:node>57</visugpx:node>
            </visugpx:TrkExtension>
        </extensions>
      </trkpt>
      <trkpt lat="48.70142" lon="2.10032">
        <ele>72.9</ele>
        <time>2025-01-03T18:01:46.837Z</time>
      </trkpt>
      <trkpt lat="48.70139" lon="2.10026">
        <ele>73.1</ele>
        <time>2025-01-03T18:01:50.531Z</time>
      </trkpt>
      <trkpt lat="48.70137" lon="2.1002">
        <ele>73.5</ele>
        <time>2025-01-03T18:01:54.428Z</time>
      </trkpt>
      <trkpt lat="48.7014" lon="2.10011">
        <ele>73.5</ele>
        <time>2025-01-03T18:01:58.786Z</time>
        <extensions>
          <visugpx:TrkExtension xmlns:visugpx="https://www.visugpx.com/editgpx/">
            <visugpx:node>58</visugpx:node>
            </visugpx:TrkExtension>
        </extensions>
      </trkpt>
      <trkpt lat="48.70141" lon="2.10009">
        <ele>73.5</ele>
        <time>2025-01-03T18:01:59.870Z</time>
      </trkpt>
      <trkpt lat="48.70142" lon="2.10001">
        <ele>73.7</ele>
        <time>2025-01-03T18:02:03.827Z</time>
      </trkpt>
      <trkpt lat="48.7014" lon="2.09991">
        <ele>74.2</ele>
        <time>2025-01-03T18:02:09.530Z</time>
      </trkpt>
      <trkpt lat="48.70143" lon="2.09984">
        <ele>74.3</ele>
        <time>2025-01-03T18:02:13.347Z</time>
      </trkpt>
      <trkpt lat="48.7014" lon="2.09977">
        <ele>74.7</ele>
        <time>2025-01-03T18:02:17.905Z</time>
      </trkpt>
      <trkpt lat="48.70135" lon="2.09969">
        <ele>75.4</ele>
        <time>2025-01-03T18:02:23.953Z</time>
      </trkpt>
      <trkpt lat="48.7013" lon="2.09961">
        <ele>75.9</ele>
        <time>2025-01-03T18:02:30.001Z</time>
      </trkpt>
      <trkpt lat="48.70124" lon="2.09953">
        <ele>76.4</ele>
        <time>2025-01-03T18:02:36.050Z</time>
      </trkpt>
      <trkpt lat="48.70119" lon="2.09945">
        <ele>76.7</ele>
        <time>2025-01-03T18:02:42.100Z</time>
      </trkpt>
      <trkpt lat="48.70112" lon="2.09946">
        <ele>77</ele>
        <time>2025-01-03T18:02:47.369Z</time>
      </trkpt>
      <trkpt lat="48.70109" lon="2.0995">
        <ele>77</ele>
        <time>2025-01-03T18:02:49.986Z</time>
      </trkpt>
      <trkpt lat="48.70107" lon="2.0995">
        <ele>77.1</ele>
        <time>2025-01-03T18:02:51.521Z</time>
      </trkpt>
      <trkpt lat="48.70105" lon="2.09958">
        <ele>77.2</ele>
        <time>2025-01-03T18:02:55.427Z</time>
        <extensions>
          <visugpx:TrkExtension xmlns:visugpx="https://www.visugpx.com/editgpx/">
            <visugpx:node>59</visugpx:node>
            </visugpx:TrkExtension>
        </extensions>
      </trkpt>
      <trkpt lat="48.70103" lon="2.09963">
        <ele>77.4</ele>
        <time>2025-01-03T18:02:58.407Z</time>
      </trkpt>
      <trkpt lat="48.70099" lon="2.09966">
        <ele>77.7</ele>
        <time>2025-01-03T18:03:02.033Z</time>
      </trkpt>
      <trkpt lat="48.70096" lon="2.09956">
        <ele>77.4</ele>
        <time>2025-01-03T18:03:06.481Z</time>
      </trkpt>
      <trkpt lat="48.70092" lon="2.09945">
        <ele>77</ele>
        <time>2025-01-03T18:03:10.930Z</time>
        <extensions>
          <visugpx:TrkExtension xmlns:visugpx="https://www.visugpx.com/editgpx/">
            <visugpx:node>60</visugpx:node>
            </visugpx:TrkExtension>
        </extensions>
      </trkpt>
      <trkpt lat="48.70092" lon="2.09944">
        <ele>77</ele>
        <time>2025-01-03T18:03:11.362Z</time>
      </trkpt>
      <trkpt lat="48.70085" lon="2.09941">
        <ele>77.3</ele>
        <time>2025-01-03T18:03:17.645Z</time>
      </trkpt>
      <trkpt lat="48.70078" lon="2.09937">
        <ele>78.2</ele>
        <time>2025-01-03T18:03:23.929Z</time>
      </trkpt>
      <trkpt lat="48.70081" lon="2.09926">
        <ele>78.6</ele>
        <time>2025-01-03T18:03:29.976Z</time>
      </trkpt>
      <trkpt lat="48.70079" lon="2.09922">
        <ele>79</ele>
        <time>2025-01-03T18:03:33.216Z</time>
      </trkpt>
      <trkpt lat="48.70073" lon="2.0992">
        <ele>79.6</ele>
        <time>2025-01-03T18:03:38.754Z</time>
      </trkpt>
      <trkpt lat="48.7007" lon="2.09918">
        <ele>79.9</ele>
        <time>2025-01-03T18:03:41.647Z</time>
      </trkpt>
      <trkpt lat="48.7007" lon="2.09911">
        <ele>80.3</ele>
        <time>2025-01-03T18:03:45.510Z</time>
      </trkpt>
      <trkpt lat="48.7007" lon="2.09904">
        <ele>80.6</ele>
        <time>2025-01-03T18:03:49.374Z</time>
      </trkpt>
      <trkpt lat="48.70068" lon="2.09893">
        <ele>81.5</ele>
        <time>2025-01-03T18:03:56.706Z</time>
      </trkpt>
      <trkpt lat="48.70064" lon="2.09885">
        <ele>82.8</ele>
        <time>2025-01-03T18:04:05.299Z</time>
      </trkpt>
      <trkpt lat="48.70059" lon="2.09882">
        <ele>83.8</ele>
        <time>2025-01-03T18:04:12.002Z</time>
      </trkpt>
      <trkpt lat="48.70062" lon="2.0987">
        <ele>84.2</ele>
        <time>2025-01-03T18:04:18.444Z</time>
      </trkpt>
      <trkpt lat="48.70065" lon="2.09858">
        <ele>84.6</ele>
        <time>2025-01-03T18:04:24.885Z</time>
      </trkpt>
      <trkpt lat="48.70063" lon="2.09851">
        <ele>84.6</ele>
        <time>2025-01-03T18:04:28.276Z</time>
      </trkpt>
      <trkpt lat="48.70062" lon="2.09844">
        <ele>84.7</ele>
        <time>2025-01-03T18:04:31.667Z</time>
      </trkpt>
      <trkpt lat="48.7006" lon="2.09837">
        <ele>84.7</ele>
        <time>2025-01-03T18:04:35.058Z</time>
      </trkpt>
      <trkpt lat="48.70058" lon="2.0983">
        <ele>84.8</ele>
        <time>2025-01-03T18:04:38.449Z</time>
      </trkpt>
      <trkpt lat="48.70056" lon="2.09823">
        <ele>85</ele>
        <time>2025-01-03T18:04:41.840Z</time>
      </trkpt>
      <trkpt lat="48.70055" lon="2.09816">
        <ele>85.1</ele>
        <time>2025-01-03T18:04:45.231Z</time>
      </trkpt>
      <trkpt lat="48.70053" lon="2.09809">
        <ele>85.2</ele>
        <time>2025-01-03T18:04:48.622Z</time>
      </trkpt>
      <trkpt lat="48.70051" lon="2.09802">
        <ele>85.2</ele>
        <time>2025-01-03T18:04:52.015Z</time>
        <extensions>
          <visugpx:TrkExtension xmlns:visugpx="https://www.visugpx.com/editgpx/">
            <visugpx:node>61</visugpx:node>
            </visugpx:TrkExtension>
        </extensions>
      </trkpt>
      <trkpt lat="48.70049" lon="2.09795">
        <ele>85.2</ele>
        <time>2025-01-03T18:04:55.311Z</time>
      </trkpt>
      <trkpt lat="48.70041" lon="2.09798">
        <ele>86</ele>
        <time>2025-01-03T18:05:02.866Z</time>
      </trkpt>
      <trkpt lat="48.70032" lon="2.09801">
        <ele>86.7</ele>
        <time>2025-01-03T18:05:10.423Z</time>
      </trkpt>
      <trkpt lat="48.70026" lon="2.09798">
        <ele>87.1</ele>
        <time>2025-01-03T18:05:16.011Z</time>
      </trkpt>
      <trkpt lat="48.7002" lon="2.09795">
        <ele>87.6</ele>
        <time>2025-01-03T18:05:21.599Z</time>
      </trkpt>
      <trkpt lat="48.70014" lon="2.09792">
        <ele>88.2</ele>
        <time>2025-01-03T18:05:27.187Z</time>
      </trkpt>
      <trkpt lat="48.70009" lon="2.09789">
        <ele>89</ele>
        <time>2025-01-03T18:05:32.775Z</time>
      </trkpt>
      <trkpt lat="48.70003" lon="2.09785">
        <ele>89.9</ele>
        <time>2025-01-03T18:05:38.363Z</time>
      </trkpt>
      <trkpt lat="48.69997" lon="2.09782">
        <ele>90.7</ele>
        <time>2025-01-03T18:05:43.951Z</time>
      </trkpt>
      <trkpt lat="48.69991" lon="2.09779">
        <ele>91.2</ele>
        <time>2025-01-03T18:05:49.539Z</time>
      </trkpt>
      <trkpt lat="48.69985" lon="2.09776">
        <ele>91.5</ele>
        <time>2025-01-03T18:05:55.128Z</time>
      </trkpt>
      <trkpt lat="48.69987" lon="2.09767">
        <ele>91.3</ele>
        <time>2025-01-03T18:05:58.855Z</time>
        <extensions>
          <visugpx:TrkExtension xmlns:visugpx="https://www.visugpx.com/editgpx/">
            <visugpx:node>62</visugpx:node>
            </visugpx:TrkExtension>
        </extensions>
      </trkpt>
      <trkpt lat="48.69989" lon="2.09757">
        <ele>90.9</ele>
        <time>2025-01-03T18:06:03.192Z</time>
      </trkpt>
      <trkpt lat="48.69991" lon="2.09748">
        <ele>90.7</ele>
        <time>2025-01-03T18:06:07.529Z</time>
      </trkpt>
      <trkpt lat="48.69993" lon="2.09738">
        <ele>90.8</ele>
        <time>2025-01-03T18:06:11.867Z</time>
      </trkpt>
      <trkpt lat="48.69995" lon="2.09728">
        <ele>91</ele>
        <time>2025-01-03T18:06:16.205Z</time>
      </trkpt>
      <trkpt lat="48.69997" lon="2.09718">
        <ele>91.2</ele>
        <time>2025-01-03T18:06:20.543Z</time>
      </trkpt>
      <trkpt lat="48.69999" lon="2.09709">
        <ele>91.5</ele>
        <time>2025-01-03T18:06:24.881Z</time>
      </trkpt>
      <trkpt lat="48.70001" lon="2.09699">
        <ele>91.6</ele>
        <time>2025-01-03T18:06:29.219Z</time>
      </trkpt>
      <trkpt lat="48.70004" lon="2.09689">
        <ele>91.5</ele>
        <time>2025-01-03T18:06:33.557Z</time>
      </trkpt>
      <trkpt lat="48.70006" lon="2.09679">
        <ele>91.3</ele>
        <time>2025-01-03T18:06:37.895Z</time>
      </trkpt>
      <trkpt lat="48.70008" lon="2.0967">
        <ele>91.2</ele>
        <time>2025-01-03T18:06:42.233Z</time>
      </trkpt>
      <trkpt lat="48.7001" lon="2.0966">
        <ele>91</ele>
        <time>2025-01-03T18:06:46.571Z</time>
      </trkpt>
      <trkpt lat="48.70012" lon="2.0965">
        <ele>90.7</ele>
        <time>2025-01-03T18:06:50.909Z</time>
      </trkpt>
      <trkpt lat="48.70014" lon="2.0964">
        <ele>90.5</ele>
        <time>2025-01-03T18:06:55.247Z</time>
      </trkpt>
      <trkpt lat="48.70016" lon="2.09631">
        <ele>90.5</ele>
        <time>2025-01-03T18:06:59.585Z</time>
      </trkpt>
      <trkpt lat="48.70018" lon="2.09621">
        <ele>90.5</ele>
        <time>2025-01-03T18:07:03.923Z</time>
      </trkpt>
      <trkpt lat="48.7002" lon="2.09611">
        <ele>90.6</ele>
        <time>2025-01-03T18:07:08.261Z</time>
      </trkpt>
      <trkpt lat="48.70023" lon="2.09601">
        <ele>90.3</ele>
        <time>2025-01-03T18:07:12.940Z</time>
      </trkpt>
      <trkpt lat="48.70027" lon="2.0959">
        <ele>90.1</ele>
        <time>2025-01-03T18:07:17.619Z</time>
      </trkpt>
      <trkpt lat="48.7003" lon="2.0958">
        <ele>89.8</ele>
        <time>2025-01-03T18:07:22.298Z</time>
      </trkpt>
      <trkpt lat="48.70033" lon="2.0957">
        <ele>89.6</ele>
        <time>2025-01-03T18:07:26.977Z</time>
      </trkpt>
      <trkpt lat="48.70037" lon="2.09559">
        <ele>89.4</ele>
        <time>2025-01-03T18:07:31.656Z</time>
      </trkpt>
      <trkpt lat="48.7004" lon="2.09549">
        <ele>89.2</ele>
        <time>2025-01-03T18:07:36.335Z</time>
      </trkpt>
      <trkpt lat="48.70043" lon="2.09538">
        <ele>89.2</ele>
        <time>2025-01-03T18:07:41.014Z</time>
      </trkpt>
      <trkpt lat="48.70047" lon="2.09528">
        <ele>89.3</ele>
        <time>2025-01-03T18:07:45.693Z</time>
      </trkpt>
      <trkpt lat="48.7005" lon="2.09518">
        <ele>89.2</ele>
        <time>2025-01-03T18:07:50.372Z</time>
      </trkpt>
      <trkpt lat="48.70053" lon="2.09507">
        <ele>89.1</ele>
        <time>2025-01-03T18:07:55.051Z</time>
      </trkpt>
      <trkpt lat="48.70056" lon="2.09497">
        <ele>89</ele>
        <time>2025-01-03T18:07:59.731Z</time>
      </trkpt>
      <trkpt lat="48.7006" lon="2.09487">
        <ele>89.1</ele>
        <time>2025-01-03T18:08:04.411Z</time>
      </trkpt>
      <trkpt lat="48.70063" lon="2.09476">
        <ele>89.1</ele>
        <time>2025-01-03T18:08:09.091Z</time>
      </trkpt>
      <trkpt lat="48.70066" lon="2.09466">
        <ele>88.8</ele>
        <time>2025-01-03T18:08:13.771Z</time>
      </trkpt>
      <trkpt lat="48.7007" lon="2.09455">
        <ele>88.5</ele>
        <time>2025-01-03T18:08:18.451Z</time>
      </trkpt>
      <trkpt lat="48.70073" lon="2.09445">
        <ele>88.1</ele>
        <time>2025-01-03T18:08:23.131Z</time>
      </trkpt>
      <trkpt lat="48.70077" lon="2.09434">
        <ele>87.6</ele>
        <time>2025-01-03T18:08:27.748Z</time>
      </trkpt>
      <trkpt lat="48.7008" lon="2.09423">
        <ele>87.3</ele>
        <time>2025-01-03T18:08:32.366Z</time>
        <extensions>
          <visugpx:TrkExtension xmlns:visugpx="https://www.visugpx.com/editgpx/">
            <visugpx:node>63</visugpx:node>
            </visugpx:TrkExtension>
        </extensions>
      </trkpt>
      <trkpt lat="48.70083" lon="2.09414">
        <ele>87.1</ele>
        <time>2025-01-03T18:08:36.705Z</time>
      </trkpt>
      <trkpt lat="48.70086" lon="2.09404">
        <ele>87.2</ele>
        <time>2025-01-03T18:08:41.044Z</time>
      </trkpt>
      <trkpt lat="48.70088" lon="2.09395">
        <ele>87.1</ele>
        <time>2025-01-03T18:08:45.383Z</time>
      </trkpt>
      <trkpt lat="48.70091" lon="2.09385">
        <ele>86.9</ele>
        <time>2025-01-03T18:08:49.722Z</time>
      </trkpt>
      <trkpt lat="48.70094" lon="2.09376">
        <ele>86.4</ele>
        <time>2025-01-03T18:08:54.061Z</time>
      </trkpt>
      <trkpt lat="48.70097" lon="2.09366">
        <ele>86</ele>
        <time>2025-01-03T18:08:58.400Z</time>
      </trkpt>
      <trkpt lat="48.701" lon="2.09357">
        <ele>85.8</ele>
        <time>2025-01-03T18:09:02.739Z</time>
      </trkpt>
      <trkpt lat="48.70103" lon="2.09348">
        <ele>85.9</ele>
        <time>2025-01-03T18:09:07.078Z</time>
      </trkpt>
      <trkpt lat="48.70105" lon="2.09338">
        <ele>86.1</ele>
        <time>2025-01-03T18:09:11.417Z</time>
      </trkpt>
      <trkpt lat="48.70108" lon="2.09329">
        <ele>86.4</ele>
        <time>2025-01-03T18:09:15.757Z</time>
      </trkpt>
      <trkpt lat="48.70111" lon="2.09319">
        <ele>86.5</ele>
        <time>2025-01-03T18:09:20.097Z</time>
      </trkpt>
      <trkpt lat="48.70114" lon="2.0931">
        <ele>86.4</ele>
        <time>2025-01-03T18:09:24.437Z</time>
      </trkpt>
      <trkpt lat="48.70117" lon="2.093">
        <ele>86.3</ele>
        <time>2025-01-03T18:09:28.777Z</time>
      </trkpt>
      <trkpt lat="48.70119" lon="2.09291">
        <ele>86.1</ele>
        <time>2025-01-03T18:09:33.117Z</time>
      </trkpt>
      <trkpt lat="48.70122" lon="2.09281">
        <ele>86.1</ele>
        <time>2025-01-03T18:09:37.457Z</time>
      </trkpt>
      <trkpt lat="48.70125" lon="2.09272">
        <ele>86.2</ele>
        <time>2025-01-03T18:09:41.797Z</time>
      </trkpt>
      <trkpt lat="48.70127" lon="2.09266">
        <ele>86.3</ele>
        <time>2025-01-03T18:09:45.141Z</time>
      </trkpt>
      <trkpt lat="48.70129" lon="2.0926">
        <ele>86.3</ele>
        <time>2025-01-03T18:09:48.486Z</time>
      </trkpt>
      <trkpt lat="48.70131" lon="2.09254">
        <ele>86.4</ele>
        <time>2025-01-03T18:09:51.831Z</time>
      </trkpt>
      <trkpt lat="48.70134" lon="2.09248">
        <ele>86.6</ele>
        <time>2025-01-03T18:09:55.176Z</time>
      </trkpt>
      <trkpt lat="48.70136" lon="2.09241">
        <ele>86.8</ele>
        <time>2025-01-03T18:09:58.521Z</time>
      </trkpt>
      <trkpt lat="48.70138" lon="2.09235">
        <ele>87.1</ele>
        <time>2025-01-03T18:10:01.866Z</time>
      </trkpt>
      <trkpt lat="48.7014" lon="2.09229">
        <ele>87.4</ele>
        <time>2025-01-03T18:10:05.211Z</time>
      </trkpt>
      <trkpt lat="48.70142" lon="2.09223">
        <ele>87.5</ele>
        <time>2025-01-03T18:10:08.556Z</time>
      </trkpt>
      <trkpt lat="48.70145" lon="2.09212">
        <ele>87.3</ele>
        <time>2025-01-03T18:10:13.202Z</time>
      </trkpt>
      <trkpt lat="48.70147" lon="2.09201">
        <ele>87.1</ele>
        <time>2025-01-03T18:10:17.849Z</time>
      </trkpt>
      <trkpt lat="48.7015" lon="2.09194">
        <ele>86.8</ele>
        <time>2025-01-03T18:10:21.307Z</time>
      </trkpt>
      <trkpt lat="48.70154" lon="2.09187">
        <ele>86.7</ele>
        <time>2025-01-03T18:10:24.765Z</time>
      </trkpt>
      <trkpt lat="48.70157" lon="2.0918">
        <ele>86.6</ele>
        <time>2025-01-03T18:10:28.223Z</time>
      </trkpt>
      <trkpt lat="48.7016" lon="2.09173">
        <ele>86.5</ele>
        <time>2025-01-03T18:10:31.681Z</time>
      </trkpt>
      <trkpt lat="48.70163" lon="2.09166">
        <ele>86.4</ele>
        <time>2025-01-03T18:10:35.139Z</time>
      </trkpt>
      <trkpt lat="48.70167" lon="2.09159">
        <ele>86.3</ele>
        <time>2025-01-03T18:10:38.597Z</time>
      </trkpt>
      <trkpt lat="48.7017" lon="2.09152">
        <ele>86.2</ele>
        <time>2025-01-03T18:10:42.056Z</time>
      </trkpt>
      <trkpt lat="48.70173" lon="2.09145">
        <ele>86.1</ele>
        <time>2025-01-03T18:10:45.515Z</time>
      </trkpt>
      <trkpt lat="48.70177" lon="2.09133">
        <ele>86</ele>
        <time>2025-01-03T18:10:51.186Z</time>
      </trkpt>
      <trkpt lat="48.7018" lon="2.0912">
        <ele>85.9</ele>
        <time>2025-01-03T18:10:56.857Z</time>
      </trkpt>
      <trkpt lat="48.70181" lon="2.0911">
        <ele>86</ele>
        <time>2025-01-03T18:11:01.518Z</time>
      </trkpt>
      <trkpt lat="48.70183" lon="2.09099">
        <ele>86</ele>
        <time>2025-01-03T18:11:06.180Z</time>
      </trkpt>
      <trkpt lat="48.70184" lon="2.09089">
        <ele>86.1</ele>
        <time>2025-01-03T18:11:10.842Z</time>
      </trkpt>
      <trkpt lat="48.70185" lon="2.09078">
        <ele>86</ele>
        <time>2025-01-03T18:11:15.504Z</time>
      </trkpt>
      <trkpt lat="48.70187" lon="2.09066">
        <ele>85.8</ele>
        <time>2025-01-03T18:11:20.213Z</time>
      </trkpt>
      <trkpt lat="48.70189" lon="2.09054">
        <ele>85.6</ele>
        <time>2025-01-03T18:11:24.922Z</time>
      </trkpt>
      <trkpt lat="48.70191" lon="2.09042">
        <ele>84.9</ele>
        <time>2025-01-03T18:11:29.631Z</time>
      </trkpt>
      <trkpt lat="48.70193" lon="2.0903">
        <ele>84.3</ele>
        <time>2025-01-03T18:11:34.340Z</time>
      </trkpt>
      <trkpt lat="48.70194" lon="2.09017">
        <ele>83.3</ele>
        <time>2025-01-03T18:11:39.049Z</time>
      </trkpt>
      <trkpt lat="48.70196" lon="2.09005">
        <ele>82.4</ele>
        <time>2025-01-03T18:11:43.758Z</time>
      </trkpt>
      <trkpt lat="48.70198" lon="2.08993">
        <ele>82.1</ele>
        <time>2025-01-03T18:11:48.467Z</time>
      </trkpt>
      <trkpt lat="48.702" lon="2.08981">
        <ele>81.9</ele>
        <time>2025-01-03T18:11:53.177Z</time>
      </trkpt>
      <trkpt lat="48.70203" lon="2.0897">
        <ele>81.6</ele>
        <time>2025-01-03T18:11:57.762Z</time>
      </trkpt>
      <trkpt lat="48.70207" lon="2.08964">
        <ele>81</ele>
        <time>2025-01-03T18:12:00.987Z</time>
      </trkpt>
      <trkpt lat="48.70207" lon="2.08964">
        <ele>81</ele>
        <time>2025-01-03T18:12:00.987Z</time>
        <extensions>
          <visugpx:TrkExtension xmlns:visugpx="https://www.visugpx.com/editgpx/">
            <visugpx:node>64</visugpx:node>
            </visugpx:TrkExtension>
        </extensions>
      </trkpt>
      <trkpt lat="48.70216" lon="2.08964">
        <ele>80.4</ele>
        <time>2025-01-03T18:12:06.004Z</time>
      </trkpt>
      <trkpt lat="48.70225" lon="2.08963">
        <ele>79.9</ele>
        <time>2025-01-03T18:12:11.021Z</time>
      </trkpt>
      <trkpt lat="48.70233" lon="2.08963">
        <ele>79.3</ele>
        <time>2025-01-03T18:12:16.038Z</time>
      </trkpt>
      <trkpt lat="48.70242" lon="2.08962">
        <ele>78.7</ele>
        <time>2025-01-03T18:12:21.055Z</time>
      </trkpt>
      <trkpt lat="48.70251" lon="2.08962">
        <ele>78.2</ele>
        <time>2025-01-03T18:12:26.072Z</time>
      </trkpt>
      <trkpt lat="48.7026" lon="2.08961">
        <ele>77.4</ele>
        <time>2025-01-03T18:12:31.089Z</time>
      </trkpt>
      <trkpt lat="48.70268" lon="2.08961">
        <ele>76.7</ele>
        <time>2025-01-03T18:12:36.106Z</time>
      </trkpt>
      <trkpt lat="48.70277" lon="2.0896">
        <ele>76.1</ele>
        <time>2025-01-03T18:12:41.123Z</time>
      </trkpt>
      <trkpt lat="48.70282" lon="2.08956">
        <ele>75.4</ele>
        <time>2025-01-03T18:12:44.362Z</time>
      </trkpt>
      <trkpt lat="48.70284" lon="2.08947">
        <ele>75.1</ele>
        <time>2025-01-03T18:12:48.184Z</time>
      </trkpt>
      <trkpt lat="48.70286" lon="2.08937">
        <ele>74.6</ele>
        <time>2025-01-03T18:12:52.006Z</time>
      </trkpt>
      <trkpt lat="48.70288" lon="2.08928">
        <ele>74.1</ele>
        <time>2025-01-03T18:12:55.829Z</time>
      </trkpt>
      <trkpt lat="48.7029" lon="2.08918">
        <ele>73.7</ele>
        <time>2025-01-03T18:12:59.652Z</time>
      </trkpt>
      <trkpt lat="48.70292" lon="2.08909">
        <ele>73.5</ele>
        <time>2025-01-03T18:13:03.475Z</time>
      </trkpt>
      <trkpt lat="48.70294" lon="2.08899">
        <ele>73.4</ele>
        <time>2025-01-03T18:13:07.298Z</time>
      </trkpt>
      <trkpt lat="48.70296" lon="2.0889">
        <ele>73.3</ele>
        <time>2025-01-03T18:13:11.121Z</time>
      </trkpt>
      <trkpt lat="48.70298" lon="2.0888">
        <ele>73.3</ele>
        <time>2025-01-03T18:13:14.944Z</time>
      </trkpt>
      <trkpt lat="48.70304" lon="2.08874">
        <ele>73.1</ele>
        <time>2025-01-03T18:13:19.132Z</time>
      </trkpt>
      <trkpt lat="48.70309" lon="2.08867">
        <ele>72.9</ele>
        <time>2025-01-03T18:13:23.320Z</time>
      </trkpt>
      <trkpt lat="48.70317" lon="2.08867">
        <ele>72.6</ele>
        <time>2025-01-03T18:13:27.999Z</time>
      </trkpt>
      <trkpt lat="48.70325" lon="2.08867">
        <ele>72.3</ele>
        <time>2025-01-03T18:13:32.679Z</time>
      </trkpt>
      <trkpt lat="48.70331" lon="2.08868">
        <ele>72.1</ele>
        <time>2025-01-03T18:13:36.327Z</time>
      </trkpt>
      <trkpt lat="48.70337" lon="2.08868">
        <ele>72</ele>
        <time>2025-01-03T18:13:39.975Z</time>
      </trkpt>
      <trkpt lat="48.70345" lon="2.08866">
        <ele>72</ele>
        <time>2025-01-03T18:13:45.323Z</time>
      </trkpt>
      <trkpt lat="48.70353" lon="2.08863">
        <ele>72</ele>
        <time>2025-01-03T18:13:50.672Z</time>
      </trkpt>
      <trkpt lat="48.70359" lon="2.08859">
        <ele>72</ele>
        <time>2025-01-03T18:13:54.667Z</time>
      </trkpt>
      <trkpt lat="48.70364" lon="2.08855">
        <ele>72</ele>
        <time>2025-01-03T18:13:58.662Z</time>
        <extensions>
          <visugpx:TrkExtension xmlns:visugpx="https://www.visugpx.com/editgpx/">
            <visugpx:node>65</visugpx:node>
            </visugpx:TrkExtension>
        </extensions>
      </trkpt>
      <trkpt lat="48.70364" lon="2.08855">
        <ele>72</ele>
        <time>2025-01-03T18:13:58.662Z</time>
      </trkpt>
      <trkpt lat="48.70367" lon="2.08846">
        <ele>72</ele>
        <time>2025-01-03T18:14:03.019Z</time>
      </trkpt>
      <trkpt lat="48.70366" lon="2.08833">
        <ele>72</ele>
        <time>2025-01-03T18:14:08.115Z</time>
      </trkpt>
      <trkpt lat="48.70365" lon="2.08821">
        <ele>71.5</ele>
        <time>2025-01-03T18:14:13.211Z</time>
      </trkpt>
      <trkpt lat="48.70363" lon="2.08808">
        <ele>71.1</ele>
        <time>2025-01-03T18:14:18.308Z</time>
      </trkpt>
      <trkpt lat="48.70362" lon="2.08795">
        <ele>71</ele>
        <time>2025-01-03T18:14:23.406Z</time>
      </trkpt>
      <trkpt lat="48.70363" lon="2.08786">
        <ele>71</ele>
        <time>2025-01-03T18:14:27.414Z</time>
      </trkpt>
      <trkpt lat="48.70363" lon="2.08777">
        <ele>70.9</ele>
        <time>2025-01-03T18:14:31.422Z</time>
      </trkpt>
      <trkpt lat="48.70364" lon="2.08767">
        <ele>70.9</ele>
        <time>2025-01-03T18:14:35.430Z</time>
      </trkpt>
      <trkpt lat="48.70365" lon="2.08758">
        <ele>70.9</ele>
        <time>2025-01-03T18:14:39.438Z</time>
      </trkpt>
      <trkpt lat="48.70365" lon="2.08749">
        <ele>70.8</ele>
        <time>2025-01-03T18:14:43.446Z</time>
      </trkpt>
      <trkpt lat="48.70366" lon="2.0874">
        <ele>70.8</ele>
        <time>2025-01-03T18:14:47.454Z</time>
      </trkpt>
      <trkpt lat="48.70367" lon="2.08731">
        <ele>70.8</ele>
        <time>2025-01-03T18:14:51.462Z</time>
      </trkpt>
      <trkpt lat="48.70368" lon="2.08722">
        <ele>70.8</ele>
        <time>2025-01-03T18:14:55.470Z</time>
      </trkpt>
      <trkpt lat="48.70368" lon="2.08712">
        <ele>71</ele>
        <time>2025-01-03T18:14:59.478Z</time>
      </trkpt>
      <trkpt lat="48.70369" lon="2.08703">
        <ele>71.2</ele>
        <time>2025-01-03T18:15:03.486Z</time>
      </trkpt>
      <trkpt lat="48.7037" lon="2.08694">
        <ele>71.4</ele>
        <time>2025-01-03T18:15:07.495Z</time>
      </trkpt>
      <trkpt lat="48.7037" lon="2.08685">
        <ele>71.3</ele>
        <time>2025-01-03T18:15:11.504Z</time>
      </trkpt>
      <trkpt lat="48.70371" lon="2.08676">
        <ele>71.3</ele>
        <time>2025-01-03T18:15:15.513Z</time>
      </trkpt>
      <trkpt lat="48.70372" lon="2.08666">
        <ele>71.2</ele>
        <time>2025-01-03T18:15:19.522Z</time>
      </trkpt>
      <trkpt lat="48.70372" lon="2.08657">
        <ele>71.2</ele>
        <time>2025-01-03T18:15:23.531Z</time>
      </trkpt>
      <trkpt lat="48.70373" lon="2.08648">
        <ele>71.1</ele>
        <time>2025-01-03T18:15:27.540Z</time>
      </trkpt>
      <trkpt lat="48.70374" lon="2.08638">
        <ele>71</ele>
        <time>2025-01-03T18:15:31.893Z</time>
      </trkpt>
      <trkpt lat="48.70376" lon="2.08627">
        <ele>70.9</ele>
        <time>2025-01-03T18:15:36.247Z</time>
      </trkpt>
      <trkpt lat="48.70377" lon="2.08617">
        <ele>70.8</ele>
        <time>2025-01-03T18:15:40.601Z</time>
      </trkpt>
      <trkpt lat="48.70379" lon="2.08607">
        <ele>70.7</ele>
        <time>2025-01-03T18:15:44.955Z</time>
      </trkpt>
      <trkpt lat="48.7038" lon="2.08596">
        <ele>70.5</ele>
        <time>2025-01-03T18:15:49.309Z</time>
      </trkpt>
      <trkpt lat="48.70381" lon="2.08586">
        <ele>70.3</ele>
        <time>2025-01-03T18:15:53.663Z</time>
      </trkpt>
      <trkpt lat="48.70383" lon="2.08575">
        <ele>70.2</ele>
        <time>2025-01-03T18:15:58.017Z</time>
      </trkpt>
      <trkpt lat="48.70384" lon="2.08565">
        <ele>70.2</ele>
        <time>2025-01-03T18:16:02.371Z</time>
      </trkpt>
      <trkpt lat="48.70384" lon="2.08555">
        <ele>70.2</ele>
        <time>2025-01-03T18:16:07.181Z</time>
      </trkpt>
      <trkpt lat="48.70384" lon="2.08545">
        <ele>70.5</ele>
        <time>2025-01-03T18:16:11.991Z</time>
      </trkpt>
      <trkpt lat="48.70384" lon="2.08535">
        <ele>70.8</ele>
        <time>2025-01-03T18:16:16.801Z</time>
      </trkpt>
      <trkpt lat="48.70384" lon="2.08525">
        <ele>71.1</ele>
        <time>2025-01-03T18:16:21.611Z</time>
      </trkpt>
      <trkpt lat="48.70384" lon="2.08515">
        <ele>71.4</ele>
        <time>2025-01-03T18:16:26.421Z</time>
      </trkpt>
      <trkpt lat="48.70384" lon="2.08505">
        <ele>71.7</ele>
        <time>2025-01-03T18:16:31.232Z</time>
      </trkpt>
      <trkpt lat="48.70384" lon="2.08495">
        <ele>71.9</ele>
        <time>2025-01-03T18:16:36.043Z</time>
      </trkpt>
      <trkpt lat="48.70384" lon="2.08485">
        <ele>72</ele>
        <time>2025-01-03T18:16:40.854Z</time>
      </trkpt>
      <trkpt lat="48.70385" lon="2.08477">
        <ele>72.1</ele>
        <time>2025-01-03T18:16:44.644Z</time>
      </trkpt>
      <trkpt lat="48.70385" lon="2.08468">
        <ele>72.1</ele>
        <time>2025-01-03T18:16:48.435Z</time>
      </trkpt>
      <trkpt lat="48.70387" lon="2.0846">
        <ele>72</ele>
        <time>2025-01-03T18:16:51.938Z</time>
      </trkpt>
      <trkpt lat="48.70389" lon="2.08457">
        <ele>72</ele>
        <time>2025-01-03T18:16:53.781Z</time>
      </trkpt>
      <trkpt lat="48.70385" lon="2.08451">
        <ele>72</ele>
        <time>2025-01-03T18:16:57.467Z</time>
      </trkpt>
      <trkpt lat="48.70384" lon="2.08445">
        <ele>72</ele>
        <time>2025-01-03T18:17:00.141Z</time>
      </trkpt>
      <trkpt lat="48.70383" lon="2.08437">
        <ele>72.2</ele>
        <time>2025-01-03T18:17:03.943Z</time>
      </trkpt>
      <trkpt lat="48.70382" lon="2.08429">
        <ele>72.4</ele>
        <time>2025-01-03T18:17:07.745Z</time>
      </trkpt>
      <trkpt lat="48.70382" lon="2.08421">
        <ele>72.6</ele>
        <time>2025-01-03T18:17:11.547Z</time>
      </trkpt>
      <trkpt lat="48.70381" lon="2.08413">
        <ele>72.7</ele>
        <time>2025-01-03T18:17:15.349Z</time>
      </trkpt>
      <trkpt lat="48.7038" lon="2.08404">
        <ele>72.7</ele>
        <time>2025-01-03T18:17:19.151Z</time>
      </trkpt>
      <trkpt lat="48.70379" lon="2.08396">
        <ele>72.6</ele>
        <time>2025-01-03T18:17:22.953Z</time>
      </trkpt>
      <trkpt lat="48.70378" lon="2.08388">
        <ele>72.6</ele>
        <time>2025-01-03T18:17:26.755Z</time>
      </trkpt>
      <trkpt lat="48.70378" lon="2.0838">
        <ele>72.9</ele>
        <time>2025-01-03T18:17:30.557Z</time>
      </trkpt>
      <trkpt lat="48.70377" lon="2.08372">
        <ele>73.2</ele>
        <time>2025-01-03T18:17:34.359Z</time>
      </trkpt>
      <trkpt lat="48.70376" lon="2.08364">
        <ele>73.4</ele>
        <time>2025-01-03T18:17:38.161Z</time>
      </trkpt>
      <trkpt lat="48.70375" lon="2.08356">
        <ele>73.6</ele>
        <time>2025-01-03T18:17:41.963Z</time>
      </trkpt>
      <trkpt lat="48.70374" lon="2.08348">
        <ele>73.7</ele>
        <time>2025-01-03T18:17:45.765Z</time>
      </trkpt>
      <trkpt lat="48.70373" lon="2.08339">
        <ele>73.8</ele>
        <time>2025-01-03T18:17:49.568Z</time>
      </trkpt>
      <trkpt lat="48.70373" lon="2.08331">
        <ele>73.9</ele>
        <time>2025-01-03T18:17:53.371Z</time>
      </trkpt>
      <trkpt lat="48.70372" lon="2.08323">
        <ele>73.9</ele>
        <time>2025-01-03T18:17:57.174Z</time>
      </trkpt>
      <trkpt lat="48.70371" lon="2.08315">
        <ele>73.9</ele>
        <time>2025-01-03T18:18:00.978Z</time>
      </trkpt>
      <trkpt lat="48.70369" lon="2.08304">
        <ele>73.9</ele>
        <time>2025-01-03T18:18:06.624Z</time>
      </trkpt>
      <trkpt lat="48.70366" lon="2.08294">
        <ele>74.2</ele>
        <time>2025-01-03T18:18:12.270Z</time>
      </trkpt>
      <trkpt lat="48.70364" lon="2.08283">
        <ele>74.8</ele>
        <time>2025-01-03T18:18:17.917Z</time>
      </trkpt>
      <trkpt lat="48.70361" lon="2.08272">
        <ele>75.2</ele>
        <time>2025-01-03T18:18:23.565Z</time>
      </trkpt>
      <trkpt lat="48.70357" lon="2.08263">
        <ele>75.8</ele>
        <time>2025-01-03T18:18:30.046Z</time>
      </trkpt>
      <trkpt lat="48.70353" lon="2.08253">
        <ele>76.5</ele>
        <time>2025-01-03T18:18:36.527Z</time>
      </trkpt>
      <trkpt lat="48.70348" lon="2.08244">
        <ele>77.2</ele>
        <time>2025-01-03T18:18:43.008Z</time>
      </trkpt>
      <trkpt lat="48.70344" lon="2.08234">
        <ele>77.7</ele>
        <time>2025-01-03T18:18:49.490Z</time>
      </trkpt>
      <trkpt lat="48.70338" lon="2.08226">
        <ele>77.9</ele>
        <time>2025-01-03T18:18:55.833Z</time>
      </trkpt>
      <trkpt lat="48.70333" lon="2.08219">
        <ele>78.3</ele>
        <time>2025-01-03T18:19:02.176Z</time>
      </trkpt>
      <trkpt lat="48.70327" lon="2.08211">
        <ele>79.1</ele>
        <time>2025-01-03T18:19:08.519Z</time>
      </trkpt>
      <trkpt lat="48.70321" lon="2.08204">
        <ele>79.6</ele>
        <time>2025-01-03T18:19:14.863Z</time>
      </trkpt>
      <trkpt lat="48.70315" lon="2.08196">
        <ele>80</ele>
        <time>2025-01-03T18:19:21.207Z</time>
      </trkpt>
      <trkpt lat="48.7031" lon="2.08188">
        <ele>80.4</ele>
        <time>2025-01-03T18:19:27.551Z</time>
      </trkpt>
      <trkpt lat="48.70304" lon="2.08181">
        <ele>81.2</ele>
        <time>2025-01-03T18:19:33.895Z</time>
      </trkpt>
      <trkpt lat="48.70298" lon="2.08173">
        <ele>82.2</ele>
        <time>2025-01-03T18:19:40.240Z</time>
      </trkpt>
      <trkpt lat="48.70293" lon="2.08168">
        <ele>82.9</ele>
        <time>2025-01-03T18:19:45.022Z</time>
      </trkpt>
      <trkpt lat="48.70288" lon="2.08162">
        <ele>83.2</ele>
        <time>2025-01-03T18:19:49.804Z</time>
      </trkpt>
      <trkpt lat="48.70283" lon="2.08157">
        <ele>83.6</ele>
        <time>2025-01-03T18:19:54.587Z</time>
      </trkpt>
      <trkpt lat="48.70279" lon="2.08151">
        <ele>83.9</ele>
        <time>2025-01-03T18:19:59.370Z</time>
      </trkpt>
      <trkpt lat="48.70274" lon="2.08146">
        <ele>84.2</ele>
        <time>2025-01-03T18:20:04.153Z</time>
      </trkpt>
      <trkpt lat="48.70269" lon="2.0814">
        <ele>84.3</ele>
        <time>2025-01-03T18:20:08.936Z</time>
      </trkpt>
      <trkpt lat="48.70264" lon="2.08135">
        <ele>84.7</ele>
        <time>2025-01-03T18:20:13.719Z</time>
      </trkpt>
      <trkpt lat="48.70259" lon="2.08129">
        <ele>85</ele>
        <time>2025-01-03T18:20:18.503Z</time>
        <extensions>
          <visugpx:TrkExtension xmlns:visugpx="https://www.visugpx.com/editgpx/">
            <visugpx:node>66</visugpx:node>
            </visugpx:TrkExtension>
        </extensions>
      </trkpt>
      <trkpt lat="48.70257" lon="2.08127">
        <ele>85.2</ele>
        <time>2025-01-03T18:20:20.560Z</time>
      </trkpt>
      <trkpt lat="48.70261" lon="2.0812">
        <ele>85.3</ele>
        <time>2025-01-03T18:20:24.936Z</time>
      </trkpt>
      <trkpt lat="48.70265" lon="2.08112">
        <ele>85.4</ele>
        <time>2025-01-03T18:20:29.312Z</time>
      </trkpt>
      <trkpt lat="48.70267" lon="2.08105">
        <ele>85.4</ele>
        <time>2025-01-03T18:20:32.492Z</time>
      </trkpt>
      <trkpt lat="48.70268" lon="2.08098">
        <ele>85.4</ele>
        <time>2025-01-03T18:20:35.673Z</time>
      </trkpt>
      <trkpt lat="48.70269" lon="2.08089">
        <ele>85.3</ele>
        <time>2025-01-03T18:20:39.710Z</time>
      </trkpt>
      <trkpt lat="48.70269" lon="2.0808">
        <ele>85.4</ele>
        <time>2025-01-03T18:20:43.747Z</time>
      </trkpt>
      <trkpt lat="48.7027" lon="2.08071">
        <ele>85.7</ele>
        <time>2025-01-03T18:20:47.784Z</time>
      </trkpt>
      <trkpt lat="48.7027" lon="2.08062">
        <ele>86.1</ele>
        <time>2025-01-03T18:20:51.821Z</time>
      </trkpt>
      <trkpt lat="48.70271" lon="2.08052">
        <ele>86.3</ele>
        <time>2025-01-03T18:20:55.858Z</time>
      </trkpt>
      <trkpt lat="48.70271" lon="2.08043">
        <ele>86.2</ele>
        <time>2025-01-03T18:20:59.895Z</time>
      </trkpt>
      <trkpt lat="48.70272" lon="2.08034">
        <ele>86.2</ele>
        <time>2025-01-03T18:21:03.932Z</time>
      </trkpt>
      <trkpt lat="48.70273" lon="2.08025">
        <ele>86.2</ele>
        <time>2025-01-03T18:21:07.969Z</time>
      </trkpt>
      <trkpt lat="48.70273" lon="2.08016">
        <ele>86.2</ele>
        <time>2025-01-03T18:21:12.006Z</time>
      </trkpt>
      <trkpt lat="48.70274" lon="2.08007">
        <ele>86.2</ele>
        <time>2025-01-03T18:21:16.043Z</time>
      </trkpt>
      <trkpt lat="48.70274" lon="2.07998">
        <ele>86.1</ele>
        <time>2025-01-03T18:21:20.080Z</time>
      </trkpt>
      <trkpt lat="48.70275" lon="2.07989">
        <ele>86.1</ele>
        <time>2025-01-03T18:21:24.117Z</time>
      </trkpt>
      <trkpt lat="48.70275" lon="2.07979">
        <ele>86.1</ele>
        <time>2025-01-03T18:21:28.154Z</time>
      </trkpt>
      <trkpt lat="48.70276" lon="2.0797">
        <ele>86.1</ele>
        <time>2025-01-03T18:21:32.191Z</time>
      </trkpt>
      <trkpt lat="48.70276" lon="2.07961">
        <ele>86</ele>
        <time>2025-01-03T18:21:36.229Z</time>
      </trkpt>
      <trkpt lat="48.70277" lon="2.07952">
        <ele>86</ele>
        <time>2025-01-03T18:21:40.267Z</time>
      </trkpt>
      <trkpt lat="48.70278" lon="2.07941">
        <ele>85.9</ele>
        <time>2025-01-03T18:21:44.870Z</time>
      </trkpt>
      <trkpt lat="48.70278" lon="2.07935">
        <ele>85.6</ele>
        <time>2025-01-03T18:21:47.138Z</time>
      </trkpt>
      <trkpt lat="48.70279" lon="2.07922">
        <ele>85.1</ele>
        <time>2025-01-03T18:21:52.356Z</time>
      </trkpt>
      <trkpt lat="48.7028" lon="2.0791">
        <ele>84.9</ele>
        <time>2025-01-03T18:21:57.574Z</time>
      </trkpt>
      <trkpt lat="48.70281" lon="2.07897">
        <ele>84.9</ele>
        <time>2025-01-03T18:22:02.792Z</time>
      </trkpt>
      <trkpt lat="48.70282" lon="2.07885">
        <ele>84.8</ele>
        <time>2025-01-03T18:22:08.010Z</time>
      </trkpt>
      <trkpt lat="48.70282" lon="2.07872">
        <ele>84.6</ele>
        <time>2025-01-03T18:22:13.228Z</time>
      </trkpt>
      <trkpt lat="48.70283" lon="2.07859">
        <ele>84.4</ele>
        <time>2025-01-03T18:22:18.447Z</time>
      </trkpt>
      <trkpt lat="48.70284" lon="2.07847">
        <ele>84.4</ele>
        <time>2025-01-03T18:22:23.666Z</time>
      </trkpt>
      <trkpt lat="48.70285" lon="2.07834">
        <ele>84.5</ele>
        <time>2025-01-03T18:22:28.885Z</time>
      </trkpt>
      <trkpt lat="48.70286" lon="2.07826">
        <ele>84.4</ele>
        <time>2025-01-03T18:22:32.291Z</time>
      </trkpt>
      <trkpt lat="48.70286" lon="2.07818">
        <ele>84.4</ele>
        <time>2025-01-03T18:22:35.698Z</time>
      </trkpt>
      <trkpt lat="48.70287" lon="2.0781">
        <ele>84.3</ele>
        <time>2025-01-03T18:22:39.105Z</time>
      </trkpt>
      <trkpt lat="48.70288" lon="2.07802">
        <ele>84.3</ele>
        <time>2025-01-03T18:22:42.512Z</time>
      </trkpt>
      <trkpt lat="48.70288" lon="2.07794">
        <ele>84.3</ele>
        <time>2025-01-03T18:22:45.919Z</time>
      </trkpt>
      <trkpt lat="48.70289" lon="2.07786">
        <ele>84.2</ele>
        <time>2025-01-03T18:22:49.326Z</time>
      </trkpt>
      <trkpt lat="48.70289" lon="2.07778">
        <ele>84.2</ele>
        <time>2025-01-03T18:22:52.733Z</time>
      </trkpt>
      <trkpt lat="48.7029" lon="2.0777">
        <ele>84.2</ele>
        <time>2025-01-03T18:22:56.140Z</time>
      </trkpt>
      <trkpt lat="48.70291" lon="2.07762">
        <ele>84.3</ele>
        <time>2025-01-03T18:22:59.745Z</time>
      </trkpt>
      <trkpt lat="48.70291" lon="2.07754">
        <ele>84.5</ele>
        <time>2025-01-03T18:23:03.350Z</time>
      </trkpt>
      <trkpt lat="48.70292" lon="2.07745">
        <ele>84.7</ele>
        <time>2025-01-03T18:23:06.955Z</time>
      </trkpt>
      <trkpt lat="48.70292" lon="2.07737">
        <ele>85</ele>
        <time>2025-01-03T18:23:10.560Z</time>
      </trkpt>
      <trkpt lat="48.70293" lon="2.07729">
        <ele>85.2</ele>
        <time>2025-01-03T18:23:14.166Z</time>
      </trkpt>
      <trkpt lat="48.70293" lon="2.07721">
        <ele>85.4</ele>
        <time>2025-01-03T18:23:17.772Z</time>
      </trkpt>
      <trkpt lat="48.70294" lon="2.07712">
        <ele>84.8</ele>
        <time>2025-01-03T18:23:21.378Z</time>
      </trkpt>
      <trkpt lat="48.70294" lon="2.07704">
        <ele>84.3</ele>
        <time>2025-01-03T18:23:24.984Z</time>
      </trkpt>
      <trkpt lat="48.70294" lon="2.07695">
        <ele>83.7</ele>
        <time>2025-01-03T18:23:28.605Z</time>
      </trkpt>
      <trkpt lat="48.70295" lon="2.07686">
        <ele>83.6</ele>
        <time>2025-01-03T18:23:32.226Z</time>
      </trkpt>
      <trkpt lat="48.70295" lon="2.07677">
        <ele>83.5</ele>
        <time>2025-01-03T18:23:35.847Z</time>
      </trkpt>
      <trkpt lat="48.70295" lon="2.07669">
        <ele>83.5</ele>
        <time>2025-01-03T18:23:39.468Z</time>
      </trkpt>
      <trkpt lat="48.70295" lon="2.0766">
        <ele>83.5</ele>
        <time>2025-01-03T18:23:43.089Z</time>
      </trkpt>
      <trkpt lat="48.70296" lon="2.07651">
        <ele>83.4</ele>
        <time>2025-01-03T18:23:46.710Z</time>
      </trkpt>
      <trkpt lat="48.70296" lon="2.07642">
        <ele>83.4</ele>
        <time>2025-01-03T18:23:50.331Z</time>
      </trkpt>
      <trkpt lat="48.70296" lon="2.07633">
        <ele>83.4</ele>
        <time>2025-01-03T18:23:53.953Z</time>
      </trkpt>
      <trkpt lat="48.70294" lon="2.07621">
        <ele>83.9</ele>
        <time>2025-01-03T18:23:59.974Z</time>
      </trkpt>
      <trkpt lat="48.70292" lon="2.0761">
        <ele>84.4</ele>
        <time>2025-01-03T18:24:05.995Z</time>
      </trkpt>
      <trkpt lat="48.7029" lon="2.07598">
        <ele>84.6</ele>
        <time>2025-01-03T18:24:12.016Z</time>
      </trkpt>
      <trkpt lat="48.70288" lon="2.07586">
        <ele>84.8</ele>
        <time>2025-01-03T18:24:18.039Z</time>
      </trkpt>
      <trkpt lat="48.70284" lon="2.07576">
        <ele>85.5</ele>
        <time>2025-01-03T18:24:25.016Z</time>
      </trkpt>
      <trkpt lat="48.70279" lon="2.07565">
        <ele>86.1</ele>
        <time>2025-01-03T18:24:31.995Z</time>
      </trkpt>
      <trkpt lat="48.70276" lon="2.0756">
        <ele>86.2</ele>
        <time>2025-01-03T18:24:35.002Z</time>
      </trkpt>
      <trkpt lat="48.70273" lon="2.07556">
        <ele>86.2</ele>
        <time>2025-01-03T18:24:38.009Z</time>
      </trkpt>
      <trkpt lat="48.70269" lon="2.07551">
        <ele>86.2</ele>
        <time>2025-01-03T18:24:41.017Z</time>
      </trkpt>
      <trkpt lat="48.70266" lon="2.07546">
        <ele>86.2</ele>
        <time>2025-01-03T18:24:44.026Z</time>
      </trkpt>
      <trkpt lat="48.70263" lon="2.0754">
        <ele>86.3</ele>
        <time>2025-01-03T18:24:47.696Z</time>
      </trkpt>
      <trkpt lat="48.70259" lon="2.07534">
        <ele>86.4</ele>
        <time>2025-01-03T18:24:51.366Z</time>
      </trkpt>
      <trkpt lat="48.70256" lon="2.07528">
        <ele>86.6</ele>
        <time>2025-01-03T18:24:55.037Z</time>
      </trkpt>
      <trkpt lat="48.70252" lon="2.07522">
        <ele>86.6</ele>
        <time>2025-01-03T18:24:58.709Z</time>
      </trkpt>
      <trkpt lat="48.70245" lon="2.07513">
        <ele>86.7</ele>
        <time>2025-01-03T18:25:04.679Z</time>
      </trkpt>
      <trkpt lat="48.70239" lon="2.07505">
        <ele>86.6</ele>
        <time>2025-01-03T18:25:10.649Z</time>
      </trkpt>
      <trkpt lat="48.70232" lon="2.07496">
        <ele>86.6</ele>
        <time>2025-01-03T18:25:16.620Z</time>
      </trkpt>
      <trkpt lat="48.70225" lon="2.07487">
        <ele>86.9</ele>
        <time>2025-01-03T18:25:22.592Z</time>
      </trkpt>
      <trkpt lat="48.7022" lon="2.07481">
        <ele>87.3</ele>
        <time>2025-01-03T18:25:28.035Z</time>
      </trkpt>
      <trkpt lat="48.70215" lon="2.07476">
        <ele>87.8</ele>
        <time>2025-01-03T18:25:33.478Z</time>
      </trkpt>
      <trkpt lat="48.70209" lon="2.0747">
        <ele>88.4</ele>
        <time>2025-01-03T18:25:38.921Z</time>
      </trkpt>
      <trkpt lat="48.70204" lon="2.07464">
        <ele>88.9</ele>
        <time>2025-01-03T18:25:44.366Z</time>
      </trkpt>
      <trkpt lat="48.70202" lon="2.07458">
        <ele>89.1</ele>
        <time>2025-01-03T18:25:48.127Z</time>
      </trkpt>
      <trkpt lat="48.70199" lon="2.07451">
        <ele>89.4</ele>
        <time>2025-01-03T18:25:51.888Z</time>
      </trkpt>
      <trkpt lat="48.70197" lon="2.07445">
        <ele>89.6</ele>
        <time>2025-01-03T18:25:55.649Z</time>
      </trkpt>
      <trkpt lat="48.70195" lon="2.07439">
        <ele>90</ele>
        <time>2025-01-03T18:25:59.410Z</time>
      </trkpt>
      <trkpt lat="48.70192" lon="2.07432">
        <ele>90.3</ele>
        <time>2025-01-03T18:26:03.171Z</time>
      </trkpt>
      <trkpt lat="48.7019" lon="2.07426">
        <ele>90.5</ele>
        <time>2025-01-03T18:26:06.932Z</time>
      </trkpt>
      <trkpt lat="48.70187" lon="2.07419">
        <ele>90.8</ele>
        <time>2025-01-03T18:26:10.693Z</time>
      </trkpt>
      <trkpt lat="48.70185" lon="2.07413">
        <ele>91</ele>
        <time>2025-01-03T18:26:14.456Z</time>
        <extensions>
          <visugpx:TrkExtension xmlns:visugpx="https://www.visugpx.com/editgpx/">
            <visugpx:node>67</visugpx:node>
            </visugpx:TrkExtension>
        </extensions>
      </trkpt>
      <trkpt lat="48.70183" lon="2.0741">
        <ele>91.2</ele>
        <time>2025-01-03T18:26:16.773Z</time>
      </trkpt>
      <trkpt lat="48.70183" lon="2.07401">
        <ele>91.3</ele>
        <time>2025-01-03T18:26:20.783Z</time>
      </trkpt>
      <trkpt lat="48.70182" lon="2.07392">
        <ele>91.3</ele>
        <time>2025-01-03T18:26:24.793Z</time>
      </trkpt>
      <trkpt lat="48.70182" lon="2.07382">
        <ele>91.3</ele>
        <time>2025-01-03T18:26:28.804Z</time>
      </trkpt>
      <trkpt lat="48.70181" lon="2.07373">
        <ele>91.2</ele>
        <time>2025-01-03T18:26:32.816Z</time>
      </trkpt>
      <trkpt lat="48.70179" lon="2.07366">
        <ele>91.3</ele>
        <time>2025-01-03T18:26:36.374Z</time>
      </trkpt>
      <trkpt lat="48.70178" lon="2.07359">
        <ele>91.4</ele>
        <time>2025-01-03T18:26:39.932Z</time>
      </trkpt>
      <trkpt lat="48.70176" lon="2.07352">
        <ele>91.7</ele>
        <time>2025-01-03T18:26:43.490Z</time>
      </trkpt>
      <trkpt lat="48.70174" lon="2.07345">
        <ele>91.9</ele>
        <time>2025-01-03T18:26:47.048Z</time>
      </trkpt>
      <trkpt lat="48.70172" lon="2.07338">
        <ele>92.2</ele>
        <time>2025-01-03T18:26:50.606Z</time>
      </trkpt>
      <trkpt lat="48.70171" lon="2.07331">
        <ele>92.4</ele>
        <time>2025-01-03T18:26:54.164Z</time>
      </trkpt>
      <trkpt lat="48.70169" lon="2.07324">
        <ele>92.4</ele>
        <time>2025-01-03T18:26:57.722Z</time>
      </trkpt>
      <trkpt lat="48.70167" lon="2.07317">
        <ele>92.4</ele>
        <time>2025-01-03T18:27:01.281Z</time>
      </trkpt>
      <trkpt lat="48.70168" lon="2.07316">
        <ele>92.2</ele>
        <time>2025-01-03T18:27:01.968Z</time>
        <extensions>
          <visugpx:TrkExtension xmlns:visugpx="https://www.visugpx.com/editgpx/">
            <visugpx:node>68</visugpx:node>
            </visugpx:TrkExtension>
        </extensions>
      </trkpt>
      <trkpt lat="48.70171" lon="2.07314">
        <ele>91.9</ele>
        <time>2025-01-03T18:27:03.846Z</time>
      </trkpt>
      <trkpt lat="48.70175" lon="2.07312">
        <ele>91.5</ele>
        <time>2025-01-03T18:27:06.437Z</time>
      </trkpt>
      <trkpt lat="48.7018" lon="2.0731">
        <ele>91.1</ele>
        <time>2025-01-03T18:27:09.028Z</time>
      </trkpt>
      <trkpt lat="48.70184" lon="2.07308">
        <ele>90.7</ele>
        <time>2025-01-03T18:27:11.619Z</time>
      </trkpt>
      <trkpt lat="48.70188" lon="2.07306">
        <ele>90.4</ele>
        <time>2025-01-03T18:27:14.210Z</time>
      </trkpt>
      <trkpt lat="48.70193" lon="2.07304">
        <ele>90.1</ele>
        <time>2025-01-03T18:27:16.801Z</time>
      </trkpt>
      <trkpt lat="48.70197" lon="2.07302">
        <ele>89.6</ele>
        <time>2025-01-03T18:27:19.392Z</time>
      </trkpt>
      <trkpt lat="48.70201" lon="2.073">
        <ele>88.9</ele>
        <time>2025-01-03T18:27:21.983Z</time>
      </trkpt>
      <trkpt lat="48.70206" lon="2.07298">
        <ele>88.2</ele>
        <time>2025-01-03T18:27:24.574Z</time>
      </trkpt>
      <trkpt lat="48.7021" lon="2.07295">
        <ele>87.6</ele>
        <time>2025-01-03T18:27:27.165Z</time>
      </trkpt>
      <trkpt lat="48.70214" lon="2.07293">
        <ele>87.1</ele>
        <time>2025-01-03T18:27:29.756Z</time>
      </trkpt>
      <trkpt lat="48.70218" lon="2.07291">
        <ele>86.6</ele>
        <time>2025-01-03T18:27:32.347Z</time>
      </trkpt>
      <trkpt lat="48.70223" lon="2.07289">
        <ele>86.1</ele>
        <time>2025-01-03T18:27:34.938Z</time>
      </trkpt>
      <trkpt lat="48.70227" lon="2.07287">
        <ele>85.5</ele>
        <time>2025-01-03T18:27:37.529Z</time>
      </trkpt>
      <trkpt lat="48.70231" lon="2.07285">
        <ele>84.9</ele>
        <time>2025-01-03T18:27:40.120Z</time>
      </trkpt>
      <trkpt lat="48.70236" lon="2.07283">
        <ele>84.3</ele>
        <time>2025-01-03T18:27:42.711Z</time>
      </trkpt>
      <trkpt lat="48.7024" lon="2.07281">
        <ele>83.6</ele>
        <time>2025-01-03T18:27:45.302Z</time>
      </trkpt>
      <trkpt lat="48.7024" lon="2.07272">
        <ele>84.2</ele>
        <time>2025-01-03T18:27:50.720Z</time>
        <extensions>
          <visugpx:TrkExtension xmlns:visugpx="https://www.visugpx.com/editgpx/">
            <visugpx:node>69</visugpx:node>
            </visugpx:TrkExtension>
        </extensions>
      </trkpt>
      <trkpt lat="48.70239" lon="2.07262">
        <ele>85.2</ele>
        <time>2025-01-03T18:27:55.733Z</time>
      </trkpt>
      <trkpt lat="48.70238" lon="2.07251">
        <ele>86.1</ele>
        <time>2025-01-03T18:28:00.746Z</time>
      </trkpt>
      <trkpt lat="48.70237" lon="2.07241">
        <ele>86.2</ele>
        <time>2025-01-03T18:28:05.760Z</time>
      </trkpt>
      <trkpt lat="48.70236" lon="2.0723">
        <ele>86.2</ele>
        <time>2025-01-03T18:28:10.774Z</time>
      </trkpt>
      <trkpt lat="48.70235" lon="2.0722">
        <ele>86.2</ele>
        <time>2025-01-03T18:28:15.788Z</time>
      </trkpt>
      <trkpt lat="48.70234" lon="2.07209">
        <ele>86.5</ele>
        <time>2025-01-03T18:28:20.802Z</time>
      </trkpt>
      <trkpt lat="48.70233" lon="2.07199">
        <ele>86.7</ele>
        <time>2025-01-03T18:28:25.816Z</time>
      </trkpt>
      <trkpt lat="48.70232" lon="2.07188">
        <ele>86.8</ele>
        <time>2025-01-03T18:28:30.830Z</time>
      </trkpt>
      <trkpt lat="48.70231" lon="2.07178">
        <ele>86.9</ele>
        <time>2025-01-03T18:28:35.844Z</time>
      </trkpt>
      <trkpt lat="48.7023" lon="2.07167">
        <ele>87</ele>
        <time>2025-01-03T18:28:40.858Z</time>
      </trkpt>
      <trkpt lat="48.70229" lon="2.07157">
        <ele>87</ele>
        <time>2025-01-03T18:28:45.872Z</time>
      </trkpt>
      <trkpt lat="48.70228" lon="2.07146">
        <ele>87</ele>
        <time>2025-01-03T18:28:50.886Z</time>
      </trkpt>
      <trkpt lat="48.70227" lon="2.07136">
        <ele>87</ele>
        <time>2025-01-03T18:28:55.900Z</time>
      </trkpt>
      <trkpt lat="48.70226" lon="2.07125">
        <ele>87.2</ele>
        <time>2025-01-03T18:29:00.914Z</time>
      </trkpt>
      <trkpt lat="48.70225" lon="2.07115">
        <ele>87.4</ele>
        <time>2025-01-03T18:29:05.928Z</time>
      </trkpt>
      <trkpt lat="48.70224" lon="2.07104">
        <ele>87.4</ele>
        <time>2025-01-03T18:29:10.943Z</time>
      </trkpt>
      <trkpt lat="48.70223" lon="2.07095">
        <ele>87.2</ele>
        <time>2025-01-03T18:29:14.333Z</time>
      </trkpt>
      <trkpt lat="48.70223" lon="2.07086">
        <ele>87</ele>
        <time>2025-01-03T18:29:17.723Z</time>
      </trkpt>
      <trkpt lat="48.70222" lon="2.07078">
        <ele>86.8</ele>
        <time>2025-01-03T18:29:21.113Z</time>
      </trkpt>
      <trkpt lat="48.70222" lon="2.07069">
        <ele>86.5</ele>
        <time>2025-01-03T18:29:24.503Z</time>
      </trkpt>
      <trkpt lat="48.70221" lon="2.0706">
        <ele>86.2</ele>
        <time>2025-01-03T18:29:27.893Z</time>
      </trkpt>
      <trkpt lat="48.7022" lon="2.07051">
        <ele>85.6</ele>
        <time>2025-01-03T18:29:31.283Z</time>
      </trkpt>
      <trkpt lat="48.7022" lon="2.07042">
        <ele>84.8</ele>
        <time>2025-01-03T18:29:34.674Z</time>
      </trkpt>
      <trkpt lat="48.70219" lon="2.07034">
        <ele>83.9</ele>
        <time>2025-01-03T18:29:38.065Z</time>
      </trkpt>
      <trkpt lat="48.70218" lon="2.07025">
        <ele>83.3</ele>
        <time>2025-01-03T18:29:41.456Z</time>
      </trkpt>
      <trkpt lat="48.70218" lon="2.07016">
        <ele>83.1</ele>
        <time>2025-01-03T18:29:44.847Z</time>
      </trkpt>
      <trkpt lat="48.70217" lon="2.07007">
        <ele>82.9</ele>
        <time>2025-01-03T18:29:48.238Z</time>
      </trkpt>
      <trkpt lat="48.70217" lon="2.06998">
        <ele>82.9</ele>
        <time>2025-01-03T18:29:51.629Z</time>
      </trkpt>
      <trkpt lat="48.70216" lon="2.06989">
        <ele>83.1</ele>
        <time>2025-01-03T18:29:55.020Z</time>
      </trkpt>
      <trkpt lat="48.70215" lon="2.06981">
        <ele>83.4</ele>
        <time>2025-01-03T18:29:58.411Z</time>
      </trkpt>
      <trkpt lat="48.70215" lon="2.06972">
        <ele>83.5</ele>
        <time>2025-01-03T18:30:01.802Z</time>
      </trkpt>
      <trkpt lat="48.70214" lon="2.06963">
        <ele>83.6</ele>
        <time>2025-01-03T18:30:05.194Z</time>
        <extensions>
          <visugpx:TrkExtension xmlns:visugpx="https://www.visugpx.com/editgpx/">
            <visugpx:node>70</visugpx:node>
            </visugpx:TrkExtension>
        </extensions>
      </trkpt>
      <trkpt lat="48.70213" lon="2.06961">
        <ele>83.7</ele>
        <time>2025-01-03T18:30:06.509Z</time>
      </trkpt>
      <trkpt lat="48.70219" lon="2.06961">
        <ele>83.3</ele>
        <time>2025-01-03T18:30:09.660Z</time>
      </trkpt>
      <trkpt lat="48.70224" lon="2.06961">
        <ele>82.9</ele>
        <time>2025-01-03T18:30:12.811Z</time>
      </trkpt>
      <trkpt lat="48.7023" lon="2.06961">
        <ele>82.6</ele>
        <time>2025-01-03T18:30:15.962Z</time>
      </trkpt>
      <trkpt lat="48.70235" lon="2.06961">
        <ele>82.4</ele>
        <time>2025-01-03T18:30:19.113Z</time>
      </trkpt>
      <trkpt lat="48.70241" lon="2.06961">
        <ele>82.1</ele>
        <time>2025-01-03T18:30:22.264Z</time>
      </trkpt>
      <trkpt lat="48.70246" lon="2.06961">
        <ele>81.8</ele>
        <time>2025-01-03T18:30:25.415Z</time>
      </trkpt>
      <trkpt lat="48.70252" lon="2.06961">
        <ele>81.5</ele>
        <time>2025-01-03T18:30:28.567Z</time>
      </trkpt>
      <trkpt lat="48.70257" lon="2.06961">
        <ele>81.1</ele>
        <time>2025-01-03T18:30:31.719Z</time>
      </trkpt>
      <trkpt lat="48.70257" lon="2.06953">
        <ele>80.8</ele>
        <time>2025-01-03T18:30:34.744Z</time>
      </trkpt>
      <trkpt lat="48.70257" lon="2.06945">
        <ele>80.5</ele>
        <time>2025-01-03T18:30:37.769Z</time>
        <extensions>
          <visugpx:TrkExtension xmlns:visugpx="https://www.visugpx.com/editgpx/">
            <visugpx:node>71</visugpx:node>
            </visugpx:TrkExtension>
        </extensions>
      </trkpt>
      <trkpt lat="48.70257" lon="2.06938">
        <ele>80.5</ele>
        <time>2025-01-03T18:30:40.534Z</time>
      </trkpt>
      <trkpt lat="48.70257" lon="2.06931">
        <ele>80.5</ele>
        <time>2025-01-03T18:30:43.300Z</time>
      </trkpt>
      <trkpt lat="48.70257" lon="2.06924">
        <ele>80.5</ele>
        <time>2025-01-03T18:30:46.066Z</time>
      </trkpt>
      <trkpt lat="48.70257" lon="2.06917">
        <ele>80.5</ele>
        <time>2025-01-03T18:30:48.832Z</time>
      </trkpt>
      <trkpt lat="48.70256" lon="2.0691">
        <ele>80.2</ele>
        <time>2025-01-03T18:30:51.598Z</time>
      </trkpt>
      <trkpt lat="48.70256" lon="2.06903">
        <ele>80</ele>
        <time>2025-01-03T18:30:54.364Z</time>
      </trkpt>
      <trkpt lat="48.70256" lon="2.06896">
        <ele>79.7</ele>
        <time>2025-01-03T18:30:57.130Z</time>
      </trkpt>
      <trkpt lat="48.70256" lon="2.06889">
        <ele>79.4</ele>
        <time>2025-01-03T18:30:59.897Z</time>
      </trkpt>
      <trkpt lat="48.70255" lon="2.06882">
        <ele>79.6</ele>
        <time>2025-01-03T18:31:02.785Z</time>
      </trkpt>
      <trkpt lat="48.70255" lon="2.06875">
        <ele>79.9</ele>
        <time>2025-01-03T18:31:05.674Z</time>
      </trkpt>
      <trkpt lat="48.70254" lon="2.06868">
        <ele>80.2</ele>
        <time>2025-01-03T18:31:08.563Z</time>
      </trkpt>
      <trkpt lat="48.70253" lon="2.06862">
        <ele>80.6</ele>
        <time>2025-01-03T18:31:11.452Z</time>
      </trkpt>
      <trkpt lat="48.70252" lon="2.06855">
        <ele>80.6</ele>
        <time>2025-01-03T18:31:14.341Z</time>
      </trkpt>
      <trkpt lat="48.70252" lon="2.06848">
        <ele>80.8</ele>
        <time>2025-01-03T18:31:17.230Z</time>
      </trkpt>
      <trkpt lat="48.70251" lon="2.06841">
        <ele>80.9</ele>
        <time>2025-01-03T18:31:20.119Z</time>
      </trkpt>
      <trkpt lat="48.7025" lon="2.06834">
        <ele>81</ele>
        <time>2025-01-03T18:31:23.008Z</time>
      </trkpt>
      <trkpt lat="48.70249" lon="2.06827">
        <ele>80.9</ele>
        <time>2025-01-03T18:31:25.897Z</time>
      </trkpt>
      <trkpt lat="48.70249" lon="2.0682">
        <ele>80.8</ele>
        <time>2025-01-03T18:31:28.786Z</time>
      </trkpt>
      <trkpt lat="48.70248" lon="2.06813">
        <ele>80.7</ele>
        <time>2025-01-03T18:31:31.675Z</time>
      </trkpt>
      <trkpt lat="48.70247" lon="2.06807">
        <ele>80.6</ele>
        <time>2025-01-03T18:31:34.564Z</time>
      </trkpt>
      <trkpt lat="48.70246" lon="2.068">
        <ele>80.1</ele>
        <time>2025-01-03T18:31:37.453Z</time>
      </trkpt>
      <trkpt lat="48.70246" lon="2.06793">
        <ele>79.5</ele>
        <time>2025-01-03T18:31:40.342Z</time>
      </trkpt>
      <trkpt lat="48.70245" lon="2.06786">
        <ele>79</ele>
        <time>2025-01-03T18:31:43.231Z</time>
      </trkpt>
      <trkpt lat="48.70244" lon="2.06779">
        <ele>78.4</ele>
        <time>2025-01-03T18:31:46.121Z</time>
      </trkpt>
      <trkpt lat="48.70242" lon="2.0677">
        <ele>77.8</ele>
        <time>2025-01-03T18:31:50.320Z</time>
      </trkpt>
      <trkpt lat="48.7024" lon="2.06762">
        <ele>77.2</ele>
        <time>2025-01-03T18:31:54.519Z</time>
      </trkpt>
      <trkpt lat="48.70238" lon="2.06753">
        <ele>76.7</ele>
        <time>2025-01-03T18:31:58.718Z</time>
      </trkpt>
      <trkpt lat="48.70237" lon="2.06744">
        <ele>76.7</ele>
        <time>2025-01-03T18:32:02.918Z</time>
      </trkpt>
      <trkpt lat="48.70235" lon="2.06736">
        <ele>77</ele>
        <time>2025-01-03T18:32:07.118Z</time>
      </trkpt>
      <trkpt lat="48.70233" lon="2.06727">
        <ele>77.4</ele>
        <time>2025-01-03T18:32:11.318Z</time>
      </trkpt>
      <trkpt lat="48.70231" lon="2.06718">
        <ele>78</ele>
        <time>2025-01-03T18:32:15.518Z</time>
      </trkpt>
      <trkpt lat="48.70229" lon="2.0671">
        <ele>78.8</ele>
        <time>2025-01-03T18:32:19.718Z</time>
      </trkpt>
      <trkpt lat="48.70227" lon="2.06701">
        <ele>79.7</ele>
        <time>2025-01-03T18:32:23.918Z</time>
      </trkpt>
      <trkpt lat="48.70225" lon="2.06692">
        <ele>80.7</ele>
        <time>2025-01-03T18:32:28.118Z</time>
      </trkpt>
      <trkpt lat="48.70223" lon="2.06683">
        <ele>81.6</ele>
        <time>2025-01-03T18:32:32.318Z</time>
      </trkpt>
      <trkpt lat="48.70222" lon="2.06675">
        <ele>82.3</ele>
        <time>2025-01-03T18:32:36.518Z</time>
      </trkpt>
      <trkpt lat="48.7022" lon="2.06666">
        <ele>82.3</ele>
        <time>2025-01-03T18:32:40.718Z</time>
      </trkpt>
      <trkpt lat="48.70218" lon="2.06657">
        <ele>81.6</ele>
        <time>2025-01-03T18:32:44.918Z</time>
      </trkpt>
      <trkpt lat="48.70216" lon="2.06649">
        <ele>80.9</ele>
        <time>2025-01-03T18:32:49.118Z</time>
      </trkpt>
      <trkpt lat="48.70214" lon="2.0664">
        <ele>80.3</ele>
        <time>2025-01-03T18:32:53.319Z</time>
      </trkpt>
      <trkpt lat="48.70212" lon="2.06633">
        <ele>79.6</ele>
        <time>2025-01-03T18:32:56.705Z</time>
      </trkpt>
      <trkpt lat="48.70211" lon="2.06627">
        <ele>79.1</ele>
        <time>2025-01-03T18:33:00.091Z</time>
      </trkpt>
      <trkpt lat="48.70209" lon="2.0662">
        <ele>78.7</ele>
        <time>2025-01-03T18:33:03.477Z</time>
      </trkpt>
      <trkpt lat="48.70207" lon="2.06613">
        <ele>78.5</ele>
        <time>2025-01-03T18:33:06.863Z</time>
      </trkpt>
      <trkpt lat="48.70205" lon="2.06606">
        <ele>78.8</ele>
        <time>2025-01-03T18:33:10.250Z</time>
      </trkpt>
      <trkpt lat="48.70204" lon="2.066">
        <ele>79.5</ele>
        <time>2025-01-03T18:33:13.637Z</time>
      </trkpt>
      <trkpt lat="48.70202" lon="2.06593">
        <ele>80.4</ele>
        <time>2025-01-03T18:33:17.024Z</time>
      </trkpt>
      <trkpt lat="48.702" lon="2.06586">
        <ele>81.5</ele>
        <time>2025-01-03T18:33:20.411Z</time>
      </trkpt>
      <trkpt lat="48.70198" lon="2.06579">
        <ele>82.4</ele>
        <time>2025-01-03T18:33:23.798Z</time>
      </trkpt>
      <trkpt lat="48.70197" lon="2.06573">
        <ele>83.3</ele>
        <time>2025-01-03T18:33:27.185Z</time>
      </trkpt>
      <trkpt lat="48.70195" lon="2.06566">
        <ele>84.2</ele>
        <time>2025-01-03T18:33:30.572Z</time>
      </trkpt>
      <trkpt lat="48.70193" lon="2.06559">
        <ele>84.4</ele>
        <time>2025-01-03T18:33:33.959Z</time>
      </trkpt>
      <trkpt lat="48.70191" lon="2.06552">
        <ele>84</ele>
        <time>2025-01-03T18:33:37.346Z</time>
      </trkpt>
      <trkpt lat="48.7019" lon="2.06546">
        <ele>83.3</ele>
        <time>2025-01-03T18:33:40.733Z</time>
      </trkpt>
      <trkpt lat="48.70188" lon="2.06539">
        <ele>82.7</ele>
        <time>2025-01-03T18:33:44.120Z</time>
      </trkpt>
      <trkpt lat="48.70186" lon="2.06532">
        <ele>82.2</ele>
        <time>2025-01-03T18:33:47.508Z</time>
      </trkpt>
      <trkpt lat="48.70185" lon="2.06527">
        <ele>81.9</ele>
        <time>2025-01-03T18:33:49.484Z</time>
      </trkpt>
      <trkpt lat="48.70182" lon="2.06518">
        <ele>81.2</ele>
        <time>2025-01-03T18:33:53.433Z</time>
      </trkpt>
      <trkpt lat="48.70178" lon="2.06509">
        <ele>80.9</ele>
        <time>2025-01-03T18:33:57.384Z</time>
      </trkpt>
      <trkpt lat="48.70174" lon="2.06498">
        <ele>81.4</ele>
        <time>2025-01-03T18:34:03.966Z</time>
      </trkpt>
      <trkpt lat="48.70171" lon="2.0649">
        <ele>82.8</ele>
        <time>2025-01-03T18:34:08.370Z</time>
      </trkpt>
      <trkpt lat="48.70168" lon="2.06482">
        <ele>84.3</ele>
        <time>2025-01-03T18:34:12.774Z</time>
      </trkpt>
      <trkpt lat="48.70165" lon="2.06474">
        <ele>85.3</ele>
        <time>2025-01-03T18:34:17.178Z</time>
      </trkpt>
      <trkpt lat="48.70162" lon="2.06467">
        <ele>84.4</ele>
        <time>2025-01-03T18:34:21.582Z</time>
      </trkpt>
      <trkpt lat="48.70158" lon="2.06459">
        <ele>83.3</ele>
        <time>2025-01-03T18:34:25.986Z</time>
      </trkpt>
      <trkpt lat="48.70155" lon="2.06451">
        <ele>82.4</ele>
        <time>2025-01-03T18:34:30.390Z</time>
      </trkpt>
      <trkpt lat="48.70152" lon="2.06443">
        <ele>82.1</ele>
        <time>2025-01-03T18:34:34.795Z</time>
      </trkpt>
      <trkpt lat="48.70149" lon="2.06435">
        <ele>82.8</ele>
        <time>2025-01-03T18:34:39.200Z</time>
      </trkpt>
      <trkpt lat="48.70146" lon="2.06427">
        <ele>84</ele>
        <time>2025-01-03T18:34:43.605Z</time>
      </trkpt>
      <trkpt lat="48.70143" lon="2.06419">
        <ele>85.7</ele>
        <time>2025-01-03T18:34:48.010Z</time>
      </trkpt>
      <trkpt lat="48.7014" lon="2.06411">
        <ele>86.6</ele>
        <time>2025-01-03T18:34:52.415Z</time>
      </trkpt>
      <trkpt lat="48.70137" lon="2.06404">
        <ele>86.2</ele>
        <time>2025-01-03T18:34:56.820Z</time>
      </trkpt>
      <trkpt lat="48.70133" lon="2.06396">
        <ele>85.6</ele>
        <time>2025-01-03T18:35:01.225Z</time>
      </trkpt>
      <trkpt lat="48.7013" lon="2.06388">
        <ele>85</ele>
        <time>2025-01-03T18:35:05.630Z</time>
      </trkpt>
      <trkpt lat="48.70127" lon="2.0638">
        <ele>84.5</ele>
        <time>2025-01-03T18:35:10.035Z</time>
      </trkpt>
      <trkpt lat="48.70124" lon="2.06372">
        <ele>84.6</ele>
        <time>2025-01-03T18:35:14.441Z</time>
      </trkpt>
      <trkpt lat="48.70121" lon="2.06367">
        <ele>85</ele>
        <time>2025-01-03T18:35:18.431Z</time>
      </trkpt>
      <trkpt lat="48.70118" lon="2.06361">
        <ele>85.8</ele>
        <time>2025-01-03T18:35:22.421Z</time>
      </trkpt>
      <trkpt lat="48.70115" lon="2.06356">
        <ele>86</ele>
        <time>2025-01-03T18:35:26.411Z</time>
      </trkpt>
      <trkpt lat="48.70112" lon="2.0635">
        <ele>86.1</ele>
        <time>2025-01-03T18:35:30.402Z</time>
      </trkpt>
      <trkpt lat="48.70107" lon="2.06341">
        <ele>85.3</ele>
        <time>2025-01-03T18:35:35.220Z</time>
      </trkpt>
      <trkpt lat="48.70102" lon="2.06331">
        <ele>84.6</ele>
        <time>2025-01-03T18:35:40.038Z</time>
      </trkpt>
      <trkpt lat="48.70097" lon="2.06322">
        <ele>84.1</ele>
        <time>2025-01-03T18:35:44.856Z</time>
      </trkpt>
      <trkpt lat="48.70093" lon="2.06312">
        <ele>83.8</ele>
        <time>2025-01-03T18:35:49.674Z</time>
      </trkpt>
      <trkpt lat="48.70088" lon="2.06303">
        <ele>83.9</ele>
        <time>2025-01-03T18:35:54.492Z</time>
      </trkpt>
      <trkpt lat="48.70083" lon="2.06293">
        <ele>84</ele>
        <time>2025-01-03T18:35:59.310Z</time>
      </trkpt>
      <trkpt lat="48.70078" lon="2.06284">
        <ele>84.2</ele>
        <time>2025-01-03T18:36:04.129Z</time>
      </trkpt>
      <trkpt lat="48.70073" lon="2.06274">
        <ele>84.5</ele>
        <time>2025-01-03T18:36:08.949Z</time>
      </trkpt>
      <trkpt lat="48.70069" lon="2.06268">
        <ele>84.9</ele>
        <time>2025-01-03T18:36:13.019Z</time>
      </trkpt>
      <trkpt lat="48.70065" lon="2.06263">
        <ele>85.2</ele>
        <time>2025-01-03T18:36:17.089Z</time>
      </trkpt>
      <trkpt lat="48.70061" lon="2.06257">
        <ele>85.5</ele>
        <time>2025-01-03T18:36:21.159Z</time>
      </trkpt>
      <trkpt lat="48.70057" lon="2.06252">
        <ele>85.9</ele>
        <time>2025-01-03T18:36:25.229Z</time>
      </trkpt>
      <trkpt lat="48.70053" lon="2.06246">
        <ele>86.1</ele>
        <time>2025-01-03T18:36:29.299Z</time>
      </trkpt>
      <trkpt lat="48.70049" lon="2.0624">
        <ele>86.2</ele>
        <time>2025-01-03T18:36:33.369Z</time>
      </trkpt>
      <trkpt lat="48.70045" lon="2.06235">
        <ele>86.4</ele>
        <time>2025-01-03T18:36:37.439Z</time>
      </trkpt>
      <trkpt lat="48.70041" lon="2.06229">
        <ele>86.5</ele>
        <time>2025-01-03T18:36:41.509Z</time>
      </trkpt>
      <trkpt lat="48.70037" lon="2.06223">
        <ele>86.7</ele>
        <time>2025-01-03T18:36:45.579Z</time>
      </trkpt>
      <trkpt lat="48.70033" lon="2.06218">
        <ele>86.8</ele>
        <time>2025-01-03T18:36:49.650Z</time>
      </trkpt>
      <trkpt lat="48.70029" lon="2.06212">
        <ele>87</ele>
        <time>2025-01-03T18:36:53.721Z</time>
      </trkpt>
      <trkpt lat="48.70025" lon="2.06207">
        <ele>87.1</ele>
        <time>2025-01-03T18:36:57.792Z</time>
      </trkpt>
      <trkpt lat="48.70021" lon="2.06201">
        <ele>87.2</ele>
        <time>2025-01-03T18:37:01.863Z</time>
      </trkpt>
      <trkpt lat="48.70017" lon="2.06195">
        <ele>87.4</ele>
        <time>2025-01-03T18:37:05.934Z</time>
      </trkpt>
      <trkpt lat="48.70013" lon="2.0619">
        <ele>87.7</ele>
        <time>2025-01-03T18:37:10.005Z</time>
      </trkpt>
      <trkpt lat="48.70009" lon="2.06184">
        <ele>88.1</ele>
        <time>2025-01-03T18:37:14.077Z</time>
      </trkpt>
      <trkpt lat="48.70003" lon="2.06177">
        <ele>88.5</ele>
        <time>2025-01-03T18:37:19.975Z</time>
      </trkpt>
      <trkpt lat="48.69997" lon="2.0617">
        <ele>89</ele>
        <time>2025-01-03T18:37:25.873Z</time>
      </trkpt>
      <trkpt lat="48.69991" lon="2.06163">
        <ele>89.3</ele>
        <time>2025-01-03T18:37:31.771Z</time>
      </trkpt>
      <trkpt lat="48.69985" lon="2.06157">
        <ele>89.5</ele>
        <time>2025-01-03T18:37:37.669Z</time>
      </trkpt>
      <trkpt lat="48.69979" lon="2.0615">
        <ele>89.8</ele>
        <time>2025-01-03T18:37:43.567Z</time>
      </trkpt>
      <trkpt lat="48.69973" lon="2.06143">
        <ele>90</ele>
        <time>2025-01-03T18:37:49.465Z</time>
      </trkpt>
      <trkpt lat="48.69967" lon="2.06136">
        <ele>90.4</ele>
        <time>2025-01-03T18:37:55.363Z</time>
      </trkpt>
      <trkpt lat="48.69961" lon="2.06129">
        <ele>90.8</ele>
        <time>2025-01-03T18:38:01.261Z</time>
      </trkpt>
      <trkpt lat="48.69954" lon="2.06122">
        <ele>91.3</ele>
        <time>2025-01-03T18:38:07.159Z</time>
      </trkpt>
      <trkpt lat="48.69948" lon="2.06115">
        <ele>91.7</ele>
        <time>2025-01-03T18:38:13.057Z</time>
      </trkpt>
      <trkpt lat="48.69942" lon="2.06108">
        <ele>92.2</ele>
        <time>2025-01-03T18:38:18.955Z</time>
      </trkpt>
      <trkpt lat="48.69936" lon="2.06102">
        <ele>92.6</ele>
        <time>2025-01-03T18:38:24.853Z</time>
      </trkpt>
      <trkpt lat="48.6993" lon="2.06095">
        <ele>93</ele>
        <time>2025-01-03T18:38:30.751Z</time>
      </trkpt>
      <trkpt lat="48.69924" lon="2.06088">
        <ele>93.5</ele>
        <time>2025-01-03T18:38:36.649Z</time>
      </trkpt>
      <trkpt lat="48.69918" lon="2.06081">
        <ele>94</ele>
        <time>2025-01-03T18:38:42.547Z</time>
      </trkpt>
      <trkpt lat="48.69912" lon="2.06074">
        <ele>94.7</ele>
        <time>2025-01-03T18:38:48.446Z</time>
      </trkpt>
      <trkpt lat="48.69906" lon="2.0607">
        <ele>95.2</ele>
        <time>2025-01-03T18:38:53.430Z</time>
      </trkpt>
      <trkpt lat="48.69901" lon="2.06066">
        <ele>95.8</ele>
        <time>2025-01-03T18:38:58.414Z</time>
      </trkpt>
      <trkpt lat="48.69895" lon="2.06062">
        <ele>96.3</ele>
        <time>2025-01-03T18:39:03.398Z</time>
      </trkpt>
      <trkpt lat="48.6989" lon="2.06058">
        <ele>96.9</ele>
        <time>2025-01-03T18:39:08.382Z</time>
      </trkpt>
      <trkpt lat="48.69884" lon="2.06054">
        <ele>97.2</ele>
        <time>2025-01-03T18:39:13.366Z</time>
      </trkpt>
      <trkpt lat="48.69878" lon="2.0605">
        <ele>97.5</ele>
        <time>2025-01-03T18:39:18.350Z</time>
      </trkpt>
      <trkpt lat="48.69873" lon="2.06046">
        <ele>97.8</ele>
        <time>2025-01-03T18:39:23.334Z</time>
      </trkpt>
      <trkpt lat="48.69867" lon="2.06042">
        <ele>98.2</ele>
        <time>2025-01-03T18:39:28.318Z</time>
      </trkpt>
      <trkpt lat="48.69861" lon="2.06038">
        <ele>98.6</ele>
        <time>2025-01-03T18:39:33.302Z</time>
      </trkpt>
      <trkpt lat="48.69856" lon="2.06034">
        <ele>99</ele>
        <time>2025-01-03T18:39:38.287Z</time>
      </trkpt>
      <trkpt lat="48.6985" lon="2.0603">
        <ele>99.3</ele>
        <time>2025-01-03T18:39:43.272Z</time>
      </trkpt>
      <trkpt lat="48.69845" lon="2.06026">
        <ele>99.7</ele>
        <time>2025-01-03T18:39:48.257Z</time>
      </trkpt>
      <trkpt lat="48.69839" lon="2.06022">
        <ele>100</ele>
        <time>2025-01-03T18:39:53.242Z</time>
      </trkpt>
      <trkpt lat="48.69833" lon="2.06018">
        <ele>100.4</ele>
        <time>2025-01-03T18:39:58.227Z</time>
      </trkpt>
      <trkpt lat="48.69828" lon="2.06014">
        <ele>100.7</ele>
        <time>2025-01-03T18:40:03.212Z</time>
      </trkpt>
      <trkpt lat="48.69822" lon="2.0601">
        <ele>101</ele>
        <time>2025-01-03T18:40:08.198Z</time>
      </trkpt>
      <trkpt lat="48.69815" lon="2.06006">
        <ele>101.4</ele>
        <time>2025-01-03T18:40:13.888Z</time>
      </trkpt>
      <trkpt lat="48.69809" lon="2.06002">
        <ele>101.8</ele>
        <time>2025-01-03T18:40:19.579Z</time>
      </trkpt>
      <trkpt lat="48.69802" lon="2.05998">
        <ele>102.3</ele>
        <time>2025-01-03T18:40:25.270Z</time>
      </trkpt>
      <trkpt lat="48.69795" lon="2.05994">
        <ele>102.9</ele>
        <time>2025-01-03T18:40:30.961Z</time>
      </trkpt>
      <trkpt lat="48.69788" lon="2.0599">
        <ele>103.4</ele>
        <time>2025-01-03T18:40:36.652Z</time>
      </trkpt>
      <trkpt lat="48.69782" lon="2.05986">
        <ele>103.8</ele>
        <time>2025-01-03T18:40:42.343Z</time>
      </trkpt>
      <trkpt lat="48.69775" lon="2.05982">
        <ele>104.1</ele>
        <time>2025-01-03T18:40:48.034Z</time>
      </trkpt>
      <trkpt lat="48.69768" lon="2.05978">
        <ele>104.3</ele>
        <time>2025-01-03T18:40:53.726Z</time>
        <extensions>
          <visugpx:TrkExtension xmlns:visugpx="https://www.visugpx.com/editgpx/">
            <visugpx:node>72</visugpx:node>
            </visugpx:TrkExtension>
        </extensions>
      </trkpt>
      <trkpt lat="48.69764" lon="2.05976">
        <ele>104.4</ele>
        <time>2025-01-03T18:40:56.696Z</time>
      </trkpt>
      <trkpt lat="48.69757" lon="2.05971">
        <ele>104.8</ele>
        <time>2025-01-03T18:41:02.616Z</time>
      </trkpt>
      <trkpt lat="48.69749" lon="2.05967">
        <ele>105.2</ele>
        <time>2025-01-03T18:41:08.536Z</time>
      </trkpt>
      <trkpt lat="48.69742" lon="2.05962">
        <ele>105.4</ele>
        <time>2025-01-03T18:41:14.456Z</time>
      </trkpt>
      <trkpt lat="48.69734" lon="2.05957">
        <ele>105.5</ele>
        <time>2025-01-03T18:41:20.377Z</time>
      </trkpt>
      <trkpt lat="48.69726" lon="2.05954">
        <ele>105.7</ele>
        <time>2025-01-03T18:41:25.729Z</time>
      </trkpt>
      <trkpt lat="48.69718" lon="2.0595">
        <ele>105.6</ele>
        <time>2025-01-03T18:41:31.082Z</time>
      </trkpt>
      <trkpt lat="48.6971" lon="2.05947">
        <ele>105.5</ele>
        <time>2025-01-03T18:41:36.435Z</time>
      </trkpt>
      <trkpt lat="48.69702" lon="2.05943">
        <ele>105.3</ele>
        <time>2025-01-03T18:41:41.789Z</time>
      </trkpt>
      <trkpt lat="48.69697" lon="2.05941">
        <ele>105.2</ele>
        <time>2025-01-03T18:41:44.773Z</time>
      </trkpt>
      <trkpt lat="48.69693" lon="2.0594">
        <ele>105</ele>
        <time>2025-01-03T18:41:47.757Z</time>
      </trkpt>
      <trkpt lat="48.69688" lon="2.05938">
        <ele>104.8</ele>
        <time>2025-01-03T18:41:50.741Z</time>
      </trkpt>
      <trkpt lat="48.69683" lon="2.05937">
        <ele>104.5</ele>
        <time>2025-01-03T18:41:53.726Z</time>
      </trkpt>
      <trkpt lat="48.69679" lon="2.05935">
        <ele>104.2</ele>
        <time>2025-01-03T18:41:56.711Z</time>
      </trkpt>
      <trkpt lat="48.69674" lon="2.05934">
        <ele>103.9</ele>
        <time>2025-01-03T18:41:59.696Z</time>
      </trkpt>
      <trkpt lat="48.69669" lon="2.05932">
        <ele>103.6</ele>
        <time>2025-01-03T18:42:02.681Z</time>
      </trkpt>
      <trkpt lat="48.69665" lon="2.05931">
        <ele>103.5</ele>
        <time>2025-01-03T18:42:05.666Z</time>
      </trkpt>
      <trkpt lat="48.6966" lon="2.05929">
        <ele>103.6</ele>
        <time>2025-01-03T18:42:08.651Z</time>
      </trkpt>
      <trkpt lat="48.69655" lon="2.05927">
        <ele>103.6</ele>
        <time>2025-01-03T18:42:11.636Z</time>
      </trkpt>
      <trkpt lat="48.6965" lon="2.05926">
        <ele>103.7</ele>
        <time>2025-01-03T18:42:14.621Z</time>
      </trkpt>
      <trkpt lat="48.69646" lon="2.05924">
        <ele>103.7</ele>
        <time>2025-01-03T18:42:17.606Z</time>
      </trkpt>
      <trkpt lat="48.69641" lon="2.05923">
        <ele>103.8</ele>
        <time>2025-01-03T18:42:20.591Z</time>
      </trkpt>
      <trkpt lat="48.69636" lon="2.05921">
        <ele>103.8</ele>
        <time>2025-01-03T18:42:23.576Z</time>
      </trkpt>
      <trkpt lat="48.69632" lon="2.0592">
        <ele>103.9</ele>
        <time>2025-01-03T18:42:26.561Z</time>
      </trkpt>
      <trkpt lat="48.69627" lon="2.05918">
        <ele>104</ele>
        <time>2025-01-03T18:42:29.547Z</time>
      </trkpt>
      <trkpt lat="48.6962" lon="2.05916">
        <ele>104</ele>
        <time>2025-01-03T18:42:34.507Z</time>
      </trkpt>
      <trkpt lat="48.69613" lon="2.05915">
        <ele>104.2</ele>
        <time>2025-01-03T18:42:39.468Z</time>
      </trkpt>
      <trkpt lat="48.69606" lon="2.05913">
        <ele>104.3</ele>
        <time>2025-01-03T18:42:44.429Z</time>
      </trkpt>
      <trkpt lat="48.69599" lon="2.05911">
        <ele>104.4</ele>
        <time>2025-01-03T18:42:49.390Z</time>
      </trkpt>
      <trkpt lat="48.69591" lon="2.05909">
        <ele>104.5</ele>
        <time>2025-01-03T18:42:54.351Z</time>
      </trkpt>
      <trkpt lat="48.69584" lon="2.05908">
        <ele>104.7</ele>
        <time>2025-01-03T18:42:59.312Z</time>
      </trkpt>
      <trkpt lat="48.69577" lon="2.05906">
        <ele>104.8</ele>
        <time>2025-01-03T18:43:04.273Z</time>
      </trkpt>
      <trkpt lat="48.6957" lon="2.05904">
        <ele>104.9</ele>
        <time>2025-01-03T18:43:09.235Z</time>
        <extensions>
          <visugpx:TrkExtension xmlns:visugpx="https://www.visugpx.com/editgpx/">
            <visugpx:node>73</visugpx:node>
            </visugpx:TrkExtension>
        </extensions>
      </trkpt>
      <trkpt lat="48.69566" lon="2.05903">
        <ele>105</ele>
        <time>2025-01-03T18:43:12.102Z</time>
      </trkpt>
      <trkpt lat="48.69558" lon="2.05903">
        <ele>105</ele>
        <time>2025-01-03T18:43:17.379Z</time>
      </trkpt>
      <trkpt lat="48.69549" lon="2.05904">
        <ele>104.7</ele>
        <time>2025-01-03T18:43:22.656Z</time>
      </trkpt>
      <trkpt lat="48.69541" lon="2.05904">
        <ele>104.4</ele>
        <time>2025-01-03T18:43:27.933Z</time>
      </trkpt>
      <trkpt lat="48.69532" lon="2.05905">
        <ele>104</ele>
        <time>2025-01-03T18:43:33.210Z</time>
      </trkpt>
      <trkpt lat="48.69524" lon="2.05905">
        <ele>103.8</ele>
        <time>2025-01-03T18:43:38.487Z</time>
      </trkpt>
      <trkpt lat="48.69515" lon="2.05905">
        <ele>103.8</ele>
        <time>2025-01-03T18:43:43.764Z</time>
      </trkpt>
      <trkpt lat="48.69507" lon="2.05906">
        <ele>103.8</ele>
        <time>2025-01-03T18:43:49.041Z</time>
      </trkpt>
      <trkpt lat="48.69498" lon="2.05906">
        <ele>103.8</ele>
        <time>2025-01-03T18:43:54.318Z</time>
      </trkpt>
      <trkpt lat="48.6949" lon="2.05909">
        <ele>103.8</ele>
        <time>2025-01-03T18:44:00.410Z</time>
      </trkpt>
      <trkpt lat="48.69482" lon="2.05913">
        <ele>103.8</ele>
        <time>2025-01-03T18:44:06.502Z</time>
      </trkpt>
      <trkpt lat="48.69474" lon="2.05916">
        <ele>104</ele>
        <time>2025-01-03T18:44:12.595Z</time>
      </trkpt>
      <trkpt lat="48.69466" lon="2.0592">
        <ele>104.3</ele>
        <time>2025-01-03T18:44:18.688Z</time>
      </trkpt>
      <trkpt lat="48.69458" lon="2.05923">
        <ele>104.8</ele>
        <time>2025-01-03T18:44:24.781Z</time>
      </trkpt>
      <trkpt lat="48.6945" lon="2.05926">
        <ele>105.3</ele>
        <time>2025-01-03T18:44:30.874Z</time>
      </trkpt>
      <trkpt lat="48.69442" lon="2.0593">
        <ele>105.7</ele>
        <time>2025-01-03T18:44:36.967Z</time>
      </trkpt>
      <trkpt lat="48.69434" lon="2.05933">
        <ele>106.2</ele>
        <time>2025-01-03T18:44:43.061Z</time>
      </trkpt>
      <trkpt lat="48.69428" lon="2.05937">
        <ele>106.5</ele>
        <time>2025-01-03T18:44:48.381Z</time>
      </trkpt>
      <trkpt lat="48.69421" lon="2.05941">
        <ele>106.8</ele>
        <time>2025-01-03T18:44:53.701Z</time>
      </trkpt>
      <trkpt lat="48.69415" lon="2.05945">
        <ele>107.1</ele>
        <time>2025-01-03T18:44:59.021Z</time>
      </trkpt>
      <trkpt lat="48.69408" lon="2.05949">
        <ele>107.5</ele>
        <time>2025-01-03T18:45:04.343Z</time>
        <extensions>
          <visugpx:TrkExtension xmlns:visugpx="https://www.visugpx.com/editgpx/">
            <visugpx:node>74</visugpx:node>
            </visugpx:TrkExtension>
        </extensions>
      </trkpt>
      <trkpt lat="48.69404" lon="2.05952">
        <ele>107.6</ele>
        <time>2025-01-03T18:45:07.477Z</time>
      </trkpt>
      <trkpt lat="48.69397" lon="2.05957">
        <ele>108</ele>
        <time>2025-01-03T18:45:12.841Z</time>
      </trkpt>
      <trkpt lat="48.69391" lon="2.05961">
        <ele>108.3</ele>
        <time>2025-01-03T18:45:18.205Z</time>
      </trkpt>
      <trkpt lat="48.69384" lon="2.05966">
        <ele>108.6</ele>
        <time>2025-01-03T18:45:23.570Z</time>
      </trkpt>
      <trkpt lat="48.69377" lon="2.05971">
        <ele>108.9</ele>
        <time>2025-01-03T18:45:28.935Z</time>
      </trkpt>
      <trkpt lat="48.6937" lon="2.05975">
        <ele>109.2</ele>
        <time>2025-01-03T18:45:34.300Z</time>
      </trkpt>
      <trkpt lat="48.69364" lon="2.0598">
        <ele>109.3</ele>
        <time>2025-01-03T18:45:39.665Z</time>
      </trkpt>
      <trkpt lat="48.69357" lon="2.05984">
        <ele>109.5</ele>
        <time>2025-01-03T18:45:45.030Z</time>
      </trkpt>
      <trkpt lat="48.6935" lon="2.05989">
        <ele>109.5</ele>
        <time>2025-01-03T18:45:50.396Z</time>
      </trkpt>
      <trkpt lat="48.69346" lon="2.05992">
        <ele>109.5</ele>
        <time>2025-01-03T18:45:53.530Z</time>
      </trkpt>
      <trkpt lat="48.69341" lon="2.05994">
        <ele>109.5</ele>
        <time>2025-01-03T18:45:56.664Z</time>
      </trkpt>
      <trkpt lat="48.69337" lon="2.05997">
        <ele>109.3</ele>
        <time>2025-01-03T18:45:59.799Z</time>
      </trkpt>
      <trkpt lat="48.69332" lon="2.05999">
        <ele>109.2</ele>
        <time>2025-01-03T18:46:02.934Z</time>
      </trkpt>
      <trkpt lat="48.69328" lon="2.06002">
        <ele>109.3</ele>
        <time>2025-01-03T18:46:06.069Z</time>
      </trkpt>
      <trkpt lat="48.69323" lon="2.06004">
        <ele>109.3</ele>
        <time>2025-01-03T18:46:09.204Z</time>
      </trkpt>
      <trkpt lat="48.69319" lon="2.06007">
        <ele>109.4</ele>
        <time>2025-01-03T18:46:12.339Z</time>
      </trkpt>
      <trkpt lat="48.69315" lon="2.0601">
        <ele>109.4</ele>
        <time>2025-01-03T18:46:15.474Z</time>
      </trkpt>
      <trkpt lat="48.6931" lon="2.06012">
        <ele>109.4</ele>
        <time>2025-01-03T18:46:18.609Z</time>
      </trkpt>
      <trkpt lat="48.69306" lon="2.06015">
        <ele>109.4</ele>
        <time>2025-01-03T18:46:21.744Z</time>
      </trkpt>
      <trkpt lat="48.69301" lon="2.06017">
        <ele>109.5</ele>
        <time>2025-01-03T18:46:24.879Z</time>
      </trkpt>
      <trkpt lat="48.69297" lon="2.0602">
        <ele>109.6</ele>
        <time>2025-01-03T18:46:28.014Z</time>
      </trkpt>
      <trkpt lat="48.69292" lon="2.06022">
        <ele>109.6</ele>
        <time>2025-01-03T18:46:31.149Z</time>
      </trkpt>
      <trkpt lat="48.69288" lon="2.06025">
        <ele>109.6</ele>
        <time>2025-01-03T18:46:34.284Z</time>
      </trkpt>
      <trkpt lat="48.69283" lon="2.06027">
        <ele>109.6</ele>
        <time>2025-01-03T18:46:37.419Z</time>
      </trkpt>
      <trkpt lat="48.69279" lon="2.0603">
        <ele>109.7</ele>
        <time>2025-01-03T18:46:40.555Z</time>
      </trkpt>
      <trkpt lat="48.69274" lon="2.06032">
        <ele>109.7</ele>
        <time>2025-01-03T18:46:43.834Z</time>
      </trkpt>
      <trkpt lat="48.6927" lon="2.06035">
        <ele>109.8</ele>
        <time>2025-01-03T18:46:47.113Z</time>
      </trkpt>
      <trkpt lat="48.69265" lon="2.06037">
        <ele>109.8</ele>
        <time>2025-01-03T18:46:50.393Z</time>
      </trkpt>
      <trkpt lat="48.69261" lon="2.06039">
        <ele>109.7</ele>
        <time>2025-01-03T18:46:53.673Z</time>
      </trkpt>
      <trkpt lat="48.69256" lon="2.06042">
        <ele>109.7</ele>
        <time>2025-01-03T18:46:56.953Z</time>
      </trkpt>
      <trkpt lat="48.69252" lon="2.06044">
        <ele>109.6</ele>
        <time>2025-01-03T18:47:00.233Z</time>
      </trkpt>
      <trkpt lat="48.69247" lon="2.06046">
        <ele>109.6</ele>
        <time>2025-01-03T18:47:03.513Z</time>
      </trkpt>
      <trkpt lat="48.69243" lon="2.06049">
        <ele>109.6</ele>
        <time>2025-01-03T18:47:06.793Z</time>
      </trkpt>
      <trkpt lat="48.69238" lon="2.06051">
        <ele>109.6</ele>
        <time>2025-01-03T18:47:10.073Z</time>
      </trkpt>
      <trkpt lat="48.69233" lon="2.06053">
        <ele>109.6</ele>
        <time>2025-01-03T18:47:13.353Z</time>
      </trkpt>
      <trkpt lat="48.69229" lon="2.06055">
        <ele>109.6</ele>
        <time>2025-01-03T18:47:16.633Z</time>
      </trkpt>
      <trkpt lat="48.69224" lon="2.06058">
        <ele>109.5</ele>
        <time>2025-01-03T18:47:19.913Z</time>
      </trkpt>
      <trkpt lat="48.6922" lon="2.0606">
        <ele>109.7</ele>
        <time>2025-01-03T18:47:23.193Z</time>
      </trkpt>
      <trkpt lat="48.69215" lon="2.06062">
        <ele>110</ele>
        <time>2025-01-03T18:47:26.473Z</time>
      </trkpt>
      <trkpt lat="48.69211" lon="2.06065">
        <ele>110.4</ele>
        <time>2025-01-03T18:47:29.753Z</time>
      </trkpt>
      <trkpt lat="48.69206" lon="2.06067">
        <ele>110.7</ele>
        <time>2025-01-03T18:47:33.034Z</time>
      </trkpt>
      <trkpt lat="48.69201" lon="2.0607">
        <ele>111</ele>
        <time>2025-01-03T18:47:37.241Z</time>
        <extensions>
          <visugpx:TrkExtension xmlns:visugpx="https://www.visugpx.com/editgpx/">
            <visugpx:node>75</visugpx:node>
            </visugpx:TrkExtension>
        </extensions>
      </trkpt>
      <trkpt lat="48.69196" lon="2.06072">
        <ele>111.4</ele>
        <time>2025-01-03T18:47:41.387Z</time>
      </trkpt>
      <trkpt lat="48.69191" lon="2.06074">
        <ele>111.8</ele>
        <time>2025-01-03T18:47:45.533Z</time>
      </trkpt>
      <trkpt lat="48.69186" lon="2.06076">
        <ele>112.2</ele>
        <time>2025-01-03T18:47:49.679Z</time>
      </trkpt>
      <trkpt lat="48.69182" lon="2.06079">
        <ele>112.6</ele>
        <time>2025-01-03T18:47:53.825Z</time>
      </trkpt>
      <trkpt lat="48.69177" lon="2.06081">
        <ele>113</ele>
        <time>2025-01-03T18:47:57.971Z</time>
      </trkpt>
      <trkpt lat="48.69172" lon="2.06083">
        <ele>113.4</ele>
        <time>2025-01-03T18:48:02.118Z</time>
      </trkpt>
      <trkpt lat="48.69167" lon="2.06085">
        <ele>113.7</ele>
        <time>2025-01-03T18:48:06.265Z</time>
      </trkpt>
      <trkpt lat="48.69162" lon="2.06087">
        <ele>113.8</ele>
        <time>2025-01-03T18:48:10.413Z</time>
      </trkpt>
      <trkpt lat="48.69155" lon="2.06089">
        <ele>114</ele>
        <time>2025-01-03T18:48:14.981Z</time>
      </trkpt>
      <trkpt lat="48.69149" lon="2.06091">
        <ele>114.2</ele>
        <time>2025-01-03T18:48:19.549Z</time>
      </trkpt>
      <trkpt lat="48.69142" lon="2.06093">
        <ele>114.4</ele>
        <time>2025-01-03T18:48:24.117Z</time>
      </trkpt>
      <trkpt lat="48.69136" lon="2.06095">
        <ele>114.5</ele>
        <time>2025-01-03T18:48:28.685Z</time>
      </trkpt>
      <trkpt lat="48.69129" lon="2.06096">
        <ele>114.5</ele>
        <time>2025-01-03T18:48:33.253Z</time>
      </trkpt>
      <trkpt lat="48.69122" lon="2.06098">
        <ele>114.4</ele>
        <time>2025-01-03T18:48:37.821Z</time>
      </trkpt>
      <trkpt lat="48.69116" lon="2.061">
        <ele>114.4</ele>
        <time>2025-01-03T18:48:42.389Z</time>
      </trkpt>
      <trkpt lat="48.69109" lon="2.06102">
        <ele>114.4</ele>
        <time>2025-01-03T18:48:46.958Z</time>
      </trkpt>
      <trkpt lat="48.69102" lon="2.06103">
        <ele>114.5</ele>
        <time>2025-01-03T18:48:51.368Z</time>
      </trkpt>
      <trkpt lat="48.69096" lon="2.06104">
        <ele>114.6</ele>
        <time>2025-01-03T18:48:55.779Z</time>
      </trkpt>
      <trkpt lat="48.69089" lon="2.06105">
        <ele>114.7</ele>
        <time>2025-01-03T18:49:00.190Z</time>
      </trkpt>
      <trkpt lat="48.69082" lon="2.06106">
        <ele>114.8</ele>
        <time>2025-01-03T18:49:04.601Z</time>
      </trkpt>
      <trkpt lat="48.69075" lon="2.06106">
        <ele>114.7</ele>
        <time>2025-01-03T18:49:09.012Z</time>
      </trkpt>
      <trkpt lat="48.69069" lon="2.06107">
        <ele>114.6</ele>
        <time>2025-01-03T18:49:13.423Z</time>
      </trkpt>
      <trkpt lat="48.69062" lon="2.06108">
        <ele>114.4</ele>
        <time>2025-01-03T18:49:17.834Z</time>
      </trkpt>
      <trkpt lat="48.69055" lon="2.06109">
        <ele>114.3</ele>
        <time>2025-01-03T18:49:22.246Z</time>
      </trkpt>
      <trkpt lat="48.69047" lon="2.06109">
        <ele>114.6</ele>
        <time>2025-01-03T18:49:28.183Z</time>
      </trkpt>
      <trkpt lat="48.69038" lon="2.0611">
        <ele>114.9</ele>
        <time>2025-01-03T18:49:34.121Z</time>
      </trkpt>
      <trkpt lat="48.6903" lon="2.0611">
        <ele>115.1</ele>
        <time>2025-01-03T18:49:40.059Z</time>
      </trkpt>
      <trkpt lat="48.69022" lon="2.0611">
        <ele>115.4</ele>
        <time>2025-01-03T18:49:45.997Z</time>
      </trkpt>
      <trkpt lat="48.69013" lon="2.0611">
        <ele>115.6</ele>
        <time>2025-01-03T18:49:51.935Z</time>
      </trkpt>
      <trkpt lat="48.69005" lon="2.06111">
        <ele>115.9</ele>
        <time>2025-01-03T18:49:57.873Z</time>
      </trkpt>
      <trkpt lat="48.68996" lon="2.06111">
        <ele>116</ele>
        <time>2025-01-03T18:50:03.811Z</time>
      </trkpt>
      <trkpt lat="48.68988" lon="2.06111">
        <ele>116</ele>
        <time>2025-01-03T18:50:09.749Z</time>
      </trkpt>
      <trkpt lat="48.68981" lon="2.06111">
        <ele>116</ele>
        <time>2025-01-03T18:50:14.868Z</time>
      </trkpt>
      <trkpt lat="48.68973" lon="2.06112">
        <ele>115.9</ele>
        <time>2025-01-03T18:50:19.988Z</time>
      </trkpt>
      <trkpt lat="48.68966" lon="2.06112">
        <ele>116.2</ele>
        <time>2025-01-03T18:50:25.108Z</time>
      </trkpt>
      <trkpt lat="48.68958" lon="2.06112">
        <ele>116.4</ele>
        <time>2025-01-03T18:50:30.228Z</time>
        <extensions>
          <visugpx:TrkExtension xmlns:visugpx="https://www.visugpx.com/editgpx/">
            <visugpx:node>76</visugpx:node>
            </visugpx:TrkExtension>
        </extensions>
      </trkpt>
      <trkpt lat="48.68954" lon="2.06112">
        <ele>116.5</ele>
        <time>2025-01-03T18:50:33.060Z</time>
      </trkpt>
      <trkpt lat="48.6895" lon="2.06112">
        <ele>116.7</ele>
        <time>2025-01-03T18:50:36.057Z</time>
      </trkpt>
      <trkpt lat="48.68945" lon="2.06112">
        <ele>116.9</ele>
        <time>2025-01-03T18:50:39.055Z</time>
      </trkpt>
      <trkpt lat="48.68941" lon="2.06112">
        <ele>116.7</ele>
        <time>2025-01-03T18:50:42.053Z</time>
      </trkpt>
      <trkpt lat="48.68936" lon="2.06112">
        <ele>116.6</ele>
        <time>2025-01-03T18:50:45.051Z</time>
      </trkpt>
      <trkpt lat="48.68927" lon="2.06114">
        <ele>116</ele>
        <time>2025-01-03T18:50:50.385Z</time>
      </trkpt>
      <trkpt lat="48.68918" lon="2.06115">
        <ele>115.5</ele>
        <time>2025-01-03T18:50:55.719Z</time>
      </trkpt>
      <trkpt lat="48.68909" lon="2.06117">
        <ele>115.2</ele>
        <time>2025-01-03T18:51:01.053Z</time>
      </trkpt>
      <trkpt lat="48.68901" lon="2.06119">
        <ele>114.9</ele>
        <time>2025-01-03T18:51:06.387Z</time>
      </trkpt>
      <trkpt lat="48.68892" lon="2.0612">
        <ele>114.7</ele>
        <time>2025-01-03T18:51:11.721Z</time>
      </trkpt>
      <trkpt lat="48.68883" lon="2.06122">
        <ele>114.6</ele>
        <time>2025-01-03T18:51:17.055Z</time>
      </trkpt>
      <trkpt lat="48.68874" lon="2.06123">
        <ele>114.5</ele>
        <time>2025-01-03T18:51:22.390Z</time>
      </trkpt>
      <trkpt lat="48.68865" lon="2.06125">
        <ele>114.4</ele>
        <time>2025-01-03T18:51:27.725Z</time>
      </trkpt>
      <trkpt lat="48.68861" lon="2.06126">
        <ele>114.3</ele>
        <time>2025-01-03T18:51:30.635Z</time>
      </trkpt>
      <trkpt lat="48.68856" lon="2.06128">
        <ele>114</ele>
        <time>2025-01-03T18:51:33.545Z</time>
      </trkpt>
      <trkpt lat="48.68852" lon="2.06129">
        <ele>113.8</ele>
        <time>2025-01-03T18:51:36.455Z</time>
      </trkpt>
      <trkpt lat="48.68847" lon="2.0613">
        <ele>113.6</ele>
        <time>2025-01-03T18:51:39.365Z</time>
      </trkpt>
      <trkpt lat="48.68843" lon="2.06132">
        <ele>113.5</ele>
        <time>2025-01-03T18:51:42.276Z</time>
      </trkpt>
      <trkpt lat="48.68838" lon="2.06133">
        <ele>113.4</ele>
        <time>2025-01-03T18:51:45.187Z</time>
      </trkpt>
      <trkpt lat="48.68834" lon="2.06134">
        <ele>113.3</ele>
        <time>2025-01-03T18:51:48.098Z</time>
      </trkpt>
      <trkpt lat="48.6883" lon="2.06136">
        <ele>113.3</ele>
        <time>2025-01-03T18:51:51.009Z</time>
      </trkpt>
      <trkpt lat="48.68825" lon="2.06137">
        <ele>113.4</ele>
        <time>2025-01-03T18:51:53.920Z</time>
      </trkpt>
      <trkpt lat="48.68821" lon="2.06138">
        <ele>113.5</ele>
        <time>2025-01-03T18:51:56.831Z</time>
      </trkpt>
      <trkpt lat="48.68816" lon="2.06139">
        <ele>113.5</ele>
        <time>2025-01-03T18:51:59.742Z</time>
      </trkpt>
      <trkpt lat="48.68812" lon="2.06141">
        <ele>113.5</ele>
        <time>2025-01-03T18:52:02.653Z</time>
      </trkpt>
      <trkpt lat="48.68807" lon="2.06142">
        <ele>113.5</ele>
        <time>2025-01-03T18:52:05.564Z</time>
      </trkpt>
      <trkpt lat="48.68803" lon="2.06143">
        <ele>113.6</ele>
        <time>2025-01-03T18:52:08.475Z</time>
      </trkpt>
      <trkpt lat="48.68798" lon="2.06145">
        <ele>113.8</ele>
        <time>2025-01-03T18:52:11.386Z</time>
      </trkpt>
      <trkpt lat="48.68794" lon="2.06146">
        <ele>114</ele>
        <time>2025-01-03T18:52:14.298Z</time>
        <extensions>
          <visugpx:TrkExtension xmlns:visugpx="https://www.visugpx.com/editgpx/">
            <visugpx:node>77</visugpx:node>
            </visugpx:TrkExtension>
        </extensions>
      </trkpt>
      <trkpt lat="48.68788" lon="2.06148">
        <ele>114.4</ele>
        <time>2025-01-03T18:52:19.499Z</time>
      </trkpt>
      <trkpt lat="48.68781" lon="2.0615">
        <ele>114.9</ele>
        <time>2025-01-03T18:52:24.700Z</time>
      </trkpt>
      <trkpt lat="48.68775" lon="2.06152">
        <ele>115.2</ele>
        <time>2025-01-03T18:52:29.901Z</time>
      </trkpt>
      <trkpt lat="48.68768" lon="2.06154">
        <ele>115.5</ele>
        <time>2025-01-03T18:52:35.103Z</time>
      </trkpt>
      <trkpt lat="48.6876" lon="2.06157">
        <ele>116</ele>
        <time>2025-01-03T18:52:41.212Z</time>
      </trkpt>
      <trkpt lat="48.68752" lon="2.0616">
        <ele>116.6</ele>
        <time>2025-01-03T18:52:47.321Z</time>
      </trkpt>
      <trkpt lat="48.68743" lon="2.06163">
        <ele>117.2</ele>
        <time>2025-01-03T18:52:53.431Z</time>
      </trkpt>
      <trkpt lat="48.68735" lon="2.06166">
        <ele>118</ele>
        <time>2025-01-03T18:52:59.541Z</time>
      </trkpt>
      <trkpt lat="48.68727" lon="2.06168">
        <ele>118.3</ele>
        <time>2025-01-03T18:53:05.651Z</time>
      </trkpt>
      <trkpt lat="48.68719" lon="2.06171">
        <ele>118.1</ele>
        <time>2025-01-03T18:53:11.761Z</time>
      </trkpt>
      <trkpt lat="48.6871" lon="2.06174">
        <ele>117.7</ele>
        <time>2025-01-03T18:53:17.871Z</time>
      </trkpt>
      <trkpt lat="48.68702" lon="2.06177">
        <ele>117.6</ele>
        <time>2025-01-03T18:53:23.982Z</time>
      </trkpt>
      <trkpt lat="48.68697" lon="2.06178">
        <ele>117.6</ele>
        <time>2025-01-03T18:53:28.271Z</time>
      </trkpt>
      <trkpt lat="48.68692" lon="2.0618">
        <ele>117.9</ele>
        <time>2025-01-03T18:53:32.560Z</time>
      </trkpt>
      <trkpt lat="48.68687" lon="2.06181">
        <ele>118.3</ele>
        <time>2025-01-03T18:53:36.849Z</time>
      </trkpt>
      <trkpt lat="48.68683" lon="2.06183">
        <ele>118.8</ele>
        <time>2025-01-03T18:53:41.139Z</time>
      </trkpt>
      <trkpt lat="48.68678" lon="2.06184">
        <ele>119.3</ele>
        <time>2025-01-03T18:53:45.429Z</time>
      </trkpt>
      <trkpt lat="48.68673" lon="2.06185">
        <ele>119.9</ele>
        <time>2025-01-03T18:53:49.719Z</time>
      </trkpt>
      <trkpt lat="48.68668" lon="2.06187">
        <ele>120.4</ele>
        <time>2025-01-03T18:53:54.009Z</time>
      </trkpt>
      <trkpt lat="48.68663" lon="2.06188">
        <ele>121</ele>
        <time>2025-01-03T18:53:58.300Z</time>
      </trkpt>
      <trkpt lat="48.68656" lon="2.06189">
        <ele>122</ele>
        <time>2025-01-03T18:54:05.808Z</time>
      </trkpt>
      <trkpt lat="48.68648" lon="2.0619">
        <ele>123</ele>
        <time>2025-01-03T18:54:13.316Z</time>
      </trkpt>
      <trkpt lat="48.68641" lon="2.06191">
        <ele>124</ele>
        <time>2025-01-03T18:54:20.825Z</time>
      </trkpt>
      <trkpt lat="48.68633" lon="2.06192">
        <ele>124.8</ele>
        <time>2025-01-03T18:54:28.334Z</time>
      </trkpt>
      <trkpt lat="48.68627" lon="2.06193">
        <ele>125.5</ele>
        <time>2025-01-03T18:54:33.947Z</time>
      </trkpt>
      <trkpt lat="48.68621" lon="2.06194">
        <ele>126.1</ele>
        <time>2025-01-03T18:54:39.561Z</time>
      </trkpt>
      <trkpt lat="48.68614" lon="2.06194">
        <ele>126.7</ele>
        <time>2025-01-03T18:54:45.175Z</time>
      </trkpt>
      <trkpt lat="48.68608" lon="2.06195">
        <ele>127.2</ele>
        <time>2025-01-03T18:54:50.789Z</time>
      </trkpt>
      <trkpt lat="48.686" lon="2.06193">
        <ele>128</ele>
        <time>2025-01-03T18:54:58.033Z</time>
      </trkpt>
      <trkpt lat="48.68591" lon="2.06192">
        <ele>128.9</ele>
        <time>2025-01-03T18:55:05.278Z</time>
      </trkpt>
      <trkpt lat="48.68583" lon="2.0619">
        <ele>129.7</ele>
        <time>2025-01-03T18:55:12.523Z</time>
      </trkpt>
      <trkpt lat="48.68574" lon="2.06188">
        <ele>129.9</ele>
        <time>2025-01-03T18:55:19.769Z</time>
      </trkpt>
      <trkpt lat="48.68568" lon="2.06186">
        <ele>130</ele>
        <time>2025-01-03T18:55:24.106Z</time>
      </trkpt>
      <trkpt lat="48.68562" lon="2.06184">
        <ele>130.2</ele>
        <time>2025-01-03T18:55:28.444Z</time>
      </trkpt>
      <trkpt lat="48.68555" lon="2.06182">
        <ele>130.3</ele>
        <time>2025-01-03T18:55:32.782Z</time>
      </trkpt>
      <trkpt lat="48.68549" lon="2.0618">
        <ele>130.4</ele>
        <time>2025-01-03T18:55:37.120Z</time>
      </trkpt>
      <trkpt lat="48.68543" lon="2.06178">
        <ele>130.5</ele>
        <time>2025-01-03T18:55:41.458Z</time>
      </trkpt>
      <trkpt lat="48.68537" lon="2.06176">
        <ele>130.5</ele>
        <time>2025-01-03T18:55:45.796Z</time>
      </trkpt>
      <trkpt lat="48.6853" lon="2.06174">
        <ele>130.5</ele>
        <time>2025-01-03T18:55:50.134Z</time>
      </trkpt>
      <trkpt lat="48.68524" lon="2.06172">
        <ele>130.5</ele>
        <time>2025-01-03T18:55:54.473Z</time>
      </trkpt>
      <trkpt lat="48.68522" lon="2.06172">
        <ele>130.5</ele>
        <time>2025-01-03T18:55:55.783Z</time>
        <extensions>
          <visugpx:TrkExtension xmlns:visugpx="https://www.visugpx.com/editgpx/">
            <visugpx:node>78</visugpx:node>
            </visugpx:TrkExtension>
        </extensions>
      </trkpt>
      <trkpt lat="48.68515" lon="2.06167">
        <ele>130.5</ele>
        <time>2025-01-03T18:56:01.131Z</time>
      </trkpt>
      <trkpt lat="48.68507" lon="2.06163">
        <ele>131</ele>
        <time>2025-01-03T18:56:06.479Z</time>
      </trkpt>
      <trkpt lat="48.685" lon="2.06158">
        <ele>131.2</ele>
        <time>2025-01-03T18:56:11.827Z</time>
      </trkpt>
      <trkpt lat="48.68492" lon="2.06153">
        <ele>131.4</ele>
        <time>2025-01-03T18:56:17.175Z</time>
      </trkpt>
      <trkpt lat="48.68485" lon="2.06148">
        <ele>131.3</ele>
        <time>2025-01-03T18:56:22.523Z</time>
      </trkpt>
      <trkpt lat="48.68477" lon="2.06144">
        <ele>131.1</ele>
        <time>2025-01-03T18:56:27.871Z</time>
      </trkpt>
      <trkpt lat="48.6847" lon="2.06139">
        <ele>130.7</ele>
        <time>2025-01-03T18:56:33.219Z</time>
      </trkpt>
      <trkpt lat="48.68462" lon="2.06134">
        <ele>130.6</ele>
        <time>2025-01-03T18:56:38.569Z</time>
      </trkpt>
      <trkpt lat="48.68458" lon="2.06129">
        <ele>130.8</ele>
        <time>2025-01-03T18:56:41.957Z</time>
      </trkpt>
      <trkpt lat="48.68454" lon="2.06125">
        <ele>130.9</ele>
        <time>2025-01-03T18:56:45.345Z</time>
      </trkpt>
      <trkpt lat="48.6845" lon="2.0612">
        <ele>130.8</ele>
        <time>2025-01-03T18:56:48.733Z</time>
      </trkpt>
      <trkpt lat="48.68446" lon="2.06116">
        <ele>130.7</ele>
        <time>2025-01-03T18:56:52.121Z</time>
      </trkpt>
      <trkpt lat="48.68442" lon="2.06111">
        <ele>130.7</ele>
        <time>2025-01-03T18:56:55.509Z</time>
      </trkpt>
      <trkpt lat="48.68438" lon="2.06107">
        <ele>131.2</ele>
        <time>2025-01-03T18:56:58.897Z</time>
      </trkpt>
      <trkpt lat="48.68434" lon="2.06102">
        <ele>131.5</ele>
        <time>2025-01-03T18:57:02.285Z</time>
      </trkpt>
      <trkpt lat="48.6843" lon="2.06098">
        <ele>131.8</ele>
        <time>2025-01-03T18:57:05.673Z</time>
      </trkpt>
      <trkpt lat="48.68425" lon="2.06093">
        <ele>132</ele>
        <time>2025-01-03T18:57:09.061Z</time>
      </trkpt>
      <trkpt lat="48.68421" lon="2.06088">
        <ele>132.1</ele>
        <time>2025-01-03T18:57:12.449Z</time>
      </trkpt>
      <trkpt lat="48.68417" lon="2.06084">
        <ele>132</ele>
        <time>2025-01-03T18:57:15.838Z</time>
      </trkpt>
      <trkpt lat="48.68413" lon="2.06079">
        <ele>132</ele>
        <time>2025-01-03T18:57:19.227Z</time>
      </trkpt>
      <trkpt lat="48.68409" lon="2.06075">
        <ele>131.9</ele>
        <time>2025-01-03T18:57:22.616Z</time>
      </trkpt>
      <trkpt lat="48.68405" lon="2.0607">
        <ele>131.7</ele>
        <time>2025-01-03T18:57:26.005Z</time>
      </trkpt>
      <trkpt lat="48.68401" lon="2.06066">
        <ele>131.5</ele>
        <time>2025-01-03T18:57:29.394Z</time>
      </trkpt>
      <trkpt lat="48.68397" lon="2.06061">
        <ele>131.2</ele>
        <time>2025-01-03T18:57:32.784Z</time>
      </trkpt>
      <trkpt lat="48.68393" lon="2.06054">
        <ele>131.2</ele>
        <time>2025-01-03T18:57:36.786Z</time>
      </trkpt>
      <trkpt lat="48.68389" lon="2.06045">
        <ele>130.6</ele>
        <time>2025-01-03T18:57:41.056Z</time>
      </trkpt>
      <trkpt lat="48.68384" lon="2.06036">
        <ele>129.9</ele>
        <time>2025-01-03T18:57:45.328Z</time>
      </trkpt>
      <trkpt lat="48.68378" lon="2.06027">
        <ele>129.1</ele>
        <time>2025-01-03T18:57:50.437Z</time>
      </trkpt>
      <trkpt lat="48.68373" lon="2.06018">
        <ele>128.8</ele>
        <time>2025-01-03T18:57:55.546Z</time>
      </trkpt>
      <trkpt lat="48.68367" lon="2.06008">
        <ele>128.8</ele>
        <time>2025-01-03T18:58:00.655Z</time>
      </trkpt>
      <trkpt lat="48.68361" lon="2.05999">
        <ele>129.1</ele>
        <time>2025-01-03T18:58:05.765Z</time>
      </trkpt>
      <trkpt lat="48.68357" lon="2.05988">
        <ele>129.3</ele>
        <time>2025-01-03T18:58:11.613Z</time>
      </trkpt>
      <trkpt lat="48.68353" lon="2.05977">
        <ele>129.7</ele>
        <time>2025-01-03T18:58:17.461Z</time>
      </trkpt>
      <trkpt lat="48.6835" lon="2.05967">
        <ele>130.1</ele>
        <time>2025-01-03T18:58:23.309Z</time>
      </trkpt>
      <trkpt lat="48.68346" lon="2.05956">
        <ele>130.4</ele>
        <time>2025-01-03T18:58:29.157Z</time>
      </trkpt>
      <trkpt lat="48.68342" lon="2.05945">
        <ele>130.7</ele>
        <time>2025-01-03T18:58:35.005Z</time>
      </trkpt>
      <trkpt lat="48.68338" lon="2.05934">
        <ele>130.9</ele>
        <time>2025-01-03T18:58:40.853Z</time>
      </trkpt>
      <trkpt lat="48.68334" lon="2.05924">
        <ele>131.3</ele>
        <time>2025-01-03T18:58:46.701Z</time>
      </trkpt>
      <trkpt lat="48.68331" lon="2.05913">
        <ele>131.4</ele>
        <time>2025-01-03T18:58:52.549Z</time>
      </trkpt>
      <trkpt lat="48.68327" lon="2.05902">
        <ele>131.3</ele>
        <time>2025-01-03T18:58:58.397Z</time>
      </trkpt>
      <trkpt lat="48.68323" lon="2.05891">
        <ele>131.3</ele>
        <time>2025-01-03T18:59:04.245Z</time>
      </trkpt>
      <trkpt lat="48.68319" lon="2.0588">
        <ele>131.5</ele>
        <time>2025-01-03T18:59:10.093Z</time>
      </trkpt>
      <trkpt lat="48.68315" lon="2.0587">
        <ele>131.7</ele>
        <time>2025-01-03T18:59:15.941Z</time>
      </trkpt>
      <trkpt lat="48.68311" lon="2.05859">
        <ele>131.9</ele>
        <time>2025-01-03T18:59:21.789Z</time>
      </trkpt>
      <trkpt lat="48.68308" lon="2.05848">
        <ele>132</ele>
        <time>2025-01-03T18:59:27.638Z</time>
      </trkpt>
      <trkpt lat="48.68304" lon="2.05837">
        <ele>132.1</ele>
        <time>2025-01-03T18:59:33.487Z</time>
      </trkpt>
      <trkpt lat="48.683" lon="2.05827">
        <ele>132.3</ele>
        <time>2025-01-03T18:59:39.336Z</time>
      </trkpt>
      <trkpt lat="48.68296" lon="2.05816">
        <ele>132.6</ele>
        <time>2025-01-03T18:59:45.185Z</time>
      </trkpt>
      <trkpt lat="48.68292" lon="2.05805">
        <ele>132.8</ele>
        <time>2025-01-03T18:59:51.034Z</time>
      </trkpt>
      <trkpt lat="48.68289" lon="2.05794">
        <ele>133.1</ele>
        <time>2025-01-03T18:59:56.883Z</time>
      </trkpt>
      <trkpt lat="48.68285" lon="2.05783">
        <ele>133.4</ele>
        <time>2025-01-03T19:00:02.732Z</time>
      </trkpt>
      <trkpt lat="48.68281" lon="2.05773">
        <ele>133.7</ele>
        <time>2025-01-03T19:00:08.581Z</time>
      </trkpt>
      <trkpt lat="48.68277" lon="2.05762">
        <ele>134.1</ele>
        <time>2025-01-03T19:00:14.430Z</time>
      </trkpt>
      <trkpt lat="48.68273" lon="2.05751">
        <ele>134.4</ele>
        <time>2025-01-03T19:00:20.279Z</time>
      </trkpt>
      <trkpt lat="48.6827" lon="2.0574">
        <ele>134.7</ele>
        <time>2025-01-03T19:00:26.128Z</time>
      </trkpt>
      <trkpt lat="48.68266" lon="2.0573">
        <ele>135</ele>
        <time>2025-01-03T19:00:31.977Z</time>
      </trkpt>
      <trkpt lat="48.68262" lon="2.05719">
        <ele>135.3</ele>
        <time>2025-01-03T19:00:37.826Z</time>
      </trkpt>
      <trkpt lat="48.68258" lon="2.05708">
        <ele>135.5</ele>
        <time>2025-01-03T19:00:43.675Z</time>
      </trkpt>
      <trkpt lat="48.68254" lon="2.05697">
        <ele>135.8</ele>
        <time>2025-01-03T19:00:49.524Z</time>
      </trkpt>
      <trkpt lat="48.6825" lon="2.05686">
        <ele>136.3</ele>
        <time>2025-01-03T19:00:55.373Z</time>
      </trkpt>
      <trkpt lat="48.68247" lon="2.05676">
        <ele>136.6</ele>
        <time>2025-01-03T19:01:01.222Z</time>
      </trkpt>
      <trkpt lat="48.68243" lon="2.05665">
        <ele>137</ele>
        <time>2025-01-03T19:01:07.071Z</time>
      </trkpt>
      <trkpt lat="48.68239" lon="2.05654">
        <ele>137.4</ele>
        <time>2025-01-03T19:01:12.921Z</time>
      </trkpt>
      <trkpt lat="48.68237" lon="2.05647">
        <ele>137.9</ele>
        <time>2025-01-03T19:01:17.869Z</time>
      </trkpt>
      <trkpt lat="48.68234" lon="2.05639">
        <ele>138.4</ele>
        <time>2025-01-03T19:01:22.817Z</time>
      </trkpt>
      <trkpt lat="48.68232" lon="2.05632">
        <ele>138.9</ele>
        <time>2025-01-03T19:01:27.766Z</time>
      </trkpt>
      <trkpt lat="48.68229" lon="2.05624">
        <ele>139.5</ele>
        <time>2025-01-03T19:01:32.716Z</time>
      </trkpt>
      <trkpt lat="48.68228" lon="2.05623">
        <ele>139.4</ele>
        <time>2025-01-03T19:01:33.403Z</time>
        <extensions>
          <visugpx:TrkExtension xmlns:visugpx="https://www.visugpx.com/editgpx/">
            <visugpx:node>79</visugpx:node>
            </visugpx:TrkExtension>
        </extensions>
      </trkpt>
      <trkpt lat="48.68225" lon="2.05618">
        <ele>139.3</ele>
        <time>2025-01-03T19:01:36.394Z</time>
      </trkpt>
      <trkpt lat="48.68221" lon="2.05614">
        <ele>139.1</ele>
        <time>2025-01-03T19:01:39.385Z</time>
      </trkpt>
      <trkpt lat="48.68218" lon="2.05609">
        <ele>138.8</ele>
        <time>2025-01-03T19:01:42.376Z</time>
      </trkpt>
      <trkpt lat="48.68214" lon="2.05605">
        <ele>138.6</ele>
        <time>2025-01-03T19:01:45.367Z</time>
      </trkpt>
      <trkpt lat="48.68211" lon="2.056">
        <ele>138.4</ele>
        <time>2025-01-03T19:01:48.358Z</time>
      </trkpt>
      <trkpt lat="48.68207" lon="2.05595">
        <ele>138.2</ele>
        <time>2025-01-03T19:01:51.349Z</time>
      </trkpt>
      <trkpt lat="48.68204" lon="2.05591">
        <ele>138.1</ele>
        <time>2025-01-03T19:01:54.340Z</time>
      </trkpt>
      <trkpt lat="48.682" lon="2.05586">
        <ele>138</ele>
        <time>2025-01-03T19:01:57.332Z</time>
      </trkpt>
      <trkpt lat="48.68197" lon="2.05581">
        <ele>138</ele>
        <time>2025-01-03T19:02:00.324Z</time>
      </trkpt>
      <trkpt lat="48.68193" lon="2.05577">
        <ele>138</ele>
        <time>2025-01-03T19:02:03.316Z</time>
      </trkpt>
      <trkpt lat="48.6819" lon="2.05572">
        <ele>138.1</ele>
        <time>2025-01-03T19:02:06.308Z</time>
      </trkpt>
      <trkpt lat="48.68186" lon="2.05568">
        <ele>138.2</ele>
        <time>2025-01-03T19:02:09.300Z</time>
      </trkpt>
      <trkpt lat="48.68183" lon="2.05563">
        <ele>138.3</ele>
        <time>2025-01-03T19:02:12.292Z</time>
      </trkpt>
      <trkpt lat="48.68179" lon="2.05558">
        <ele>138.5</ele>
        <time>2025-01-03T19:02:15.284Z</time>
      </trkpt>
      <trkpt lat="48.68176" lon="2.05554">
        <ele>138.7</ele>
        <time>2025-01-03T19:02:18.276Z</time>
      </trkpt>
      <trkpt lat="48.68172" lon="2.05549">
        <ele>139</ele>
        <time>2025-01-03T19:02:21.269Z</time>
      </trkpt>
      <trkpt lat="48.68168" lon="2.05544">
        <ele>139.1</ele>
        <time>2025-01-03T19:02:24.895Z</time>
      </trkpt>
      <trkpt lat="48.68164" lon="2.0554">
        <ele>139.3</ele>
        <time>2025-01-03T19:02:28.521Z</time>
      </trkpt>
      <trkpt lat="48.6816" lon="2.05535">
        <ele>139.4</ele>
        <time>2025-01-03T19:02:32.147Z</time>
      </trkpt>
      <trkpt lat="48.68156" lon="2.05531">
        <ele>139.5</ele>
        <time>2025-01-03T19:02:35.773Z</time>
      </trkpt>
      <trkpt lat="48.68151" lon="2.05526">
        <ele>139.6</ele>
        <time>2025-01-03T19:02:39.399Z</time>
      </trkpt>
      <trkpt lat="48.68147" lon="2.05521">
        <ele>139.7</ele>
        <time>2025-01-03T19:02:43.026Z</time>
      </trkpt>
      <trkpt lat="48.68143" lon="2.05517">
        <ele>139.8</ele>
        <time>2025-01-03T19:02:46.653Z</time>
      </trkpt>
      <trkpt lat="48.68139" lon="2.05512">
        <ele>140</ele>
        <time>2025-01-03T19:02:50.281Z</time>
        <extensions>
          <visugpx:TrkExtension xmlns:visugpx="https://www.visugpx.com/editgpx/">
            <visugpx:node>80</visugpx:node>
            </visugpx:TrkExtension>
        </extensions>
      </trkpt>
      <trkpt lat="48.68135" lon="2.05508">
        <ele>140.5</ele>
        <time>2025-01-03T19:02:54.540Z</time>
      </trkpt>
      <trkpt lat="48.68132" lon="2.05503">
        <ele>140.9</ele>
        <time>2025-01-03T19:02:58.799Z</time>
      </trkpt>
      <trkpt lat="48.68128" lon="2.05499">
        <ele>141.4</ele>
        <time>2025-01-03T19:03:03.058Z</time>
      </trkpt>
      <trkpt lat="48.68124" lon="2.05494">
        <ele>141.8</ele>
        <time>2025-01-03T19:03:07.319Z</time>
      </trkpt>
      <trkpt lat="48.6812" lon="2.0549">
        <ele>142.1</ele>
        <time>2025-01-03T19:03:11.000Z</time>
      </trkpt>
      <trkpt lat="48.68116" lon="2.05486">
        <ele>142.3</ele>
        <time>2025-01-03T19:03:14.681Z</time>
      </trkpt>
      <trkpt lat="48.68112" lon="2.05482">
        <ele>142.5</ele>
        <time>2025-01-03T19:03:18.362Z</time>
      </trkpt>
      <trkpt lat="48.68108" lon="2.05479">
        <ele>142.8</ele>
        <time>2025-01-03T19:03:22.043Z</time>
      </trkpt>
      <trkpt lat="48.68103" lon="2.05475">
        <ele>143</ele>
        <time>2025-01-03T19:03:25.724Z</time>
      </trkpt>
      <trkpt lat="48.68099" lon="2.05471">
        <ele>143.2</ele>
        <time>2025-01-03T19:03:29.405Z</time>
      </trkpt>
      <trkpt lat="48.68095" lon="2.05467">
        <ele>143.4</ele>
        <time>2025-01-03T19:03:33.087Z</time>
      </trkpt>
      <trkpt lat="48.68091" lon="2.05463">
        <ele>143.6</ele>
        <time>2025-01-03T19:03:36.770Z</time>
      </trkpt>
      <trkpt lat="48.68086" lon="2.05458">
        <ele>144</ele>
        <time>2025-01-03T19:03:41.769Z</time>
      </trkpt>
      <trkpt lat="48.68081" lon="2.05453">
        <ele>144.5</ele>
        <time>2025-01-03T19:03:46.769Z</time>
      </trkpt>
      <trkpt lat="48.68074" lon="2.05448">
        <ele>144.8</ele>
        <time>2025-01-03T19:03:52.106Z</time>
      </trkpt>
      <trkpt lat="48.68066" lon="2.05443">
        <ele>144.8</ele>
        <time>2025-01-03T19:03:57.443Z</time>
      </trkpt>
      <trkpt lat="48.68059" lon="2.05438">
        <ele>144.9</ele>
        <time>2025-01-03T19:04:02.780Z</time>
      </trkpt>
      <trkpt lat="48.68051" lon="2.05433">
        <ele>144.9</ele>
        <time>2025-01-03T19:04:08.117Z</time>
      </trkpt>
      <trkpt lat="48.68044" lon="2.05427">
        <ele>144.7</ele>
        <time>2025-01-03T19:04:13.455Z</time>
      </trkpt>
      <trkpt lat="48.68036" lon="2.05422">
        <ele>144.4</ele>
        <time>2025-01-03T19:04:18.793Z</time>
      </trkpt>
      <trkpt lat="48.68029" lon="2.05417">
        <ele>144.1</ele>
        <time>2025-01-03T19:04:24.131Z</time>
      </trkpt>
      <trkpt lat="48.68021" lon="2.05412">
        <ele>144.3</ele>
        <time>2025-01-03T19:04:29.470Z</time>
      </trkpt>
      <trkpt lat="48.68016" lon="2.05409">
        <ele>144.5</ele>
        <time>2025-01-03T19:04:33.603Z</time>
      </trkpt>
      <trkpt lat="48.68011" lon="2.05405">
        <ele>144.7</ele>
        <time>2025-01-03T19:04:37.736Z</time>
      </trkpt>
      <trkpt lat="48.68005" lon="2.05402">
        <ele>144.8</ele>
        <time>2025-01-03T19:04:41.869Z</time>
      </trkpt>
      <trkpt lat="48.68" lon="2.05398">
        <ele>145</ele>
        <time>2025-01-03T19:04:46.004Z</time>
        <extensions>
          <visugpx:TrkExtension xmlns:visugpx="https://www.visugpx.com/editgpx/">
            <visugpx:node>81</visugpx:node>
            </visugpx:TrkExtension>
        </extensions>
      </trkpt>
      <trkpt lat="48.67996" lon="2.05395">
        <ele>145.2</ele>
        <time>2025-01-03T19:04:49.435Z</time>
      </trkpt>
      <trkpt lat="48.67991" lon="2.05392">
        <ele>145.4</ele>
        <time>2025-01-03T19:04:52.866Z</time>
      </trkpt>
      <trkpt lat="48.67986" lon="2.05389">
        <ele>145.6</ele>
        <time>2025-01-03T19:04:56.297Z</time>
      </trkpt>
      <trkpt lat="48.67982" lon="2.05386">
        <ele>145.8</ele>
        <time>2025-01-03T19:04:59.728Z</time>
      </trkpt>
      <trkpt lat="48.67977" lon="2.05383">
        <ele>146.1</ele>
        <time>2025-01-03T19:05:03.159Z</time>
      </trkpt>
      <trkpt lat="48.67973" lon="2.05379">
        <ele>146.4</ele>
        <time>2025-01-03T19:05:06.590Z</time>
      </trkpt>
      <trkpt lat="48.67968" lon="2.05376">
        <ele>146.6</ele>
        <time>2025-01-03T19:05:10.021Z</time>
      </trkpt>
      <trkpt lat="48.67964" lon="2.05373">
        <ele>146.7</ele>
        <time>2025-01-03T19:05:13.452Z</time>
      </trkpt>
      <trkpt lat="48.67959" lon="2.0537">
        <ele>146.8</ele>
        <time>2025-01-03T19:05:16.883Z</time>
      </trkpt>
      <trkpt lat="48.67955" lon="2.05367">
        <ele>147</ele>
        <time>2025-01-03T19:05:20.314Z</time>
      </trkpt>
      <trkpt lat="48.6795" lon="2.05364">
        <ele>147.1</ele>
        <time>2025-01-03T19:05:23.745Z</time>
      </trkpt>
      <trkpt lat="48.67946" lon="2.05361">
        <ele>147.2</ele>
        <time>2025-01-03T19:05:27.176Z</time>
      </trkpt>
      <trkpt lat="48.67941" lon="2.05358">
        <ele>147.2</ele>
        <time>2025-01-03T19:05:30.607Z</time>
      </trkpt>
      <trkpt lat="48.67937" lon="2.05355">
        <ele>147.3</ele>
        <time>2025-01-03T19:05:34.038Z</time>
      </trkpt>
      <trkpt lat="48.67932" lon="2.05352">
        <ele>147.3</ele>
        <time>2025-01-03T19:05:37.469Z</time>
      </trkpt>
      <trkpt lat="48.67928" lon="2.05349">
        <ele>147.4</ele>
        <time>2025-01-03T19:05:40.900Z</time>
      </trkpt>
      <trkpt lat="48.67923" lon="2.05345">
        <ele>147.5</ele>
        <time>2025-01-03T19:05:44.331Z</time>
      </trkpt>
      <trkpt lat="48.67918" lon="2.05342">
        <ele>147.7</ele>
        <time>2025-01-03T19:05:47.762Z</time>
      </trkpt>
      <trkpt lat="48.67914" lon="2.05339">
        <ele>147.9</ele>
        <time>2025-01-03T19:05:51.193Z</time>
      </trkpt>
      <trkpt lat="48.67909" lon="2.05336">
        <ele>147.9</ele>
        <time>2025-01-03T19:05:54.624Z</time>
      </trkpt>
      <trkpt lat="48.67905" lon="2.05333">
        <ele>147.9</ele>
        <time>2025-01-03T19:05:58.055Z</time>
      </trkpt>
      <trkpt lat="48.679" lon="2.0533">
        <ele>147.9</ele>
        <time>2025-01-03T19:06:01.486Z</time>
      </trkpt>
      <trkpt lat="48.67896" lon="2.05327">
        <ele>147.9</ele>
        <time>2025-01-03T19:06:04.917Z</time>
      </trkpt>
      <trkpt lat="48.67891" lon="2.05324">
        <ele>147.9</ele>
        <time>2025-01-03T19:06:08.348Z</time>
      </trkpt>
      <trkpt lat="48.67887" lon="2.05321">
        <ele>147.9</ele>
        <time>2025-01-03T19:06:11.779Z</time>
      </trkpt>
      <trkpt lat="48.67882" lon="2.05318">
        <ele>148</ele>
        <time>2025-01-03T19:06:15.210Z</time>
      </trkpt>
      <trkpt lat="48.67878" lon="2.05315">
        <ele>148</ele>
        <time>2025-01-03T19:06:18.641Z</time>
      </trkpt>
      <trkpt lat="48.67873" lon="2.05311">
        <ele>147.9</ele>
        <time>2025-01-03T19:06:22.072Z</time>
      </trkpt>
      <trkpt lat="48.67869" lon="2.05308">
        <ele>147.8</ele>
        <time>2025-01-03T19:06:25.503Z</time>
      </trkpt>
      <trkpt lat="48.67864" lon="2.05305">
        <ele>147.6</ele>
        <time>2025-01-03T19:06:28.935Z</time>
      </trkpt>
      <trkpt lat="48.6786" lon="2.05302">
        <ele>147.6</ele>
        <time>2025-01-03T19:06:32.367Z</time>
      </trkpt>
      <trkpt lat="48.67855" lon="2.05299">
        <ele>147.7</ele>
        <time>2025-01-03T19:06:35.800Z</time>
      </trkpt>
      <trkpt lat="48.67848" lon="2.05294">
        <ele>147.8</ele>
        <time>2025-01-03T19:06:41.123Z</time>
      </trkpt>
      <trkpt lat="48.67842" lon="2.05289">
        <ele>147.7</ele>
        <time>2025-01-03T19:06:46.446Z</time>
      </trkpt>
      <trkpt lat="48.67835" lon="2.05283">
        <ele>147.5</ele>
        <time>2025-01-03T19:06:51.769Z</time>
      </trkpt>
      <trkpt lat="48.67829" lon="2.05278">
        <ele>147.6</ele>
        <time>2025-01-03T19:06:57.093Z</time>
      </trkpt>
      <trkpt lat="48.67822" lon="2.05273">
        <ele>148.2</ele>
        <time>2025-01-03T19:07:02.417Z</time>
      </trkpt>
      <trkpt lat="48.67815" lon="2.05268">
        <ele>148.7</ele>
        <time>2025-01-03T19:07:07.741Z</time>
      </trkpt>
      <trkpt lat="48.67809" lon="2.05262">
        <ele>149.1</ele>
        <time>2025-01-03T19:07:13.065Z</time>
      </trkpt>
      <trkpt lat="48.67802" lon="2.05257">
        <ele>149.3</ele>
        <time>2025-01-03T19:07:18.390Z</time>
      </trkpt>
      <trkpt lat="48.67795" lon="2.05252">
        <ele>149</ele>
        <time>2025-01-03T19:07:23.240Z</time>
      </trkpt>
      <trkpt lat="48.67787" lon="2.05248">
        <ele>148.7</ele>
        <time>2025-01-03T19:07:28.090Z</time>
      </trkpt>
      <trkpt lat="48.6778" lon="2.05243">
        <ele>148.3</ele>
        <time>2025-01-03T19:07:32.941Z</time>
      </trkpt>
      <trkpt lat="48.67772" lon="2.05238">
        <ele>148.3</ele>
        <time>2025-01-03T19:07:37.793Z</time>
        <extensions>
          <visugpx:TrkExtension xmlns:visugpx="https://www.visugpx.com/editgpx/">
            <visugpx:node>82</visugpx:node>
            </visugpx:TrkExtension>
        </extensions>
      </trkpt>
      <trkpt lat="48.67765" lon="2.05234">
        <ele>148.4</ele>
        <time>2025-01-03T19:07:42.900Z</time>
      </trkpt>
      <trkpt lat="48.67759" lon="2.05232">
        <ele>148.3</ele>
        <time>2025-01-03T19:07:46.594Z</time>
      </trkpt>
      <trkpt lat="48.67754" lon="2.0523">
        <ele>148.2</ele>
        <time>2025-01-03T19:07:50.288Z</time>
      </trkpt>
      <trkpt lat="48.67748" lon="2.05227">
        <ele>148.1</ele>
        <time>2025-01-03T19:07:53.982Z</time>
      </trkpt>
      <trkpt lat="48.67742" lon="2.05225">
        <ele>148</ele>
        <time>2025-01-03T19:07:57.677Z</time>
      </trkpt>
      <trkpt lat="48.67736" lon="2.05223">
        <ele>147.9</ele>
        <time>2025-01-03T19:08:01.419Z</time>
      </trkpt>
      <trkpt lat="48.6773" lon="2.05221">
        <ele>147.6</ele>
        <time>2025-01-03T19:08:05.161Z</time>
      </trkpt>
      <trkpt lat="48.67723" lon="2.05218">
        <ele>147.2</ele>
        <time>2025-01-03T19:08:08.903Z</time>
      </trkpt>
      <trkpt lat="48.67717" lon="2.05216">
        <ele>147</ele>
        <time>2025-01-03T19:08:12.646Z</time>
      </trkpt>
      <trkpt lat="48.67713" lon="2.05215">
        <ele>146.8</ele>
        <time>2025-01-03T19:08:15.412Z</time>
      </trkpt>
      <trkpt lat="48.67708" lon="2.05215">
        <ele>146.6</ele>
        <time>2025-01-03T19:08:18.178Z</time>
      </trkpt>
      <trkpt lat="48.67704" lon="2.05214">
        <ele>146.4</ele>
        <time>2025-01-03T19:08:20.945Z</time>
      </trkpt>
      <trkpt lat="48.67699" lon="2.05214">
        <ele>146.2</ele>
        <time>2025-01-03T19:08:23.712Z</time>
      </trkpt>
      <trkpt lat="48.67695" lon="2.05213">
        <ele>146</ele>
        <time>2025-01-03T19:08:26.479Z</time>
      </trkpt>
      <trkpt lat="48.6769" lon="2.05212">
        <ele>146.1</ele>
        <time>2025-01-03T19:08:29.246Z</time>
      </trkpt>
      <trkpt lat="48.67686" lon="2.05212">
        <ele>146.1</ele>
        <time>2025-01-03T19:08:32.013Z</time>
      </trkpt>
      <trkpt lat="48.67681" lon="2.05211">
        <ele>146.2</ele>
        <time>2025-01-03T19:08:34.780Z</time>
      </trkpt>
      <trkpt lat="48.67674" lon="2.05211">
        <ele>146.3</ele>
        <time>2025-01-03T19:08:39.630Z</time>
      </trkpt>
      <trkpt lat="48.67668" lon="2.05211">
        <ele>146.4</ele>
        <time>2025-01-03T19:08:44.480Z</time>
      </trkpt>
      <trkpt lat="48.67661" lon="2.05211">
        <ele>146.6</ele>
        <time>2025-01-03T19:08:49.330Z</time>
      </trkpt>
      <trkpt lat="48.67654" lon="2.05212">
        <ele>146.8</ele>
        <time>2025-01-03T19:08:54.181Z</time>
      </trkpt>
      <trkpt lat="48.67647" lon="2.05212">
        <ele>147.1</ele>
        <time>2025-01-03T19:08:59.032Z</time>
      </trkpt>
      <trkpt lat="48.67641" lon="2.05212">
        <ele>147.3</ele>
        <time>2025-01-03T19:09:03.883Z</time>
      </trkpt>
      <trkpt lat="48.67634" lon="2.05212">
        <ele>147.6</ele>
        <time>2025-01-03T19:09:08.734Z</time>
      </trkpt>
      <trkpt lat="48.67627" lon="2.05212">
        <ele>147.8</ele>
        <time>2025-01-03T19:09:13.585Z</time>
        <extensions>
          <visugpx:TrkExtension xmlns:visugpx="https://www.visugpx.com/editgpx/">
            <visugpx:node>83</visugpx:node>
            </visugpx:TrkExtension>
        </extensions>
      </trkpt>
      <trkpt lat="48.67621" lon="2.05212">
        <ele>148</ele>
        <time>2025-01-03T19:09:18.451Z</time>
      </trkpt>
      <trkpt lat="48.67614" lon="2.05213">
        <ele>148.2</ele>
        <time>2025-01-03T19:09:23.317Z</time>
      </trkpt>
      <trkpt lat="48.67608" lon="2.05213">
        <ele>148.6</ele>
        <time>2025-01-03T19:09:28.184Z</time>
      </trkpt>
      <trkpt lat="48.67601" lon="2.05213">
        <ele>148.9</ele>
        <time>2025-01-03T19:09:33.051Z</time>
      </trkpt>
      <trkpt lat="48.67593" lon="2.05216">
        <ele>149.2</ele>
        <time>2025-01-03T19:09:39.071Z</time>
      </trkpt>
      <trkpt lat="48.67586" lon="2.05219">
        <ele>149.3</ele>
        <time>2025-01-03T19:09:45.092Z</time>
      </trkpt>
      <trkpt lat="48.67578" lon="2.05221">
        <ele>149.7</ele>
        <time>2025-01-03T19:09:51.113Z</time>
      </trkpt>
      <trkpt lat="48.6757" lon="2.05224">
        <ele>150.2</ele>
        <time>2025-01-03T19:09:57.134Z</time>
      </trkpt>
      <trkpt lat="48.67562" lon="2.05227">
        <ele>150.8</ele>
        <time>2025-01-03T19:10:03.155Z</time>
      </trkpt>
      <trkpt lat="48.67555" lon="2.0523">
        <ele>151.3</ele>
        <time>2025-01-03T19:10:09.176Z</time>
      </trkpt>
      <trkpt lat="48.67547" lon="2.05232">
        <ele>151.6</ele>
        <time>2025-01-03T19:10:15.197Z</time>
      </trkpt>
      <trkpt lat="48.67539" lon="2.05235">
        <ele>151.8</ele>
        <time>2025-01-03T19:10:21.219Z</time>
      </trkpt>
      <trkpt lat="48.67534" lon="2.05238">
        <ele>151.9</ele>
        <time>2025-01-03T19:10:25.080Z</time>
      </trkpt>
      <trkpt lat="48.6753" lon="2.0524">
        <ele>151.9</ele>
        <time>2025-01-03T19:10:28.941Z</time>
      </trkpt>
      <trkpt lat="48.67525" lon="2.05243">
        <ele>152</ele>
        <time>2025-01-03T19:10:32.802Z</time>
      </trkpt>
      <trkpt lat="48.6752" lon="2.05246">
        <ele>152.2</ele>
        <time>2025-01-03T19:10:36.663Z</time>
      </trkpt>
      <trkpt lat="48.67516" lon="2.05248">
        <ele>152.5</ele>
        <time>2025-01-03T19:10:40.524Z</time>
      </trkpt>
      <trkpt lat="48.67511" lon="2.05251">
        <ele>152.7</ele>
        <time>2025-01-03T19:10:44.385Z</time>
      </trkpt>
      <trkpt lat="48.67506" lon="2.05254">
        <ele>152.9</ele>
        <time>2025-01-03T19:10:48.246Z</time>
      </trkpt>
      <trkpt lat="48.67502" lon="2.05257">
        <ele>153.1</ele>
        <time>2025-01-03T19:10:52.107Z</time>
      </trkpt>
      <trkpt lat="48.67497" lon="2.05259">
        <ele>153.5</ele>
        <time>2025-01-03T19:10:55.968Z</time>
      </trkpt>
      <trkpt lat="48.67492" lon="2.05262">
        <ele>153.9</ele>
        <time>2025-01-03T19:10:59.829Z</time>
      </trkpt>
      <trkpt lat="48.67487" lon="2.05265">
        <ele>154.2</ele>
        <time>2025-01-03T19:11:03.690Z</time>
      </trkpt>
      <trkpt lat="48.67483" lon="2.05267">
        <ele>154.6</ele>
        <time>2025-01-03T19:11:07.551Z</time>
      </trkpt>
      <trkpt lat="48.67478" lon="2.0527">
        <ele>155</ele>
        <time>2025-01-03T19:11:11.412Z</time>
      </trkpt>
      <trkpt lat="48.67473" lon="2.05273">
        <ele>155.4</ele>
        <time>2025-01-03T19:11:15.273Z</time>
      </trkpt>
      <trkpt lat="48.67469" lon="2.05275">
        <ele>155.6</ele>
        <time>2025-01-03T19:11:19.134Z</time>
      </trkpt>
      <trkpt lat="48.67464" lon="2.05278">
        <ele>155.9</ele>
        <time>2025-01-03T19:11:22.997Z</time>
      </trkpt>
      <trkpt lat="48.67456" lon="2.05282">
        <ele>156.3</ele>
        <time>2025-01-03T19:11:29.416Z</time>
      </trkpt>
      <trkpt lat="48.67449" lon="2.05286">
        <ele>156.7</ele>
        <time>2025-01-03T19:11:35.835Z</time>
      </trkpt>
      <trkpt lat="48.67441" lon="2.05289">
        <ele>157.2</ele>
        <time>2025-01-03T19:11:42.254Z</time>
      </trkpt>
      <trkpt lat="48.67433" lon="2.05293">
        <ele>157.8</ele>
        <time>2025-01-03T19:11:48.674Z</time>
        <extensions>
          <visugpx:TrkExtension xmlns:visugpx="https://www.visugpx.com/editgpx/">
            <visugpx:node>84</visugpx:node>
            </visugpx:TrkExtension>
        </extensions>
      </trkpt>
      <trkpt lat="48.67426" lon="2.05296">
        <ele>158.5</ele>
        <time>2025-01-03T19:11:55.163Z</time>
      </trkpt>
      <trkpt lat="48.67418" lon="2.053">
        <ele>159.2</ele>
        <time>2025-01-03T19:12:01.652Z</time>
      </trkpt>
      <trkpt lat="48.67411" lon="2.05303">
        <ele>159.8</ele>
        <time>2025-01-03T19:12:08.141Z</time>
      </trkpt>
      <trkpt lat="48.67404" lon="2.05307">
        <ele>160.4</ele>
        <time>2025-01-03T19:12:14.630Z</time>
      </trkpt>
      <trkpt lat="48.67396" lon="2.0531">
        <ele>161</ele>
        <time>2025-01-03T19:12:21.119Z</time>
      </trkpt>
      <trkpt lat="48.67389" lon="2.05313">
        <ele>161.7</ele>
        <time>2025-01-03T19:12:27.608Z</time>
      </trkpt>
      <trkpt lat="48.67381" lon="2.05317">
        <ele>162.1</ele>
        <time>2025-01-03T19:12:34.097Z</time>
      </trkpt>
      <trkpt lat="48.67374" lon="2.0532">
        <ele>162.6</ele>
        <time>2025-01-03T19:12:40.588Z</time>
      </trkpt>
      <trkpt lat="48.67367" lon="2.05323">
        <ele>163</ele>
        <time>2025-01-03T19:12:45.903Z</time>
      </trkpt>
      <trkpt lat="48.67359" lon="2.05327">
        <ele>163.2</ele>
        <time>2025-01-03T19:12:51.218Z</time>
      </trkpt>
      <trkpt lat="48.67352" lon="2.0533">
        <ele>163.1</ele>
        <time>2025-01-03T19:12:56.533Z</time>
      </trkpt>
      <trkpt lat="48.67344" lon="2.05333">
        <ele>163</ele>
        <time>2025-01-03T19:13:01.850Z</time>
      </trkpt>
      <trkpt lat="48.67338" lon="2.05334">
        <ele>163</ele>
        <time>2025-01-03T19:13:06.072Z</time>
      </trkpt>
      <trkpt lat="48.67332" lon="2.05335">
        <ele>163</ele>
        <time>2025-01-03T19:13:10.294Z</time>
      </trkpt>
      <trkpt lat="48.67326" lon="2.05336">
        <ele>163.2</ele>
        <time>2025-01-03T19:13:14.516Z</time>
      </trkpt>
      <trkpt lat="48.6732" lon="2.05338">
        <ele>163.4</ele>
        <time>2025-01-03T19:13:18.738Z</time>
      </trkpt>
      <trkpt lat="48.67314" lon="2.05339">
        <ele>163.6</ele>
        <time>2025-01-03T19:13:22.960Z</time>
      </trkpt>
      <trkpt lat="48.67308" lon="2.0534">
        <ele>163.7</ele>
        <time>2025-01-03T19:13:27.182Z</time>
      </trkpt>
      <trkpt lat="48.67302" lon="2.05341">
        <ele>163.9</ele>
        <time>2025-01-03T19:13:31.404Z</time>
      </trkpt>
      <trkpt lat="48.67296" lon="2.05342">
        <ele>164</ele>
        <time>2025-01-03T19:13:35.626Z</time>
      </trkpt>
      <trkpt lat="48.6729" lon="2.05343">
        <ele>164.2</ele>
        <time>2025-01-03T19:13:39.848Z</time>
      </trkpt>
      <trkpt lat="48.67284" lon="2.05344">
        <ele>164.4</ele>
        <time>2025-01-03T19:13:44.070Z</time>
      </trkpt>
      <trkpt lat="48.67278" lon="2.05345">
        <ele>164.6</ele>
        <time>2025-01-03T19:13:48.293Z</time>
      </trkpt>
      <trkpt lat="48.67272" lon="2.05347">
        <ele>164.6</ele>
        <time>2025-01-03T19:13:52.516Z</time>
      </trkpt>
      <trkpt lat="48.67266" lon="2.05348">
        <ele>164.7</ele>
        <time>2025-01-03T19:13:56.739Z</time>
      </trkpt>
      <trkpt lat="48.6726" lon="2.05349">
        <ele>164.8</ele>
        <time>2025-01-03T19:14:00.962Z</time>
      </trkpt>
      <trkpt lat="48.67254" lon="2.0535">
        <ele>164.9</ele>
        <time>2025-01-03T19:14:05.185Z</time>
      </trkpt>
      <trkpt lat="48.67248" lon="2.05351">
        <ele>165</ele>
        <time>2025-01-03T19:14:09.409Z</time>
        <extensions>
          <visugpx:TrkExtension xmlns:visugpx="https://www.visugpx.com/editgpx/">
            <visugpx:node>85</visugpx:node>
            </visugpx:TrkExtension>
        </extensions>
      </trkpt>
      <trkpt lat="48.67241" lon="2.05353">
        <ele>165.1</ele>
        <time>2025-01-03T19:14:14.570Z</time>
      </trkpt>
      <trkpt lat="48.67233" lon="2.05354">
        <ele>165.2</ele>
        <time>2025-01-03T19:14:19.732Z</time>
      </trkpt>
      <trkpt lat="48.67228" lon="2.05354">
        <ele>165.2</ele>
        <time>2025-01-03T19:14:23.276Z</time>
      </trkpt>
      <trkpt lat="48.67222" lon="2.05354">
        <ele>165.3</ele>
        <time>2025-01-03T19:14:26.821Z</time>
      </trkpt>
      <trkpt lat="48.67217" lon="2.05354">
        <ele>165.3</ele>
        <time>2025-01-03T19:14:30.366Z</time>
      </trkpt>
      <trkpt lat="48.67212" lon="2.05354">
        <ele>165.3</ele>
        <time>2025-01-03T19:14:33.911Z</time>
      </trkpt>
      <trkpt lat="48.67206" lon="2.05354">
        <ele>165.3</ele>
        <time>2025-01-03T19:14:37.456Z</time>
      </trkpt>
      <trkpt lat="48.67201" lon="2.05354">
        <ele>165.3</ele>
        <time>2025-01-03T19:14:41.001Z</time>
      </trkpt>
      <trkpt lat="48.67195" lon="2.05354">
        <ele>165.3</ele>
        <time>2025-01-03T19:14:44.546Z</time>
      </trkpt>
      <trkpt lat="48.6719" lon="2.05354">
        <ele>165.3</ele>
        <time>2025-01-03T19:14:48.091Z</time>
      </trkpt>
      <trkpt lat="48.67184" lon="2.05353">
        <ele>165.3</ele>
        <time>2025-01-03T19:14:52.094Z</time>
      </trkpt>
      <trkpt lat="48.67178" lon="2.05352">
        <ele>165.3</ele>
        <time>2025-01-03T19:14:56.097Z</time>
      </trkpt>
      <trkpt lat="48.67172" lon="2.05351">
        <ele>165.4</ele>
        <time>2025-01-03T19:15:00.100Z</time>
      </trkpt>
      <trkpt lat="48.67166" lon="2.0535">
        <ele>165.4</ele>
        <time>2025-01-03T19:15:04.103Z</time>
      </trkpt>
      <trkpt lat="48.6716" lon="2.05349">
        <ele>165.4</ele>
        <time>2025-01-03T19:15:08.106Z</time>
      </trkpt>
      <trkpt lat="48.67154" lon="2.05348">
        <ele>165.5</ele>
        <time>2025-01-03T19:15:12.110Z</time>
      </trkpt>
      <trkpt lat="48.67148" lon="2.05347">
        <ele>165.5</ele>
        <time>2025-01-03T19:15:16.114Z</time>
      </trkpt>
      <trkpt lat="48.67142" lon="2.05346">
        <ele>165.5</ele>
        <time>2025-01-03T19:15:20.118Z</time>
        <extensions>
          <visugpx:TrkExtension xmlns:visugpx="https://www.visugpx.com/editgpx/">
            <visugpx:node>86</visugpx:node>
            </visugpx:TrkExtension>
        </extensions>
      </trkpt>
      <trkpt lat="48.67141" lon="2.05346">
        <ele>165.5</ele>
        <time>2025-01-03T19:15:20.773Z</time>
      </trkpt>
      <trkpt lat="48.67134" lon="2.05342">
        <ele>165.8</ele>
        <time>2025-01-03T19:15:26.076Z</time>
      </trkpt>
      <trkpt lat="48.67128" lon="2.05338">
        <ele>166.2</ele>
        <time>2025-01-03T19:15:31.380Z</time>
      </trkpt>
      <trkpt lat="48.67121" lon="2.05334">
        <ele>166.6</ele>
        <time>2025-01-03T19:15:36.684Z</time>
      </trkpt>
      <trkpt lat="48.67115" lon="2.0533">
        <ele>166.9</ele>
        <time>2025-01-03T19:15:41.988Z</time>
      </trkpt>
      <trkpt lat="48.67108" lon="2.05326">
        <ele>167.1</ele>
        <time>2025-01-03T19:15:47.292Z</time>
      </trkpt>
      <trkpt lat="48.67101" lon="2.05322">
        <ele>167.4</ele>
        <time>2025-01-03T19:15:52.596Z</time>
      </trkpt>
      <trkpt lat="48.67095" lon="2.05318">
        <ele>167.6</ele>
        <time>2025-01-03T19:15:57.900Z</time>
      </trkpt>
      <trkpt lat="48.67088" lon="2.05314">
        <ele>167.8</ele>
        <time>2025-01-03T19:16:03.205Z</time>
      </trkpt>
      <trkpt lat="48.67083" lon="2.0531">
        <ele>168</ele>
        <time>2025-01-03T19:16:07.091Z</time>
      </trkpt>
      <trkpt lat="48.67079" lon="2.05307">
        <ele>168.2</ele>
        <time>2025-01-03T19:16:10.977Z</time>
      </trkpt>
      <trkpt lat="48.67074" lon="2.05303">
        <ele>168.3</ele>
        <time>2025-01-03T19:16:14.864Z</time>
      </trkpt>
      <trkpt lat="48.67069" lon="2.05299">
        <ele>168.5</ele>
        <time>2025-01-03T19:16:18.752Z</time>
        <extensions>
          <visugpx:TrkExtension xmlns:visugpx="https://www.visugpx.com/editgpx/">
            <visugpx:node>87</visugpx:node>
            </visugpx:TrkExtension>
        </extensions>
      </trkpt>
      <trkpt lat="48.67064" lon="2.05295">
        <ele>168.7</ele>
        <time>2025-01-03T19:16:22.727Z</time>
      </trkpt>
      <trkpt lat="48.67058" lon="2.05291">
        <ele>168.9</ele>
        <time>2025-01-03T19:16:26.702Z</time>
      </trkpt>
      <trkpt lat="48.67053" lon="2.05287">
        <ele>169</ele>
        <time>2025-01-03T19:16:30.677Z</time>
      </trkpt>
      <trkpt lat="48.67048" lon="2.05283">
        <ele>169</ele>
        <time>2025-01-03T19:16:34.652Z</time>
      </trkpt>
      <trkpt lat="48.67042" lon="2.05279">
        <ele>169</ele>
        <time>2025-01-03T19:16:38.627Z</time>
      </trkpt>
      <trkpt lat="48.67037" lon="2.05275">
        <ele>169</ele>
        <time>2025-01-03T19:16:42.602Z</time>
      </trkpt>
      <trkpt lat="48.67032" lon="2.05271">
        <ele>169</ele>
        <time>2025-01-03T19:16:46.578Z</time>
      </trkpt>
      <trkpt lat="48.67027" lon="2.05268">
        <ele>169</ele>
        <time>2025-01-03T19:16:50.554Z</time>
      </trkpt>
      <trkpt lat="48.67021" lon="2.05264">
        <ele>169</ele>
        <time>2025-01-03T19:16:54.530Z</time>
      </trkpt>
      <trkpt lat="48.67016" lon="2.0526">
        <ele>169</ele>
        <time>2025-01-03T19:16:58.506Z</time>
      </trkpt>
      <trkpt lat="48.67011" lon="2.05256">
        <ele>169</ele>
        <time>2025-01-03T19:17:02.482Z</time>
      </trkpt>
      <trkpt lat="48.67005" lon="2.05252">
        <ele>169</ele>
        <time>2025-01-03T19:17:06.458Z</time>
      </trkpt>
      <trkpt lat="48.67" lon="2.05248">
        <ele>169</ele>
        <time>2025-01-03T19:17:10.434Z</time>
      </trkpt>
      <trkpt lat="48.66995" lon="2.05244">
        <ele>169.2</ele>
        <time>2025-01-03T19:17:14.410Z</time>
      </trkpt>
      <trkpt lat="48.66989" lon="2.0524">
        <ele>169.2</ele>
        <time>2025-01-03T19:17:18.386Z</time>
      </trkpt>
      <trkpt lat="48.66984" lon="2.05236">
        <ele>169.3</ele>
        <time>2025-01-03T19:17:22.363Z</time>
      </trkpt>
      <trkpt lat="48.66979" lon="2.05231">
        <ele>169.2</ele>
        <time>2025-01-03T19:17:26.446Z</time>
      </trkpt>
      <trkpt lat="48.66974" lon="2.05226">
        <ele>169.1</ele>
        <time>2025-01-03T19:17:30.529Z</time>
      </trkpt>
      <trkpt lat="48.66968" lon="2.05221">
        <ele>169</ele>
        <time>2025-01-03T19:17:34.612Z</time>
      </trkpt>
      <trkpt lat="48.66963" lon="2.05217">
        <ele>169</ele>
        <time>2025-01-03T19:17:38.695Z</time>
      </trkpt>
      <trkpt lat="48.66958" lon="2.05212">
        <ele>169</ele>
        <time>2025-01-03T19:17:42.778Z</time>
      </trkpt>
      <trkpt lat="48.66953" lon="2.05207">
        <ele>169</ele>
        <time>2025-01-03T19:17:46.861Z</time>
      </trkpt>
      <trkpt lat="48.66947" lon="2.05202">
        <ele>169</ele>
        <time>2025-01-03T19:17:50.944Z</time>
      </trkpt>
      <trkpt lat="48.66942" lon="2.05197">
        <ele>169</ele>
        <time>2025-01-03T19:17:55.027Z</time>
      </trkpt>
      <trkpt lat="48.66937" lon="2.05192">
        <ele>169</ele>
        <time>2025-01-03T19:17:59.110Z</time>
      </trkpt>
      <trkpt lat="48.66932" lon="2.05187">
        <ele>169</ele>
        <time>2025-01-03T19:18:03.193Z</time>
      </trkpt>
      <trkpt lat="48.66926" lon="2.05182">
        <ele>169</ele>
        <time>2025-01-03T19:18:07.277Z</time>
      </trkpt>
      <trkpt lat="48.66921" lon="2.05178">
        <ele>169</ele>
        <time>2025-01-03T19:18:11.361Z</time>
      </trkpt>
      <trkpt lat="48.66916" lon="2.05173">
        <ele>169</ele>
        <time>2025-01-03T19:18:15.445Z</time>
      </trkpt>
      <trkpt lat="48.66911" lon="2.05168">
        <ele>169.2</ele>
        <time>2025-01-03T19:18:19.529Z</time>
      </trkpt>
      <trkpt lat="48.66905" lon="2.05163">
        <ele>169.5</ele>
        <time>2025-01-03T19:18:23.613Z</time>
      </trkpt>
      <trkpt lat="48.669" lon="2.05158">
        <ele>169.7</ele>
        <time>2025-01-03T19:18:27.698Z</time>
      </trkpt>
      <trkpt lat="48.66893" lon="2.05153">
        <ele>169.9</ele>
        <time>2025-01-03T19:18:33.193Z</time>
        <extensions>
          <visugpx:TrkExtension xmlns:visugpx="https://www.visugpx.com/editgpx/">
            <visugpx:node>88</visugpx:node>
            </visugpx:TrkExtension>
        </extensions>
      </trkpt>
      <trkpt lat="48.66891" lon="2.05151">
        <ele>170</ele>
        <time>2025-01-03T19:18:34.984Z</time>
      </trkpt>
      <trkpt lat="48.66888" lon="2.05159">
        <ele>170</ele>
        <time>2025-01-03T19:18:38.957Z</time>
      </trkpt>
      <trkpt lat="48.66886" lon="2.05166">
        <ele>170.1</ele>
        <time>2025-01-03T19:18:42.931Z</time>
      </trkpt>
      <trkpt lat="48.66883" lon="2.05174">
        <ele>170.4</ele>
        <time>2025-01-03T19:18:46.905Z</time>
      </trkpt>
      <trkpt lat="48.6688" lon="2.05181">
        <ele>170.5</ele>
        <time>2025-01-03T19:18:50.880Z</time>
      </trkpt>
      <trkpt lat="48.66876" lon="2.05192">
        <ele>170.5</ele>
        <time>2025-01-03T19:18:56.558Z</time>
      </trkpt>
      <trkpt lat="48.66872" lon="2.05203">
        <ele>170.6</ele>
        <time>2025-01-03T19:19:02.236Z</time>
      </trkpt>
      <trkpt lat="48.66867" lon="2.05213">
        <ele>170.7</ele>
        <time>2025-01-03T19:19:07.914Z</time>
      </trkpt>
      <trkpt lat="48.66863" lon="2.05224">
        <ele>171</ele>
        <time>2025-01-03T19:19:13.594Z</time>
      </trkpt>
      <trkpt lat="48.66861" lon="2.05231">
        <ele>171</ele>
        <time>2025-01-03T19:19:16.694Z</time>
      </trkpt>
      <trkpt lat="48.66859" lon="2.05237">
        <ele>171</ele>
        <time>2025-01-03T19:19:19.796Z</time>
      </trkpt>
      <trkpt lat="48.66858" lon="2.05245">
        <ele>171</ele>
        <time>2025-01-03T19:19:23.316Z</time>
      </trkpt>
      <trkpt lat="48.66857" lon="2.05253">
        <ele>171</ele>
        <time>2025-01-03T19:19:26.838Z</time>
      </trkpt>
      <trkpt lat="48.66853" lon="2.05258">
        <ele>171</ele>
        <time>2025-01-03T19:19:30.039Z</time>
      </trkpt>
      <trkpt lat="48.6685" lon="2.05263">
        <ele>171</ele>
        <time>2025-01-03T19:19:33.240Z</time>
      </trkpt>
      <trkpt lat="48.66846" lon="2.05267">
        <ele>171</ele>
        <time>2025-01-03T19:19:36.441Z</time>
      </trkpt>
      <trkpt lat="48.66842" lon="2.05272">
        <ele>171</ele>
        <time>2025-01-03T19:19:39.644Z</time>
      </trkpt>
      <trkpt lat="48.66838" lon="2.05275">
        <ele>171</ele>
        <time>2025-01-03T19:19:42.629Z</time>
      </trkpt>
      <trkpt lat="48.66834" lon="2.05277">
        <ele>171</ele>
        <time>2025-01-03T19:19:45.614Z</time>
      </trkpt>
      <trkpt lat="48.66829" lon="2.0528">
        <ele>171</ele>
        <time>2025-01-03T19:19:48.599Z</time>
      </trkpt>
      <trkpt lat="48.66825" lon="2.05282">
        <ele>171</ele>
        <time>2025-01-03T19:19:51.586Z</time>
      </trkpt>
      <trkpt lat="48.6682" lon="2.05282">
        <ele>171</ele>
        <time>2025-01-03T19:19:54.861Z</time>
      </trkpt>
      <trkpt lat="48.66815" lon="2.05282">
        <ele>171</ele>
        <time>2025-01-03T19:19:58.136Z</time>
      </trkpt>
      <trkpt lat="48.6681" lon="2.05281">
        <ele>171</ele>
        <time>2025-01-03T19:20:01.412Z</time>
      </trkpt>
      <trkpt lat="48.66805" lon="2.05281">
        <ele>171</ele>
        <time>2025-01-03T19:20:04.688Z</time>
      </trkpt>
      <trkpt lat="48.668" lon="2.05281">
        <ele>171</ele>
        <time>2025-01-03T19:20:07.964Z</time>
      </trkpt>
      <trkpt lat="48.66795" lon="2.05281">
        <ele>171</ele>
        <time>2025-01-03T19:20:11.240Z</time>
      </trkpt>
      <trkpt lat="48.6679" lon="2.0528">
        <ele>171</ele>
        <time>2025-01-03T19:20:14.516Z</time>
      </trkpt>
      <trkpt lat="48.66785" lon="2.0528">
        <ele>171</ele>
        <time>2025-01-03T19:20:17.792Z</time>
      </trkpt>
      <trkpt lat="48.66777" lon="2.05279">
        <ele>171</ele>
        <time>2025-01-03T19:20:23.221Z</time>
      </trkpt>
      <trkpt lat="48.66769" lon="2.05278">
        <ele>171</ele>
        <time>2025-01-03T19:20:28.650Z</time>
      </trkpt>
      <trkpt lat="48.6676" lon="2.05276">
        <ele>171</ele>
        <time>2025-01-03T19:20:34.079Z</time>
      </trkpt>
      <trkpt lat="48.66752" lon="2.05275">
        <ele>171</ele>
        <time>2025-01-03T19:20:39.509Z</time>
      </trkpt>
      <trkpt lat="48.66747" lon="2.05276">
        <ele>171</ele>
        <time>2025-01-03T19:20:43.117Z</time>
      </trkpt>
      <trkpt lat="48.66741" lon="2.05276">
        <ele>171</ele>
        <time>2025-01-03T19:20:46.725Z</time>
      </trkpt>
      <trkpt lat="48.66735" lon="2.05278">
        <ele>171</ele>
        <time>2025-01-03T19:20:51.090Z</time>
      </trkpt>
      <trkpt lat="48.66728" lon="2.05281">
        <ele>171</ele>
        <time>2025-01-03T19:20:55.456Z</time>
      </trkpt>
      <trkpt lat="48.66722" lon="2.05283">
        <ele>171</ele>
        <time>2025-01-03T19:20:59.822Z</time>
      </trkpt>
      <trkpt lat="48.66715" lon="2.05285">
        <ele>171</ele>
        <time>2025-01-03T19:21:04.189Z</time>
      </trkpt>
      <trkpt lat="48.66708" lon="2.05291">
        <ele>171</ele>
        <time>2025-01-03T19:21:09.645Z</time>
      </trkpt>
      <trkpt lat="48.667" lon="2.05296">
        <ele>171</ele>
        <time>2025-01-03T19:21:15.102Z</time>
      </trkpt>
      <trkpt lat="48.66696" lon="2.05298">
        <ele>171</ele>
        <time>2025-01-03T19:21:18.119Z</time>
      </trkpt>
      <trkpt lat="48.66691" lon="2.05299">
        <ele>171</ele>
        <time>2025-01-03T19:21:21.137Z</time>
      </trkpt>
      <trkpt lat="48.66686" lon="2.05302">
        <ele>171</ele>
        <time>2025-01-03T19:21:24.658Z</time>
      </trkpt>
      <trkpt lat="48.66681" lon="2.05305">
        <ele>171</ele>
        <time>2025-01-03T19:21:28.179Z</time>
      </trkpt>
      <trkpt lat="48.66676" lon="2.05308">
        <ele>171</ele>
        <time>2025-01-03T19:21:31.700Z</time>
      </trkpt>
      <trkpt lat="48.66671" lon="2.05311">
        <ele>171</ele>
        <time>2025-01-03T19:21:35.223Z</time>
      </trkpt>
      <trkpt lat="48.66666" lon="2.05316">
        <ele>171</ele>
        <time>2025-01-03T19:21:39.373Z</time>
      </trkpt>
      <trkpt lat="48.6666" lon="2.0532">
        <ele>171</ele>
        <time>2025-01-03T19:21:43.523Z</time>
      </trkpt>
      <trkpt lat="48.66655" lon="2.05325">
        <ele>171</ele>
        <time>2025-01-03T19:21:47.674Z</time>
      </trkpt>
      <trkpt lat="48.6665" lon="2.0533">
        <ele>171</ele>
        <time>2025-01-03T19:21:51.825Z</time>
      </trkpt>
      <trkpt lat="48.66644" lon="2.05334">
        <ele>171</ele>
        <time>2025-01-03T19:21:55.976Z</time>
      </trkpt>
      <trkpt lat="48.66639" lon="2.05339">
        <ele>171</ele>
        <time>2025-01-03T19:22:00.127Z</time>
      </trkpt>
      <trkpt lat="48.66633" lon="2.05343">
        <ele>171.2</ele>
        <time>2025-01-03T19:22:04.278Z</time>
      </trkpt>
      <trkpt lat="48.66628" lon="2.05348">
        <ele>171.4</ele>
        <time>2025-01-03T19:22:08.430Z</time>
      </trkpt>
      <trkpt lat="48.66623" lon="2.05351">
        <ele>171.6</ele>
        <time>2025-01-03T19:22:12.164Z</time>
      </trkpt>
      <trkpt lat="48.66618" lon="2.05354">
        <ele>171.8</ele>
        <time>2025-01-03T19:22:15.898Z</time>
      </trkpt>
      <trkpt lat="48.66613" lon="2.05357">
        <ele>171.9</ele>
        <time>2025-01-03T19:22:19.632Z</time>
      </trkpt>
      <trkpt lat="48.66608" lon="2.0536">
        <ele>172</ele>
        <time>2025-01-03T19:22:23.366Z</time>
      </trkpt>
      <trkpt lat="48.66602" lon="2.05362">
        <ele>172</ele>
        <time>2025-01-03T19:22:27.100Z</time>
      </trkpt>
      <trkpt lat="48.66597" lon="2.05365">
        <ele>172</ele>
        <time>2025-01-03T19:22:30.835Z</time>
      </trkpt>
      <trkpt lat="48.66592" lon="2.05368">
        <ele>172</ele>
        <time>2025-01-03T19:22:34.570Z</time>
      </trkpt>
      <trkpt lat="48.66587" lon="2.05371">
        <ele>172</ele>
        <time>2025-01-03T19:22:38.306Z</time>
      </trkpt>
      <trkpt lat="48.66582" lon="2.05372">
        <ele>172</ele>
        <time>2025-01-03T19:22:41.346Z</time>
      </trkpt>
      <trkpt lat="48.66578" lon="2.05374">
        <ele>172</ele>
        <time>2025-01-03T19:22:44.387Z</time>
      </trkpt>
      <trkpt lat="48.66573" lon="2.05375">
        <ele>172</ele>
        <time>2025-01-03T19:22:47.428Z</time>
      </trkpt>
      <trkpt lat="48.66569" lon="2.05376">
        <ele>172</ele>
        <time>2025-01-03T19:22:50.469Z</time>
      </trkpt>
      <trkpt lat="48.66564" lon="2.05378">
        <ele>172</ele>
        <time>2025-01-03T19:22:53.510Z</time>
      </trkpt>
      <trkpt lat="48.6656" lon="2.05379">
        <ele>172</ele>
        <time>2025-01-03T19:22:56.551Z</time>
      </trkpt>
      <trkpt lat="48.66555" lon="2.0538">
        <ele>172</ele>
        <time>2025-01-03T19:22:59.592Z</time>
      </trkpt>
      <trkpt lat="48.66551" lon="2.05382">
        <ele>172</ele>
        <time>2025-01-03T19:23:02.633Z</time>
      </trkpt>
      <trkpt lat="48.66546" lon="2.05383">
        <ele>172</ele>
        <time>2025-01-03T19:23:05.674Z</time>
      </trkpt>
      <trkpt lat="48.66541" lon="2.05384">
        <ele>172</ele>
        <time>2025-01-03T19:23:08.715Z</time>
      </trkpt>
      <trkpt lat="48.66537" lon="2.05385">
        <ele>172</ele>
        <time>2025-01-03T19:23:11.756Z</time>
      </trkpt>
      <trkpt lat="48.66532" lon="2.05387">
        <ele>172</ele>
        <time>2025-01-03T19:23:14.797Z</time>
      </trkpt>
      <trkpt lat="48.66528" lon="2.05388">
        <ele>172</ele>
        <time>2025-01-03T19:23:17.838Z</time>
      </trkpt>
      <trkpt lat="48.66523" lon="2.05389">
        <ele>172</ele>
        <time>2025-01-03T19:23:20.879Z</time>
      </trkpt>
      <trkpt lat="48.66519" lon="2.05391">
        <ele>172</ele>
        <time>2025-01-03T19:23:23.920Z</time>
      </trkpt>
      <trkpt lat="48.66514" lon="2.05392">
        <ele>172</ele>
        <time>2025-01-03T19:23:26.962Z</time>
      </trkpt>
      <trkpt lat="48.66509" lon="2.05393">
        <ele>172</ele>
        <time>2025-01-03T19:23:30.500Z</time>
      </trkpt>
      <trkpt lat="48.66503" lon="2.05394">
        <ele>172</ele>
        <time>2025-01-03T19:23:34.038Z</time>
      </trkpt>
      <trkpt lat="48.66498" lon="2.05395">
        <ele>172</ele>
        <time>2025-01-03T19:23:37.576Z</time>
      </trkpt>
      <trkpt lat="48.66493" lon="2.05395">
        <ele>172</ele>
        <time>2025-01-03T19:23:41.114Z</time>
      </trkpt>
      <trkpt lat="48.66487" lon="2.05396">
        <ele>172</ele>
        <time>2025-01-03T19:23:44.652Z</time>
      </trkpt>
      <trkpt lat="48.66482" lon="2.05397">
        <ele>172</ele>
        <time>2025-01-03T19:23:48.190Z</time>
      </trkpt>
      <trkpt lat="48.66476" lon="2.05398">
        <ele>172</ele>
        <time>2025-01-03T19:23:51.728Z</time>
      </trkpt>
      <trkpt lat="48.66471" lon="2.05399">
        <ele>172</ele>
        <time>2025-01-03T19:23:55.266Z</time>
      </trkpt>
      <trkpt lat="48.66466" lon="2.054">
        <ele>172</ele>
        <time>2025-01-03T19:23:58.804Z</time>
      </trkpt>
      <trkpt lat="48.6646" lon="2.054">
        <ele>172</ele>
        <time>2025-01-03T19:24:02.342Z</time>
      </trkpt>
      <trkpt lat="48.66455" lon="2.05401">
        <ele>172</ele>
        <time>2025-01-03T19:24:05.880Z</time>
      </trkpt>
      <trkpt lat="48.6645" lon="2.05402">
        <ele>172</ele>
        <time>2025-01-03T19:24:09.418Z</time>
      </trkpt>
      <trkpt lat="48.66444" lon="2.05403">
        <ele>172</ele>
        <time>2025-01-03T19:24:12.956Z</time>
      </trkpt>
      <trkpt lat="48.66439" lon="2.05404">
        <ele>172</ele>
        <time>2025-01-03T19:24:16.494Z</time>
      </trkpt>
      <trkpt lat="48.66433" lon="2.05405">
        <ele>172</ele>
        <time>2025-01-03T19:24:20.032Z</time>
      </trkpt>
      <trkpt lat="48.66428" lon="2.05406">
        <ele>172</ele>
        <time>2025-01-03T19:24:23.570Z</time>
      </trkpt>
      <trkpt lat="48.66423" lon="2.05406">
        <ele>172</ele>
        <time>2025-01-03T19:24:27.108Z</time>
      </trkpt>
      <trkpt lat="48.66417" lon="2.05407">
        <ele>172</ele>
        <time>2025-01-03T19:24:30.646Z</time>
      </trkpt>
      <trkpt lat="48.66412" lon="2.05408">
        <ele>172</ele>
        <time>2025-01-03T19:24:34.184Z</time>
      </trkpt>
      <trkpt lat="48.66407" lon="2.05409">
        <ele>172</ele>
        <time>2025-01-03T19:24:37.723Z</time>
      </trkpt>
      <trkpt lat="48.66401" lon="2.0541">
        <ele>172</ele>
        <time>2025-01-03T19:24:41.262Z</time>
      </trkpt>
      <trkpt lat="48.66396" lon="2.05411">
        <ele>172</ele>
        <time>2025-01-03T19:24:44.801Z</time>
      </trkpt>
      <trkpt lat="48.6639" lon="2.05411">
        <ele>172</ele>
        <time>2025-01-03T19:24:48.340Z</time>
      </trkpt>
      <trkpt lat="48.66385" lon="2.05412">
        <ele>172</ele>
        <time>2025-01-03T19:24:51.879Z</time>
      </trkpt>
      <trkpt lat="48.6638" lon="2.05413">
        <ele>172</ele>
        <time>2025-01-03T19:24:55.418Z</time>
      </trkpt>
      <trkpt lat="48.66374" lon="2.05414">
        <ele>172</ele>
        <time>2025-01-03T19:24:58.957Z</time>
      </trkpt>
      <trkpt lat="48.66369" lon="2.05415">
        <ele>172</ele>
        <time>2025-01-03T19:25:02.496Z</time>
      </trkpt>
      <trkpt lat="48.66364" lon="2.05416">
        <ele>172</ele>
        <time>2025-01-03T19:25:06.035Z</time>
      </trkpt>
      <trkpt lat="48.66358" lon="2.05417">
        <ele>172</ele>
        <time>2025-01-03T19:25:09.574Z</time>
      </trkpt>
      <trkpt lat="48.66353" lon="2.05417">
        <ele>172</ele>
        <time>2025-01-03T19:25:13.113Z</time>
      </trkpt>
      <trkpt lat="48.66347" lon="2.05418">
        <ele>172</ele>
        <time>2025-01-03T19:25:16.652Z</time>
      </trkpt>
      <trkpt lat="48.66342" lon="2.05419">
        <ele>172</ele>
        <time>2025-01-03T19:25:20.192Z</time>
      </trkpt>
      <trkpt lat="48.66337" lon="2.0542">
        <ele>172</ele>
        <time>2025-01-03T19:25:23.413Z</time>
      </trkpt>
      <trkpt lat="48.66333" lon="2.0542">
        <ele>172</ele>
        <time>2025-01-03T19:25:26.634Z</time>
      </trkpt>
      <trkpt lat="48.66328" lon="2.05421">
        <ele>172.2</ele>
        <time>2025-01-03T19:25:29.855Z</time>
      </trkpt>
      <trkpt lat="48.66323" lon="2.05421">
        <ele>172.3</ele>
        <time>2025-01-03T19:25:33.076Z</time>
      </trkpt>
      <trkpt lat="48.66318" lon="2.05422">
        <ele>172.5</ele>
        <time>2025-01-03T19:25:36.297Z</time>
      </trkpt>
      <trkpt lat="48.66314" lon="2.05422">
        <ele>172.6</ele>
        <time>2025-01-03T19:25:39.518Z</time>
      </trkpt>
      <trkpt lat="48.66309" lon="2.05423">
        <ele>172.7</ele>
        <time>2025-01-03T19:25:42.739Z</time>
      </trkpt>
      <trkpt lat="48.66304" lon="2.05423">
        <ele>172.8</ele>
        <time>2025-01-03T19:25:45.960Z</time>
      </trkpt>
      <trkpt lat="48.66299" lon="2.05424">
        <ele>172.8</ele>
        <time>2025-01-03T19:25:49.181Z</time>
      </trkpt>
      <trkpt lat="48.66295" lon="2.05424">
        <ele>172.7</ele>
        <time>2025-01-03T19:25:52.402Z</time>
      </trkpt>
      <trkpt lat="48.6629" lon="2.05425">
        <ele>172.7</ele>
        <time>2025-01-03T19:25:55.623Z</time>
      </trkpt>
      <trkpt lat="48.66285" lon="2.05425">
        <ele>172.7</ele>
        <time>2025-01-03T19:25:58.844Z</time>
      </trkpt>
      <trkpt lat="48.6628" lon="2.05426">
        <ele>172.7</ele>
        <time>2025-01-03T19:26:02.065Z</time>
      </trkpt>
      <trkpt lat="48.66276" lon="2.05426">
        <ele>172.7</ele>
        <time>2025-01-03T19:26:05.286Z</time>
      </trkpt>
      <trkpt lat="48.66271" lon="2.05427">
        <ele>172.7</ele>
        <time>2025-01-03T19:26:08.507Z</time>
      </trkpt>
      <trkpt lat="48.66266" lon="2.05427">
        <ele>172.8</ele>
        <time>2025-01-03T19:26:11.728Z</time>
      </trkpt>
      <trkpt lat="48.6626" lon="2.05427">
        <ele>172.9</ele>
        <time>2025-01-03T19:26:15.665Z</time>
      </trkpt>
      <trkpt lat="48.66254" lon="2.05428">
        <ele>172.9</ele>
        <time>2025-01-03T19:26:19.602Z</time>
      </trkpt>
      <trkpt lat="48.66249" lon="2.05428">
        <ele>173</ele>
        <time>2025-01-03T19:26:23.539Z</time>
      </trkpt>
      <trkpt lat="48.66243" lon="2.05428">
        <ele>173</ele>
        <time>2025-01-03T19:26:27.476Z</time>
      </trkpt>
      <trkpt lat="48.66237" lon="2.05429">
        <ele>173</ele>
        <time>2025-01-03T19:26:31.413Z</time>
      </trkpt>
      <trkpt lat="48.66231" lon="2.05429">
        <ele>173</ele>
        <time>2025-01-03T19:26:35.350Z</time>
      </trkpt>
      <trkpt lat="48.66225" lon="2.05429">
        <ele>173</ele>
        <time>2025-01-03T19:26:39.287Z</time>
      </trkpt>
      <trkpt lat="48.6622" lon="2.0543">
        <ele>173</ele>
        <time>2025-01-03T19:26:43.224Z</time>
      </trkpt>
      <trkpt lat="48.66214" lon="2.0543">
        <ele>173</ele>
        <time>2025-01-03T19:26:47.161Z</time>
      </trkpt>
      <trkpt lat="48.66208" lon="2.0543">
        <ele>173</ele>
        <time>2025-01-03T19:26:51.098Z</time>
      </trkpt>
      <trkpt lat="48.66202" lon="2.0543">
        <ele>173</ele>
        <time>2025-01-03T19:26:55.036Z</time>
      </trkpt>
      <trkpt lat="48.66196" lon="2.05431">
        <ele>173</ele>
        <time>2025-01-03T19:26:58.974Z</time>
      </trkpt>
      <trkpt lat="48.6619" lon="2.05431">
        <ele>173.1</ele>
        <time>2025-01-03T19:27:02.912Z</time>
      </trkpt>
      <trkpt lat="48.66185" lon="2.05431">
        <ele>173.4</ele>
        <time>2025-01-03T19:27:06.850Z</time>
      </trkpt>
      <trkpt lat="48.66179" lon="2.05432">
        <ele>173.6</ele>
        <time>2025-01-03T19:27:10.788Z</time>
      </trkpt>
      <trkpt lat="48.66173" lon="2.05432">
        <ele>173.8</ele>
        <time>2025-01-03T19:27:14.726Z</time>
      </trkpt>
      <trkpt lat="48.66167" lon="2.05431">
        <ele>174</ele>
        <time>2025-01-03T19:27:19.113Z</time>
        <extensions>
          <visugpx:TrkExtension xmlns:visugpx="https://www.visugpx.com/editgpx/">
            <visugpx:node>89</visugpx:node>
            </visugpx:TrkExtension>
        </extensions>
      </trkpt>
      <trkpt lat="48.66162" lon="2.05431">
        <ele>174</ele>
        <time>2025-01-03T19:27:22.716Z</time>
      </trkpt>
      <trkpt lat="48.66156" lon="2.05431">
        <ele>174</ele>
        <time>2025-01-03T19:27:26.319Z</time>
      </trkpt>
      <trkpt lat="48.66151" lon="2.0543">
        <ele>174</ele>
        <time>2025-01-03T19:27:29.922Z</time>
      </trkpt>
      <trkpt lat="48.66145" lon="2.0543">
        <ele>174</ele>
        <time>2025-01-03T19:27:33.525Z</time>
      </trkpt>
      <trkpt lat="48.66139" lon="2.05429">
        <ele>174</ele>
        <time>2025-01-03T19:27:37.786Z</time>
      </trkpt>
      <trkpt lat="48.66132" lon="2.05428">
        <ele>174</ele>
        <time>2025-01-03T19:27:42.047Z</time>
      </trkpt>
      <trkpt lat="48.66126" lon="2.05427">
        <ele>174</ele>
        <time>2025-01-03T19:27:46.308Z</time>
      </trkpt>
      <trkpt lat="48.6612" lon="2.05426">
        <ele>174</ele>
        <time>2025-01-03T19:27:50.569Z</time>
      </trkpt>
      <trkpt lat="48.66113" lon="2.05425">
        <ele>174</ele>
        <time>2025-01-03T19:27:54.830Z</time>
      </trkpt>
      <trkpt lat="48.66107" lon="2.05424">
        <ele>174.1</ele>
        <time>2025-01-03T19:27:59.091Z</time>
      </trkpt>
      <trkpt lat="48.661" lon="2.05423">
        <ele>174.3</ele>
        <time>2025-01-03T19:28:03.352Z</time>
      </trkpt>
      <trkpt lat="48.66094" lon="2.05422">
        <ele>174.5</ele>
        <time>2025-01-03T19:28:07.614Z</time>
      </trkpt>
      <trkpt lat="48.66088" lon="2.05421">
        <ele>174.7</ele>
        <time>2025-01-03T19:28:11.876Z</time>
      </trkpt>
      <trkpt lat="48.66081" lon="2.0542">
        <ele>174.9</ele>
        <time>2025-01-03T19:28:16.138Z</time>
      </trkpt>
      <trkpt lat="48.66075" lon="2.05419">
        <ele>174.9</ele>
        <time>2025-01-03T19:28:20.400Z</time>
      </trkpt>
      <trkpt lat="48.66069" lon="2.05418">
        <ele>175</ele>
        <time>2025-01-03T19:28:24.662Z</time>
      </trkpt>
      <trkpt lat="48.66062" lon="2.05417">
        <ele>175</ele>
        <time>2025-01-03T19:28:28.924Z</time>
      </trkpt>
      <trkpt lat="48.66056" lon="2.05416">
        <ele>175</ele>
        <time>2025-01-03T19:28:33.186Z</time>
      </trkpt>
      <trkpt lat="48.66049" lon="2.05415">
        <ele>175</ele>
        <time>2025-01-03T19:28:37.448Z</time>
      </trkpt>
      <trkpt lat="48.66043" lon="2.05414">
        <ele>175</ele>
        <time>2025-01-03T19:28:41.710Z</time>
      </trkpt>
      <trkpt lat="48.66037" lon="2.05413">
        <ele>175</ele>
        <time>2025-01-03T19:28:45.972Z</time>
      </trkpt>
      <trkpt lat="48.6603" lon="2.05411">
        <ele>175</ele>
        <time>2025-01-03T19:28:50.234Z</time>
      </trkpt>
      <trkpt lat="48.66024" lon="2.0541">
        <ele>175</ele>
        <time>2025-01-03T19:28:54.496Z</time>
      </trkpt>
      <trkpt lat="48.66018" lon="2.05409">
        <ele>175</ele>
        <time>2025-01-03T19:28:58.758Z</time>
      </trkpt>
      <trkpt lat="48.66011" lon="2.05408">
        <ele>175</ele>
        <time>2025-01-03T19:29:03.020Z</time>
      </trkpt>
      <trkpt lat="48.66005" lon="2.05407">
        <ele>175</ele>
        <time>2025-01-03T19:29:07.282Z</time>
      </trkpt>
      <trkpt lat="48.65998" lon="2.05406">
        <ele>175</ele>
        <time>2025-01-03T19:29:11.544Z</time>
      </trkpt>
      <trkpt lat="48.65992" lon="2.05405">
        <ele>175</ele>
        <time>2025-01-03T19:29:15.806Z</time>
      </trkpt>
      <trkpt lat="48.65986" lon="2.05404">
        <ele>175</ele>
        <time>2025-01-03T19:29:20.068Z</time>
      </trkpt>
      <trkpt lat="48.65979" lon="2.05403">
        <ele>175</ele>
        <time>2025-01-03T19:29:24.330Z</time>
      </trkpt>
      <trkpt lat="48.65973" lon="2.05402">
        <ele>175</ele>
        <time>2025-01-03T19:29:28.592Z</time>
      </trkpt>
      <trkpt lat="48.65967" lon="2.05401">
        <ele>175</ele>
        <time>2025-01-03T19:29:32.854Z</time>
      </trkpt>
      <trkpt lat="48.6596" lon="2.054">
        <ele>175</ele>
        <time>2025-01-03T19:29:37.116Z</time>
      </trkpt>
      <trkpt lat="48.65954" lon="2.05399">
        <ele>175</ele>
        <time>2025-01-03T19:29:41.378Z</time>
      </trkpt>
      <trkpt lat="48.65947" lon="2.05398">
        <ele>175</ele>
        <time>2025-01-03T19:29:45.640Z</time>
      </trkpt>
      <trkpt lat="48.65941" lon="2.05397">
        <ele>175</ele>
        <time>2025-01-03T19:29:49.903Z</time>
      </trkpt>
      <trkpt lat="48.65935" lon="2.05397">
        <ele>175</ele>
        <time>2025-01-03T19:29:54.159Z</time>
      </trkpt>
      <trkpt lat="48.65928" lon="2.05397">
        <ele>175</ele>
        <time>2025-01-03T19:29:58.415Z</time>
      </trkpt>
      <trkpt lat="48.6592" lon="2.05394">
        <ele>175</ele>
        <time>2025-01-03T19:30:03.786Z</time>
      </trkpt>
      <trkpt lat="48.65912" lon="2.05392">
        <ele>175</ele>
        <time>2025-01-03T19:30:09.157Z</time>
      </trkpt>
      <trkpt lat="48.65904" lon="2.05389">
        <ele>175</ele>
        <time>2025-01-03T19:30:14.529Z</time>
      </trkpt>
      <trkpt lat="48.65896" lon="2.05386">
        <ele>175</ele>
        <time>2025-01-03T19:30:19.902Z</time>
      </trkpt>
      <trkpt lat="48.65891" lon="2.05384">
        <ele>175</ele>
        <time>2025-01-03T19:30:23.303Z</time>
      </trkpt>
      <trkpt lat="48.65886" lon="2.05382">
        <ele>175</ele>
        <time>2025-01-03T19:30:26.704Z</time>
      </trkpt>
      <trkpt lat="48.65881" lon="2.05379">
        <ele>175.1</ele>
        <time>2025-01-03T19:30:30.105Z</time>
      </trkpt>
      <trkpt lat="48.65877" lon="2.05377">
        <ele>175.2</ele>
        <time>2025-01-03T19:30:33.506Z</time>
      </trkpt>
      <trkpt lat="48.65872" lon="2.05375">
        <ele>175.3</ele>
        <time>2025-01-03T19:30:36.907Z</time>
      </trkpt>
      <trkpt lat="48.65867" lon="2.05373">
        <ele>175.5</ele>
        <time>2025-01-03T19:30:40.308Z</time>
      </trkpt>
      <trkpt lat="48.65862" lon="2.0537">
        <ele>175.7</ele>
        <time>2025-01-03T19:30:43.709Z</time>
      </trkpt>
      <trkpt lat="48.65857" lon="2.05368">
        <ele>175.6</ele>
        <time>2025-01-03T19:30:47.110Z</time>
      </trkpt>
      <trkpt lat="48.65852" lon="2.05366">
        <ele>175.6</ele>
        <time>2025-01-03T19:30:50.511Z</time>
      </trkpt>
      <trkpt lat="48.65847" lon="2.05364">
        <ele>175.5</ele>
        <time>2025-01-03T19:30:53.912Z</time>
      </trkpt>
      <trkpt lat="48.65842" lon="2.05361">
        <ele>175.3</ele>
        <time>2025-01-03T19:30:57.313Z</time>
      </trkpt>
      <trkpt lat="48.65838" lon="2.05359">
        <ele>175.2</ele>
        <time>2025-01-03T19:31:00.714Z</time>
      </trkpt>
      <trkpt lat="48.65833" lon="2.05357">
        <ele>175.2</ele>
        <time>2025-01-03T19:31:04.115Z</time>
      </trkpt>
      <trkpt lat="48.65828" lon="2.05355">
        <ele>175.4</ele>
        <time>2025-01-03T19:31:07.516Z</time>
      </trkpt>
      <trkpt lat="48.65823" lon="2.05352">
        <ele>175.6</ele>
        <time>2025-01-03T19:31:10.917Z</time>
      </trkpt>
      <trkpt lat="48.65818" lon="2.0535">
        <ele>175.7</ele>
        <time>2025-01-03T19:31:14.318Z</time>
      </trkpt>
      <trkpt lat="48.65813" lon="2.05348">
        <ele>175.9</ele>
        <time>2025-01-03T19:31:17.719Z</time>
      </trkpt>
      <trkpt lat="48.65808" lon="2.05346">
        <ele>176</ele>
        <time>2025-01-03T19:31:21.120Z</time>
      </trkpt>
      <trkpt lat="48.65803" lon="2.05343">
        <ele>176</ele>
        <time>2025-01-03T19:31:24.521Z</time>
      </trkpt>
      <trkpt lat="48.65799" lon="2.05341">
        <ele>176</ele>
        <time>2025-01-03T19:31:27.922Z</time>
      </trkpt>
      <trkpt lat="48.65794" lon="2.05339">
        <ele>176</ele>
        <time>2025-01-03T19:31:31.323Z</time>
      </trkpt>
      <trkpt lat="48.65789" lon="2.05337">
        <ele>176</ele>
        <time>2025-01-03T19:31:34.724Z</time>
      </trkpt>
      <trkpt lat="48.65784" lon="2.05334">
        <ele>176</ele>
        <time>2025-01-03T19:31:38.125Z</time>
      </trkpt>
      <trkpt lat="48.65779" lon="2.05332">
        <ele>176</ele>
        <time>2025-01-03T19:31:41.526Z</time>
      </trkpt>
      <trkpt lat="48.65774" lon="2.0533">
        <ele>176</ele>
        <time>2025-01-03T19:31:44.927Z</time>
      </trkpt>
      <trkpt lat="48.65769" lon="2.05328">
        <ele>176</ele>
        <time>2025-01-03T19:31:48.328Z</time>
      </trkpt>
      <trkpt lat="48.65764" lon="2.05325">
        <ele>176</ele>
        <time>2025-01-03T19:31:51.729Z</time>
      </trkpt>
      <trkpt lat="48.6576" lon="2.05323">
        <ele>176</ele>
        <time>2025-01-03T19:31:55.130Z</time>
      </trkpt>
      <trkpt lat="48.65755" lon="2.05321">
        <ele>176</ele>
        <time>2025-01-03T19:31:58.531Z</time>
      </trkpt>
      <trkpt lat="48.6575" lon="2.05319">
        <ele>176</ele>
        <time>2025-01-03T19:32:01.932Z</time>
      </trkpt>
      <trkpt lat="48.65745" lon="2.05316">
        <ele>176</ele>
        <time>2025-01-03T19:32:05.333Z</time>
      </trkpt>
      <trkpt lat="48.6574" lon="2.05314">
        <ele>176</ele>
        <time>2025-01-03T19:32:08.736Z</time>
      </trkpt>
      <trkpt lat="48.65733" lon="2.0531">
        <ele>176</ele>
        <time>2025-01-03T19:32:13.468Z</time>
      </trkpt>
      <trkpt lat="48.65727" lon="2.05305">
        <ele>176</ele>
        <time>2025-01-03T19:32:18.200Z</time>
      </trkpt>
      <trkpt lat="48.6572" lon="2.05301">
        <ele>176</ele>
        <time>2025-01-03T19:32:22.933Z</time>
      </trkpt>
      <trkpt lat="48.65714" lon="2.05297">
        <ele>176</ele>
        <time>2025-01-03T19:32:27.666Z</time>
      </trkpt>
      <trkpt lat="48.65707" lon="2.05292">
        <ele>176</ele>
        <time>2025-01-03T19:32:32.399Z</time>
      </trkpt>
      <trkpt lat="48.657" lon="2.05288">
        <ele>176</ele>
        <time>2025-01-03T19:32:37.132Z</time>
      </trkpt>
      <trkpt lat="48.65694" lon="2.05283">
        <ele>176</ele>
        <time>2025-01-03T19:32:41.865Z</time>
      </trkpt>
      <trkpt lat="48.65687" lon="2.05279">
        <ele>176</ele>
        <time>2025-01-03T19:32:46.599Z</time>
      </trkpt>
      <trkpt lat="48.65682" lon="2.05275">
        <ele>176</ele>
        <time>2025-01-03T19:32:50.545Z</time>
      </trkpt>
      <trkpt lat="48.65676" lon="2.05271">
        <ele>176</ele>
        <time>2025-01-03T19:32:54.491Z</time>
      </trkpt>
      <trkpt lat="48.65671" lon="2.05267">
        <ele>176</ele>
        <time>2025-01-03T19:32:58.437Z</time>
      </trkpt>
      <trkpt lat="48.65666" lon="2.05263">
        <ele>176</ele>
        <time>2025-01-03T19:33:02.383Z</time>
      </trkpt>
      <trkpt lat="48.6566" lon="2.05258">
        <ele>176</ele>
        <time>2025-01-03T19:33:06.329Z</time>
      </trkpt>
      <trkpt lat="48.65655" lon="2.05254">
        <ele>176</ele>
        <time>2025-01-03T19:33:10.275Z</time>
      </trkpt>
      <trkpt lat="48.65649" lon="2.0525">
        <ele>176</ele>
        <time>2025-01-03T19:33:14.221Z</time>
      </trkpt>
      <trkpt lat="48.65644" lon="2.05246">
        <ele>176</ele>
        <time>2025-01-03T19:33:18.168Z</time>
      </trkpt>
      <trkpt lat="48.65641" lon="2.0525">
        <ele>176</ele>
        <time>2025-01-03T19:33:20.785Z</time>
        <extensions>
          <visugpx:TrkExtension xmlns:visugpx="https://www.visugpx.com/editgpx/">
            <visugpx:node>90</visugpx:node>
            </visugpx:TrkExtension>
        </extensions>
      </trkpt>
      <trkpt lat="48.6564" lon="2.05251">
        <ele>176</ele>
        <time>2025-01-03T19:33:21.570Z</time>
      </trkpt>
      <trkpt lat="48.65638" lon="2.05258">
        <ele>176</ele>
        <time>2025-01-03T19:33:24.869Z</time>
      </trkpt>
      <trkpt lat="48.65637" lon="2.05271">
        <ele>176</ele>
        <time>2025-01-03T19:33:30.437Z</time>
      </trkpt>
      <trkpt lat="48.65637" lon="2.05283">
        <ele>176</ele>
        <time>2025-01-03T19:33:36.005Z</time>
      </trkpt>
      <trkpt lat="48.65636" lon="2.05296">
        <ele>176</ele>
        <time>2025-01-03T19:33:41.573Z</time>
      </trkpt>
      <trkpt lat="48.65635" lon="2.05309">
        <ele>176</ele>
        <time>2025-01-03T19:33:47.142Z</time>
      </trkpt>
      <trkpt lat="48.65635" lon="2.05322">
        <ele>176</ele>
        <time>2025-01-03T19:33:52.711Z</time>
      </trkpt>
      <trkpt lat="48.65634" lon="2.05334">
        <ele>176</ele>
        <time>2025-01-03T19:33:58.280Z</time>
      </trkpt>
      <trkpt lat="48.65633" lon="2.05347">
        <ele>176</ele>
        <time>2025-01-03T19:34:03.849Z</time>
      </trkpt>
      <trkpt lat="48.65633" lon="2.0536">
        <ele>176</ele>
        <time>2025-01-03T19:34:09.418Z</time>
      </trkpt>
      <trkpt lat="48.65632" lon="2.05373">
        <ele>176</ele>
        <time>2025-01-03T19:34:14.987Z</time>
      </trkpt>
      <trkpt lat="48.65631" lon="2.05385">
        <ele>176</ele>
        <time>2025-01-03T19:34:20.556Z</time>
      </trkpt>
      <trkpt lat="48.65631" lon="2.05398">
        <ele>176</ele>
        <time>2025-01-03T19:34:26.125Z</time>
      </trkpt>
      <trkpt lat="48.6563" lon="2.05411">
        <ele>176</ele>
        <time>2025-01-03T19:34:31.694Z</time>
      </trkpt>
      <trkpt lat="48.6563" lon="2.05423">
        <ele>176</ele>
        <time>2025-01-03T19:34:37.263Z</time>
      </trkpt>
      <trkpt lat="48.65629" lon="2.05436">
        <ele>176</ele>
        <time>2025-01-03T19:34:42.832Z</time>
      </trkpt>
      <trkpt lat="48.65628" lon="2.05449">
        <ele>176</ele>
        <time>2025-01-03T19:34:48.401Z</time>
      </trkpt>
      <trkpt lat="48.65628" lon="2.05462">
        <ele>176</ele>
        <time>2025-01-03T19:34:53.970Z</time>
      </trkpt>
      <trkpt lat="48.65627" lon="2.05474">
        <ele>176</ele>
        <time>2025-01-03T19:34:59.539Z</time>
      </trkpt>
      <trkpt lat="48.65626" lon="2.05487">
        <ele>176</ele>
        <time>2025-01-03T19:35:05.108Z</time>
      </trkpt>
      <trkpt lat="48.65626" lon="2.055">
        <ele>176</ele>
        <time>2025-01-03T19:35:10.677Z</time>
      </trkpt>
      <trkpt lat="48.65625" lon="2.05512">
        <ele>176</ele>
        <time>2025-01-03T19:35:16.246Z</time>
      </trkpt>
      <trkpt lat="48.65624" lon="2.05525">
        <ele>176</ele>
        <time>2025-01-03T19:35:21.815Z</time>
      </trkpt>
      <trkpt lat="48.65624" lon="2.05538">
        <ele>176.2</ele>
        <time>2025-01-03T19:35:27.384Z</time>
      </trkpt>
      <trkpt lat="48.65623" lon="2.05551">
        <ele>176.5</ele>
        <time>2025-01-03T19:35:32.953Z</time>
      </trkpt>
      <trkpt lat="48.65622" lon="2.05563">
        <ele>176.7</ele>
        <time>2025-01-03T19:35:38.522Z</time>
      </trkpt>
      <trkpt lat="48.65622" lon="2.05576">
        <ele>176.9</ele>
        <time>2025-01-03T19:35:44.091Z</time>
      </trkpt>
      <trkpt lat="48.65621" lon="2.05589">
        <ele>177</ele>
        <time>2025-01-03T19:35:49.660Z</time>
      </trkpt>
      <trkpt lat="48.6562" lon="2.05601">
        <ele>177</ele>
        <time>2025-01-03T19:35:55.229Z</time>
      </trkpt>
      <trkpt lat="48.6562" lon="2.05614">
        <ele>177</ele>
        <time>2025-01-03T19:36:00.798Z</time>
      </trkpt>
      <trkpt lat="48.65619" lon="2.05627">
        <ele>177</ele>
        <time>2025-01-03T19:36:06.367Z</time>
      </trkpt>
      <trkpt lat="48.65618" lon="2.0564">
        <ele>177</ele>
        <time>2025-01-03T19:36:11.936Z</time>
      </trkpt>
      <trkpt lat="48.65618" lon="2.05652">
        <ele>176.9</ele>
        <time>2025-01-03T19:36:17.505Z</time>
      </trkpt>
      <trkpt lat="48.65617" lon="2.05665">
        <ele>176.8</ele>
        <time>2025-01-03T19:36:23.075Z</time>
      </trkpt>
      <trkpt lat="48.65616" lon="2.05676">
        <ele>176.8</ele>
        <time>2025-01-03T19:36:27.821Z</time>
      </trkpt>
      <trkpt lat="48.65615" lon="2.05687">
        <ele>176.9</ele>
        <time>2025-01-03T19:36:32.567Z</time>
      </trkpt>
      <trkpt lat="48.65614" lon="2.05697">
        <ele>176.9</ele>
        <time>2025-01-03T19:36:37.314Z</time>
      </trkpt>
      <trkpt lat="48.65613" lon="2.05708">
        <ele>176.9</ele>
        <time>2025-01-03T19:36:42.062Z</time>
      </trkpt>
      <trkpt lat="48.65612" lon="2.05717">
        <ele>177</ele>
        <time>2025-01-03T19:36:45.879Z</time>
      </trkpt>
      <trkpt lat="48.65611" lon="2.05725">
        <ele>177</ele>
        <time>2025-01-03T19:36:49.696Z</time>
      </trkpt>
      <trkpt lat="48.65609" lon="2.05734">
        <ele>177</ele>
        <time>2025-01-03T19:36:53.513Z</time>
      </trkpt>
      <trkpt lat="48.65608" lon="2.05742">
        <ele>177</ele>
        <time>2025-01-03T19:36:57.332Z</time>
      </trkpt>
      <trkpt lat="48.65606" lon="2.05754">
        <ele>177</ele>
        <time>2025-01-03T19:37:02.929Z</time>
      </trkpt>
      <trkpt lat="48.65603" lon="2.05767">
        <ele>177</ele>
        <time>2025-01-03T19:37:08.526Z</time>
      </trkpt>
      <trkpt lat="48.65601" lon="2.05779">
        <ele>177</ele>
        <time>2025-01-03T19:37:14.123Z</time>
      </trkpt>
      <trkpt lat="48.65598" lon="2.05792">
        <ele>177</ele>
        <time>2025-01-03T19:37:19.720Z</time>
      </trkpt>
      <trkpt lat="48.65595" lon="2.05804">
        <ele>177</ele>
        <time>2025-01-03T19:37:25.317Z</time>
      </trkpt>
      <trkpt lat="48.65593" lon="2.05816">
        <ele>177</ele>
        <time>2025-01-03T19:37:30.914Z</time>
      </trkpt>
      <trkpt lat="48.6559" lon="2.05829">
        <ele>177</ele>
        <time>2025-01-03T19:37:36.511Z</time>
      </trkpt>
      <trkpt lat="48.65588" lon="2.05841">
        <ele>177</ele>
        <time>2025-01-03T19:37:42.108Z</time>
      </trkpt>
      <trkpt lat="48.65585" lon="2.05853">
        <ele>177</ele>
        <time>2025-01-03T19:37:47.705Z</time>
      </trkpt>
      <trkpt lat="48.65583" lon="2.05866">
        <ele>177</ele>
        <time>2025-01-03T19:37:53.302Z</time>
      </trkpt>
      <trkpt lat="48.6558" lon="2.05878">
        <ele>177</ele>
        <time>2025-01-03T19:37:58.899Z</time>
      </trkpt>
      <trkpt lat="48.65578" lon="2.05891">
        <ele>177</ele>
        <time>2025-01-03T19:38:04.496Z</time>
      </trkpt>
      <trkpt lat="48.65575" lon="2.05903">
        <ele>177</ele>
        <time>2025-01-03T19:38:10.093Z</time>
      </trkpt>
      <trkpt lat="48.65573" lon="2.05915">
        <ele>177</ele>
        <time>2025-01-03T19:38:15.690Z</time>
      </trkpt>
      <trkpt lat="48.6557" lon="2.05928">
        <ele>177</ele>
        <time>2025-01-03T19:38:21.287Z</time>
      </trkpt>
      <trkpt lat="48.65568" lon="2.0594">
        <ele>177</ele>
        <time>2025-01-03T19:38:26.884Z</time>
      </trkpt>
      <trkpt lat="48.65565" lon="2.05952">
        <ele>177</ele>
        <time>2025-01-03T19:38:32.481Z</time>
      </trkpt>
      <trkpt lat="48.65563" lon="2.05965">
        <ele>177</ele>
        <time>2025-01-03T19:38:38.078Z</time>
      </trkpt>
      <trkpt lat="48.6556" lon="2.05977">
        <ele>177</ele>
        <time>2025-01-03T19:38:43.675Z</time>
      </trkpt>
      <trkpt lat="48.65558" lon="2.0599">
        <ele>177</ele>
        <time>2025-01-03T19:38:49.272Z</time>
      </trkpt>
      <trkpt lat="48.65555" lon="2.06002">
        <ele>177</ele>
        <time>2025-01-03T19:38:54.869Z</time>
      </trkpt>
      <trkpt lat="48.65553" lon="2.06014">
        <ele>177</ele>
        <time>2025-01-03T19:39:00.466Z</time>
      </trkpt>
      <trkpt lat="48.6555" lon="2.06027">
        <ele>177</ele>
        <time>2025-01-03T19:39:06.063Z</time>
      </trkpt>
      <trkpt lat="48.65548" lon="2.06039">
        <ele>177</ele>
        <time>2025-01-03T19:39:11.660Z</time>
      </trkpt>
      <trkpt lat="48.65545" lon="2.06051">
        <ele>177</ele>
        <time>2025-01-03T19:39:17.257Z</time>
      </trkpt>
      <trkpt lat="48.65543" lon="2.06064">
        <ele>177</ele>
        <time>2025-01-03T19:39:22.854Z</time>
      </trkpt>
      <trkpt lat="48.6554" lon="2.06076">
        <ele>177</ele>
        <time>2025-01-03T19:39:28.451Z</time>
      </trkpt>
      <trkpt lat="48.65538" lon="2.06089">
        <ele>177</ele>
        <time>2025-01-03T19:39:34.048Z</time>
      </trkpt>
      <trkpt lat="48.65535" lon="2.06101">
        <ele>177</ele>
        <time>2025-01-03T19:39:39.645Z</time>
      </trkpt>
      <trkpt lat="48.65533" lon="2.06113">
        <ele>177</ele>
        <time>2025-01-03T19:39:45.242Z</time>
      </trkpt>
      <trkpt lat="48.6553" lon="2.06126">
        <ele>177</ele>
        <time>2025-01-03T19:39:50.839Z</time>
      </trkpt>
      <trkpt lat="48.65528" lon="2.06138">
        <ele>177</ele>
        <time>2025-01-03T19:39:56.436Z</time>
      </trkpt>
      <trkpt lat="48.65525" lon="2.0615">
        <ele>177</ele>
        <time>2025-01-03T19:40:02.033Z</time>
      </trkpt>
      <trkpt lat="48.65523" lon="2.06163">
        <ele>177</ele>
        <time>2025-01-03T19:40:07.630Z</time>
      </trkpt>
      <trkpt lat="48.6552" lon="2.06175">
        <ele>177</ele>
        <time>2025-01-03T19:40:13.227Z</time>
      </trkpt>
      <trkpt lat="48.65517" lon="2.06188">
        <ele>177</ele>
        <time>2025-01-03T19:40:18.824Z</time>
      </trkpt>
      <trkpt lat="48.65515" lon="2.062">
        <ele>177</ele>
        <time>2025-01-03T19:40:24.422Z</time>
      </trkpt>
      <trkpt lat="48.65512" lon="2.06212">
        <ele>177</ele>
        <time>2025-01-03T19:40:30.020Z</time>
      </trkpt>
      <trkpt lat="48.6551" lon="2.06225">
        <ele>177</ele>
        <time>2025-01-03T19:40:35.618Z</time>
      </trkpt>
      <trkpt lat="48.65507" lon="2.06237">
        <ele>177</ele>
        <time>2025-01-03T19:40:41.216Z</time>
      </trkpt>
      <trkpt lat="48.65505" lon="2.06249">
        <ele>177</ele>
        <time>2025-01-03T19:40:46.814Z</time>
      </trkpt>
      <trkpt lat="48.65502" lon="2.06262">
        <ele>177</ele>
        <time>2025-01-03T19:40:52.412Z</time>
      </trkpt>
      <trkpt lat="48.655" lon="2.06274">
        <ele>177</ele>
        <time>2025-01-03T19:40:58.010Z</time>
      </trkpt>
      <trkpt lat="48.65497" lon="2.06287">
        <ele>177</ele>
        <time>2025-01-03T19:41:03.608Z</time>
      </trkpt>
      <trkpt lat="48.65495" lon="2.06299">
        <ele>177</ele>
        <time>2025-01-03T19:41:09.206Z</time>
      </trkpt>
      <trkpt lat="48.65492" lon="2.06311">
        <ele>177</ele>
        <time>2025-01-03T19:41:14.804Z</time>
      </trkpt>
      <trkpt lat="48.6549" lon="2.06324">
        <ele>177</ele>
        <time>2025-01-03T19:41:20.402Z</time>
      </trkpt>
      <trkpt lat="48.65487" lon="2.06336">
        <ele>177</ele>
        <time>2025-01-03T19:41:26.000Z</time>
      </trkpt>
      <trkpt lat="48.65485" lon="2.06348">
        <ele>177</ele>
        <time>2025-01-03T19:41:31.598Z</time>
      </trkpt>
      <trkpt lat="48.65482" lon="2.06361">
        <ele>177</ele>
        <time>2025-01-03T19:41:37.196Z</time>
      </trkpt>
      <trkpt lat="48.6548" lon="2.06373">
        <ele>177</ele>
        <time>2025-01-03T19:41:42.794Z</time>
      </trkpt>
      <trkpt lat="48.65477" lon="2.06386">
        <ele>177</ele>
        <time>2025-01-03T19:41:48.392Z</time>
      </trkpt>
      <trkpt lat="48.65475" lon="2.06398">
        <ele>177</ele>
        <time>2025-01-03T19:41:53.990Z</time>
      </trkpt>
      <trkpt lat="48.65472" lon="2.0641">
        <ele>177</ele>
        <time>2025-01-03T19:41:59.588Z</time>
      </trkpt>
      <trkpt lat="48.6547" lon="2.06423">
        <ele>177</ele>
        <time>2025-01-03T19:42:05.186Z</time>
      </trkpt>
      <trkpt lat="48.65467" lon="2.06435">
        <ele>177</ele>
        <time>2025-01-03T19:42:10.784Z</time>
      </trkpt>
      <trkpt lat="48.65465" lon="2.06447">
        <ele>176.9</ele>
        <time>2025-01-03T19:42:16.382Z</time>
      </trkpt>
      <trkpt lat="48.65462" lon="2.0646">
        <ele>176.6</ele>
        <time>2025-01-03T19:42:21.980Z</time>
      </trkpt>
      <trkpt lat="48.6546" lon="2.06472">
        <ele>176.5</ele>
        <time>2025-01-03T19:42:27.578Z</time>
      </trkpt>
      <trkpt lat="48.65457" lon="2.06485">
        <ele>176.7</ele>
        <time>2025-01-03T19:42:33.176Z</time>
      </trkpt>
      <trkpt lat="48.65455" lon="2.06497">
        <ele>177</ele>
        <time>2025-01-03T19:42:38.774Z</time>
      </trkpt>
      <trkpt lat="48.65452" lon="2.06509">
        <ele>176.9</ele>
        <time>2025-01-03T19:42:44.372Z</time>
      </trkpt>
      <trkpt lat="48.6545" lon="2.06522">
        <ele>176.9</ele>
        <time>2025-01-03T19:42:49.970Z</time>
      </trkpt>
      <trkpt lat="48.65447" lon="2.06534">
        <ele>176.9</ele>
        <time>2025-01-03T19:42:55.570Z</time>
      </trkpt>
      <trkpt lat="48.65442" lon="2.06541">
        <ele>177</ele>
        <time>2025-01-03T19:43:00.237Z</time>
        <extensions>
          <visugpx:TrkExtension xmlns:visugpx="https://www.visugpx.com/editgpx/">
            <visugpx:node>91</visugpx:node>
            </visugpx:TrkExtension>
        </extensions>
      </trkpt>
      <trkpt lat="48.65437" lon="2.06548">
        <ele>177</ele>
        <time>2025-01-03T19:43:04.697Z</time>
      </trkpt>
      <trkpt lat="48.65429" lon="2.06549">
        <ele>177</ele>
        <time>2025-01-03T19:43:09.617Z</time>
      </trkpt>
      <trkpt lat="48.65421" lon="2.06549">
        <ele>177</ele>
        <time>2025-01-03T19:43:14.537Z</time>
      </trkpt>
      <trkpt lat="48.65413" lon="2.0655">
        <ele>176.9</ele>
        <time>2025-01-03T19:43:19.457Z</time>
      </trkpt>
      <trkpt lat="48.65406" lon="2.06551">
        <ele>176.7</ele>
        <time>2025-01-03T19:43:24.377Z</time>
      </trkpt>
      <trkpt lat="48.65398" lon="2.06551">
        <ele>176.4</ele>
        <time>2025-01-03T19:43:29.297Z</time>
      </trkpt>
      <trkpt lat="48.6539" lon="2.06552">
        <ele>176.2</ele>
        <time>2025-01-03T19:43:34.217Z</time>
      </trkpt>
      <trkpt lat="48.65382" lon="2.06552">
        <ele>176.1</ele>
        <time>2025-01-03T19:43:39.137Z</time>
      </trkpt>
      <trkpt lat="48.65374" lon="2.06553">
        <ele>176</ele>
        <time>2025-01-03T19:43:44.058Z</time>
      </trkpt>
      <trkpt lat="48.65367" lon="2.06554">
        <ele>176</ele>
        <time>2025-01-03T19:43:48.973Z</time>
      </trkpt>
      <trkpt lat="48.65359" lon="2.06554">
        <ele>176</ele>
        <time>2025-01-03T19:43:53.889Z</time>
      </trkpt>
      <trkpt lat="48.65352" lon="2.06555">
        <ele>176</ele>
        <time>2025-01-03T19:43:58.805Z</time>
      </trkpt>
      <trkpt lat="48.65344" lon="2.06555">
        <ele>176</ele>
        <time>2025-01-03T19:44:03.721Z</time>
      </trkpt>
      <trkpt lat="48.65339" lon="2.06552">
        <ele>176</ele>
        <time>2025-01-03T19:44:07.548Z</time>
      </trkpt>
      <trkpt lat="48.65333" lon="2.06549">
        <ele>176</ele>
        <time>2025-01-03T19:44:11.377Z</time>
      </trkpt>
      <trkpt lat="48.65327" lon="2.0654">
        <ele>176</ele>
        <time>2025-01-03T19:44:17.145Z</time>
      </trkpt>
      <trkpt lat="48.6532" lon="2.06531">
        <ele>176</ele>
        <time>2025-01-03T19:44:22.914Z</time>
      </trkpt>
      <trkpt lat="48.65316" lon="2.06521">
        <ele>176</ele>
        <time>2025-01-03T19:44:28.147Z</time>
      </trkpt>
      <trkpt lat="48.65311" lon="2.06511">
        <ele>176</ele>
        <time>2025-01-03T19:44:33.382Z</time>
      </trkpt>
      <trkpt lat="48.65309" lon="2.06503">
        <ele>176</ele>
        <time>2025-01-03T19:44:37.193Z</time>
      </trkpt>
      <trkpt lat="48.65306" lon="2.06496">
        <ele>176</ele>
        <time>2025-01-03T19:44:41.004Z</time>
      </trkpt>
      <trkpt lat="48.65304" lon="2.06488">
        <ele>176.1</ele>
        <time>2025-01-03T19:44:44.815Z</time>
      </trkpt>
      <trkpt lat="48.65301" lon="2.06481">
        <ele>176.2</ele>
        <time>2025-01-03T19:44:48.626Z</time>
      </trkpt>
      <trkpt lat="48.65299" lon="2.06473">
        <ele>176.3</ele>
        <time>2025-01-03T19:44:52.437Z</time>
      </trkpt>
      <trkpt lat="48.65296" lon="2.06465">
        <ele>176.4</ele>
        <time>2025-01-03T19:44:56.248Z</time>
      </trkpt>
      <trkpt lat="48.65294" lon="2.06458">
        <ele>176.5</ele>
        <time>2025-01-03T19:45:00.059Z</time>
      </trkpt>
      <trkpt lat="48.65291" lon="2.0645">
        <ele>176.5</ele>
        <time>2025-01-03T19:45:03.872Z</time>
      </trkpt>
      <trkpt lat="48.65288" lon="2.06458">
        <ele>176.5</ele>
        <time>2025-01-03T19:45:07.823Z</time>
      </trkpt>
      <trkpt lat="48.65286" lon="2.06466">
        <ele>176.6</ele>
        <time>2025-01-03T19:45:11.775Z</time>
      </trkpt>
      <trkpt lat="48.65283" lon="2.06474">
        <ele>176.8</ele>
        <time>2025-01-03T19:45:15.727Z</time>
      </trkpt>
      <trkpt lat="48.6528" lon="2.06482">
        <ele>176.9</ele>
        <time>2025-01-03T19:45:19.679Z</time>
      </trkpt>
      <trkpt lat="48.65277" lon="2.0649">
        <ele>177</ele>
        <time>2025-01-03T19:45:23.631Z</time>
      </trkpt>
      <trkpt lat="48.65275" lon="2.06498">
        <ele>176.9</ele>
        <time>2025-01-03T19:45:27.583Z</time>
      </trkpt>
      <trkpt lat="48.65272" lon="2.06506">
        <ele>176.8</ele>
        <time>2025-01-03T19:45:31.535Z</time>
      </trkpt>
      <trkpt lat="48.65269" lon="2.06514">
        <ele>176.7</ele>
        <time>2025-01-03T19:45:35.488Z</time>
        <extensions>
          <visugpx:TrkExtension xmlns:visugpx="https://www.visugpx.com/editgpx/">
            <visugpx:node>92</visugpx:node>
            </visugpx:TrkExtension>
        </extensions>
      </trkpt>
      <trkpt lat="48.65267" lon="2.06521">
        <ele>176.6</ele>
        <time>2025-01-03T19:45:38.746Z</time>
      </trkpt>
      <trkpt lat="48.65264" lon="2.06528">
        <ele>176.5</ele>
        <time>2025-01-03T19:45:42.004Z</time>
      </trkpt>
      <trkpt lat="48.65262" lon="2.06535">
        <ele>176.3</ele>
        <time>2025-01-03T19:45:45.262Z</time>
      </trkpt>
      <trkpt lat="48.6526" lon="2.06542">
        <ele>176.2</ele>
        <time>2025-01-03T19:45:48.520Z</time>
      </trkpt>
      <trkpt lat="48.65258" lon="2.06549">
        <ele>176.1</ele>
        <time>2025-01-03T19:45:51.778Z</time>
      </trkpt>
      <trkpt lat="48.65255" lon="2.06555">
        <ele>176</ele>
        <time>2025-01-03T19:45:55.036Z</time>
      </trkpt>
      <trkpt lat="48.65253" lon="2.06562">
        <ele>176.2</ele>
        <time>2025-01-03T19:45:58.294Z</time>
      </trkpt>
      <trkpt lat="48.65251" lon="2.06569">
        <ele>176.5</ele>
        <time>2025-01-03T19:46:01.552Z</time>
      </trkpt>
      <trkpt lat="48.65248" lon="2.06576">
        <ele>176.7</ele>
        <time>2025-01-03T19:46:04.810Z</time>
      </trkpt>
      <trkpt lat="48.65246" lon="2.06583">
        <ele>176.8</ele>
        <time>2025-01-03T19:46:08.068Z</time>
      </trkpt>
      <trkpt lat="48.65244" lon="2.0659">
        <ele>176.6</ele>
        <time>2025-01-03T19:46:11.326Z</time>
      </trkpt>
      <trkpt lat="48.65241" lon="2.06597">
        <ele>176.4</ele>
        <time>2025-01-03T19:46:14.584Z</time>
      </trkpt>
      <trkpt lat="48.65239" lon="2.06604">
        <ele>176.2</ele>
        <time>2025-01-03T19:46:17.842Z</time>
      </trkpt>
      <trkpt lat="48.65237" lon="2.06611">
        <ele>176</ele>
        <time>2025-01-03T19:46:21.100Z</time>
      </trkpt>
      <trkpt lat="48.65235" lon="2.06617">
        <ele>176</ele>
        <time>2025-01-03T19:46:24.358Z</time>
      </trkpt>
      <trkpt lat="48.65232" lon="2.06624">
        <ele>176</ele>
        <time>2025-01-03T19:46:27.616Z</time>
      </trkpt>
      <trkpt lat="48.6523" lon="2.06631">
        <ele>176</ele>
        <time>2025-01-03T19:46:30.874Z</time>
      </trkpt>
      <trkpt lat="48.65228" lon="2.06638">
        <ele>176</ele>
        <time>2025-01-03T19:46:34.132Z</time>
      </trkpt>
      <trkpt lat="48.65225" lon="2.06645">
        <ele>176</ele>
        <time>2025-01-03T19:46:37.390Z</time>
      </trkpt>
      <trkpt lat="48.65223" lon="2.06652">
        <ele>176</ele>
        <time>2025-01-03T19:46:40.648Z</time>
      </trkpt>
      <trkpt lat="48.65221" lon="2.06659">
        <ele>176</ele>
        <time>2025-01-03T19:46:43.906Z</time>
      </trkpt>
      <trkpt lat="48.65219" lon="2.06666">
        <ele>176</ele>
        <time>2025-01-03T19:46:47.164Z</time>
      </trkpt>
      <trkpt lat="48.65216" lon="2.06673">
        <ele>176</ele>
        <time>2025-01-03T19:46:50.422Z</time>
      </trkpt>
      <trkpt lat="48.65214" lon="2.06679">
        <ele>176</ele>
        <time>2025-01-03T19:46:53.680Z</time>
      </trkpt>
      <trkpt lat="48.65212" lon="2.06686">
        <ele>176</ele>
        <time>2025-01-03T19:46:56.938Z</time>
      </trkpt>
      <trkpt lat="48.65209" lon="2.06693">
        <ele>176</ele>
        <time>2025-01-03T19:47:00.196Z</time>
      </trkpt>
      <trkpt lat="48.65207" lon="2.067">
        <ele>175.9</ele>
        <time>2025-01-03T19:47:03.454Z</time>
      </trkpt>
      <trkpt lat="48.65205" lon="2.06707">
        <ele>175.7</ele>
        <time>2025-01-03T19:47:06.712Z</time>
      </trkpt>
      <trkpt lat="48.65202" lon="2.06714">
        <ele>175.5</ele>
        <time>2025-01-03T19:47:09.970Z</time>
      </trkpt>
      <trkpt lat="48.652" lon="2.06721">
        <ele>175.2</ele>
        <time>2025-01-03T19:47:13.228Z</time>
      </trkpt>
      <trkpt lat="48.65198" lon="2.06728">
        <ele>175.1</ele>
        <time>2025-01-03T19:47:16.486Z</time>
      </trkpt>
      <trkpt lat="48.65196" lon="2.06735">
        <ele>175</ele>
        <time>2025-01-03T19:47:19.744Z</time>
      </trkpt>
      <trkpt lat="48.65193" lon="2.06741">
        <ele>175</ele>
        <time>2025-01-03T19:47:23.002Z</time>
      </trkpt>
      <trkpt lat="48.65191" lon="2.06748">
        <ele>175</ele>
        <time>2025-01-03T19:47:26.260Z</time>
      </trkpt>
      <trkpt lat="48.65189" lon="2.06755">
        <ele>175</ele>
        <time>2025-01-03T19:47:29.518Z</time>
      </trkpt>
      <trkpt lat="48.65186" lon="2.06762">
        <ele>175</ele>
        <time>2025-01-03T19:47:32.776Z</time>
      </trkpt>
      <trkpt lat="48.65184" lon="2.06769">
        <ele>175</ele>
        <time>2025-01-03T19:47:36.034Z</time>
      </trkpt>
      <trkpt lat="48.65182" lon="2.06776">
        <ele>175</ele>
        <time>2025-01-03T19:47:39.292Z</time>
      </trkpt>
      <trkpt lat="48.65179" lon="2.06783">
        <ele>175</ele>
        <time>2025-01-03T19:47:42.550Z</time>
      </trkpt>
      <trkpt lat="48.65177" lon="2.0679">
        <ele>175</ele>
        <time>2025-01-03T19:47:45.808Z</time>
      </trkpt>
      <trkpt lat="48.65175" lon="2.06797">
        <ele>175</ele>
        <time>2025-01-03T19:47:49.066Z</time>
      </trkpt>
      <trkpt lat="48.65173" lon="2.06803">
        <ele>175</ele>
        <time>2025-01-03T19:47:52.324Z</time>
      </trkpt>
      <trkpt lat="48.6517" lon="2.0681">
        <ele>175</ele>
        <time>2025-01-03T19:47:55.582Z</time>
      </trkpt>
      <trkpt lat="48.65168" lon="2.06817">
        <ele>175</ele>
        <time>2025-01-03T19:47:58.840Z</time>
      </trkpt>
      <trkpt lat="48.65166" lon="2.06824">
        <ele>175</ele>
        <time>2025-01-03T19:48:02.098Z</time>
      </trkpt>
      <trkpt lat="48.65163" lon="2.06831">
        <ele>174.9</ele>
        <time>2025-01-03T19:48:05.356Z</time>
      </trkpt>
      <trkpt lat="48.65161" lon="2.06838">
        <ele>174.8</ele>
        <time>2025-01-03T19:48:08.614Z</time>
      </trkpt>
      <trkpt lat="48.65159" lon="2.06845">
        <ele>174.7</ele>
        <time>2025-01-03T19:48:11.872Z</time>
      </trkpt>
      <trkpt lat="48.65157" lon="2.06852">
        <ele>174.6</ele>
        <time>2025-01-03T19:48:15.130Z</time>
      </trkpt>
      <trkpt lat="48.65154" lon="2.06859">
        <ele>174.6</ele>
        <time>2025-01-03T19:48:18.388Z</time>
      </trkpt>
      <trkpt lat="48.65152" lon="2.06865">
        <ele>174.5</ele>
        <time>2025-01-03T19:48:21.647Z</time>
      </trkpt>
      <trkpt lat="48.6515" lon="2.06872">
        <ele>174.4</ele>
        <time>2025-01-03T19:48:24.906Z</time>
      </trkpt>
      <trkpt lat="48.65147" lon="2.06879">
        <ele>174.3</ele>
        <time>2025-01-03T19:48:28.165Z</time>
      </trkpt>
      <trkpt lat="48.65145" lon="2.06886">
        <ele>174.2</ele>
        <time>2025-01-03T19:48:31.424Z</time>
      </trkpt>
      <trkpt lat="48.65143" lon="2.06893">
        <ele>174.1</ele>
        <time>2025-01-03T19:48:34.683Z</time>
      </trkpt>
      <trkpt lat="48.6514" lon="2.069">
        <ele>174.1</ele>
        <time>2025-01-03T19:48:37.942Z</time>
      </trkpt>
      <trkpt lat="48.65138" lon="2.06907">
        <ele>174</ele>
        <time>2025-01-03T19:48:41.201Z</time>
      </trkpt>
      <trkpt lat="48.65136" lon="2.06914">
        <ele>174</ele>
        <time>2025-01-03T19:48:44.460Z</time>
      </trkpt>
      <trkpt lat="48.65134" lon="2.06921">
        <ele>174</ele>
        <time>2025-01-03T19:48:47.719Z</time>
      </trkpt>
      <trkpt lat="48.65131" lon="2.06927">
        <ele>174</ele>
        <time>2025-01-03T19:48:50.978Z</time>
      </trkpt>
      <trkpt lat="48.65129" lon="2.06934">
        <ele>174</ele>
        <time>2025-01-03T19:48:54.237Z</time>
      </trkpt>
      <trkpt lat="48.65127" lon="2.06941">
        <ele>174</ele>
        <time>2025-01-03T19:48:57.496Z</time>
      </trkpt>
      <trkpt lat="48.65124" lon="2.06948">
        <ele>174.1</ele>
        <time>2025-01-03T19:49:00.755Z</time>
      </trkpt>
      <trkpt lat="48.65122" lon="2.06955">
        <ele>174.1</ele>
        <time>2025-01-03T19:49:04.015Z</time>
        <extensions>
          <visugpx:TrkExtension xmlns:visugpx="https://www.visugpx.com/editgpx/">
            <visugpx:node>93</visugpx:node>
            </visugpx:TrkExtension>
        </extensions>
      </trkpt>
      <trkpt lat="48.65119" lon="2.06964">
        <ele>174.2</ele>
        <time>2025-01-03T19:49:08.477Z</time>
      </trkpt>
      <trkpt lat="48.65116" lon="2.06973">
        <ele>174.2</ele>
        <time>2025-01-03T19:49:12.941Z</time>
      </trkpt>
      <trkpt lat="48.65113" lon="2.06983">
        <ele>174.4</ele>
        <time>2025-01-03T19:49:17.830Z</time>
      </trkpt>
      <trkpt lat="48.6511" lon="2.06992">
        <ele>174.7</ele>
        <time>2025-01-03T19:49:22.720Z</time>
      </trkpt>
      <trkpt lat="48.65106" lon="2.07002">
        <ele>174.8</ele>
        <time>2025-01-03T19:49:27.610Z</time>
      </trkpt>
      <trkpt lat="48.65103" lon="2.07011">
        <ele>174.7</ele>
        <time>2025-01-03T19:49:32.501Z</time>
      </trkpt>
      <trkpt lat="48.65099" lon="2.07023">
        <ele>174.6</ele>
        <time>2025-01-03T19:49:37.919Z</time>
      </trkpt>
      <trkpt lat="48.65095" lon="2.07034">
        <ele>174.4</ele>
        <time>2025-01-03T19:49:43.337Z</time>
      </trkpt>
      <trkpt lat="48.65092" lon="2.07046">
        <ele>174.3</ele>
        <time>2025-01-03T19:49:48.755Z</time>
      </trkpt>
      <trkpt lat="48.65088" lon="2.07058">
        <ele>174.2</ele>
        <time>2025-01-03T19:49:54.173Z</time>
      </trkpt>
      <trkpt lat="48.65084" lon="2.07069">
        <ele>174</ele>
        <time>2025-01-03T19:49:59.591Z</time>
      </trkpt>
      <trkpt lat="48.6508" lon="2.07081">
        <ele>174</ele>
        <time>2025-01-03T19:50:05.009Z</time>
      </trkpt>
      <trkpt lat="48.65076" lon="2.07093">
        <ele>174</ele>
        <time>2025-01-03T19:50:10.427Z</time>
      </trkpt>
      <trkpt lat="48.65073" lon="2.07105">
        <ele>174</ele>
        <time>2025-01-03T19:50:15.845Z</time>
      </trkpt>
      <trkpt lat="48.65069" lon="2.07116">
        <ele>174</ele>
        <time>2025-01-03T19:50:21.263Z</time>
      </trkpt>
      <trkpt lat="48.65065" lon="2.07128">
        <ele>174</ele>
        <time>2025-01-03T19:50:26.681Z</time>
      </trkpt>
      <trkpt lat="48.65061" lon="2.0714">
        <ele>174</ele>
        <time>2025-01-03T19:50:32.099Z</time>
      </trkpt>
      <trkpt lat="48.65057" lon="2.07151">
        <ele>174</ele>
        <time>2025-01-03T19:50:37.517Z</time>
      </trkpt>
      <trkpt lat="48.65053" lon="2.07163">
        <ele>173.9</ele>
        <time>2025-01-03T19:50:42.935Z</time>
      </trkpt>
      <trkpt lat="48.6505" lon="2.07175">
        <ele>173.6</ele>
        <time>2025-01-03T19:50:48.353Z</time>
      </trkpt>
      <trkpt lat="48.65046" lon="2.07186">
        <ele>173.2</ele>
        <time>2025-01-03T19:50:53.772Z</time>
      </trkpt>
      <trkpt lat="48.65042" lon="2.07198">
        <ele>172.9</ele>
        <time>2025-01-03T19:50:59.192Z</time>
      </trkpt>
      <trkpt lat="48.65036" lon="2.07192">
        <ele>173</ele>
        <time>2025-01-03T19:51:04.002Z</time>
      </trkpt>
      <trkpt lat="48.6503" lon="2.07186">
        <ele>173</ele>
        <time>2025-01-03T19:51:08.814Z</time>
      </trkpt>
      <trkpt lat="48.65022" lon="2.07181">
        <ele>172.8</ele>
        <time>2025-01-03T19:51:13.941Z</time>
      </trkpt>
      <trkpt lat="48.65015" lon="2.07176">
        <ele>172.5</ele>
        <time>2025-01-03T19:51:19.068Z</time>
      </trkpt>
      <trkpt lat="48.65007" lon="2.07171">
        <ele>172.3</ele>
        <time>2025-01-03T19:51:24.195Z</time>
      </trkpt>
      <trkpt lat="48.65" lon="2.07166">
        <ele>172</ele>
        <time>2025-01-03T19:51:29.322Z</time>
      </trkpt>
      <trkpt lat="48.64992" lon="2.07161">
        <ele>172.1</ele>
        <time>2025-01-03T19:51:34.449Z</time>
      </trkpt>
      <trkpt lat="48.64984" lon="2.07156">
        <ele>172.2</ele>
        <time>2025-01-03T19:51:39.576Z</time>
      </trkpt>
      <trkpt lat="48.64977" lon="2.07151">
        <ele>172.1</ele>
        <time>2025-01-03T19:51:44.703Z</time>
      </trkpt>
      <trkpt lat="48.64969" lon="2.07146">
        <ele>171.7</ele>
        <time>2025-01-03T19:51:49.831Z</time>
      </trkpt>
      <trkpt lat="48.64962" lon="2.07144">
        <ele>171</ele>
        <time>2025-01-03T19:51:54.071Z</time>
      </trkpt>
      <trkpt lat="48.64955" lon="2.07142">
        <ele>170.2</ele>
        <time>2025-01-03T19:51:58.311Z</time>
      </trkpt>
      <trkpt lat="48.64947" lon="2.07139">
        <ele>169.3</ele>
        <time>2025-01-03T19:52:02.551Z</time>
      </trkpt>
      <trkpt lat="48.6494" lon="2.07137">
        <ele>168.5</ele>
        <time>2025-01-03T19:52:06.792Z</time>
      </trkpt>
      <trkpt lat="48.64933" lon="2.07134">
        <ele>167.6</ele>
        <time>2025-01-03T19:52:11.236Z</time>
      </trkpt>
      <trkpt lat="48.64925" lon="2.07131">
        <ele>166.7</ele>
        <time>2025-01-03T19:52:15.680Z</time>
      </trkpt>
      <trkpt lat="48.64918" lon="2.07128">
        <ele>165.7</ele>
        <time>2025-01-03T19:52:20.124Z</time>
      </trkpt>
      <trkpt lat="48.6491" lon="2.07125">
        <ele>164.8</ele>
        <time>2025-01-03T19:52:24.569Z</time>
      </trkpt>
      <trkpt lat="48.64903" lon="2.07122">
        <ele>163.8</ele>
        <time>2025-01-03T19:52:29.014Z</time>
      </trkpt>
      <trkpt lat="48.64895" lon="2.07119">
        <ele>162.6</ele>
        <time>2025-01-03T19:52:33.459Z</time>
      </trkpt>
      <trkpt lat="48.64888" lon="2.07116">
        <ele>161.3</ele>
        <time>2025-01-03T19:52:37.904Z</time>
      </trkpt>
      <trkpt lat="48.6488" lon="2.07113">
        <ele>159.6</ele>
        <time>2025-01-03T19:52:42.350Z</time>
      </trkpt>
      <trkpt lat="48.64876" lon="2.07108">
        <ele>158.4</ele>
        <time>2025-01-03T19:52:45.548Z</time>
      </trkpt>
      <trkpt lat="48.64871" lon="2.07103">
        <ele>157.3</ele>
        <time>2025-01-03T19:52:48.747Z</time>
      </trkpt>
      <trkpt lat="48.64868" lon="2.07095">
        <ele>156.1</ele>
        <time>2025-01-03T19:52:52.458Z</time>
      </trkpt>
      <trkpt lat="48.64864" lon="2.07087">
        <ele>154.8</ele>
        <time>2025-01-03T19:52:56.169Z</time>
      </trkpt>
      <trkpt lat="48.64861" lon="2.07078">
        <ele>153.9</ele>
        <time>2025-01-03T19:52:59.880Z</time>
      </trkpt>
      <trkpt lat="48.64857" lon="2.0707">
        <ele>153.3</ele>
        <time>2025-01-03T19:53:03.591Z</time>
      </trkpt>
      <trkpt lat="48.64854" lon="2.07062">
        <ele>152.5</ele>
        <time>2025-01-03T19:53:07.302Z</time>
      </trkpt>
      <trkpt lat="48.6485" lon="2.07054">
        <ele>151.6</ele>
        <time>2025-01-03T19:53:11.013Z</time>
      </trkpt>
      <trkpt lat="48.64847" lon="2.07045">
        <ele>151</ele>
        <time>2025-01-03T19:53:14.725Z</time>
      </trkpt>
      <trkpt lat="48.64843" lon="2.07037">
        <ele>150.3</ele>
        <time>2025-01-03T19:53:18.438Z</time>
      </trkpt>
      <trkpt lat="48.6484" lon="2.07032">
        <ele>149.5</ele>
        <time>2025-01-03T19:53:21.195Z</time>
      </trkpt>
      <trkpt lat="48.64836" lon="2.07027">
        <ele>148.7</ele>
        <time>2025-01-03T19:53:23.953Z</time>
      </trkpt>
      <trkpt lat="48.64828" lon="2.07022">
        <ele>147.2</ele>
        <time>2025-01-03T19:53:28.912Z</time>
      </trkpt>
      <trkpt lat="48.6482" lon="2.07019">
        <ele>145.8</ele>
        <time>2025-01-03T19:53:33.634Z</time>
      </trkpt>
      <trkpt lat="48.64812" lon="2.07016">
        <ele>144.3</ele>
        <time>2025-01-03T19:53:38.356Z</time>
      </trkpt>
      <trkpt lat="48.64804" lon="2.07013">
        <ele>142.8</ele>
        <time>2025-01-03T19:53:43.078Z</time>
      </trkpt>
      <trkpt lat="48.64796" lon="2.0701">
        <ele>142.1</ele>
        <time>2025-01-03T19:53:47.801Z</time>
      </trkpt>
      <trkpt lat="48.6479" lon="2.07008">
        <ele>141.7</ele>
        <time>2025-01-03T19:53:51.321Z</time>
        <extensions>
          <visugpx:TrkExtension xmlns:visugpx="https://www.visugpx.com/editgpx/">
            <visugpx:node>94</visugpx:node>
            </visugpx:TrkExtension>
        </extensions>
      </trkpt>
      <trkpt lat="48.64786" lon="2.07007">
        <ele>141.4</ele>
        <time>2025-01-03T19:53:53.643Z</time>
      </trkpt>
      <trkpt lat="48.64779" lon="2.07011">
        <ele>141.1</ele>
        <time>2025-01-03T19:53:57.987Z</time>
      </trkpt>
      <trkpt lat="48.64775" lon="2.07007">
        <ele>140.9</ele>
        <time>2025-01-03T19:54:00.757Z</time>
      </trkpt>
      <trkpt lat="48.64768" lon="2.07">
        <ele>140.6</ele>
        <time>2025-01-03T19:54:05.690Z</time>
      </trkpt>
      <trkpt lat="48.64762" lon="2.07009">
        <ele>140.2</ele>
        <time>2025-01-03T19:54:10.530Z</time>
      </trkpt>
      <trkpt lat="48.64757" lon="2.0701">
        <ele>140</ele>
        <time>2025-01-03T19:54:13.461Z</time>
      </trkpt>
      <trkpt lat="48.64754" lon="2.07008">
        <ele>139.9</ele>
        <time>2025-01-03T19:54:15.419Z</time>
      </trkpt>
      <trkpt lat="48.64749" lon="2.07004">
        <ele>139.8</ele>
        <time>2025-01-03T19:54:18.928Z</time>
      </trkpt>
      <trkpt lat="48.64746" lon="2.06996">
        <ele>139.9</ele>
        <time>2025-01-03T19:54:23.117Z</time>
      </trkpt>
      <trkpt lat="48.64739" lon="2.06998">
        <ele>139.6</ele>
        <time>2025-01-03T19:54:27.278Z</time>
      </trkpt>
      <trkpt lat="48.64732" lon="2.06999">
        <ele>139.4</ele>
        <time>2025-01-03T19:54:31.439Z</time>
      </trkpt>
      <trkpt lat="48.64725" lon="2.07001">
        <ele>139.1</ele>
        <time>2025-01-03T19:54:35.601Z</time>
      </trkpt>
      <trkpt lat="48.64718" lon="2.07002">
        <ele>138.9</ele>
        <time>2025-01-03T19:54:39.763Z</time>
      </trkpt>
      <trkpt lat="48.6471" lon="2.07003">
        <ele>138.9</ele>
        <time>2025-01-03T19:54:45.389Z</time>
      </trkpt>
      <trkpt lat="48.64702" lon="2.07004">
        <ele>139</ele>
        <time>2025-01-03T19:54:51.015Z</time>
      </trkpt>
      <trkpt lat="48.64693" lon="2.07005">
        <ele>139</ele>
        <time>2025-01-03T19:54:56.642Z</time>
      </trkpt>
      <trkpt lat="48.64685" lon="2.07006">
        <ele>139.3</ele>
        <time>2025-01-03T19:55:02.269Z</time>
      </trkpt>
      <trkpt lat="48.6468" lon="2.07006">
        <ele>139.5</ele>
        <time>2025-01-03T19:55:06.152Z</time>
      </trkpt>
      <trkpt lat="48.64675" lon="2.07005">
        <ele>139.7</ele>
        <time>2025-01-03T19:55:10.035Z</time>
      </trkpt>
      <trkpt lat="48.64669" lon="2.07005">
        <ele>139.9</ele>
        <time>2025-01-03T19:55:13.918Z</time>
      </trkpt>
      <trkpt lat="48.64664" lon="2.07004">
        <ele>140.1</ele>
        <time>2025-01-03T19:55:17.801Z</time>
      </trkpt>
      <trkpt lat="48.64659" lon="2.07004">
        <ele>140.3</ele>
        <time>2025-01-03T19:55:21.684Z</time>
      </trkpt>
      <trkpt lat="48.64654" lon="2.07003">
        <ele>140.5</ele>
        <time>2025-01-03T19:55:25.567Z</time>
      </trkpt>
      <trkpt lat="48.64648" lon="2.07003">
        <ele>140.7</ele>
        <time>2025-01-03T19:55:29.450Z</time>
      </trkpt>
      <trkpt lat="48.64643" lon="2.07002">
        <ele>140.9</ele>
        <time>2025-01-03T19:55:33.334Z</time>
      </trkpt>
      <trkpt lat="48.64636" lon="2.06999">
        <ele>141.1</ele>
        <time>2025-01-03T19:55:38.959Z</time>
      </trkpt>
      <trkpt lat="48.64629" lon="2.06997">
        <ele>141.4</ele>
        <time>2025-01-03T19:55:44.584Z</time>
      </trkpt>
      <trkpt lat="48.64622" lon="2.06994">
        <ele>141.6</ele>
        <time>2025-01-03T19:55:50.209Z</time>
      </trkpt>
      <trkpt lat="48.64615" lon="2.06991">
        <ele>141.9</ele>
        <time>2025-01-03T19:55:55.834Z</time>
      </trkpt>
      <trkpt lat="48.64608" lon="2.06989">
        <ele>142.2</ele>
        <time>2025-01-03T19:56:01.459Z</time>
      </trkpt>
      <trkpt lat="48.64601" lon="2.06986">
        <ele>142.7</ele>
        <time>2025-01-03T19:56:07.085Z</time>
      </trkpt>
      <trkpt lat="48.64594" lon="2.06983">
        <ele>143.2</ele>
        <time>2025-01-03T19:56:12.711Z</time>
      </trkpt>
      <trkpt lat="48.64587" lon="2.06981">
        <ele>143.7</ele>
        <time>2025-01-03T19:56:18.337Z</time>
      </trkpt>
      <trkpt lat="48.6458" lon="2.06978">
        <ele>144.1</ele>
        <time>2025-01-03T19:56:23.963Z</time>
      </trkpt>
      <trkpt lat="48.64573" lon="2.06975">
        <ele>144.4</ele>
        <time>2025-01-03T19:56:29.589Z</time>
      </trkpt>
      <trkpt lat="48.64566" lon="2.06972">
        <ele>144.6</ele>
        <time>2025-01-03T19:56:35.215Z</time>
      </trkpt>
      <trkpt lat="48.64559" lon="2.0697">
        <ele>145</ele>
        <time>2025-01-03T19:56:40.841Z</time>
      </trkpt>
      <trkpt lat="48.64552" lon="2.06967">
        <ele>145.4</ele>
        <time>2025-01-03T19:56:46.467Z</time>
      </trkpt>
      <trkpt lat="48.64545" lon="2.06964">
        <ele>146</ele>
        <time>2025-01-03T19:56:52.093Z</time>
      </trkpt>
      <trkpt lat="48.64538" lon="2.06962">
        <ele>146.6</ele>
        <time>2025-01-03T19:56:57.719Z</time>
      </trkpt>
      <trkpt lat="48.64531" lon="2.06959">
        <ele>147.2</ele>
        <time>2025-01-03T19:57:03.346Z</time>
      </trkpt>
      <trkpt lat="48.64527" lon="2.06952">
        <ele>147.8</ele>
        <time>2025-01-03T19:57:08.867Z</time>
      </trkpt>
      <trkpt lat="48.64526" lon="2.06952">
        <ele>147.8</ele>
        <time>2025-01-03T19:57:09.522Z</time>
        <extensions>
          <visugpx:TrkExtension xmlns:visugpx="https://www.visugpx.com/editgpx/">
            <visugpx:node>95</visugpx:node>
            </visugpx:TrkExtension>
        </extensions>
      </trkpt>
      <trkpt lat="48.64521" lon="2.06951">
        <ele>148.1</ele>
        <time>2025-01-03T19:57:13.516Z</time>
      </trkpt>
      <trkpt lat="48.64519" lon="2.06942">
        <ele>148.4</ele>
        <time>2025-01-03T19:57:18.251Z</time>
      </trkpt>
      <trkpt lat="48.64516" lon="2.06934">
        <ele>148.6</ele>
        <time>2025-01-03T19:57:22.986Z</time>
      </trkpt>
      <trkpt lat="48.64514" lon="2.06925">
        <ele>148.9</ele>
        <time>2025-01-03T19:57:27.721Z</time>
      </trkpt>
      <trkpt lat="48.64511" lon="2.06916">
        <ele>149.2</ele>
        <time>2025-01-03T19:57:32.457Z</time>
      </trkpt>
      <trkpt lat="48.64508" lon="2.06908">
        <ele>149.6</ele>
        <time>2025-01-03T19:57:36.871Z</time>
      </trkpt>
      <trkpt lat="48.64506" lon="2.06901">
        <ele>150</ele>
        <time>2025-01-03T19:57:41.285Z</time>
      </trkpt>
      <trkpt lat="48.64503" lon="2.06893">
        <ele>150.5</ele>
        <time>2025-01-03T19:57:45.699Z</time>
      </trkpt>
      <trkpt lat="48.64501" lon="2.06886">
        <ele>150.9</ele>
        <time>2025-01-03T19:57:50.113Z</time>
      </trkpt>
      <trkpt lat="48.64498" lon="2.06878">
        <ele>151.1</ele>
        <time>2025-01-03T19:57:54.527Z</time>
      </trkpt>
      <trkpt lat="48.64496" lon="2.0687">
        <ele>151.3</ele>
        <time>2025-01-03T19:57:58.941Z</time>
      </trkpt>
      <trkpt lat="48.64493" lon="2.06863">
        <ele>151.5</ele>
        <time>2025-01-03T19:58:03.355Z</time>
      </trkpt>
      <trkpt lat="48.64491" lon="2.06855">
        <ele>151.7</ele>
        <time>2025-01-03T19:58:07.769Z</time>
      </trkpt>
      <trkpt lat="48.64488" lon="2.06847">
        <ele>151.9</ele>
        <time>2025-01-03T19:58:12.183Z</time>
      </trkpt>
      <trkpt lat="48.64485" lon="2.0684">
        <ele>152.1</ele>
        <time>2025-01-03T19:58:16.597Z</time>
      </trkpt>
      <trkpt lat="48.64483" lon="2.06832">
        <ele>152.3</ele>
        <time>2025-01-03T19:58:21.011Z</time>
      </trkpt>
      <trkpt lat="48.6448" lon="2.06825">
        <ele>152.7</ele>
        <time>2025-01-03T19:58:25.425Z</time>
      </trkpt>
      <trkpt lat="48.64478" lon="2.06817">
        <ele>153.2</ele>
        <time>2025-01-03T19:58:29.839Z</time>
      </trkpt>
      <trkpt lat="48.64475" lon="2.06809">
        <ele>153.7</ele>
        <time>2025-01-03T19:58:34.254Z</time>
      </trkpt>
      <trkpt lat="48.64473" lon="2.06802">
        <ele>154</ele>
        <time>2025-01-03T19:58:38.669Z</time>
      </trkpt>
      <trkpt lat="48.6447" lon="2.06794">
        <ele>154.2</ele>
        <time>2025-01-03T19:58:43.085Z</time>
      </trkpt>
      <trkpt lat="48.64467" lon="2.06784">
        <ele>154.4</ele>
        <time>2025-01-03T19:58:48.265Z</time>
      </trkpt>
      <trkpt lat="48.64463" lon="2.06787">
        <ele>154.7</ele>
        <time>2025-01-03T19:58:51.892Z</time>
      </trkpt>
      <trkpt lat="48.64461" lon="2.06787">
        <ele>154.8</ele>
        <time>2025-01-03T19:58:53.427Z</time>
      </trkpt>
      <trkpt lat="48.64457" lon="2.06786">
        <ele>155.1</ele>
        <time>2025-01-03T19:58:56.797Z</time>
      </trkpt>
      <trkpt lat="48.64458" lon="2.06779">
        <ele>155</ele>
        <time>2025-01-03T19:58:59.703Z</time>
        <extensions>
          <visugpx:TrkExtension xmlns:visugpx="https://www.visugpx.com/editgpx/">
            <visugpx:node>96</visugpx:node>
            </visugpx:TrkExtension>
        </extensions>
      </trkpt>
      <trkpt lat="48.64457" lon="2.06786">
        <ele>155.1</ele>
        <time>2025-01-03T19:59:03.013Z</time>
      </trkpt>
      <trkpt lat="48.64457" lon="2.06794">
        <ele>155.1</ele>
        <time>2025-01-03T19:59:06.592Z</time>
      </trkpt>
      <trkpt lat="48.64456" lon="2.06802">
        <ele>155.2</ele>
        <time>2025-01-03T19:59:10.172Z</time>
      </trkpt>
      <trkpt lat="48.64455" lon="2.06811">
        <ele>155.1</ele>
        <time>2025-01-03T19:59:13.943Z</time>
      </trkpt>
      <trkpt lat="48.64455" lon="2.06821">
        <ele>155.1</ele>
        <time>2025-01-03T19:59:17.714Z</time>
      </trkpt>
      <trkpt lat="48.64454" lon="2.0683">
        <ele>155</ele>
        <time>2025-01-03T19:59:21.485Z</time>
      </trkpt>
      <trkpt lat="48.64453" lon="2.06839">
        <ele>154.9</ele>
        <time>2025-01-03T19:59:25.256Z</time>
      </trkpt>
      <trkpt lat="48.64452" lon="2.06849">
        <ele>154.8</ele>
        <time>2025-01-03T19:59:29.027Z</time>
      </trkpt>
      <trkpt lat="48.64452" lon="2.06858">
        <ele>154.6</ele>
        <time>2025-01-03T19:59:32.798Z</time>
      </trkpt>
      <trkpt lat="48.64451" lon="2.06867">
        <ele>154.3</ele>
        <time>2025-01-03T19:59:36.569Z</time>
      </trkpt>
      <trkpt lat="48.6445" lon="2.06877">
        <ele>154</ele>
        <time>2025-01-03T19:59:40.341Z</time>
      </trkpt>
      <trkpt lat="48.64449" lon="2.06886">
        <ele>153.8</ele>
        <time>2025-01-03T19:59:44.113Z</time>
      </trkpt>
      <trkpt lat="48.64449" lon="2.06895">
        <ele>153.7</ele>
        <time>2025-01-03T19:59:47.885Z</time>
      </trkpt>
      <trkpt lat="48.64448" lon="2.06904">
        <ele>153.8</ele>
        <time>2025-01-03T19:59:51.657Z</time>
      </trkpt>
      <trkpt lat="48.64447" lon="2.06914">
        <ele>153.8</ele>
        <time>2025-01-03T19:59:55.429Z</time>
      </trkpt>
      <trkpt lat="48.64446" lon="2.06923">
        <ele>153.6</ele>
        <time>2025-01-03T19:59:59.201Z</time>
      </trkpt>
      <trkpt lat="48.64446" lon="2.06932">
        <ele>153.4</ele>
        <time>2025-01-03T20:00:02.973Z</time>
      </trkpt>
      <trkpt lat="48.64445" lon="2.06942">
        <ele>153.1</ele>
        <time>2025-01-03T20:00:06.745Z</time>
      </trkpt>
      <trkpt lat="48.64444" lon="2.06951">
        <ele>152.8</ele>
        <time>2025-01-03T20:00:10.518Z</time>
      </trkpt>
      <trkpt lat="48.64438" lon="2.06951">
        <ele>153.5</ele>
        <time>2025-01-03T20:00:16.302Z</time>
        <extensions>
          <visugpx:TrkExtension xmlns:visugpx="https://www.visugpx.com/editgpx/">
            <visugpx:node>97</visugpx:node>
            </visugpx:TrkExtension>
        </extensions>
      </trkpt>
      <trkpt lat="48.64434" lon="2.06951">
        <ele>154</ele>
        <time>2025-01-03T20:00:20.561Z</time>
      </trkpt>
      <trkpt lat="48.64429" lon="2.0695">
        <ele>154.5</ele>
        <time>2025-01-03T20:00:24.821Z</time>
      </trkpt>
      <trkpt lat="48.64422" lon="2.06957">
        <ele>155</ele>
        <time>2025-01-03T20:00:31.627Z</time>
      </trkpt>
      <trkpt lat="48.64414" lon="2.06963">
        <ele>155.5</ele>
        <time>2025-01-03T20:00:38.435Z</time>
      </trkpt>
      <trkpt lat="48.64412" lon="2.06974">
        <ele>155.3</ele>
        <time>2025-01-03T20:00:43.326Z</time>
      </trkpt>
      <trkpt lat="48.64409" lon="2.06986">
        <ele>155.2</ele>
        <time>2025-01-03T20:00:48.217Z</time>
      </trkpt>
      <trkpt lat="48.64407" lon="2.06997">
        <ele>155.2</ele>
        <time>2025-01-03T20:00:53.108Z</time>
      </trkpt>
      <trkpt lat="48.64404" lon="2.07008">
        <ele>155.1</ele>
        <time>2025-01-03T20:00:58.000Z</time>
      </trkpt>
      <trkpt lat="48.64402" lon="2.07019">
        <ele>154.9</ele>
        <time>2025-01-03T20:01:02.892Z</time>
      </trkpt>
      <trkpt lat="48.64399" lon="2.07031">
        <ele>154.8</ele>
        <time>2025-01-03T20:01:07.784Z</time>
      </trkpt>
      <trkpt lat="48.64397" lon="2.07042">
        <ele>154.7</ele>
        <time>2025-01-03T20:01:12.676Z</time>
      </trkpt>
      <trkpt lat="48.64394" lon="2.07053">
        <ele>154.5</ele>
        <time>2025-01-03T20:01:17.569Z</time>
      </trkpt>
      <trkpt lat="48.64389" lon="2.07057">
        <ele>155</ele>
        <time>2025-01-03T20:01:21.733Z</time>
      </trkpt>
      <trkpt lat="48.64384" lon="2.0706">
        <ele>155</ele>
        <time>2025-01-03T20:01:25.899Z</time>
      </trkpt>
      <trkpt lat="48.64382" lon="2.07069">
        <ele>154.9</ele>
        <time>2025-01-03T20:01:29.663Z</time>
      </trkpt>
      <trkpt lat="48.6438" lon="2.07078">
        <ele>154.8</ele>
        <time>2025-01-03T20:01:33.427Z</time>
      </trkpt>
      <trkpt lat="48.64378" lon="2.07086">
        <ele>154.7</ele>
        <time>2025-01-03T20:01:37.191Z</time>
      </trkpt>
      <trkpt lat="48.64376" lon="2.07095">
        <ele>154.5</ele>
        <time>2025-01-03T20:01:40.957Z</time>
      </trkpt>
      <trkpt lat="48.64374" lon="2.07097">
        <ele>154.6</ele>
        <time>2025-01-03T20:01:42.748Z</time>
      </trkpt>
      <trkpt lat="48.64367" lon="2.07094">
        <ele>155.2</ele>
        <time>2025-01-03T20:01:49.270Z</time>
      </trkpt>
      <trkpt lat="48.64359" lon="2.07091">
        <ele>155.8</ele>
        <time>2025-01-03T20:01:55.793Z</time>
      </trkpt>
      <trkpt lat="48.64352" lon="2.0709">
        <ele>156.2</ele>
        <time>2025-01-03T20:02:01.313Z</time>
      </trkpt>
      <trkpt lat="48.6435" lon="2.07083">
        <ele>156.4</ele>
        <time>2025-01-03T20:02:05.194Z</time>
      </trkpt>
      <trkpt lat="48.64347" lon="2.07076">
        <ele>156.6</ele>
        <time>2025-01-03T20:02:09.076Z</time>
      </trkpt>
      <trkpt lat="48.64343" lon="2.07071">
        <ele>156.9</ele>
        <time>2025-01-03T20:02:13.161Z</time>
      </trkpt>
      <trkpt lat="48.64338" lon="2.07069">
        <ele>157.3</ele>
        <time>2025-01-03T20:02:17.811Z</time>
      </trkpt>
      <trkpt lat="48.64332" lon="2.07067">
        <ele>157.7</ele>
        <time>2025-01-03T20:02:22.462Z</time>
      </trkpt>
      <trkpt lat="48.64326" lon="2.07068">
        <ele>157.9</ele>
        <time>2025-01-03T20:02:26.967Z</time>
      </trkpt>
      <trkpt lat="48.6432" lon="2.07069">
        <ele>158.2</ele>
        <time>2025-01-03T20:02:31.472Z</time>
      </trkpt>
      <trkpt lat="48.64316" lon="2.07072">
        <ele>158.4</ele>
        <time>2025-01-03T20:02:35.177Z</time>
      </trkpt>
      <trkpt lat="48.64311" lon="2.07074">
        <ele>158.7</ele>
        <time>2025-01-03T20:02:38.883Z</time>
      </trkpt>
      <trkpt lat="48.64308" lon="2.07079">
        <ele>158.9</ele>
        <time>2025-01-03T20:02:42.476Z</time>
      </trkpt>
      <trkpt lat="48.64304" lon="2.07084">
        <ele>159.1</ele>
        <time>2025-01-03T20:02:46.070Z</time>
      </trkpt>
      <trkpt lat="48.643" lon="2.07086">
        <ele>159.4</ele>
        <time>2025-01-03T20:02:49.721Z</time>
      </trkpt>
      <trkpt lat="48.64295" lon="2.07087">
        <ele>159.6</ele>
        <time>2025-01-03T20:02:53.372Z</time>
      </trkpt>
      <trkpt lat="48.64291" lon="2.07089">
        <ele>159.9</ele>
        <time>2025-01-03T20:02:57.023Z</time>
      </trkpt>
      <trkpt lat="48.64286" lon="2.0709">
        <ele>160.2</ele>
        <time>2025-01-03T20:03:00.675Z</time>
      </trkpt>
      <trkpt lat="48.64278" lon="2.07089">
        <ele>160.8</ele>
        <time>2025-01-03T20:03:07.365Z</time>
      </trkpt>
      <trkpt lat="48.64274" lon="2.07087">
        <ele>161</ele>
        <time>2025-01-03T20:03:11.003Z</time>
      </trkpt>
      <trkpt lat="48.64269" lon="2.07085">
        <ele>161.3</ele>
        <time>2025-01-03T20:03:14.643Z</time>
      </trkpt>
      <trkpt lat="48.64263" lon="2.07077">
        <ele>161.5</ele>
        <time>2025-01-03T20:03:20.667Z</time>
      </trkpt>
      <trkpt lat="48.64256" lon="2.07069">
        <ele>161.8</ele>
        <time>2025-01-03T20:03:26.692Z</time>
      </trkpt>
      <trkpt lat="48.64253" lon="2.0706">
        <ele>161.9</ele>
        <time>2025-01-03T20:03:31.941Z</time>
      </trkpt>
      <trkpt lat="48.64249" lon="2.0705">
        <ele>162.3</ele>
        <time>2025-01-03T20:03:37.192Z</time>
      </trkpt>
      <trkpt lat="48.64248" lon="2.07039">
        <ele>162.8</ele>
        <time>2025-01-03T20:03:43.037Z</time>
      </trkpt>
      <trkpt lat="48.64247" lon="2.07028">
        <ele>163.2</ele>
        <time>2025-01-03T20:03:48.884Z</time>
      </trkpt>
      <trkpt lat="48.64243" lon="2.07021">
        <ele>163.7</ele>
        <time>2025-01-03T20:03:54.103Z</time>
      </trkpt>
      <trkpt lat="48.64237" lon="2.07015">
        <ele>164.4</ele>
        <time>2025-01-03T20:04:00.579Z</time>
        <extensions>
          <visugpx:TrkExtension xmlns:visugpx="https://www.visugpx.com/editgpx/">
            <visugpx:node>98</visugpx:node>
            </visugpx:TrkExtension>
        </extensions>
      </trkpt>
      <trkpt lat="48.6423" lon="2.07008">
        <ele>165.2</ele>
        <time>2025-01-03T20:04:08.082Z</time>
        <extensions>
          <visugpx:TrkExtension xmlns:visugpx="https://www.visugpx.com/editgpx/">
            <visugpx:node>99</visugpx:node>
            </visugpx:TrkExtension>
        </extensions>
      </trkpt>
      <trkpt lat="48.6423" lon="2.07008">
        <ele>165.2</ele>
        <time>2025-01-03T20:04:08.082Z</time>
      </trkpt>
      <trkpt lat="48.6423" lon="2.07008">
        <ele>165.2</ele>
        <time>2025-01-03T20:04:08.082Z</time>
        <extensions>
          <visugpx:TrkExtension xmlns:visugpx="https://www.visugpx.com/editgpx/">
            <visugpx:node>100</visugpx:node>
            </visugpx:TrkExtension>
        </extensions>
      </trkpt>
      <trkpt lat="48.6423" lon="2.07008">
        <ele>165.2</ele>
        <time>2025-01-03T20:04:08.082Z</time>
      </trkpt>
      <trkpt lat="48.64229" lon="2.07007">
        <ele>165.3</ele>
        <time>2025-01-03T20:04:09.111Z</time>
        <extensions>
          <visugpx:TrkExtension xmlns:visugpx="https://www.visugpx.com/editgpx/">
            <visugpx:node>101</visugpx:node>
            </visugpx:TrkExtension>
        </extensions>
      </trkpt>
      <trkpt lat="48.64229" lon="2.07007">
        <ele>165.3</ele>
        <time>2025-01-03T20:04:09.111Z</time>
      </trkpt>
      <trkpt lat="48.64229" lon="2.07007">
        <ele>165.3</ele>
        <time>2025-01-03T20:04:09.111Z</time>
      </trkpt>
      <trkpt lat="48.64232" lon="2.06999">
        <ele>165.3</ele>
        <time>2025-01-03T20:04:12.852Z</time>
      </trkpt>
      <trkpt lat="48.64234" lon="2.06991">
        <ele>165.1</ele>
        <time>2025-01-03T20:04:16.593Z</time>
      </trkpt>
      <trkpt lat="48.64237" lon="2.06983">
        <ele>164.9</ele>
        <time>2025-01-03T20:04:20.335Z</time>
      </trkpt>
      <trkpt lat="48.6424" lon="2.06976">
        <ele>164.8</ele>
        <time>2025-01-03T20:04:24.077Z</time>
      </trkpt>
      <trkpt lat="48.64242" lon="2.06968">
        <ele>164.6</ele>
        <time>2025-01-03T20:04:27.819Z</time>
      </trkpt>
      <trkpt lat="48.64245" lon="2.0696">
        <ele>164.7</ele>
        <time>2025-01-03T20:04:31.561Z</time>
      </trkpt>
      <trkpt lat="48.64247" lon="2.06952">
        <ele>164.8</ele>
        <time>2025-01-03T20:04:35.303Z</time>
      </trkpt>
      <trkpt lat="48.6425" lon="2.06944">
        <ele>165</ele>
        <time>2025-01-03T20:04:39.045Z</time>
      </trkpt>
      <trkpt lat="48.64253" lon="2.06936">
        <ele>164.8</ele>
        <time>2025-01-03T20:04:42.580Z</time>
      </trkpt>
      <trkpt lat="48.64255" lon="2.06929">
        <ele>164.7</ele>
        <time>2025-01-03T20:04:46.116Z</time>
      </trkpt>
      <trkpt lat="48.64258" lon="2.06921">
        <ele>164.7</ele>
        <time>2025-01-03T20:04:49.652Z</time>
      </trkpt>
      <trkpt lat="48.6426" lon="2.06914">
        <ele>164.6</ele>
        <time>2025-01-03T20:04:53.188Z</time>
      </trkpt>
      <trkpt lat="48.64263" lon="2.06906">
        <ele>164.5</ele>
        <time>2025-01-03T20:04:56.724Z</time>
      </trkpt>
      <trkpt lat="48.64265" lon="2.06898">
        <ele>164.5</ele>
        <time>2025-01-03T20:05:00.260Z</time>
      </trkpt>
      <trkpt lat="48.64268" lon="2.06891">
        <ele>164.4</ele>
        <time>2025-01-03T20:05:03.796Z</time>
      </trkpt>
      <trkpt lat="48.6427" lon="2.06883">
        <ele>164.4</ele>
        <time>2025-01-03T20:05:07.332Z</time>
      </trkpt>
      <trkpt lat="48.64272" lon="2.06877">
        <ele>164.5</ele>
        <time>2025-01-03T20:05:10.452Z</time>
      </trkpt>
      <trkpt lat="48.64276" lon="2.06865">
        <ele>164.9</ele>
        <time>2025-01-03T20:05:16.321Z</time>
      </trkpt>
      <trkpt lat="48.6428" lon="2.06853">
        <ele>164.9</ele>
        <time>2025-01-03T20:05:22.190Z</time>
      </trkpt>
      <trkpt lat="48.64284" lon="2.06841">
        <ele>164.7</ele>
        <time>2025-01-03T20:05:28.059Z</time>
      </trkpt>
      <trkpt lat="48.64288" lon="2.0683">
        <ele>164.6</ele>
        <time>2025-01-03T20:05:33.928Z</time>
      </trkpt>
      <trkpt lat="48.64292" lon="2.06818">
        <ele>164.5</ele>
        <time>2025-01-03T20:05:39.797Z</time>
      </trkpt>
      <trkpt lat="48.64296" lon="2.06806">
        <ele>164.3</ele>
        <time>2025-01-03T20:05:45.666Z</time>
      </trkpt>
      <trkpt lat="48.643" lon="2.06794">
        <ele>164.5</ele>
        <time>2025-01-03T20:05:51.535Z</time>
      </trkpt>
      <trkpt lat="48.64304" lon="2.06782">
        <ele>164.9</ele>
        <time>2025-01-03T20:05:57.404Z</time>
      </trkpt>
      <trkpt lat="48.64307" lon="2.06772">
        <ele>164.9</ele>
        <time>2025-01-03T20:06:02.175Z</time>
      </trkpt>
      <trkpt lat="48.64311" lon="2.06762">
        <ele>164.7</ele>
        <time>2025-01-03T20:06:06.946Z</time>
      </trkpt>
      <trkpt lat="48.64314" lon="2.06751">
        <ele>164.7</ele>
        <time>2025-01-03T20:06:11.717Z</time>
      </trkpt>
      <trkpt lat="48.64317" lon="2.06741">
        <ele>164.6</ele>
        <time>2025-01-03T20:06:16.488Z</time>
      </trkpt>
      <trkpt lat="48.64321" lon="2.0673">
        <ele>164.5</ele>
        <time>2025-01-03T20:06:21.479Z</time>
      </trkpt>
      <trkpt lat="48.64324" lon="2.06719">
        <ele>164.3</ele>
        <time>2025-01-03T20:06:26.470Z</time>
      </trkpt>
      <trkpt lat="48.64328" lon="2.06708">
        <ele>164.2</ele>
        <time>2025-01-03T20:06:31.462Z</time>
      </trkpt>
      <trkpt lat="48.64331" lon="2.06697">
        <ele>164.1</ele>
        <time>2025-01-03T20:06:36.454Z</time>
      </trkpt>
      <trkpt lat="48.64335" lon="2.06686">
        <ele>163.9</ele>
        <time>2025-01-03T20:06:41.446Z</time>
      </trkpt>
      <trkpt lat="48.64338" lon="2.06675">
        <ele>163.7</ele>
        <time>2025-01-03T20:06:46.438Z</time>
      </trkpt>
      <trkpt lat="48.64342" lon="2.06664">
        <ele>163.4</ele>
        <time>2025-01-03T20:06:51.430Z</time>
      </trkpt>
      <trkpt lat="48.64345" lon="2.06653">
        <ele>163.4</ele>
        <time>2025-01-03T20:06:56.422Z</time>
      </trkpt>
    </trkseg>
  </trk>
</gpx>